<?xml version="1.0" encoding="UTF-8" standalone="no" ?>
<gpx xmlns="http://www.topografix.com/GPX/1/1" xmlns:xsi="http://www.w3.org/2001/XMLSchema-instance" xsi:schemaLocation="http://www.topografix.com/GPX/1/1 http://www.topografix.com/GPX/1/1/gpx.xsd" version="1.1" creator="VisuGPX - https://www.visugpx.com">
  <metadata>
    <name>lundi 2015 05 25</name>
    <desc><![CDATA[rando du lundi]]></desc>
  </metadata>
  <trk>
    <name><![CDATA[85 Quai de la Mégisserie]]></name>
    <desc><![CDATA[]]></desc>
    <trkseg>
      <trkpt lat="48.85736" lon="2.34696">
        <ele>90.8</ele>
        <time>2015-05-25T18:20:52.728Z</time>
      </trkpt>
      <trkpt lat="48.85734" lon="2.34693">
        <ele>91.4</ele>
        <time>2015-05-25T18:21:22.551Z</time>
      </trkpt>
      <trkpt lat="48.85735" lon="2.34693">
        <ele>91.2</ele>
        <time>2015-05-25T18:21:23.562Z</time>
      </trkpt>
      <trkpt lat="48.85735" lon="2.34692">
        <ele>91.1</ele>
        <time>2015-05-25T18:21:24.582Z</time>
      </trkpt>
      <trkpt lat="48.85734" lon="2.34691">
        <ele>91</ele>
        <time>2015-05-25T18:21:26.599Z</time>
      </trkpt>
      <trkpt lat="48.85734" lon="2.34691">
        <ele>91</ele>
        <time>2015-05-25T18:21:27.609Z</time>
      </trkpt>
      <trkpt lat="48.85734" lon="2.34691">
        <ele>91</ele>
        <time>2015-05-25T18:21:28.508Z</time>
      </trkpt>
      <trkpt lat="48.85734" lon="2.34691">
        <ele>91</ele>
        <time>2015-05-25T18:21:30.605Z</time>
      </trkpt>
      <trkpt lat="48.85734" lon="2.34691">
        <ele>91</ele>
        <time>2015-05-25T18:21:31.616Z</time>
      </trkpt>
      <trkpt lat="48.85733" lon="2.34691">
        <ele>91.1</ele>
        <time>2015-05-25T18:21:32.523Z</time>
      </trkpt>
      <trkpt lat="48.85733" lon="2.3469">
        <ele>91.1</ele>
        <time>2015-05-25T18:21:33.563Z</time>
      </trkpt>
      <trkpt lat="48.85734" lon="2.34691">
        <ele>91.3</ele>
        <time>2015-05-25T18:21:41.565Z</time>
      </trkpt>
      <trkpt lat="48.85734" lon="2.34691">
        <ele>91.3</ele>
        <time>2015-05-25T18:21:42.551Z</time>
      </trkpt>
      <trkpt lat="48.85734" lon="2.34691">
        <ele>91.3</ele>
        <time>2015-05-25T18:21:43.556Z</time>
      </trkpt>
      <trkpt lat="48.85734" lon="2.34692">
        <ele>91.4</ele>
        <time>2015-05-25T18:21:44.560Z</time>
      </trkpt>
      <trkpt lat="48.85734" lon="2.34695">
        <ele>91.3</ele>
        <time>2015-05-25T18:22:26.545Z</time>
      </trkpt>
      <trkpt lat="48.85735" lon="2.34698">
        <ele>88.5</ele>
        <time>2015-05-25T18:22:27.565Z</time>
      </trkpt>
      <trkpt lat="48.85727" lon="2.347">
        <ele>88.6</ele>
        <time>2015-05-25T18:22:32.588Z</time>
      </trkpt>
      <trkpt lat="48.85725" lon="2.34701">
        <ele>88.7</ele>
        <time>2015-05-25T18:22:33.665Z</time>
      </trkpt>
      <trkpt lat="48.8572" lon="2.34711">
        <ele>88.9</ele>
        <time>2015-05-25T18:22:42.603Z</time>
      </trkpt>
      <trkpt lat="48.8572" lon="2.34711">
        <ele>88.9</ele>
        <time>2015-05-25T18:22:43.619Z</time>
      </trkpt>
      <trkpt lat="48.8572" lon="2.34711">
        <ele>89</ele>
        <time>2015-05-25T18:22:47.577Z</time>
      </trkpt>
      <trkpt lat="48.85718" lon="2.34712">
        <ele>89.3</ele>
        <time>2015-05-25T18:22:48.617Z</time>
      </trkpt>
      <trkpt lat="48.85715" lon="2.34725">
        <ele>89.7</ele>
        <time>2015-05-25T18:22:54.656Z</time>
      </trkpt>
      <trkpt lat="48.85714" lon="2.34728">
        <ele>89.5</ele>
        <time>2015-05-25T18:22:55.581Z</time>
      </trkpt>
      <trkpt lat="48.85711" lon="2.34736">
        <ele>89.3</ele>
        <time>2015-05-25T18:22:57.609Z</time>
      </trkpt>
      <trkpt lat="48.85709" lon="2.34741">
        <ele>89.2</ele>
        <time>2015-05-25T18:22:58.623Z</time>
      </trkpt>
      <trkpt lat="48.85705" lon="2.3475">
        <ele>89.2</ele>
        <time>2015-05-25T18:23:00.608Z</time>
      </trkpt>
      <trkpt lat="48.85703" lon="2.34755">
        <ele>89.2</ele>
        <time>2015-05-25T18:23:01.615Z</time>
      </trkpt>
      <trkpt lat="48.85701" lon="2.34765">
        <ele>89.2</ele>
        <time>2015-05-25T18:23:03.541Z</time>
      </trkpt>
      <trkpt lat="48.85699" lon="2.34771">
        <ele>89.3</ele>
        <time>2015-05-25T18:23:04.578Z</time>
      </trkpt>
      <trkpt lat="48.85696" lon="2.34781">
        <ele>89.3</ele>
        <time>2015-05-25T18:23:06.553Z</time>
      </trkpt>
      <trkpt lat="48.85695" lon="2.34787">
        <ele>89.2</ele>
        <time>2015-05-25T18:23:07.549Z</time>
      </trkpt>
      <trkpt lat="48.85692" lon="2.34798">
        <ele>89.3</ele>
        <time>2015-05-25T18:23:09.532Z</time>
      </trkpt>
      <trkpt lat="48.8569" lon="2.34804">
        <ele>89.3</ele>
        <time>2015-05-25T18:23:10.593Z</time>
      </trkpt>
      <trkpt lat="48.85686" lon="2.34815">
        <ele>89.3</ele>
        <time>2015-05-25T18:23:13.076Z</time>
      </trkpt>
      <trkpt lat="48.85684" lon="2.34822">
        <ele>89.2</ele>
        <time>2015-05-25T18:23:13.616Z</time>
      </trkpt>
      <trkpt lat="48.85682" lon="2.34829">
        <ele>89.3</ele>
        <time>2015-05-25T18:23:14.534Z</time>
      </trkpt>
      <trkpt lat="48.85682" lon="2.34838">
        <ele>89.6</ele>
        <time>2015-05-25T18:23:15.502Z</time>
      </trkpt>
      <trkpt lat="48.85679" lon="2.3485">
        <ele>89.5</ele>
        <time>2015-05-25T18:23:18.145Z</time>
      </trkpt>
      <trkpt lat="48.85678" lon="2.34856">
        <ele>89.6</ele>
        <time>2015-05-25T18:23:18.573Z</time>
      </trkpt>
      <trkpt lat="48.85676" lon="2.34864">
        <ele>89.5</ele>
        <time>2015-05-25T18:23:19.598Z</time>
      </trkpt>
      <trkpt lat="48.85674" lon="2.34871">
        <ele>89.3</ele>
        <time>2015-05-25T18:23:20.599Z</time>
      </trkpt>
      <trkpt lat="48.85671" lon="2.34883">
        <ele>89.2</ele>
        <time>2015-05-25T18:23:23.231Z</time>
      </trkpt>
      <trkpt lat="48.85668" lon="2.34888">
        <ele>89.2</ele>
        <time>2015-05-25T18:23:23.536Z</time>
      </trkpt>
      <trkpt lat="48.85665" lon="2.34897">
        <ele>89.2</ele>
        <time>2015-05-25T18:23:25.573Z</time>
      </trkpt>
      <trkpt lat="48.85663" lon="2.34901">
        <ele>89.2</ele>
        <time>2015-05-25T18:23:26.635Z</time>
      </trkpt>
      <trkpt lat="48.85659" lon="2.34911">
        <ele>89.3</ele>
        <time>2015-05-25T18:23:28.551Z</time>
      </trkpt>
      <trkpt lat="48.85658" lon="2.34917">
        <ele>89.3</ele>
        <time>2015-05-25T18:23:29.506Z</time>
      </trkpt>
      <trkpt lat="48.85656" lon="2.34928">
        <ele>89.5</ele>
        <time>2015-05-25T18:23:32.532Z</time>
      </trkpt>
      <trkpt lat="48.85655" lon="2.34932">
        <ele>89.6</ele>
        <time>2015-05-25T18:23:33.530Z</time>
      </trkpt>
      <trkpt lat="48.85652" lon="2.34938">
        <ele>89.5</ele>
        <time>2015-05-25T18:23:34.532Z</time>
      </trkpt>
      <trkpt lat="48.85649" lon="2.34945">
        <ele>89.6</ele>
        <time>2015-05-25T18:23:35.543Z</time>
      </trkpt>
      <trkpt lat="48.85646" lon="2.34952">
        <ele>89.6</ele>
        <time>2015-05-25T18:23:36.562Z</time>
      </trkpt>
      <trkpt lat="48.85643" lon="2.34958">
        <ele>89.7</ele>
        <time>2015-05-25T18:23:37.573Z</time>
      </trkpt>
      <trkpt lat="48.85639" lon="2.3497">
        <ele>89.7</ele>
        <time>2015-05-25T18:23:39.612Z</time>
      </trkpt>
      <trkpt lat="48.85636" lon="2.34975">
        <ele>89.7</ele>
        <time>2015-05-25T18:23:40.528Z</time>
      </trkpt>
      <trkpt lat="48.85633" lon="2.34987">
        <ele>89.9</ele>
        <time>2015-05-25T18:23:43.615Z</time>
      </trkpt>
      <trkpt lat="48.85633" lon="2.34992">
        <ele>89.9</ele>
        <time>2015-05-25T18:23:44.536Z</time>
      </trkpt>
      <trkpt lat="48.85632" lon="2.34999">
        <ele>89.8</ele>
        <time>2015-05-25T18:23:45.564Z</time>
      </trkpt>
      <trkpt lat="48.8563" lon="2.35006">
        <ele>89.8</ele>
        <time>2015-05-25T18:23:46.565Z</time>
      </trkpt>
      <trkpt lat="48.85628" lon="2.35013">
        <ele>89.8</ele>
        <time>2015-05-25T18:23:47.574Z</time>
      </trkpt>
      <trkpt lat="48.85624" lon="2.35021">
        <ele>89.8</ele>
        <time>2015-05-25T18:23:48.611Z</time>
      </trkpt>
      <trkpt lat="48.85619" lon="2.35029">
        <ele>89.8</ele>
        <time>2015-05-25T18:23:49.627Z</time>
      </trkpt>
      <trkpt lat="48.85612" lon="2.35036">
        <ele>91.5</ele>
        <time>2015-05-25T18:23:50.636Z</time>
      </trkpt>
      <trkpt lat="48.85607" lon="2.35044">
        <ele>91.3</ele>
        <time>2015-05-25T18:23:51.636Z</time>
      </trkpt>
      <trkpt lat="48.85605" lon="2.35051">
        <ele>91.2</ele>
        <time>2015-05-25T18:23:52.516Z</time>
      </trkpt>
      <trkpt lat="48.85602" lon="2.35057">
        <ele>91.2</ele>
        <time>2015-05-25T18:23:53.568Z</time>
      </trkpt>
      <trkpt lat="48.856" lon="2.35063">
        <ele>91.2</ele>
        <time>2015-05-25T18:23:54.579Z</time>
      </trkpt>
      <trkpt lat="48.85596" lon="2.3507">
        <ele>91.1</ele>
        <time>2015-05-25T18:23:55.569Z</time>
      </trkpt>
      <trkpt lat="48.85594" lon="2.3508">
        <ele>91.6</ele>
        <time>2015-05-25T18:23:56.591Z</time>
      </trkpt>
      <trkpt lat="48.85591" lon="2.35089">
        <ele>91.7</ele>
        <time>2015-05-25T18:23:57.608Z</time>
      </trkpt>
      <trkpt lat="48.85587" lon="2.35097">
        <ele>91.5</ele>
        <time>2015-05-25T18:23:58.620Z</time>
      </trkpt>
      <trkpt lat="48.85583" lon="2.35107">
        <ele>91.2</ele>
        <time>2015-05-25T18:23:59.515Z</time>
      </trkpt>
      <trkpt lat="48.85579" lon="2.35116">
        <ele>91</ele>
        <time>2015-05-25T18:24:00.582Z</time>
      </trkpt>
      <trkpt lat="48.85575" lon="2.35124">
        <ele>90.8</ele>
        <time>2015-05-25T18:24:01.585Z</time>
      </trkpt>
      <trkpt lat="48.85572" lon="2.35133">
        <ele>90.7</ele>
        <time>2015-05-25T18:24:02.604Z</time>
      </trkpt>
      <trkpt lat="48.8557" lon="2.35141">
        <ele>90.7</ele>
        <time>2015-05-25T18:24:03.513Z</time>
      </trkpt>
      <trkpt lat="48.85567" lon="2.35156">
        <ele>90.4</ele>
        <time>2015-05-25T18:24:04.530Z</time>
      </trkpt>
      <trkpt lat="48.85565" lon="2.35164">
        <ele>90.4</ele>
        <time>2015-05-25T18:24:05.571Z</time>
      </trkpt>
      <trkpt lat="48.85562" lon="2.35172">
        <ele>90.5</ele>
        <time>2015-05-25T18:24:06.611Z</time>
      </trkpt>
      <trkpt lat="48.8556" lon="2.3518">
        <ele>90.5</ele>
        <time>2015-05-25T18:24:07.633Z</time>
      </trkpt>
      <trkpt lat="48.85558" lon="2.35187">
        <ele>90.5</ele>
        <time>2015-05-25T18:24:08.550Z</time>
      </trkpt>
      <trkpt lat="48.85556" lon="2.35201">
        <ele>90.7</ele>
        <time>2015-05-25T18:24:10.546Z</time>
      </trkpt>
      <trkpt lat="48.85556" lon="2.35207">
        <ele>90.8</ele>
        <time>2015-05-25T18:24:11.563Z</time>
      </trkpt>
      <trkpt lat="48.85554" lon="2.35214">
        <ele>90.8</ele>
        <time>2015-05-25T18:24:12.622Z</time>
      </trkpt>
      <trkpt lat="48.85549" lon="2.35223">
        <ele>90.8</ele>
        <time>2015-05-25T18:24:13.639Z</time>
      </trkpt>
      <trkpt lat="48.85545" lon="2.3523">
        <ele>90.8</ele>
        <time>2015-05-25T18:24:14.525Z</time>
      </trkpt>
      <trkpt lat="48.8554" lon="2.35238">
        <ele>90.7</ele>
        <time>2015-05-25T18:24:15.547Z</time>
      </trkpt>
      <trkpt lat="48.85536" lon="2.35245">
        <ele>90.7</ele>
        <time>2015-05-25T18:24:16.559Z</time>
      </trkpt>
      <trkpt lat="48.85532" lon="2.35251">
        <ele>90.7</ele>
        <time>2015-05-25T18:24:17.584Z</time>
      </trkpt>
      <trkpt lat="48.85528" lon="2.35259">
        <ele>90.7</ele>
        <time>2015-05-25T18:24:18.608Z</time>
      </trkpt>
      <trkpt lat="48.85524" lon="2.35267">
        <ele>90.6</ele>
        <time>2015-05-25T18:24:19.613Z</time>
      </trkpt>
      <trkpt lat="48.8552" lon="2.35276">
        <ele>90.6</ele>
        <time>2015-05-25T18:24:20.621Z</time>
      </trkpt>
      <trkpt lat="48.85517" lon="2.35285">
        <ele>90.7</ele>
        <time>2015-05-25T18:24:21.621Z</time>
      </trkpt>
      <trkpt lat="48.85514" lon="2.35292">
        <ele>90.8</ele>
        <time>2015-05-25T18:24:22.521Z</time>
      </trkpt>
      <trkpt lat="48.85511" lon="2.353">
        <ele>90.8</ele>
        <time>2015-05-25T18:24:23.539Z</time>
      </trkpt>
      <trkpt lat="48.85509" lon="2.35307">
        <ele>90.9</ele>
        <time>2015-05-25T18:24:24.574Z</time>
      </trkpt>
      <trkpt lat="48.85507" lon="2.35314">
        <ele>91</ele>
        <time>2015-05-25T18:24:25.582Z</time>
      </trkpt>
      <trkpt lat="48.85504" lon="2.35321">
        <ele>91</ele>
        <time>2015-05-25T18:24:26.612Z</time>
      </trkpt>
      <trkpt lat="48.85499" lon="2.35329">
        <ele>91</ele>
        <time>2015-05-25T18:24:27.538Z</time>
      </trkpt>
      <trkpt lat="48.85496" lon="2.35336">
        <ele>91</ele>
        <time>2015-05-25T18:24:28.550Z</time>
      </trkpt>
      <trkpt lat="48.85492" lon="2.35343">
        <ele>90.8</ele>
        <time>2015-05-25T18:24:29.569Z</time>
      </trkpt>
      <trkpt lat="48.85487" lon="2.35351">
        <ele>90.7</ele>
        <time>2015-05-25T18:24:30.576Z</time>
      </trkpt>
      <trkpt lat="48.85484" lon="2.35358">
        <ele>90.7</ele>
        <time>2015-05-25T18:24:31.580Z</time>
      </trkpt>
      <trkpt lat="48.8548" lon="2.35366">
        <ele>90.7</ele>
        <time>2015-05-25T18:24:32.585Z</time>
      </trkpt>
      <trkpt lat="48.85477" lon="2.35374">
        <ele>90.7</ele>
        <time>2015-05-25T18:24:33.601Z</time>
      </trkpt>
      <trkpt lat="48.85475" lon="2.35383">
        <ele>90.7</ele>
        <time>2015-05-25T18:24:34.516Z</time>
      </trkpt>
      <trkpt lat="48.85471" lon="2.35392">
        <ele>90.7</ele>
        <time>2015-05-25T18:24:35.522Z</time>
      </trkpt>
      <trkpt lat="48.85469" lon="2.354">
        <ele>90.7</ele>
        <time>2015-05-25T18:24:36.538Z</time>
      </trkpt>
      <trkpt lat="48.85467" lon="2.35407">
        <ele>90.9</ele>
        <time>2015-05-25T18:24:37.538Z</time>
      </trkpt>
      <trkpt lat="48.85465" lon="2.35416">
        <ele>91.2</ele>
        <time>2015-05-25T18:24:38.564Z</time>
      </trkpt>
      <trkpt lat="48.85462" lon="2.35424">
        <ele>91.1</ele>
        <time>2015-05-25T18:24:39.577Z</time>
      </trkpt>
      <trkpt lat="48.8546" lon="2.35431">
        <ele>90.7</ele>
        <time>2015-05-25T18:24:40.598Z</time>
      </trkpt>
      <trkpt lat="48.85457" lon="2.35438">
        <ele>90.5</ele>
        <time>2015-05-25T18:24:41.494Z</time>
      </trkpt>
      <trkpt lat="48.85452" lon="2.35446">
        <ele>90</ele>
        <time>2015-05-25T18:24:42.554Z</time>
      </trkpt>
      <trkpt lat="48.85448" lon="2.35452">
        <ele>89.6</ele>
        <time>2015-05-25T18:24:43.566Z</time>
      </trkpt>
      <trkpt lat="48.85445" lon="2.35458">
        <ele>89.2</ele>
        <time>2015-05-25T18:24:44.579Z</time>
      </trkpt>
      <trkpt lat="48.85441" lon="2.35463">
        <ele>89</ele>
        <time>2015-05-25T18:24:45.586Z</time>
      </trkpt>
      <trkpt lat="48.85437" lon="2.35471">
        <ele>88.6</ele>
        <time>2015-05-25T18:24:47.608Z</time>
      </trkpt>
      <trkpt lat="48.85435" lon="2.35476">
        <ele>88.4</ele>
        <time>2015-05-25T18:24:48.645Z</time>
      </trkpt>
      <trkpt lat="48.8543" lon="2.35483">
        <ele>88.5</ele>
        <time>2015-05-25T18:24:50.570Z</time>
      </trkpt>
      <trkpt lat="48.85428" lon="2.35486">
        <ele>88.6</ele>
        <time>2015-05-25T18:24:51.637Z</time>
      </trkpt>
      <trkpt lat="48.85424" lon="2.35494">
        <ele>88.7</ele>
        <time>2015-05-25T18:24:53.543Z</time>
      </trkpt>
      <trkpt lat="48.85423" lon="2.35499">
        <ele>88.8</ele>
        <time>2015-05-25T18:24:54.718Z</time>
      </trkpt>
      <trkpt lat="48.8542" lon="2.35505">
        <ele>88.9</ele>
        <time>2015-05-25T18:24:55.652Z</time>
      </trkpt>
      <trkpt lat="48.85417" lon="2.35511">
        <ele>89</ele>
        <time>2015-05-25T18:24:56.555Z</time>
      </trkpt>
      <trkpt lat="48.85413" lon="2.35521">
        <ele>89.2</ele>
        <time>2015-05-25T18:24:58.564Z</time>
      </trkpt>
      <trkpt lat="48.8541" lon="2.35525">
        <ele>89.2</ele>
        <time>2015-05-25T18:24:59.577Z</time>
      </trkpt>
      <trkpt lat="48.85406" lon="2.35533">
        <ele>89.3</ele>
        <time>2015-05-25T18:25:01.608Z</time>
      </trkpt>
      <trkpt lat="48.85404" lon="2.35538">
        <ele>89.3</ele>
        <time>2015-05-25T18:25:02.631Z</time>
      </trkpt>
      <trkpt lat="48.85401" lon="2.35551">
        <ele>89.4</ele>
        <time>2015-05-25T18:25:04.545Z</time>
      </trkpt>
      <trkpt lat="48.85399" lon="2.35557">
        <ele>89.6</ele>
        <time>2015-05-25T18:25:05.586Z</time>
      </trkpt>
      <trkpt lat="48.85397" lon="2.35564">
        <ele>89.7</ele>
        <time>2015-05-25T18:25:06.598Z</time>
      </trkpt>
      <trkpt lat="48.85394" lon="2.3557">
        <ele>89.8</ele>
        <time>2015-05-25T18:25:07.606Z</time>
      </trkpt>
      <trkpt lat="48.85393" lon="2.35577">
        <ele>89.9</ele>
        <time>2015-05-25T18:25:08.613Z</time>
      </trkpt>
      <trkpt lat="48.85391" lon="2.35583">
        <ele>89.8</ele>
        <time>2015-05-25T18:25:09.543Z</time>
      </trkpt>
      <trkpt lat="48.85389" lon="2.35592">
        <ele>88.8</ele>
        <time>2015-05-25T18:25:10.511Z</time>
      </trkpt>
      <trkpt lat="48.85385" lon="2.356">
        <ele>89</ele>
        <time>2015-05-25T18:25:11.538Z</time>
      </trkpt>
      <trkpt lat="48.85384" lon="2.35607">
        <ele>89.2</ele>
        <time>2015-05-25T18:25:12.631Z</time>
      </trkpt>
      <trkpt lat="48.85381" lon="2.35614">
        <ele>89.3</ele>
        <time>2015-05-25T18:25:13.634Z</time>
      </trkpt>
      <trkpt lat="48.85378" lon="2.35621">
        <ele>89.5</ele>
        <time>2015-05-25T18:25:14.543Z</time>
      </trkpt>
      <trkpt lat="48.85377" lon="2.35627">
        <ele>89.7</ele>
        <time>2015-05-25T18:25:15.691Z</time>
      </trkpt>
      <trkpt lat="48.85374" lon="2.35638">
        <ele>90.2</ele>
        <time>2015-05-25T18:25:17.572Z</time>
      </trkpt>
      <trkpt lat="48.85373" lon="2.35645">
        <ele>90.7</ele>
        <time>2015-05-25T18:25:18.621Z</time>
      </trkpt>
      <trkpt lat="48.85372" lon="2.35652">
        <ele>91</ele>
        <time>2015-05-25T18:25:19.527Z</time>
      </trkpt>
      <trkpt lat="48.8537" lon="2.35659">
        <ele>91.1</ele>
        <time>2015-05-25T18:25:20.542Z</time>
      </trkpt>
      <trkpt lat="48.85368" lon="2.35672">
        <ele>91.4</ele>
        <time>2015-05-25T18:25:22.575Z</time>
      </trkpt>
      <trkpt lat="48.85366" lon="2.35677">
        <ele>91.4</ele>
        <time>2015-05-25T18:25:23.750Z</time>
      </trkpt>
      <trkpt lat="48.85363" lon="2.35686">
        <ele>91.6</ele>
        <time>2015-05-25T18:25:24.316Z</time>
      </trkpt>
      <trkpt lat="48.8536" lon="2.35691">
        <ele>91.4</ele>
        <time>2015-05-25T18:25:26.595Z</time>
      </trkpt>
      <trkpt lat="48.85359" lon="2.35699">
        <ele>89.8</ele>
        <time>2015-05-25T18:25:27.615Z</time>
      </trkpt>
      <trkpt lat="48.85358" lon="2.35706">
        <ele>89.1</ele>
        <time>2015-05-25T18:25:28.666Z</time>
      </trkpt>
      <trkpt lat="48.85353" lon="2.35716">
        <ele>89.4</ele>
        <time>2015-05-25T18:25:30.598Z</time>
      </trkpt>
      <trkpt lat="48.85351" lon="2.35721">
        <ele>89.3</ele>
        <time>2015-05-25T18:25:31.626Z</time>
      </trkpt>
      <trkpt lat="48.85349" lon="2.35726">
        <ele>89.5</ele>
        <time>2015-05-25T18:25:32.522Z</time>
      </trkpt>
      <trkpt lat="48.85346" lon="2.35734">
        <ele>90</ele>
        <time>2015-05-25T18:25:33.558Z</time>
      </trkpt>
      <trkpt lat="48.85342" lon="2.3574">
        <ele>89.9</ele>
        <time>2015-05-25T18:25:34.548Z</time>
      </trkpt>
      <trkpt lat="48.85338" lon="2.35746">
        <ele>89.8</ele>
        <time>2015-05-25T18:25:35.575Z</time>
      </trkpt>
      <trkpt lat="48.85333" lon="2.35754">
        <ele>89.8</ele>
        <time>2015-05-25T18:25:37.614Z</time>
      </trkpt>
      <trkpt lat="48.85332" lon="2.35759">
        <ele>89.9</ele>
        <time>2015-05-25T18:25:38.526Z</time>
      </trkpt>
      <trkpt lat="48.85328" lon="2.35769">
        <ele>90</ele>
        <time>2015-05-25T18:25:40.597Z</time>
      </trkpt>
      <trkpt lat="48.85325" lon="2.35775">
        <ele>90.2</ele>
        <time>2015-05-25T18:25:41.607Z</time>
      </trkpt>
      <trkpt lat="48.85323" lon="2.3578">
        <ele>90.4</ele>
        <time>2015-05-25T18:25:42.618Z</time>
      </trkpt>
      <trkpt lat="48.8532" lon="2.35787">
        <ele>90.6</ele>
        <time>2015-05-25T18:25:43.630Z</time>
      </trkpt>
      <trkpt lat="48.85318" lon="2.35793">
        <ele>90.8</ele>
        <time>2015-05-25T18:25:44.818Z</time>
      </trkpt>
      <trkpt lat="48.85315" lon="2.35799">
        <ele>90.9</ele>
        <time>2015-05-25T18:25:45.515Z</time>
      </trkpt>
      <trkpt lat="48.85313" lon="2.35807">
        <ele>91</ele>
        <time>2015-05-25T18:25:46.522Z</time>
      </trkpt>
      <trkpt lat="48.8531" lon="2.35815">
        <ele>91</ele>
        <time>2015-05-25T18:25:47.537Z</time>
      </trkpt>
      <trkpt lat="48.85307" lon="2.35824">
        <ele>91</ele>
        <time>2015-05-25T18:25:48.591Z</time>
      </trkpt>
      <trkpt lat="48.85304" lon="2.35832">
        <ele>91.1</ele>
        <time>2015-05-25T18:25:49.590Z</time>
      </trkpt>
      <trkpt lat="48.85301" lon="2.3584">
        <ele>91.2</ele>
        <time>2015-05-25T18:25:50.600Z</time>
      </trkpt>
      <trkpt lat="48.85297" lon="2.35846">
        <ele>91.4</ele>
        <time>2015-05-25T18:25:51.608Z</time>
      </trkpt>
      <trkpt lat="48.85293" lon="2.35854">
        <ele>91.4</ele>
        <time>2015-05-25T18:25:52.612Z</time>
      </trkpt>
      <trkpt lat="48.8529" lon="2.3586">
        <ele>91.4</ele>
        <time>2015-05-25T18:25:53.630Z</time>
      </trkpt>
      <trkpt lat="48.85285" lon="2.35869">
        <ele>91.5</ele>
        <time>2015-05-25T18:25:55.594Z</time>
      </trkpt>
      <trkpt lat="48.85283" lon="2.35873">
        <ele>91.3</ele>
        <time>2015-05-25T18:25:56.622Z</time>
      </trkpt>
      <trkpt lat="48.8528" lon="2.35878">
        <ele>90.9</ele>
        <time>2015-05-25T18:25:58.617Z</time>
      </trkpt>
      <trkpt lat="48.85279" lon="2.3588">
        <ele>91</ele>
        <time>2015-05-25T18:25:59.635Z</time>
      </trkpt>
      <trkpt lat="48.8528" lon="2.35881">
        <ele>90.9</ele>
        <time>2015-05-25T18:26:00.572Z</time>
      </trkpt>
      <trkpt lat="48.8528" lon="2.3589">
        <ele>90.4</ele>
        <time>2015-05-25T18:26:03.625Z</time>
      </trkpt>
      <trkpt lat="48.85281" lon="2.35896">
        <ele>89.8</ele>
        <time>2015-05-25T18:26:04.653Z</time>
      </trkpt>
      <trkpt lat="48.85281" lon="2.35909">
        <ele>88.4</ele>
        <time>2015-05-25T18:26:07.594Z</time>
      </trkpt>
      <trkpt lat="48.85281" lon="2.3591">
        <ele>88.2</ele>
        <time>2015-05-25T18:26:08.611Z</time>
      </trkpt>
      <trkpt lat="48.85277" lon="2.3592">
        <ele>87.7</ele>
        <time>2015-05-25T18:26:13.653Z</time>
      </trkpt>
      <trkpt lat="48.85276" lon="2.35923">
        <ele>88</ele>
        <time>2015-05-25T18:26:14.546Z</time>
      </trkpt>
      <trkpt lat="48.85273" lon="2.3593">
        <ele>88.7</ele>
        <time>2015-05-25T18:26:16.619Z</time>
      </trkpt>
      <trkpt lat="48.85272" lon="2.35935">
        <ele>88.9</ele>
        <time>2015-05-25T18:26:17.640Z</time>
      </trkpt>
      <trkpt lat="48.85268" lon="2.35945">
        <ele>89.5</ele>
        <time>2015-05-25T18:26:19.566Z</time>
      </trkpt>
      <trkpt lat="48.85266" lon="2.3595">
        <ele>89.6</ele>
        <time>2015-05-25T18:26:20.563Z</time>
      </trkpt>
      <trkpt lat="48.85262" lon="2.3596">
        <ele>89.6</ele>
        <time>2015-05-25T18:26:22.536Z</time>
      </trkpt>
      <trkpt lat="48.85259" lon="2.35966">
        <ele>89.7</ele>
        <time>2015-05-25T18:26:23.555Z</time>
      </trkpt>
      <trkpt lat="48.85254" lon="2.35975">
        <ele>89.9</ele>
        <time>2015-05-25T18:26:25.595Z</time>
      </trkpt>
      <trkpt lat="48.85251" lon="2.35981">
        <ele>90</ele>
        <time>2015-05-25T18:26:26.624Z</time>
      </trkpt>
      <trkpt lat="48.85249" lon="2.35987">
        <ele>90.2</ele>
        <time>2015-05-25T18:26:27.534Z</time>
      </trkpt>
      <trkpt lat="48.85247" lon="2.35993">
        <ele>90.4</ele>
        <time>2015-05-25T18:26:28.528Z</time>
      </trkpt>
      <trkpt lat="48.85245" lon="2.36">
        <ele>90.5</ele>
        <time>2015-05-25T18:26:29.538Z</time>
      </trkpt>
      <trkpt lat="48.85243" lon="2.36007">
        <ele>90.7</ele>
        <time>2015-05-25T18:26:30.552Z</time>
      </trkpt>
      <trkpt lat="48.85241" lon="2.36013">
        <ele>90.7</ele>
        <time>2015-05-25T18:26:31.569Z</time>
      </trkpt>
      <trkpt lat="48.85238" lon="2.36019">
        <ele>91</ele>
        <time>2015-05-25T18:26:32.569Z</time>
      </trkpt>
      <trkpt lat="48.85233" lon="2.36029">
        <ele>91.4</ele>
        <time>2015-05-25T18:26:34.525Z</time>
      </trkpt>
      <trkpt lat="48.8523" lon="2.36034">
        <ele>91.5</ele>
        <time>2015-05-25T18:26:35.549Z</time>
      </trkpt>
      <trkpt lat="48.85226" lon="2.36046">
        <ele>91.9</ele>
        <time>2015-05-25T18:26:37.582Z</time>
      </trkpt>
      <trkpt lat="48.85223" lon="2.36052">
        <ele>92</ele>
        <time>2015-05-25T18:26:38.605Z</time>
      </trkpt>
      <trkpt lat="48.85219" lon="2.36057">
        <ele>92</ele>
        <time>2015-05-25T18:26:39.534Z</time>
      </trkpt>
      <trkpt lat="48.85215" lon="2.36063">
        <ele>92.1</ele>
        <time>2015-05-25T18:26:40.514Z</time>
      </trkpt>
      <trkpt lat="48.85211" lon="2.36067">
        <ele>92.1</ele>
        <time>2015-05-25T18:26:41.541Z</time>
      </trkpt>
      <trkpt lat="48.85206" lon="2.36072">
        <ele>92.1</ele>
        <time>2015-05-25T18:26:42.578Z</time>
      </trkpt>
      <trkpt lat="48.85201" lon="2.36077">
        <ele>92.2</ele>
        <time>2015-05-25T18:26:43.595Z</time>
      </trkpt>
      <trkpt lat="48.85197" lon="2.36083">
        <ele>92.2</ele>
        <time>2015-05-25T18:26:44.606Z</time>
      </trkpt>
      <trkpt lat="48.85193" lon="2.36088">
        <ele>92.3</ele>
        <time>2015-05-25T18:26:45.509Z</time>
      </trkpt>
      <trkpt lat="48.85189" lon="2.36091">
        <ele>92.3</ele>
        <time>2015-05-25T18:26:46.522Z</time>
      </trkpt>
      <trkpt lat="48.85184" lon="2.36094">
        <ele>92.4</ele>
        <time>2015-05-25T18:26:47.552Z</time>
      </trkpt>
      <trkpt lat="48.85179" lon="2.36096">
        <ele>92.3</ele>
        <time>2015-05-25T18:26:48.561Z</time>
      </trkpt>
      <trkpt lat="48.85173" lon="2.36099">
        <ele>92.3</ele>
        <time>2015-05-25T18:26:49.581Z</time>
      </trkpt>
      <trkpt lat="48.85169" lon="2.36104">
        <ele>92.6</ele>
        <time>2015-05-25T18:26:50.589Z</time>
      </trkpt>
      <trkpt lat="48.85164" lon="2.36109">
        <ele>92.7</ele>
        <time>2015-05-25T18:26:51.481Z</time>
      </trkpt>
      <trkpt lat="48.85159" lon="2.36113">
        <ele>92.8</ele>
        <time>2015-05-25T18:26:52.508Z</time>
      </trkpt>
      <trkpt lat="48.85152" lon="2.36116">
        <ele>92.4</ele>
        <time>2015-05-25T18:26:53.529Z</time>
      </trkpt>
      <trkpt lat="48.85147" lon="2.36117">
        <ele>92.3</ele>
        <time>2015-05-25T18:26:54.534Z</time>
      </trkpt>
      <trkpt lat="48.85142" lon="2.36119">
        <ele>92.1</ele>
        <time>2015-05-25T18:26:55.542Z</time>
      </trkpt>
      <trkpt lat="48.85137" lon="2.36121">
        <ele>91.9</ele>
        <time>2015-05-25T18:26:56.557Z</time>
      </trkpt>
      <trkpt lat="48.85131" lon="2.36123">
        <ele>91.7</ele>
        <time>2015-05-25T18:26:57.566Z</time>
      </trkpt>
      <trkpt lat="48.85125" lon="2.36125">
        <ele>91.7</ele>
        <time>2015-05-25T18:26:58.582Z</time>
      </trkpt>
      <trkpt lat="48.8512" lon="2.36126">
        <ele>91.9</ele>
        <time>2015-05-25T18:26:59.589Z</time>
      </trkpt>
      <trkpt lat="48.85115" lon="2.36126">
        <ele>91.8</ele>
        <time>2015-05-25T18:27:00.609Z</time>
      </trkpt>
      <trkpt lat="48.8511" lon="2.36127">
        <ele>91.6</ele>
        <time>2015-05-25T18:27:01.526Z</time>
      </trkpt>
      <trkpt lat="48.85105" lon="2.36129">
        <ele>91.6</ele>
        <time>2015-05-25T18:27:02.535Z</time>
      </trkpt>
      <trkpt lat="48.85097" lon="2.36129">
        <ele>91.8</ele>
        <time>2015-05-25T18:27:04.558Z</time>
      </trkpt>
      <trkpt lat="48.85095" lon="2.36129">
        <ele>91.7</ele>
        <time>2015-05-25T18:27:05.514Z</time>
      </trkpt>
      <trkpt lat="48.85091" lon="2.36128">
        <ele>91</ele>
        <time>2015-05-25T18:27:21.576Z</time>
      </trkpt>
      <trkpt lat="48.8509" lon="2.36127">
        <ele>90.8</ele>
        <time>2015-05-25T18:27:22.611Z</time>
      </trkpt>
      <trkpt lat="48.8509" lon="2.36127">
        <ele>90.8</ele>
        <time>2015-05-25T18:27:25.584Z</time>
      </trkpt>
      <trkpt lat="48.85088" lon="2.36128">
        <ele>92.1</ele>
        <time>2015-05-25T18:27:26.606Z</time>
      </trkpt>
      <trkpt lat="48.85086" lon="2.36129">
        <ele>92.6</ele>
        <time>2015-05-25T18:27:28.550Z</time>
      </trkpt>
      <trkpt lat="48.85086" lon="2.3613">
        <ele>92.7</ele>
        <time>2015-05-25T18:27:29.552Z</time>
      </trkpt>
      <trkpt lat="48.85086" lon="2.36131">
        <ele>92.6</ele>
        <time>2015-05-25T18:27:30.603Z</time>
      </trkpt>
      <trkpt lat="48.8508" lon="2.36126">
        <ele>91.2</ele>
        <time>2015-05-25T18:27:33.581Z</time>
      </trkpt>
      <trkpt lat="48.85076" lon="2.36124">
        <ele>90.9</ele>
        <time>2015-05-25T18:27:34.590Z</time>
      </trkpt>
      <trkpt lat="48.85068" lon="2.36124">
        <ele>91.3</ele>
        <time>2015-05-25T18:27:36.647Z</time>
      </trkpt>
      <trkpt lat="48.85064" lon="2.36128">
        <ele>92.1</ele>
        <time>2015-05-25T18:27:37.648Z</time>
      </trkpt>
      <trkpt lat="48.85055" lon="2.3613">
        <ele>92.8</ele>
        <time>2015-05-25T18:27:39.508Z</time>
      </trkpt>
      <trkpt lat="48.8505" lon="2.36132">
        <ele>93.1</ele>
        <time>2015-05-25T18:27:40.526Z</time>
      </trkpt>
      <trkpt lat="48.85044" lon="2.36133">
        <ele>93.1</ele>
        <time>2015-05-25T18:27:41.558Z</time>
      </trkpt>
      <trkpt lat="48.85039" lon="2.36134">
        <ele>93.4</ele>
        <time>2015-05-25T18:27:42.566Z</time>
      </trkpt>
      <trkpt lat="48.85034" lon="2.36133">
        <ele>93.4</ele>
        <time>2015-05-25T18:27:43.596Z</time>
      </trkpt>
      <trkpt lat="48.85027" lon="2.36132">
        <ele>92.9</ele>
        <time>2015-05-25T18:27:44.602Z</time>
      </trkpt>
      <trkpt lat="48.85021" lon="2.36132">
        <ele>92.8</ele>
        <time>2015-05-25T18:27:45.560Z</time>
      </trkpt>
      <trkpt lat="48.85016" lon="2.3613">
        <ele>92.8</ele>
        <time>2015-05-25T18:27:46.528Z</time>
      </trkpt>
      <trkpt lat="48.85009" lon="2.3613">
        <ele>92.6</ele>
        <time>2015-05-25T18:27:47.547Z</time>
      </trkpt>
      <trkpt lat="48.85002" lon="2.36132">
        <ele>92.4</ele>
        <time>2015-05-25T18:27:48.568Z</time>
      </trkpt>
      <trkpt lat="48.84995" lon="2.36134">
        <ele>92.2</ele>
        <time>2015-05-25T18:27:49.578Z</time>
      </trkpt>
      <trkpt lat="48.84987" lon="2.36136">
        <ele>91.5</ele>
        <time>2015-05-25T18:27:50.587Z</time>
      </trkpt>
      <trkpt lat="48.84981" lon="2.36138">
        <ele>91.2</ele>
        <time>2015-05-25T18:27:51.600Z</time>
      </trkpt>
      <trkpt lat="48.84975" lon="2.36138">
        <ele>91.1</ele>
        <time>2015-05-25T18:27:52.604Z</time>
      </trkpt>
      <trkpt lat="48.84969" lon="2.36141">
        <ele>90.9</ele>
        <time>2015-05-25T18:27:53.513Z</time>
      </trkpt>
      <trkpt lat="48.84962" lon="2.36146">
        <ele>90.7</ele>
        <time>2015-05-25T18:27:54.547Z</time>
      </trkpt>
      <trkpt lat="48.84955" lon="2.36151">
        <ele>90.6</ele>
        <time>2015-05-25T18:27:55.556Z</time>
      </trkpt>
      <trkpt lat="48.84949" lon="2.36155">
        <ele>90.6</ele>
        <time>2015-05-25T18:27:56.551Z</time>
      </trkpt>
      <trkpt lat="48.84944" lon="2.36161">
        <ele>90.6</ele>
        <time>2015-05-25T18:27:57.554Z</time>
      </trkpt>
      <trkpt lat="48.84938" lon="2.36167">
        <ele>90.6</ele>
        <time>2015-05-25T18:27:58.556Z</time>
      </trkpt>
      <trkpt lat="48.84933" lon="2.36174">
        <ele>90.6</ele>
        <time>2015-05-25T18:27:59.592Z</time>
      </trkpt>
      <trkpt lat="48.84928" lon="2.36182">
        <ele>90.6</ele>
        <time>2015-05-25T18:28:00.615Z</time>
      </trkpt>
      <trkpt lat="48.84923" lon="2.36189">
        <ele>90.6</ele>
        <time>2015-05-25T18:28:01.640Z</time>
      </trkpt>
      <trkpt lat="48.84917" lon="2.36195">
        <ele>90.6</ele>
        <time>2015-05-25T18:28:02.516Z</time>
      </trkpt>
      <trkpt lat="48.84912" lon="2.36202">
        <ele>90.6</ele>
        <time>2015-05-25T18:28:03.542Z</time>
      </trkpt>
      <trkpt lat="48.84908" lon="2.36209">
        <ele>90.5</ele>
        <time>2015-05-25T18:28:04.539Z</time>
      </trkpt>
      <trkpt lat="48.84903" lon="2.36217">
        <ele>90.4</ele>
        <time>2015-05-25T18:28:05.560Z</time>
      </trkpt>
      <trkpt lat="48.84899" lon="2.36224">
        <ele>90.5</ele>
        <time>2015-05-25T18:28:06.562Z</time>
      </trkpt>
      <trkpt lat="48.84894" lon="2.3623">
        <ele>90.5</ele>
        <time>2015-05-25T18:28:07.582Z</time>
      </trkpt>
      <trkpt lat="48.8489" lon="2.36237">
        <ele>90.5</ele>
        <time>2015-05-25T18:28:08.599Z</time>
      </trkpt>
      <trkpt lat="48.84886" lon="2.36243">
        <ele>90.5</ele>
        <time>2015-05-25T18:28:09.519Z</time>
      </trkpt>
      <trkpt lat="48.84881" lon="2.36249">
        <ele>90.5</ele>
        <time>2015-05-25T18:28:10.518Z</time>
      </trkpt>
      <trkpt lat="48.84877" lon="2.36255">
        <ele>90.5</ele>
        <time>2015-05-25T18:28:11.528Z</time>
      </trkpt>
      <trkpt lat="48.84872" lon="2.3626">
        <ele>90.5</ele>
        <time>2015-05-25T18:28:12.565Z</time>
      </trkpt>
      <trkpt lat="48.84868" lon="2.36266">
        <ele>90.4</ele>
        <time>2015-05-25T18:28:13.588Z</time>
      </trkpt>
      <trkpt lat="48.84864" lon="2.36272">
        <ele>90.4</ele>
        <time>2015-05-25T18:28:14.598Z</time>
      </trkpt>
      <trkpt lat="48.8486" lon="2.36277">
        <ele>90.3</ele>
        <time>2015-05-25T18:28:15.490Z</time>
      </trkpt>
      <trkpt lat="48.84856" lon="2.36284">
        <ele>90.4</ele>
        <time>2015-05-25T18:28:16.520Z</time>
      </trkpt>
      <trkpt lat="48.84852" lon="2.3629">
        <ele>90.4</ele>
        <time>2015-05-25T18:28:17.535Z</time>
      </trkpt>
      <trkpt lat="48.84848" lon="2.36295">
        <ele>90.4</ele>
        <time>2015-05-25T18:28:18.550Z</time>
      </trkpt>
      <trkpt lat="48.84844" lon="2.36301">
        <ele>90.4</ele>
        <time>2015-05-25T18:28:19.556Z</time>
      </trkpt>
      <trkpt lat="48.84839" lon="2.36309">
        <ele>90.6</ele>
        <time>2015-05-25T18:28:20.562Z</time>
      </trkpt>
      <trkpt lat="48.84837" lon="2.36316">
        <ele>90.7</ele>
        <time>2015-05-25T18:28:21.585Z</time>
      </trkpt>
      <trkpt lat="48.84834" lon="2.36321">
        <ele>90.8</ele>
        <time>2015-05-25T18:28:22.594Z</time>
      </trkpt>
      <trkpt lat="48.84831" lon="2.36332">
        <ele>90.8</ele>
        <time>2015-05-25T18:28:24.552Z</time>
      </trkpt>
      <trkpt lat="48.84827" lon="2.36336">
        <ele>90.7</ele>
        <time>2015-05-25T18:28:25.541Z</time>
      </trkpt>
      <trkpt lat="48.84823" lon="2.36341">
        <ele>90.6</ele>
        <time>2015-05-25T18:28:26.626Z</time>
      </trkpt>
      <trkpt lat="48.84819" lon="2.36345">
        <ele>90.5</ele>
        <time>2015-05-25T18:28:27.596Z</time>
      </trkpt>
      <trkpt lat="48.84816" lon="2.36351">
        <ele>90.4</ele>
        <time>2015-05-25T18:28:28.614Z</time>
      </trkpt>
      <trkpt lat="48.84812" lon="2.3636">
        <ele>90.6</ele>
        <time>2015-05-25T18:28:29.553Z</time>
      </trkpt>
      <trkpt lat="48.84808" lon="2.36369">
        <ele>90.7</ele>
        <time>2015-05-25T18:28:30.560Z</time>
      </trkpt>
      <trkpt lat="48.84804" lon="2.36377">
        <ele>90.8</ele>
        <time>2015-05-25T18:28:31.570Z</time>
      </trkpt>
      <trkpt lat="48.84799" lon="2.36384">
        <ele>90.5</ele>
        <time>2015-05-25T18:28:32.581Z</time>
      </trkpt>
      <trkpt lat="48.84795" lon="2.36391">
        <ele>89.9</ele>
        <time>2015-05-25T18:28:33.586Z</time>
      </trkpt>
      <trkpt lat="48.84789" lon="2.36399">
        <ele>90</ele>
        <time>2015-05-25T18:28:34.603Z</time>
      </trkpt>
      <trkpt lat="48.84785" lon="2.36406">
        <ele>90.1</ele>
        <time>2015-05-25T18:28:35.521Z</time>
      </trkpt>
      <trkpt lat="48.84781" lon="2.36413">
        <ele>89.8</ele>
        <time>2015-05-25T18:28:36.635Z</time>
      </trkpt>
      <trkpt lat="48.84777" lon="2.3642">
        <ele>89.2</ele>
        <time>2015-05-25T18:28:37.504Z</time>
      </trkpt>
      <trkpt lat="48.84774" lon="2.36426">
        <ele>88.7</ele>
        <time>2015-05-25T18:28:38.542Z</time>
      </trkpt>
      <trkpt lat="48.8477" lon="2.36432">
        <ele>88.3</ele>
        <time>2015-05-25T18:28:39.554Z</time>
      </trkpt>
      <trkpt lat="48.84767" lon="2.36437">
        <ele>88.2</ele>
        <time>2015-05-25T18:28:40.568Z</time>
      </trkpt>
      <trkpt lat="48.84765" lon="2.36443">
        <ele>88</ele>
        <time>2015-05-25T18:28:41.577Z</time>
      </trkpt>
      <trkpt lat="48.84761" lon="2.36451">
        <ele>86.7</ele>
        <time>2015-05-25T18:28:42.603Z</time>
      </trkpt>
      <trkpt lat="48.84758" lon="2.36458">
        <ele>86.3</ele>
        <time>2015-05-25T18:28:43.613Z</time>
      </trkpt>
      <trkpt lat="48.84755" lon="2.36464">
        <ele>86</ele>
        <time>2015-05-25T18:28:44.514Z</time>
      </trkpt>
      <trkpt lat="48.84751" lon="2.3647">
        <ele>85.9</ele>
        <time>2015-05-25T18:28:45.523Z</time>
      </trkpt>
      <trkpt lat="48.84749" lon="2.36476">
        <ele>85.3</ele>
        <time>2015-05-25T18:28:46.528Z</time>
      </trkpt>
      <trkpt lat="48.84746" lon="2.36482">
        <ele>84.9</ele>
        <time>2015-05-25T18:28:47.548Z</time>
      </trkpt>
      <trkpt lat="48.84744" lon="2.36489">
        <ele>85.3</ele>
        <time>2015-05-25T18:28:48.567Z</time>
      </trkpt>
      <trkpt lat="48.84742" lon="2.36496">
        <ele>84.4</ele>
        <time>2015-05-25T18:28:49.564Z</time>
      </trkpt>
      <trkpt lat="48.84742" lon="2.36507">
        <ele>83.1</ele>
        <time>2015-05-25T18:28:51.590Z</time>
      </trkpt>
      <trkpt lat="48.84742" lon="2.3651">
        <ele>82.4</ele>
        <time>2015-05-25T18:28:52.600Z</time>
      </trkpt>
      <trkpt lat="48.84744" lon="2.36514">
        <ele>82.6</ele>
        <time>2015-05-25T18:28:55.569Z</time>
      </trkpt>
      <trkpt lat="48.84747" lon="2.36517">
        <ele>83.6</ele>
        <time>2015-05-25T18:28:56.491Z</time>
      </trkpt>
      <trkpt lat="48.84747" lon="2.36519">
        <ele>84.2</ele>
        <time>2015-05-25T18:28:57.516Z</time>
      </trkpt>
      <trkpt lat="48.84747" lon="2.36522">
        <ele>84.9</ele>
        <time>2015-05-25T18:28:58.538Z</time>
      </trkpt>
      <trkpt lat="48.84746" lon="2.36525">
        <ele>85.1</ele>
        <time>2015-05-25T18:28:59.636Z</time>
      </trkpt>
      <trkpt lat="48.84746" lon="2.36525">
        <ele>85.1</ele>
        <time>2015-05-25T18:29:26.536Z</time>
      </trkpt>
      <trkpt lat="48.84747" lon="2.36531">
        <ele>86.8</ele>
        <time>2015-05-25T18:29:27.647Z</time>
      </trkpt>
      <trkpt lat="48.84747" lon="2.36536">
        <ele>86.2</ele>
        <time>2015-05-25T18:29:34.549Z</time>
      </trkpt>
      <trkpt lat="48.84747" lon="2.36536">
        <ele>86.1</ele>
        <time>2015-05-25T18:29:35.565Z</time>
      </trkpt>
      <trkpt lat="48.84747" lon="2.36537">
        <ele>86</ele>
        <time>2015-05-25T18:29:36.607Z</time>
      </trkpt>
      <trkpt lat="48.84741" lon="2.36545">
        <ele>87</ele>
        <time>2015-05-25T18:29:44.529Z</time>
      </trkpt>
      <trkpt lat="48.8474" lon="2.36546">
        <ele>87.2</ele>
        <time>2015-05-25T18:29:45.539Z</time>
      </trkpt>
      <trkpt lat="48.84736" lon="2.36553">
        <ele>87.2</ele>
        <time>2015-05-25T18:29:48.605Z</time>
      </trkpt>
      <trkpt lat="48.84733" lon="2.36557">
        <ele>87.1</ele>
        <time>2015-05-25T18:29:49.618Z</time>
      </trkpt>
      <trkpt lat="48.84727" lon="2.36564">
        <ele>87.2</ele>
        <time>2015-05-25T18:29:51.548Z</time>
      </trkpt>
      <trkpt lat="48.84724" lon="2.36568">
        <ele>87.1</ele>
        <time>2015-05-25T18:29:52.560Z</time>
      </trkpt>
      <trkpt lat="48.84718" lon="2.36577">
        <ele>87</ele>
        <time>2015-05-25T18:29:54.605Z</time>
      </trkpt>
      <trkpt lat="48.84715" lon="2.36583">
        <ele>87</ele>
        <time>2015-05-25T18:29:55.610Z</time>
      </trkpt>
      <trkpt lat="48.84711" lon="2.36589">
        <ele>86.9</ele>
        <time>2015-05-25T18:29:56.649Z</time>
      </trkpt>
      <trkpt lat="48.84708" lon="2.36594">
        <ele>86.9</ele>
        <time>2015-05-25T18:29:57.546Z</time>
      </trkpt>
      <trkpt lat="48.84704" lon="2.36599">
        <ele>86.9</ele>
        <time>2015-05-25T18:29:58.568Z</time>
      </trkpt>
      <trkpt lat="48.84699" lon="2.36604">
        <ele>87</ele>
        <time>2015-05-25T18:29:59.577Z</time>
      </trkpt>
      <trkpt lat="48.84695" lon="2.36609">
        <ele>87.1</ele>
        <time>2015-05-25T18:30:00.602Z</time>
      </trkpt>
      <trkpt lat="48.84691" lon="2.36613">
        <ele>87.2</ele>
        <time>2015-05-25T18:30:01.610Z</time>
      </trkpt>
      <trkpt lat="48.84687" lon="2.36617">
        <ele>87.3</ele>
        <time>2015-05-25T18:30:02.523Z</time>
      </trkpt>
      <trkpt lat="48.84683" lon="2.3662">
        <ele>87.3</ele>
        <time>2015-05-25T18:30:03.557Z</time>
      </trkpt>
      <trkpt lat="48.84676" lon="2.36626">
        <ele>87.4</ele>
        <time>2015-05-25T18:30:05.613Z</time>
      </trkpt>
      <trkpt lat="48.84672" lon="2.36629">
        <ele>87.4</ele>
        <time>2015-05-25T18:30:06.630Z</time>
      </trkpt>
      <trkpt lat="48.84665" lon="2.36634">
        <ele>87.4</ele>
        <time>2015-05-25T18:30:08.535Z</time>
      </trkpt>
      <trkpt lat="48.84662" lon="2.36638">
        <ele>87.4</ele>
        <time>2015-05-25T18:30:09.638Z</time>
      </trkpt>
      <trkpt lat="48.84659" lon="2.36645">
        <ele>87.8</ele>
        <time>2015-05-25T18:30:10.593Z</time>
      </trkpt>
      <trkpt lat="48.84656" lon="2.36649">
        <ele>87.8</ele>
        <time>2015-05-25T18:30:11.511Z</time>
      </trkpt>
      <trkpt lat="48.84651" lon="2.36657">
        <ele>87.7</ele>
        <time>2015-05-25T18:30:13.576Z</time>
      </trkpt>
      <trkpt lat="48.84648" lon="2.36664">
        <ele>87.1</ele>
        <time>2015-05-25T18:30:14.611Z</time>
      </trkpt>
      <trkpt lat="48.84643" lon="2.36674">
        <ele>87.2</ele>
        <time>2015-05-25T18:30:16.520Z</time>
      </trkpt>
      <trkpt lat="48.8464" lon="2.36678">
        <ele>87.3</ele>
        <time>2015-05-25T18:30:17.549Z</time>
      </trkpt>
      <trkpt lat="48.84635" lon="2.36686">
        <ele>87.4</ele>
        <time>2015-05-25T18:30:19.580Z</time>
      </trkpt>
      <trkpt lat="48.84633" lon="2.36689">
        <ele>87.6</ele>
        <time>2015-05-25T18:30:20.580Z</time>
      </trkpt>
      <trkpt lat="48.84628" lon="2.36698">
        <ele>87.7</ele>
        <time>2015-05-25T18:30:22.518Z</time>
      </trkpt>
      <trkpt lat="48.84625" lon="2.36701">
        <ele>87.7</ele>
        <time>2015-05-25T18:30:23.527Z</time>
      </trkpt>
      <trkpt lat="48.8462" lon="2.36711">
        <ele>87.8</ele>
        <time>2015-05-25T18:30:25.518Z</time>
      </trkpt>
      <trkpt lat="48.84617" lon="2.36716">
        <ele>87.8</ele>
        <time>2015-05-25T18:30:26.558Z</time>
      </trkpt>
      <trkpt lat="48.84616" lon="2.36726">
        <ele>88.9</ele>
        <time>2015-05-25T18:30:27.582Z</time>
      </trkpt>
      <trkpt lat="48.84614" lon="2.36731">
        <ele>88.9</ele>
        <time>2015-05-25T18:30:28.593Z</time>
      </trkpt>
      <trkpt lat="48.84609" lon="2.36739">
        <ele>88.7</ele>
        <time>2015-05-25T18:30:30.599Z</time>
      </trkpt>
      <trkpt lat="48.84607" lon="2.36743">
        <ele>88.6</ele>
        <time>2015-05-25T18:30:31.611Z</time>
      </trkpt>
      <trkpt lat="48.84599" lon="2.36751">
        <ele>88.7</ele>
        <time>2015-05-25T18:30:34.535Z</time>
      </trkpt>
      <trkpt lat="48.84597" lon="2.36753">
        <ele>88.7</ele>
        <time>2015-05-25T18:30:35.556Z</time>
      </trkpt>
      <trkpt lat="48.84594" lon="2.36762">
        <ele>88.6</ele>
        <time>2015-05-25T18:30:38.542Z</time>
      </trkpt>
      <trkpt lat="48.84591" lon="2.36765">
        <ele>88.8</ele>
        <time>2015-05-25T18:30:39.556Z</time>
      </trkpt>
      <trkpt lat="48.84585" lon="2.3677">
        <ele>89.1</ele>
        <time>2015-05-25T18:30:41.516Z</time>
      </trkpt>
      <trkpt lat="48.84583" lon="2.36773">
        <ele>89.5</ele>
        <time>2015-05-25T18:30:42.565Z</time>
      </trkpt>
      <trkpt lat="48.84577" lon="2.36781">
        <ele>89.9</ele>
        <time>2015-05-25T18:30:44.595Z</time>
      </trkpt>
      <trkpt lat="48.84575" lon="2.36785">
        <ele>90.1</ele>
        <time>2015-05-25T18:30:45.629Z</time>
      </trkpt>
      <trkpt lat="48.84572" lon="2.36794">
        <ele>90.2</ele>
        <time>2015-05-25T18:30:47.541Z</time>
      </trkpt>
      <trkpt lat="48.8457" lon="2.36798">
        <ele>90.2</ele>
        <time>2015-05-25T18:30:48.537Z</time>
      </trkpt>
      <trkpt lat="48.84564" lon="2.36809">
        <ele>89.8</ele>
        <time>2015-05-25T18:30:50.530Z</time>
      </trkpt>
      <trkpt lat="48.84561" lon="2.36817">
        <ele>89.5</ele>
        <time>2015-05-25T18:30:51.537Z</time>
      </trkpt>
      <trkpt lat="48.84557" lon="2.36823">
        <ele>89.4</ele>
        <time>2015-05-25T18:30:52.547Z</time>
      </trkpt>
      <trkpt lat="48.84554" lon="2.36827">
        <ele>89</ele>
        <time>2015-05-25T18:30:53.554Z</time>
      </trkpt>
      <trkpt lat="48.8455" lon="2.36831">
        <ele>89.2</ele>
        <time>2015-05-25T18:30:54.566Z</time>
      </trkpt>
      <trkpt lat="48.84547" lon="2.36836">
        <ele>89.4</ele>
        <time>2015-05-25T18:30:55.579Z</time>
      </trkpt>
      <trkpt lat="48.84545" lon="2.36849">
        <ele>87.3</ele>
        <time>2015-05-25T18:30:58.549Z</time>
      </trkpt>
      <trkpt lat="48.84546" lon="2.36851">
        <ele>87.2</ele>
        <time>2015-05-25T18:30:59.569Z</time>
      </trkpt>
      <trkpt lat="48.84544" lon="2.36856">
        <ele>88.8</ele>
        <time>2015-05-25T18:31:02.554Z</time>
      </trkpt>
      <trkpt lat="48.84542" lon="2.36857">
        <ele>89.7</ele>
        <time>2015-05-25T18:31:03.679Z</time>
      </trkpt>
      <trkpt lat="48.84542" lon="2.36857">
        <ele>90.4</ele>
        <time>2015-05-25T18:31:05.598Z</time>
      </trkpt>
      <trkpt lat="48.8454" lon="2.36856">
        <ele>90.6</ele>
        <time>2015-05-25T18:31:06.600Z</time>
      </trkpt>
      <trkpt lat="48.84534" lon="2.36857">
        <ele>90.8</ele>
        <time>2015-05-25T18:31:09.551Z</time>
      </trkpt>
      <trkpt lat="48.84531" lon="2.36859">
        <ele>90.5</ele>
        <time>2015-05-25T18:31:10.557Z</time>
      </trkpt>
      <trkpt lat="48.84525" lon="2.36866">
        <ele>89.7</ele>
        <time>2015-05-25T18:31:12.589Z</time>
      </trkpt>
      <trkpt lat="48.8452" lon="2.36872">
        <ele>89</ele>
        <time>2015-05-25T18:31:13.640Z</time>
      </trkpt>
      <trkpt lat="48.84516" lon="2.36877">
        <ele>88.5</ele>
        <time>2015-05-25T18:31:14.578Z</time>
      </trkpt>
      <trkpt lat="48.84512" lon="2.36881">
        <ele>88.2</ele>
        <time>2015-05-25T18:31:15.549Z</time>
      </trkpt>
      <trkpt lat="48.84508" lon="2.36885">
        <ele>87.9</ele>
        <time>2015-05-25T18:31:16.559Z</time>
      </trkpt>
      <trkpt lat="48.84504" lon="2.36888">
        <ele>87.7</ele>
        <time>2015-05-25T18:31:17.566Z</time>
      </trkpt>
      <trkpt lat="48.84497" lon="2.36893">
        <ele>87.1</ele>
        <time>2015-05-25T18:31:19.588Z</time>
      </trkpt>
      <trkpt lat="48.84493" lon="2.36896">
        <ele>86.8</ele>
        <time>2015-05-25T18:31:20.619Z</time>
      </trkpt>
      <trkpt lat="48.84488" lon="2.36901">
        <ele>86.8</ele>
        <time>2015-05-25T18:31:21.563Z</time>
      </trkpt>
      <trkpt lat="48.84485" lon="2.36904">
        <ele>86.8</ele>
        <time>2015-05-25T18:31:22.558Z</time>
      </trkpt>
      <trkpt lat="48.84478" lon="2.36912">
        <ele>87.3</ele>
        <time>2015-05-25T18:31:26.597Z</time>
      </trkpt>
      <trkpt lat="48.84476" lon="2.36914">
        <ele>87.3</ele>
        <time>2015-05-25T18:31:27.526Z</time>
      </trkpt>
      <trkpt lat="48.84472" lon="2.36926">
        <ele>87.1</ele>
        <time>2015-05-25T18:31:29.550Z</time>
      </trkpt>
      <trkpt lat="48.84466" lon="2.36935">
        <ele>86.8</ele>
        <time>2015-05-25T18:31:30.649Z</time>
      </trkpt>
      <trkpt lat="48.84462" lon="2.36945">
        <ele>86.5</ele>
        <time>2015-05-25T18:31:31.557Z</time>
      </trkpt>
      <trkpt lat="48.84461" lon="2.36952">
        <ele>86.4</ele>
        <time>2015-05-25T18:31:32.560Z</time>
      </trkpt>
      <trkpt lat="48.84458" lon="2.36957">
        <ele>86.3</ele>
        <time>2015-05-25T18:31:33.564Z</time>
      </trkpt>
      <trkpt lat="48.84454" lon="2.36963">
        <ele>86.3</ele>
        <time>2015-05-25T18:31:34.564Z</time>
      </trkpt>
      <trkpt lat="48.84449" lon="2.36968">
        <ele>86.3</ele>
        <time>2015-05-25T18:31:35.584Z</time>
      </trkpt>
      <trkpt lat="48.84442" lon="2.36973">
        <ele>86.2</ele>
        <time>2015-05-25T18:31:36.593Z</time>
      </trkpt>
      <trkpt lat="48.84436" lon="2.36977">
        <ele>86.1</ele>
        <time>2015-05-25T18:31:37.617Z</time>
      </trkpt>
      <trkpt lat="48.84431" lon="2.36982">
        <ele>85.9</ele>
        <time>2015-05-25T18:31:38.497Z</time>
      </trkpt>
      <trkpt lat="48.84426" lon="2.36987">
        <ele>85.9</ele>
        <time>2015-05-25T18:31:39.536Z</time>
      </trkpt>
      <trkpt lat="48.84422" lon="2.36993">
        <ele>85.9</ele>
        <time>2015-05-25T18:31:40.548Z</time>
      </trkpt>
      <trkpt lat="48.84419" lon="2.36999">
        <ele>85.9</ele>
        <time>2015-05-25T18:31:41.559Z</time>
      </trkpt>
      <trkpt lat="48.84416" lon="2.37005">
        <ele>85.9</ele>
        <time>2015-05-25T18:31:42.575Z</time>
      </trkpt>
      <trkpt lat="48.84412" lon="2.3701">
        <ele>85.9</ele>
        <time>2015-05-25T18:31:43.610Z</time>
      </trkpt>
      <trkpt lat="48.84411" lon="2.37017">
        <ele>86</ele>
        <time>2015-05-25T18:31:44.519Z</time>
      </trkpt>
      <trkpt lat="48.84412" lon="2.37028">
        <ele>86.8</ele>
        <time>2015-05-25T18:31:45.710Z</time>
      </trkpt>
      <trkpt lat="48.84412" lon="2.37038">
        <ele>87.4</ele>
        <time>2015-05-25T18:31:46.576Z</time>
      </trkpt>
      <trkpt lat="48.84413" lon="2.37048">
        <ele>88</ele>
        <time>2015-05-25T18:31:47.585Z</time>
      </trkpt>
      <trkpt lat="48.84413" lon="2.37057">
        <ele>88.5</ele>
        <time>2015-05-25T18:31:48.603Z</time>
      </trkpt>
      <trkpt lat="48.84411" lon="2.37061">
        <ele>88.4</ele>
        <time>2015-05-25T18:31:49.529Z</time>
      </trkpt>
      <trkpt lat="48.84404" lon="2.37063">
        <ele>88.5</ele>
        <time>2015-05-25T18:31:50.486Z</time>
      </trkpt>
      <trkpt lat="48.84396" lon="2.37064">
        <ele>88.4</ele>
        <time>2015-05-25T18:31:51.524Z</time>
      </trkpt>
      <trkpt lat="48.84391" lon="2.37066">
        <ele>88.5</ele>
        <time>2015-05-25T18:31:52.527Z</time>
      </trkpt>
      <trkpt lat="48.84383" lon="2.3707">
        <ele>89</ele>
        <time>2015-05-25T18:31:54.543Z</time>
      </trkpt>
      <trkpt lat="48.84379" lon="2.37072">
        <ele>89.1</ele>
        <time>2015-05-25T18:31:55.560Z</time>
      </trkpt>
      <trkpt lat="48.84372" lon="2.37075">
        <ele>89.3</ele>
        <time>2015-05-25T18:31:58.535Z</time>
      </trkpt>
      <trkpt lat="48.84372" lon="2.37076">
        <ele>89.1</ele>
        <time>2015-05-25T18:31:59.533Z</time>
      </trkpt>
      <trkpt lat="48.84371" lon="2.37076">
        <ele>89.1</ele>
        <time>2015-05-25T18:32:00.613Z</time>
      </trkpt>
      <trkpt lat="48.84364" lon="2.37081">
        <ele>88</ele>
        <time>2015-05-25T18:32:14.561Z</time>
      </trkpt>
      <trkpt lat="48.84362" lon="2.37082">
        <ele>88.1</ele>
        <time>2015-05-25T18:32:15.578Z</time>
      </trkpt>
      <trkpt lat="48.8436" lon="2.37082">
        <ele>88.5</ele>
        <time>2015-05-25T18:32:17.547Z</time>
      </trkpt>
      <trkpt lat="48.84359" lon="2.37081">
        <ele>88.2</ele>
        <time>2015-05-25T18:32:18.527Z</time>
      </trkpt>
      <trkpt lat="48.84358" lon="2.37083">
        <ele>88.1</ele>
        <time>2015-05-25T18:32:19.583Z</time>
      </trkpt>
      <trkpt lat="48.84358" lon="2.37083">
        <ele>88</ele>
        <time>2015-05-25T18:32:20.604Z</time>
      </trkpt>
      <trkpt lat="48.84351" lon="2.37088">
        <ele>87.3</ele>
        <time>2015-05-25T18:32:26.555Z</time>
      </trkpt>
      <trkpt lat="48.8435" lon="2.37089">
        <ele>87.4</ele>
        <time>2015-05-25T18:32:27.580Z</time>
      </trkpt>
      <trkpt lat="48.84343" lon="2.37096">
        <ele>87.9</ele>
        <time>2015-05-25T18:32:30.583Z</time>
      </trkpt>
      <trkpt lat="48.84341" lon="2.37098">
        <ele>88</ele>
        <time>2015-05-25T18:32:31.824Z</time>
      </trkpt>
      <trkpt lat="48.84334" lon="2.37103">
        <ele>87.9</ele>
        <time>2015-05-25T18:32:35.574Z</time>
      </trkpt>
      <trkpt lat="48.84332" lon="2.37104">
        <ele>87.8</ele>
        <time>2015-05-25T18:32:36.581Z</time>
      </trkpt>
      <trkpt lat="48.84326" lon="2.37107">
        <ele>88</ele>
        <time>2015-05-25T18:32:39.536Z</time>
      </trkpt>
      <trkpt lat="48.84324" lon="2.37109">
        <ele>88.2</ele>
        <time>2015-05-25T18:32:40.550Z</time>
      </trkpt>
      <trkpt lat="48.84317" lon="2.37115">
        <ele>88.5</ele>
        <time>2015-05-25T18:32:43.561Z</time>
      </trkpt>
      <trkpt lat="48.84316" lon="2.37117">
        <ele>88.6</ele>
        <time>2015-05-25T18:32:44.565Z</time>
      </trkpt>
      <trkpt lat="48.84311" lon="2.37126">
        <ele>89.1</ele>
        <time>2015-05-25T18:32:47.609Z</time>
      </trkpt>
      <trkpt lat="48.84308" lon="2.37128">
        <ele>89.4</ele>
        <time>2015-05-25T18:32:48.618Z</time>
      </trkpt>
      <trkpt lat="48.84301" lon="2.37131">
        <ele>90.4</ele>
        <time>2015-05-25T18:32:51.567Z</time>
      </trkpt>
      <trkpt lat="48.84299" lon="2.37132">
        <ele>90.7</ele>
        <time>2015-05-25T18:32:52.598Z</time>
      </trkpt>
      <trkpt lat="48.84296" lon="2.37133">
        <ele>91.1</ele>
        <time>2015-05-25T18:32:53.542Z</time>
      </trkpt>
      <trkpt lat="48.84285" lon="2.37138">
        <ele>91.9</ele>
        <time>2015-05-25T18:32:58.553Z</time>
      </trkpt>
      <trkpt lat="48.84279" lon="2.37142">
        <ele>92.5</ele>
        <time>2015-05-25T18:33:00.602Z</time>
      </trkpt>
      <trkpt lat="48.84275" lon="2.37143">
        <ele>92.9</ele>
        <time>2015-05-25T18:33:01.614Z</time>
      </trkpt>
      <trkpt lat="48.8427" lon="2.37154">
        <ele>93.7</ele>
        <time>2015-05-25T18:33:03.549Z</time>
      </trkpt>
      <trkpt lat="48.84267" lon="2.37159">
        <ele>94.4</ele>
        <time>2015-05-25T18:33:04.555Z</time>
      </trkpt>
      <trkpt lat="48.8426" lon="2.37163">
        <ele>95.4</ele>
        <time>2015-05-25T18:33:06.578Z</time>
      </trkpt>
      <trkpt lat="48.84257" lon="2.37165">
        <ele>95.9</ele>
        <time>2015-05-25T18:33:07.587Z</time>
      </trkpt>
      <trkpt lat="48.8425" lon="2.37169">
        <ele>97.1</ele>
        <time>2015-05-25T18:33:09.520Z</time>
      </trkpt>
      <trkpt lat="48.84248" lon="2.37172">
        <ele>97.4</ele>
        <time>2015-05-25T18:33:10.562Z</time>
      </trkpt>
      <trkpt lat="48.84239" lon="2.37177">
        <ele>98.1</ele>
        <time>2015-05-25T18:33:13.504Z</time>
      </trkpt>
      <trkpt lat="48.84237" lon="2.37179">
        <ele>98.3</ele>
        <time>2015-05-25T18:33:14.507Z</time>
      </trkpt>
      <trkpt lat="48.84232" lon="2.37184">
        <ele>98.7</ele>
        <time>2015-05-25T18:33:16.532Z</time>
      </trkpt>
      <trkpt lat="48.84228" lon="2.37186">
        <ele>98.8</ele>
        <time>2015-05-25T18:33:17.676Z</time>
      </trkpt>
      <trkpt lat="48.8422" lon="2.37197">
        <ele>98.6</ele>
        <time>2015-05-25T18:33:19.526Z</time>
      </trkpt>
      <trkpt lat="48.84218" lon="2.37209">
        <ele>97.5</ele>
        <time>2015-05-25T18:33:20.541Z</time>
      </trkpt>
      <trkpt lat="48.84215" lon="2.37217">
        <ele>95.8</ele>
        <time>2015-05-25T18:33:21.551Z</time>
      </trkpt>
      <trkpt lat="48.8421" lon="2.3722">
        <ele>94.8</ele>
        <time>2015-05-25T18:33:22.558Z</time>
      </trkpt>
      <trkpt lat="48.84205" lon="2.37223">
        <ele>93.6</ele>
        <time>2015-05-25T18:33:23.611Z</time>
      </trkpt>
      <trkpt lat="48.84201" lon="2.37227">
        <ele>92.4</ele>
        <time>2015-05-25T18:33:24.615Z</time>
      </trkpt>
      <trkpt lat="48.84195" lon="2.37231">
        <ele>91.2</ele>
        <time>2015-05-25T18:33:25.531Z</time>
      </trkpt>
      <trkpt lat="48.84192" lon="2.37238">
        <ele>90</ele>
        <time>2015-05-25T18:33:26.538Z</time>
      </trkpt>
      <trkpt lat="48.84186" lon="2.37243">
        <ele>88.9</ele>
        <time>2015-05-25T18:33:27.551Z</time>
      </trkpt>
      <trkpt lat="48.84181" lon="2.37248">
        <ele>88.2</ele>
        <time>2015-05-25T18:33:28.565Z</time>
      </trkpt>
      <trkpt lat="48.84177" lon="2.37253">
        <ele>87.6</ele>
        <time>2015-05-25T18:33:29.572Z</time>
      </trkpt>
      <trkpt lat="48.84173" lon="2.37259">
        <ele>87</ele>
        <time>2015-05-25T18:33:30.580Z</time>
      </trkpt>
      <trkpt lat="48.84169" lon="2.37266">
        <ele>86.3</ele>
        <time>2015-05-25T18:33:31.581Z</time>
      </trkpt>
      <trkpt lat="48.84166" lon="2.37275">
        <ele>86</ele>
        <time>2015-05-25T18:33:32.599Z</time>
      </trkpt>
      <trkpt lat="48.84162" lon="2.3728">
        <ele>85.7</ele>
        <time>2015-05-25T18:33:33.510Z</time>
      </trkpt>
      <trkpt lat="48.84159" lon="2.37285">
        <ele>85.3</ele>
        <time>2015-05-25T18:33:34.517Z</time>
      </trkpt>
      <trkpt lat="48.84155" lon="2.3729">
        <ele>85.1</ele>
        <time>2015-05-25T18:33:35.525Z</time>
      </trkpt>
      <trkpt lat="48.84148" lon="2.37299">
        <ele>84.9</ele>
        <time>2015-05-25T18:33:37.550Z</time>
      </trkpt>
      <trkpt lat="48.84145" lon="2.37302">
        <ele>85.1</ele>
        <time>2015-05-25T18:33:38.567Z</time>
      </trkpt>
      <trkpt lat="48.8414" lon="2.37307">
        <ele>85.3</ele>
        <time>2015-05-25T18:33:40.619Z</time>
      </trkpt>
      <trkpt lat="48.84137" lon="2.37313">
        <ele>85</ele>
        <time>2015-05-25T18:33:41.579Z</time>
      </trkpt>
      <trkpt lat="48.84134" lon="2.37318">
        <ele>84.9</ele>
        <time>2015-05-25T18:33:42.516Z</time>
      </trkpt>
      <trkpt lat="48.8413" lon="2.37324">
        <ele>84.7</ele>
        <time>2015-05-25T18:33:43.524Z</time>
      </trkpt>
      <trkpt lat="48.84126" lon="2.3733">
        <ele>84.6</ele>
        <time>2015-05-25T18:33:44.692Z</time>
      </trkpt>
      <trkpt lat="48.84122" lon="2.37335">
        <ele>84.5</ele>
        <time>2015-05-25T18:33:45.520Z</time>
      </trkpt>
      <trkpt lat="48.84116" lon="2.37344">
        <ele>84.5</ele>
        <time>2015-05-25T18:33:47.523Z</time>
      </trkpt>
      <trkpt lat="48.84111" lon="2.37349">
        <ele>84.3</ele>
        <time>2015-05-25T18:33:48.548Z</time>
      </trkpt>
      <trkpt lat="48.84105" lon="2.37357">
        <ele>84.1</ele>
        <time>2015-05-25T18:33:50.582Z</time>
      </trkpt>
      <trkpt lat="48.84103" lon="2.3736">
        <ele>84.3</ele>
        <time>2015-05-25T18:33:51.592Z</time>
      </trkpt>
      <trkpt lat="48.84099" lon="2.3737">
        <ele>85</ele>
        <time>2015-05-25T18:33:55.547Z</time>
      </trkpt>
      <trkpt lat="48.84097" lon="2.37373">
        <ele>85</ele>
        <time>2015-05-25T18:33:56.557Z</time>
      </trkpt>
      <trkpt lat="48.84091" lon="2.37381">
        <ele>85.3</ele>
        <time>2015-05-25T18:33:57.943Z</time>
      </trkpt>
      <trkpt lat="48.84089" lon="2.37383">
        <ele>85.4</ele>
        <time>2015-05-25T18:34:00.583Z</time>
      </trkpt>
      <trkpt lat="48.84083" lon="2.37394">
        <ele>85.7</ele>
        <time>2015-05-25T18:34:03.508Z</time>
      </trkpt>
      <trkpt lat="48.84082" lon="2.37397">
        <ele>85.7</ele>
        <time>2015-05-25T18:34:04.506Z</time>
      </trkpt>
      <trkpt lat="48.84075" lon="2.37406">
        <ele>86</ele>
        <time>2015-05-25T18:34:08.680Z</time>
      </trkpt>
      <trkpt lat="48.84073" lon="2.37408">
        <ele>86</ele>
        <time>2015-05-25T18:34:09.565Z</time>
      </trkpt>
      <trkpt lat="48.84068" lon="2.37414">
        <ele>86.2</ele>
        <time>2015-05-25T18:34:13.177Z</time>
      </trkpt>
      <trkpt lat="48.84067" lon="2.37418">
        <ele>86.2</ele>
        <time>2015-05-25T18:34:13.523Z</time>
      </trkpt>
      <trkpt lat="48.84063" lon="2.37428">
        <ele>86.2</ele>
        <time>2015-05-25T18:34:15.545Z</time>
      </trkpt>
      <trkpt lat="48.84062" lon="2.37434">
        <ele>86.1</ele>
        <time>2015-05-25T18:34:16.563Z</time>
      </trkpt>
      <trkpt lat="48.84059" lon="2.37443">
        <ele>85.8</ele>
        <time>2015-05-25T18:34:18.578Z</time>
      </trkpt>
      <trkpt lat="48.84057" lon="2.37448">
        <ele>85.8</ele>
        <time>2015-05-25T18:34:19.590Z</time>
      </trkpt>
      <trkpt lat="48.84054" lon="2.37453">
        <ele>85.8</ele>
        <time>2015-05-25T18:34:20.522Z</time>
      </trkpt>
      <trkpt lat="48.84051" lon="2.37459">
        <ele>85.8</ele>
        <time>2015-05-25T18:34:21.542Z</time>
      </trkpt>
      <trkpt lat="48.84045" lon="2.37466">
        <ele>85.6</ele>
        <time>2015-05-25T18:34:23.574Z</time>
      </trkpt>
      <trkpt lat="48.84041" lon="2.37469">
        <ele>85.6</ele>
        <time>2015-05-25T18:34:24.631Z</time>
      </trkpt>
      <trkpt lat="48.84037" lon="2.37471">
        <ele>85.6</ele>
        <time>2015-05-25T18:34:25.556Z</time>
      </trkpt>
      <trkpt lat="48.84032" lon="2.37473">
        <ele>85.6</ele>
        <time>2015-05-25T18:34:26.569Z</time>
      </trkpt>
      <trkpt lat="48.84025" lon="2.37478">
        <ele>86</ele>
        <time>2015-05-25T18:34:28.439Z</time>
      </trkpt>
      <trkpt lat="48.84015" lon="2.37481">
        <ele>86.3</ele>
        <time>2015-05-25T18:34:28.490Z</time>
      </trkpt>
      <trkpt lat="48.84008" lon="2.37484">
        <ele>86.4</ele>
        <time>2015-05-25T18:34:29.516Z</time>
      </trkpt>
      <trkpt lat="48.84003" lon="2.37487">
        <ele>86.3</ele>
        <time>2015-05-25T18:34:30.538Z</time>
      </trkpt>
      <trkpt lat="48.83996" lon="2.37493">
        <ele>86.2</ele>
        <time>2015-05-25T18:34:33.515Z</time>
      </trkpt>
      <trkpt lat="48.83992" lon="2.37496">
        <ele>86.2</ele>
        <time>2015-05-25T18:34:33.575Z</time>
      </trkpt>
      <trkpt lat="48.83986" lon="2.37502">
        <ele>86.2</ele>
        <time>2015-05-25T18:34:35.733Z</time>
      </trkpt>
      <trkpt lat="48.83983" lon="2.37505">
        <ele>86.3</ele>
        <time>2015-05-25T18:34:36.627Z</time>
      </trkpt>
      <trkpt lat="48.83979" lon="2.37508">
        <ele>86.1</ele>
        <time>2015-05-25T18:34:38.617Z</time>
      </trkpt>
      <trkpt lat="48.83972" lon="2.37515">
        <ele>86.2</ele>
        <time>2015-05-25T18:34:39.545Z</time>
      </trkpt>
      <trkpt lat="48.83966" lon="2.37523">
        <ele>86.8</ele>
        <time>2015-05-25T18:34:41.594Z</time>
      </trkpt>
      <trkpt lat="48.83963" lon="2.37527">
        <ele>86.9</ele>
        <time>2015-05-25T18:34:42.653Z</time>
      </trkpt>
      <trkpt lat="48.83958" lon="2.37534">
        <ele>86.8</ele>
        <time>2015-05-25T18:34:44.588Z</time>
      </trkpt>
      <trkpt lat="48.83954" lon="2.37539">
        <ele>86.8</ele>
        <time>2015-05-25T18:34:45.734Z</time>
      </trkpt>
      <trkpt lat="48.83951" lon="2.37544">
        <ele>86.8</ele>
        <time>2015-05-25T18:34:46.581Z</time>
      </trkpt>
      <trkpt lat="48.83948" lon="2.3755">
        <ele>86.8</ele>
        <time>2015-05-25T18:34:47.593Z</time>
      </trkpt>
      <trkpt lat="48.83922" lon="2.37582">
        <ele>84.5</ele>
        <time>2015-05-25T18:34:54.607Z</time>
      </trkpt>
      <trkpt lat="48.83914" lon="2.37589">
        <ele>84.7</ele>
        <time>2015-05-25T18:34:56.521Z</time>
      </trkpt>
      <trkpt lat="48.83911" lon="2.37594">
        <ele>84.9</ele>
        <time>2015-05-25T18:34:57.584Z</time>
      </trkpt>
      <trkpt lat="48.83905" lon="2.376">
        <ele>84.8</ele>
        <time>2015-05-25T18:34:59.526Z</time>
      </trkpt>
      <trkpt lat="48.83903" lon="2.37602">
        <ele>85</ele>
        <time>2015-05-25T18:35:00.565Z</time>
      </trkpt>
      <trkpt lat="48.83896" lon="2.37611">
        <ele>86.4</ele>
        <time>2015-05-25T18:35:04.524Z</time>
      </trkpt>
      <trkpt lat="48.83895" lon="2.37612">
        <ele>86.6</ele>
        <time>2015-05-25T18:35:05.535Z</time>
      </trkpt>
      <trkpt lat="48.83896" lon="2.37611">
        <ele>86.3</ele>
        <time>2015-05-25T18:35:06.576Z</time>
      </trkpt>
      <trkpt lat="48.83896" lon="2.37608">
        <ele>86.2</ele>
        <time>2015-05-25T18:35:07.590Z</time>
      </trkpt>
      <trkpt lat="48.83896" lon="2.37606">
        <ele>86.3</ele>
        <time>2015-05-25T18:35:08.482Z</time>
      </trkpt>
      <trkpt lat="48.83895" lon="2.37604">
        <ele>87.4</ele>
        <time>2015-05-25T18:35:09.518Z</time>
      </trkpt>
      <trkpt lat="48.83887" lon="2.37606">
        <ele>91</ele>
        <time>2015-05-25T18:35:14.526Z</time>
      </trkpt>
      <trkpt lat="48.83885" lon="2.37607">
        <ele>91.1</ele>
        <time>2015-05-25T18:35:15.551Z</time>
      </trkpt>
      <trkpt lat="48.83876" lon="2.37608">
        <ele>91.6</ele>
        <time>2015-05-25T18:35:19.590Z</time>
      </trkpt>
      <trkpt lat="48.83875" lon="2.37607">
        <ele>91.9</ele>
        <time>2015-05-25T18:35:20.611Z</time>
      </trkpt>
      <trkpt lat="48.83867" lon="2.37601">
        <ele>92.4</ele>
        <time>2015-05-25T18:35:28.717Z</time>
      </trkpt>
      <trkpt lat="48.83866" lon="2.376">
        <ele>92.5</ele>
        <time>2015-05-25T18:35:29.617Z</time>
      </trkpt>
      <trkpt lat="48.83858" lon="2.37597">
        <ele>91.6</ele>
        <time>2015-05-25T18:35:34.587Z</time>
      </trkpt>
      <trkpt lat="48.83856" lon="2.37597">
        <ele>91.7</ele>
        <time>2015-05-25T18:35:35.595Z</time>
      </trkpt>
      <trkpt lat="48.83848" lon="2.37598">
        <ele>91.7</ele>
        <time>2015-05-25T18:35:38.803Z</time>
      </trkpt>
      <trkpt lat="48.83844" lon="2.37599">
        <ele>91.7</ele>
        <time>2015-05-25T18:35:39.569Z</time>
      </trkpt>
      <trkpt lat="48.83838" lon="2.37602">
        <ele>91.9</ele>
        <time>2015-05-25T18:35:41.604Z</time>
      </trkpt>
      <trkpt lat="48.83835" lon="2.37604">
        <ele>91.9</ele>
        <time>2015-05-25T18:35:42.667Z</time>
      </trkpt>
      <trkpt lat="48.83829" lon="2.37608">
        <ele>92.1</ele>
        <time>2015-05-25T18:35:44.609Z</time>
      </trkpt>
      <trkpt lat="48.83826" lon="2.3761">
        <ele>92.1</ele>
        <time>2015-05-25T18:35:45.568Z</time>
      </trkpt>
      <trkpt lat="48.83819" lon="2.37617">
        <ele>92</ele>
        <time>2015-05-25T18:35:47.522Z</time>
      </trkpt>
      <trkpt lat="48.83816" lon="2.37621">
        <ele>91.8</ele>
        <time>2015-05-25T18:35:48.619Z</time>
      </trkpt>
      <trkpt lat="48.83808" lon="2.37627">
        <ele>91.7</ele>
        <time>2015-05-25T18:35:50.538Z</time>
      </trkpt>
      <trkpt lat="48.83805" lon="2.37629">
        <ele>91.7</ele>
        <time>2015-05-25T18:35:51.619Z</time>
      </trkpt>
      <trkpt lat="48.83799" lon="2.37638">
        <ele>91.5</ele>
        <time>2015-05-25T18:35:54.563Z</time>
      </trkpt>
      <trkpt lat="48.83795" lon="2.3764">
        <ele>91.5</ele>
        <time>2015-05-25T18:35:55.581Z</time>
      </trkpt>
      <trkpt lat="48.83789" lon="2.37646">
        <ele>91.4</ele>
        <time>2015-05-25T18:35:58.023Z</time>
      </trkpt>
      <trkpt lat="48.83785" lon="2.37648">
        <ele>91.2</ele>
        <time>2015-05-25T18:35:58.537Z</time>
      </trkpt>
      <trkpt lat="48.83781" lon="2.37651">
        <ele>91.1</ele>
        <time>2015-05-25T18:35:59.559Z</time>
      </trkpt>
      <trkpt lat="48.83777" lon="2.37655">
        <ele>91.3</ele>
        <time>2015-05-25T18:36:00.569Z</time>
      </trkpt>
      <trkpt lat="48.83772" lon="2.37661">
        <ele>91</ele>
        <time>2015-05-25T18:36:01.596Z</time>
      </trkpt>
      <trkpt lat="48.83768" lon="2.37665">
        <ele>91.1</ele>
        <time>2015-05-25T18:36:02.514Z</time>
      </trkpt>
      <trkpt lat="48.83763" lon="2.37668">
        <ele>91.3</ele>
        <time>2015-05-25T18:36:03.516Z</time>
      </trkpt>
      <trkpt lat="48.83759" lon="2.37672">
        <ele>91.5</ele>
        <time>2015-05-25T18:36:04.521Z</time>
      </trkpt>
      <trkpt lat="48.83755" lon="2.37675">
        <ele>91.7</ele>
        <time>2015-05-25T18:36:05.528Z</time>
      </trkpt>
      <trkpt lat="48.83751" lon="2.3768">
        <ele>91.7</ele>
        <time>2015-05-25T18:36:06.540Z</time>
      </trkpt>
      <trkpt lat="48.83747" lon="2.37684">
        <ele>91.9</ele>
        <time>2015-05-25T18:36:08.214Z</time>
      </trkpt>
      <trkpt lat="48.83745" lon="2.3769">
        <ele>90.4</ele>
        <time>2015-05-25T18:36:08.585Z</time>
      </trkpt>
      <trkpt lat="48.83741" lon="2.37695">
        <ele>90.5</ele>
        <time>2015-05-25T18:36:09.520Z</time>
      </trkpt>
      <trkpt lat="48.83737" lon="2.377">
        <ele>90.7</ele>
        <time>2015-05-25T18:36:10.507Z</time>
      </trkpt>
      <trkpt lat="48.83733" lon="2.37705">
        <ele>90.7</ele>
        <time>2015-05-25T18:36:11.516Z</time>
      </trkpt>
      <trkpt lat="48.83729" lon="2.3771">
        <ele>90.7</ele>
        <time>2015-05-25T18:36:12.570Z</time>
      </trkpt>
      <trkpt lat="48.83726" lon="2.37715">
        <ele>90.9</ele>
        <time>2015-05-25T18:36:13.528Z</time>
      </trkpt>
      <trkpt lat="48.83722" lon="2.3772">
        <ele>90.9</ele>
        <time>2015-05-25T18:36:14.542Z</time>
      </trkpt>
      <trkpt lat="48.83718" lon="2.37725">
        <ele>90.9</ele>
        <time>2015-05-25T18:36:15.562Z</time>
      </trkpt>
      <trkpt lat="48.83713" lon="2.3773">
        <ele>91</ele>
        <time>2015-05-25T18:36:16.579Z</time>
      </trkpt>
      <trkpt lat="48.83709" lon="2.37734">
        <ele>91</ele>
        <time>2015-05-25T18:36:17.500Z</time>
      </trkpt>
      <trkpt lat="48.83705" lon="2.37739">
        <ele>91.1</ele>
        <time>2015-05-25T18:36:18.545Z</time>
      </trkpt>
      <trkpt lat="48.83701" lon="2.37744">
        <ele>91.2</ele>
        <time>2015-05-25T18:36:19.564Z</time>
      </trkpt>
      <trkpt lat="48.83697" lon="2.37749">
        <ele>91</ele>
        <time>2015-05-25T18:36:20.604Z</time>
      </trkpt>
      <trkpt lat="48.83693" lon="2.37754">
        <ele>90.8</ele>
        <time>2015-05-25T18:36:21.532Z</time>
      </trkpt>
      <trkpt lat="48.83689" lon="2.37759">
        <ele>90.6</ele>
        <time>2015-05-25T18:36:22.525Z</time>
      </trkpt>
      <trkpt lat="48.83686" lon="2.37763">
        <ele>90.6</ele>
        <time>2015-05-25T18:36:23.545Z</time>
      </trkpt>
      <trkpt lat="48.83682" lon="2.37768">
        <ele>90.6</ele>
        <time>2015-05-25T18:36:24.556Z</time>
      </trkpt>
      <trkpt lat="48.83679" lon="2.37773">
        <ele>90.4</ele>
        <time>2015-05-25T18:36:25.576Z</time>
      </trkpt>
      <trkpt lat="48.83676" lon="2.37778">
        <ele>90.2</ele>
        <time>2015-05-25T18:36:26.585Z</time>
      </trkpt>
      <trkpt lat="48.83672" lon="2.37783">
        <ele>90.1</ele>
        <time>2015-05-25T18:36:27.598Z</time>
      </trkpt>
      <trkpt lat="48.83668" lon="2.37787">
        <ele>89.9</ele>
        <time>2015-05-25T18:36:28.602Z</time>
      </trkpt>
      <trkpt lat="48.83663" lon="2.37791">
        <ele>89.8</ele>
        <time>2015-05-25T18:36:29.518Z</time>
      </trkpt>
      <trkpt lat="48.83659" lon="2.37795">
        <ele>89.8</ele>
        <time>2015-05-25T18:36:30.561Z</time>
      </trkpt>
      <trkpt lat="48.83654" lon="2.37799">
        <ele>89.7</ele>
        <time>2015-05-25T18:36:31.559Z</time>
      </trkpt>
      <trkpt lat="48.8365" lon="2.37804">
        <ele>89.5</ele>
        <time>2015-05-25T18:36:32.566Z</time>
      </trkpt>
      <trkpt lat="48.83645" lon="2.37809">
        <ele>89.4</ele>
        <time>2015-05-25T18:36:33.573Z</time>
      </trkpt>
      <trkpt lat="48.8364" lon="2.37815">
        <ele>89.3</ele>
        <time>2015-05-25T18:36:34.571Z</time>
      </trkpt>
      <trkpt lat="48.83636" lon="2.37821">
        <ele>89.2</ele>
        <time>2015-05-25T18:36:35.599Z</time>
      </trkpt>
      <trkpt lat="48.83632" lon="2.37826">
        <ele>89.2</ele>
        <time>2015-05-25T18:36:36.610Z</time>
      </trkpt>
      <trkpt lat="48.83629" lon="2.37831">
        <ele>89.4</ele>
        <time>2015-05-25T18:36:37.615Z</time>
      </trkpt>
      <trkpt lat="48.83624" lon="2.37837">
        <ele>89.9</ele>
        <time>2015-05-25T18:36:38.586Z</time>
      </trkpt>
      <trkpt lat="48.83619" lon="2.37843">
        <ele>90</ele>
        <time>2015-05-25T18:36:39.617Z</time>
      </trkpt>
      <trkpt lat="48.83615" lon="2.37849">
        <ele>90.5</ele>
        <time>2015-05-25T18:36:40.519Z</time>
      </trkpt>
      <trkpt lat="48.8361" lon="2.37854">
        <ele>90.9</ele>
        <time>2015-05-25T18:36:41.547Z</time>
      </trkpt>
      <trkpt lat="48.83605" lon="2.37861">
        <ele>91.3</ele>
        <time>2015-05-25T18:36:42.558Z</time>
      </trkpt>
      <trkpt lat="48.83602" lon="2.37868">
        <ele>91.5</ele>
        <time>2015-05-25T18:36:43.579Z</time>
      </trkpt>
      <trkpt lat="48.83598" lon="2.37875">
        <ele>91.7</ele>
        <time>2015-05-25T18:36:44.589Z</time>
      </trkpt>
      <trkpt lat="48.83594" lon="2.37882">
        <ele>92</ele>
        <time>2015-05-25T18:36:45.527Z</time>
      </trkpt>
      <trkpt lat="48.83591" lon="2.37887">
        <ele>92.3</ele>
        <time>2015-05-25T18:36:46.753Z</time>
      </trkpt>
      <trkpt lat="48.83587" lon="2.37891">
        <ele>92.4</ele>
        <time>2015-05-25T18:36:47.574Z</time>
      </trkpt>
      <trkpt lat="48.83584" lon="2.37897">
        <ele>92.6</ele>
        <time>2015-05-25T18:36:48.584Z</time>
      </trkpt>
      <trkpt lat="48.8358" lon="2.37902">
        <ele>93</ele>
        <time>2015-05-25T18:36:49.616Z</time>
      </trkpt>
      <trkpt lat="48.83576" lon="2.37908">
        <ele>93.2</ele>
        <time>2015-05-25T18:36:50.521Z</time>
      </trkpt>
      <trkpt lat="48.83572" lon="2.37913">
        <ele>93.2</ele>
        <time>2015-05-25T18:36:51.520Z</time>
      </trkpt>
      <trkpt lat="48.83567" lon="2.37919">
        <ele>92.7</ele>
        <time>2015-05-25T18:36:52.532Z</time>
      </trkpt>
      <trkpt lat="48.83563" lon="2.37924">
        <ele>92.9</ele>
        <time>2015-05-25T18:36:53.589Z</time>
      </trkpt>
      <trkpt lat="48.83558" lon="2.3793">
        <ele>92.9</ele>
        <time>2015-05-25T18:36:54.609Z</time>
      </trkpt>
      <trkpt lat="48.83554" lon="2.37936">
        <ele>92.7</ele>
        <time>2015-05-25T18:36:55.635Z</time>
      </trkpt>
      <trkpt lat="48.8355" lon="2.37942">
        <ele>92.6</ele>
        <time>2015-05-25T18:36:56.514Z</time>
      </trkpt>
      <trkpt lat="48.83546" lon="2.37947">
        <ele>92.7</ele>
        <time>2015-05-25T18:36:57.784Z</time>
      </trkpt>
      <trkpt lat="48.83542" lon="2.37953">
        <ele>92.6</ele>
        <time>2015-05-25T18:36:58.528Z</time>
      </trkpt>
      <trkpt lat="48.83538" lon="2.3796">
        <ele>92.4</ele>
        <time>2015-05-25T18:36:59.533Z</time>
      </trkpt>
      <trkpt lat="48.83534" lon="2.37966">
        <ele>92.3</ele>
        <time>2015-05-25T18:37:00.538Z</time>
      </trkpt>
      <trkpt lat="48.83529" lon="2.37972">
        <ele>92.3</ele>
        <time>2015-05-25T18:37:01.547Z</time>
      </trkpt>
      <trkpt lat="48.83525" lon="2.37978">
        <ele>92.1</ele>
        <time>2015-05-25T18:37:02.552Z</time>
      </trkpt>
      <trkpt lat="48.83521" lon="2.37983">
        <ele>91.8</ele>
        <time>2015-05-25T18:37:03.583Z</time>
      </trkpt>
      <trkpt lat="48.83516" lon="2.37987">
        <ele>91.2</ele>
        <time>2015-05-25T18:37:04.583Z</time>
      </trkpt>
      <trkpt lat="48.83512" lon="2.37992">
        <ele>90.7</ele>
        <time>2015-05-25T18:37:05.602Z</time>
      </trkpt>
      <trkpt lat="48.83509" lon="2.37998">
        <ele>90.9</ele>
        <time>2015-05-25T18:37:06.614Z</time>
      </trkpt>
      <trkpt lat="48.83505" lon="2.38003">
        <ele>90.7</ele>
        <time>2015-05-25T18:37:07.525Z</time>
      </trkpt>
      <trkpt lat="48.83501" lon="2.38008">
        <ele>90.7</ele>
        <time>2015-05-25T18:37:08.535Z</time>
      </trkpt>
      <trkpt lat="48.83497" lon="2.38012">
        <ele>90.6</ele>
        <time>2015-05-25T18:37:09.551Z</time>
      </trkpt>
      <trkpt lat="48.83493" lon="2.38017">
        <ele>90.5</ele>
        <time>2015-05-25T18:37:10.563Z</time>
      </trkpt>
      <trkpt lat="48.8349" lon="2.38021">
        <ele>90.5</ele>
        <time>2015-05-25T18:37:11.564Z</time>
      </trkpt>
      <trkpt lat="48.83486" lon="2.38025">
        <ele>90.6</ele>
        <time>2015-05-25T18:37:12.583Z</time>
      </trkpt>
      <trkpt lat="48.83479" lon="2.38035">
        <ele>90.6</ele>
        <time>2015-05-25T18:37:14.632Z</time>
      </trkpt>
      <trkpt lat="48.83476" lon="2.3804">
        <ele>90.6</ele>
        <time>2015-05-25T18:37:15.531Z</time>
      </trkpt>
      <trkpt lat="48.83472" lon="2.38044">
        <ele>90.6</ele>
        <time>2015-05-25T18:37:16.542Z</time>
      </trkpt>
      <trkpt lat="48.83468" lon="2.38048">
        <ele>90.4</ele>
        <time>2015-05-25T18:37:17.552Z</time>
      </trkpt>
      <trkpt lat="48.83464" lon="2.38052">
        <ele>90.1</ele>
        <time>2015-05-25T18:37:18.551Z</time>
      </trkpt>
      <trkpt lat="48.8346" lon="2.38057">
        <ele>90</ele>
        <time>2015-05-25T18:37:19.582Z</time>
      </trkpt>
      <trkpt lat="48.83456" lon="2.38061">
        <ele>89.9</ele>
        <time>2015-05-25T18:37:20.612Z</time>
      </trkpt>
      <trkpt lat="48.83453" lon="2.38066">
        <ele>89.8</ele>
        <time>2015-05-25T18:37:21.628Z</time>
      </trkpt>
      <trkpt lat="48.83449" lon="2.38071">
        <ele>89.7</ele>
        <time>2015-05-25T18:37:22.532Z</time>
      </trkpt>
      <trkpt lat="48.83445" lon="2.38076">
        <ele>89.9</ele>
        <time>2015-05-25T18:37:23.543Z</time>
      </trkpt>
      <trkpt lat="48.83441" lon="2.3808">
        <ele>89.9</ele>
        <time>2015-05-25T18:37:24.566Z</time>
      </trkpt>
      <trkpt lat="48.83436" lon="2.38085">
        <ele>89.9</ele>
        <time>2015-05-25T18:37:25.583Z</time>
      </trkpt>
      <trkpt lat="48.83432" lon="2.3809">
        <ele>90.1</ele>
        <time>2015-05-25T18:37:26.599Z</time>
      </trkpt>
      <trkpt lat="48.83428" lon="2.38096">
        <ele>90.1</ele>
        <time>2015-05-25T18:37:27.513Z</time>
      </trkpt>
      <trkpt lat="48.83425" lon="2.38101">
        <ele>90.2</ele>
        <time>2015-05-25T18:37:28.504Z</time>
      </trkpt>
      <trkpt lat="48.8342" lon="2.38107">
        <ele>90.6</ele>
        <time>2015-05-25T18:37:29.523Z</time>
      </trkpt>
      <trkpt lat="48.83416" lon="2.38112">
        <ele>90.8</ele>
        <time>2015-05-25T18:37:30.571Z</time>
      </trkpt>
      <trkpt lat="48.83413" lon="2.38117">
        <ele>90.9</ele>
        <time>2015-05-25T18:37:31.581Z</time>
      </trkpt>
      <trkpt lat="48.83409" lon="2.38121">
        <ele>90.9</ele>
        <time>2015-05-25T18:37:32.609Z</time>
      </trkpt>
      <trkpt lat="48.83406" lon="2.38126">
        <ele>90.7</ele>
        <time>2015-05-25T18:37:33.521Z</time>
      </trkpt>
      <trkpt lat="48.83403" lon="2.38131">
        <ele>90.4</ele>
        <time>2015-05-25T18:37:34.531Z</time>
      </trkpt>
      <trkpt lat="48.83399" lon="2.38136">
        <ele>90.4</ele>
        <time>2015-05-25T18:37:35.537Z</time>
      </trkpt>
      <trkpt lat="48.83395" lon="2.38142">
        <ele>90.3</ele>
        <time>2015-05-25T18:37:36.561Z</time>
      </trkpt>
      <trkpt lat="48.83391" lon="2.38147">
        <ele>90.2</ele>
        <time>2015-05-25T18:37:37.565Z</time>
      </trkpt>
      <trkpt lat="48.83387" lon="2.38152">
        <ele>90.4</ele>
        <time>2015-05-25T18:37:38.579Z</time>
      </trkpt>
      <trkpt lat="48.83383" lon="2.38157">
        <ele>90.3</ele>
        <time>2015-05-25T18:37:39.598Z</time>
      </trkpt>
      <trkpt lat="48.8338" lon="2.38161">
        <ele>90.1</ele>
        <time>2015-05-25T18:37:40.524Z</time>
      </trkpt>
      <trkpt lat="48.83376" lon="2.38166">
        <ele>90</ele>
        <time>2015-05-25T18:37:41.521Z</time>
      </trkpt>
      <trkpt lat="48.83373" lon="2.38171">
        <ele>89.9</ele>
        <time>2015-05-25T18:37:42.601Z</time>
      </trkpt>
      <trkpt lat="48.8337" lon="2.38175">
        <ele>89.6</ele>
        <time>2015-05-25T18:37:43.610Z</time>
      </trkpt>
      <trkpt lat="48.83364" lon="2.38184">
        <ele>89.4</ele>
        <time>2015-05-25T18:37:45.527Z</time>
      </trkpt>
      <trkpt lat="48.83361" lon="2.38187">
        <ele>89.5</ele>
        <time>2015-05-25T18:37:46.553Z</time>
      </trkpt>
      <trkpt lat="48.83356" lon="2.38195">
        <ele>89.2</ele>
        <time>2015-05-25T18:37:49.647Z</time>
      </trkpt>
      <trkpt lat="48.83354" lon="2.38197">
        <ele>90.3</ele>
        <time>2015-05-25T18:37:50.550Z</time>
      </trkpt>
      <trkpt lat="48.83353" lon="2.38198">
        <ele>89.8</ele>
        <time>2015-05-25T18:37:51.575Z</time>
      </trkpt>
      <trkpt lat="48.83354" lon="2.38197">
        <ele>88.7</ele>
        <time>2015-05-25T18:37:52.595Z</time>
      </trkpt>
      <trkpt lat="48.83355" lon="2.38197">
        <ele>87.9</ele>
        <time>2015-05-25T18:38:06.569Z</time>
      </trkpt>
      <trkpt lat="48.83354" lon="2.38198">
        <ele>87</ele>
        <time>2015-05-25T18:38:07.588Z</time>
      </trkpt>
      <trkpt lat="48.83347" lon="2.38206">
        <ele>86.5</ele>
        <time>2015-05-25T18:38:11.601Z</time>
      </trkpt>
      <trkpt lat="48.83345" lon="2.38209">
        <ele>86.4</ele>
        <time>2015-05-25T18:38:12.628Z</time>
      </trkpt>
      <trkpt lat="48.83339" lon="2.38217">
        <ele>86.2</ele>
        <time>2015-05-25T18:38:14.541Z</time>
      </trkpt>
      <trkpt lat="48.83336" lon="2.3822">
        <ele>86.1</ele>
        <time>2015-05-25T18:38:15.565Z</time>
      </trkpt>
      <trkpt lat="48.8333" lon="2.38227">
        <ele>86.1</ele>
        <time>2015-05-25T18:38:17.532Z</time>
      </trkpt>
      <trkpt lat="48.83326" lon="2.38231">
        <ele>86</ele>
        <time>2015-05-25T18:38:18.640Z</time>
      </trkpt>
      <trkpt lat="48.8332" lon="2.38238">
        <ele>85.9</ele>
        <time>2015-05-25T18:38:20.558Z</time>
      </trkpt>
      <trkpt lat="48.83316" lon="2.38242">
        <ele>85.9</ele>
        <time>2015-05-25T18:38:21.636Z</time>
      </trkpt>
      <trkpt lat="48.83312" lon="2.38245">
        <ele>85.7</ele>
        <time>2015-05-25T18:38:22.575Z</time>
      </trkpt>
      <trkpt lat="48.83308" lon="2.3825">
        <ele>85.6</ele>
        <time>2015-05-25T18:38:23.586Z</time>
      </trkpt>
      <trkpt lat="48.83304" lon="2.38253">
        <ele>85.3</ele>
        <time>2015-05-25T18:38:24.605Z</time>
      </trkpt>
      <trkpt lat="48.833" lon="2.38258">
        <ele>85.2</ele>
        <time>2015-05-25T18:38:25.625Z</time>
      </trkpt>
      <trkpt lat="48.83296" lon="2.38262">
        <ele>85</ele>
        <time>2015-05-25T18:38:26.534Z</time>
      </trkpt>
      <trkpt lat="48.83292" lon="2.38267">
        <ele>85</ele>
        <time>2015-05-25T18:38:27.527Z</time>
      </trkpt>
      <trkpt lat="48.83288" lon="2.38272">
        <ele>85</ele>
        <time>2015-05-25T18:38:28.538Z</time>
      </trkpt>
      <trkpt lat="48.83284" lon="2.38278">
        <ele>84.9</ele>
        <time>2015-05-25T18:38:29.543Z</time>
      </trkpt>
      <trkpt lat="48.8328" lon="2.38283">
        <ele>84.9</ele>
        <time>2015-05-25T18:38:30.564Z</time>
      </trkpt>
      <trkpt lat="48.83277" lon="2.38288">
        <ele>84.8</ele>
        <time>2015-05-25T18:38:31.593Z</time>
      </trkpt>
      <trkpt lat="48.83273" lon="2.38294">
        <ele>84.6</ele>
        <time>2015-05-25T18:38:32.586Z</time>
      </trkpt>
      <trkpt lat="48.83269" lon="2.38298">
        <ele>84.4</ele>
        <time>2015-05-25T18:38:33.605Z</time>
      </trkpt>
      <trkpt lat="48.83265" lon="2.38303">
        <ele>84.3</ele>
        <time>2015-05-25T18:38:34.530Z</time>
      </trkpt>
      <trkpt lat="48.83262" lon="2.38308">
        <ele>84.3</ele>
        <time>2015-05-25T18:38:35.531Z</time>
      </trkpt>
      <trkpt lat="48.83255" lon="2.38316">
        <ele>84.3</ele>
        <time>2015-05-25T18:38:37.574Z</time>
      </trkpt>
      <trkpt lat="48.83251" lon="2.3832">
        <ele>84.1</ele>
        <time>2015-05-25T18:38:38.716Z</time>
      </trkpt>
      <trkpt lat="48.83244" lon="2.38328">
        <ele>83.7</ele>
        <time>2015-05-25T18:38:40.539Z</time>
      </trkpt>
      <trkpt lat="48.8324" lon="2.38332">
        <ele>83.8</ele>
        <time>2015-05-25T18:38:41.542Z</time>
      </trkpt>
      <trkpt lat="48.83236" lon="2.38336">
        <ele>83.9</ele>
        <time>2015-05-25T18:38:42.580Z</time>
      </trkpt>
      <trkpt lat="48.83232" lon="2.38341">
        <ele>84</ele>
        <time>2015-05-25T18:38:43.571Z</time>
      </trkpt>
      <trkpt lat="48.83228" lon="2.38346">
        <ele>84.1</ele>
        <time>2015-05-25T18:38:45.101Z</time>
      </trkpt>
      <trkpt lat="48.83224" lon="2.38351">
        <ele>84.2</ele>
        <time>2015-05-25T18:38:45.537Z</time>
      </trkpt>
      <trkpt lat="48.83221" lon="2.38356">
        <ele>84.2</ele>
        <time>2015-05-25T18:38:46.533Z</time>
      </trkpt>
      <trkpt lat="48.83218" lon="2.38361">
        <ele>84.1</ele>
        <time>2015-05-25T18:38:47.555Z</time>
      </trkpt>
      <trkpt lat="48.83214" lon="2.38365">
        <ele>84.1</ele>
        <time>2015-05-25T18:38:48.625Z</time>
      </trkpt>
      <trkpt lat="48.8321" lon="2.38369">
        <ele>84.1</ele>
        <time>2015-05-25T18:38:49.631Z</time>
      </trkpt>
      <trkpt lat="48.83206" lon="2.38374">
        <ele>83.9</ele>
        <time>2015-05-25T18:38:50.499Z</time>
      </trkpt>
      <trkpt lat="48.83203" lon="2.38378">
        <ele>83.6</ele>
        <time>2015-05-25T18:38:51.542Z</time>
      </trkpt>
      <trkpt lat="48.83199" lon="2.38383">
        <ele>83.3</ele>
        <time>2015-05-25T18:38:52.860Z</time>
      </trkpt>
      <trkpt lat="48.83195" lon="2.38388">
        <ele>83.3</ele>
        <time>2015-05-25T18:38:53.615Z</time>
      </trkpt>
      <trkpt lat="48.83192" lon="2.38394">
        <ele>83.3</ele>
        <time>2015-05-25T18:38:54.599Z</time>
      </trkpt>
      <trkpt lat="48.83188" lon="2.38399">
        <ele>83</ele>
        <time>2015-05-25T18:38:55.643Z</time>
      </trkpt>
      <trkpt lat="48.83182" lon="2.38406">
        <ele>83</ele>
        <time>2015-05-25T18:38:57.932Z</time>
      </trkpt>
      <trkpt lat="48.83179" lon="2.3841">
        <ele>83.1</ele>
        <time>2015-05-25T18:38:58.564Z</time>
      </trkpt>
      <trkpt lat="48.83172" lon="2.38417">
        <ele>83.1</ele>
        <time>2015-05-25T18:39:00.617Z</time>
      </trkpt>
      <trkpt lat="48.83168" lon="2.38421">
        <ele>83</ele>
        <time>2015-05-25T18:39:01.621Z</time>
      </trkpt>
      <trkpt lat="48.83164" lon="2.38426">
        <ele>83</ele>
        <time>2015-05-25T18:39:03.007Z</time>
      </trkpt>
      <trkpt lat="48.83159" lon="2.3843">
        <ele>82.9</ele>
        <time>2015-05-25T18:39:03.533Z</time>
      </trkpt>
      <trkpt lat="48.83156" lon="2.38435">
        <ele>82.8</ele>
        <time>2015-05-25T18:39:04.557Z</time>
      </trkpt>
      <trkpt lat="48.83153" lon="2.3844">
        <ele>82.9</ele>
        <time>2015-05-25T18:39:05.566Z</time>
      </trkpt>
      <trkpt lat="48.83149" lon="2.38445">
        <ele>83</ele>
        <time>2015-05-25T18:39:06.584Z</time>
      </trkpt>
      <trkpt lat="48.83145" lon="2.3845">
        <ele>83</ele>
        <time>2015-05-25T18:39:07.597Z</time>
      </trkpt>
      <trkpt lat="48.83141" lon="2.38456">
        <ele>83</ele>
        <time>2015-05-25T18:39:08.632Z</time>
      </trkpt>
      <trkpt lat="48.83137" lon="2.38462">
        <ele>83.1</ele>
        <time>2015-05-25T18:39:09.526Z</time>
      </trkpt>
      <trkpt lat="48.83133" lon="2.38468">
        <ele>83.2</ele>
        <time>2015-05-25T18:39:10.544Z</time>
      </trkpt>
      <trkpt lat="48.83129" lon="2.38475">
        <ele>83.2</ele>
        <time>2015-05-25T18:39:11.552Z</time>
      </trkpt>
      <trkpt lat="48.83125" lon="2.38481">
        <ele>83.3</ele>
        <time>2015-05-25T18:39:13.158Z</time>
      </trkpt>
      <trkpt lat="48.83121" lon="2.38486">
        <ele>83.2</ele>
        <time>2015-05-25T18:39:13.574Z</time>
      </trkpt>
      <trkpt lat="48.83117" lon="2.38492">
        <ele>83.1</ele>
        <time>2015-05-25T18:39:14.590Z</time>
      </trkpt>
      <trkpt lat="48.83113" lon="2.38497">
        <ele>83.1</ele>
        <time>2015-05-25T18:39:15.629Z</time>
      </trkpt>
      <trkpt lat="48.83109" lon="2.38503">
        <ele>83</ele>
        <time>2015-05-25T18:39:16.521Z</time>
      </trkpt>
      <trkpt lat="48.83104" lon="2.38507">
        <ele>83</ele>
        <time>2015-05-25T18:39:17.529Z</time>
      </trkpt>
      <trkpt lat="48.83099" lon="2.38512">
        <ele>83.1</ele>
        <time>2015-05-25T18:39:18.545Z</time>
      </trkpt>
      <trkpt lat="48.83095" lon="2.38517">
        <ele>83.2</ele>
        <time>2015-05-25T18:39:19.553Z</time>
      </trkpt>
      <trkpt lat="48.83091" lon="2.38523">
        <ele>83.2</ele>
        <time>2015-05-25T18:39:20.581Z</time>
      </trkpt>
      <trkpt lat="48.83087" lon="2.38528">
        <ele>83.4</ele>
        <time>2015-05-25T18:39:21.588Z</time>
      </trkpt>
      <trkpt lat="48.83083" lon="2.38533">
        <ele>83.5</ele>
        <time>2015-05-25T18:39:22.591Z</time>
      </trkpt>
      <trkpt lat="48.83079" lon="2.38538">
        <ele>83.7</ele>
        <time>2015-05-25T18:39:23.601Z</time>
      </trkpt>
      <trkpt lat="48.83075" lon="2.38542">
        <ele>84</ele>
        <time>2015-05-25T18:39:24.609Z</time>
      </trkpt>
      <trkpt lat="48.8307" lon="2.38548">
        <ele>84.5</ele>
        <time>2015-05-25T18:39:25.614Z</time>
      </trkpt>
      <trkpt lat="48.83066" lon="2.38555">
        <ele>85.1</ele>
        <time>2015-05-25T18:39:26.525Z</time>
      </trkpt>
      <trkpt lat="48.83062" lon="2.3856">
        <ele>85.8</ele>
        <time>2015-05-25T18:39:27.535Z</time>
      </trkpt>
      <trkpt lat="48.83059" lon="2.38564">
        <ele>86.7</ele>
        <time>2015-05-25T18:39:28.556Z</time>
      </trkpt>
      <trkpt lat="48.83055" lon="2.38569">
        <ele>87.7</ele>
        <time>2015-05-25T18:39:29.568Z</time>
      </trkpt>
      <trkpt lat="48.83051" lon="2.38575">
        <ele>88.5</ele>
        <time>2015-05-25T18:39:30.575Z</time>
      </trkpt>
      <trkpt lat="48.83048" lon="2.38581">
        <ele>89.3</ele>
        <time>2015-05-25T18:39:31.587Z</time>
      </trkpt>
      <trkpt lat="48.83045" lon="2.38586">
        <ele>89.9</ele>
        <time>2015-05-25T18:39:32.491Z</time>
      </trkpt>
      <trkpt lat="48.83042" lon="2.3859">
        <ele>90.4</ele>
        <time>2015-05-25T18:39:33.515Z</time>
      </trkpt>
      <trkpt lat="48.83039" lon="2.38595">
        <ele>90.6</ele>
        <time>2015-05-25T18:39:34.515Z</time>
      </trkpt>
      <trkpt lat="48.83034" lon="2.38602">
        <ele>91.3</ele>
        <time>2015-05-25T18:39:35.530Z</time>
      </trkpt>
      <trkpt lat="48.83031" lon="2.38609">
        <ele>92</ele>
        <time>2015-05-25T18:39:36.544Z</time>
      </trkpt>
      <trkpt lat="48.83027" lon="2.38616">
        <ele>92.7</ele>
        <time>2015-05-25T18:39:37.553Z</time>
      </trkpt>
      <trkpt lat="48.83023" lon="2.3862">
        <ele>93.2</ele>
        <time>2015-05-25T18:39:38.570Z</time>
      </trkpt>
      <trkpt lat="48.83019" lon="2.38625">
        <ele>93.8</ele>
        <time>2015-05-25T18:39:39.579Z</time>
      </trkpt>
      <trkpt lat="48.83015" lon="2.38629">
        <ele>94.5</ele>
        <time>2015-05-25T18:39:40.587Z</time>
      </trkpt>
      <trkpt lat="48.83011" lon="2.38633">
        <ele>94.9</ele>
        <time>2015-05-25T18:39:41.592Z</time>
      </trkpt>
      <trkpt lat="48.83007" lon="2.38637">
        <ele>95.3</ele>
        <time>2015-05-25T18:39:42.608Z</time>
      </trkpt>
      <trkpt lat="48.83003" lon="2.38642">
        <ele>96</ele>
        <time>2015-05-25T18:39:43.613Z</time>
      </trkpt>
      <trkpt lat="48.82998" lon="2.38645">
        <ele>96.1</ele>
        <time>2015-05-25T18:39:44.615Z</time>
      </trkpt>
      <trkpt lat="48.82994" lon="2.38649">
        <ele>96.2</ele>
        <time>2015-05-25T18:39:45.638Z</time>
      </trkpt>
      <trkpt lat="48.82989" lon="2.38652">
        <ele>96.4</ele>
        <time>2015-05-25T18:39:47.026Z</time>
      </trkpt>
      <trkpt lat="48.82984" lon="2.38655">
        <ele>96.7</ele>
        <time>2015-05-25T18:39:47.545Z</time>
      </trkpt>
      <trkpt lat="48.8298" lon="2.38659">
        <ele>96.8</ele>
        <time>2015-05-25T18:39:48.572Z</time>
      </trkpt>
      <trkpt lat="48.82976" lon="2.38663">
        <ele>97</ele>
        <time>2015-05-25T18:39:49.583Z</time>
      </trkpt>
      <trkpt lat="48.82971" lon="2.38667">
        <ele>96.9</ele>
        <time>2015-05-25T18:39:50.594Z</time>
      </trkpt>
      <trkpt lat="48.82964" lon="2.38671">
        <ele>96.3</ele>
        <time>2015-05-25T18:39:51.602Z</time>
      </trkpt>
      <trkpt lat="48.82958" lon="2.38675">
        <ele>95.7</ele>
        <time>2015-05-25T18:39:52.652Z</time>
      </trkpt>
      <trkpt lat="48.82952" lon="2.38681">
        <ele>95.2</ele>
        <time>2015-05-25T18:39:53.635Z</time>
      </trkpt>
      <trkpt lat="48.82946" lon="2.38685">
        <ele>94.8</ele>
        <time>2015-05-25T18:39:54.641Z</time>
      </trkpt>
      <trkpt lat="48.8294" lon="2.38689">
        <ele>94.3</ele>
        <time>2015-05-25T18:39:55.656Z</time>
      </trkpt>
      <trkpt lat="48.82934" lon="2.38693">
        <ele>94</ele>
        <time>2015-05-25T18:39:56.539Z</time>
      </trkpt>
      <trkpt lat="48.82929" lon="2.38698">
        <ele>93.9</ele>
        <time>2015-05-25T18:39:57.549Z</time>
      </trkpt>
      <trkpt lat="48.82923" lon="2.38701">
        <ele>93.7</ele>
        <time>2015-05-25T18:39:58.588Z</time>
      </trkpt>
      <trkpt lat="48.82918" lon="2.38706">
        <ele>93.6</ele>
        <time>2015-05-25T18:39:59.599Z</time>
      </trkpt>
      <trkpt lat="48.82912" lon="2.38708">
        <ele>93.2</ele>
        <time>2015-05-25T18:40:00.631Z</time>
      </trkpt>
      <trkpt lat="48.82906" lon="2.38711">
        <ele>93.2</ele>
        <time>2015-05-25T18:40:01.623Z</time>
      </trkpt>
      <trkpt lat="48.82901" lon="2.38714">
        <ele>93.3</ele>
        <time>2015-05-25T18:40:02.550Z</time>
      </trkpt>
      <trkpt lat="48.82897" lon="2.38717">
        <ele>93.1</ele>
        <time>2015-05-25T18:40:03.548Z</time>
      </trkpt>
      <trkpt lat="48.82892" lon="2.38721">
        <ele>92.7</ele>
        <time>2015-05-25T18:40:04.486Z</time>
      </trkpt>
      <trkpt lat="48.82887" lon="2.38726">
        <ele>92.4</ele>
        <time>2015-05-25T18:40:05.492Z</time>
      </trkpt>
      <trkpt lat="48.82882" lon="2.38732">
        <ele>92.1</ele>
        <time>2015-05-25T18:40:06.540Z</time>
      </trkpt>
      <trkpt lat="48.82876" lon="2.38736">
        <ele>91.7</ele>
        <time>2015-05-25T18:40:07.550Z</time>
      </trkpt>
      <trkpt lat="48.82871" lon="2.38742">
        <ele>91.6</ele>
        <time>2015-05-25T18:40:08.561Z</time>
      </trkpt>
      <trkpt lat="48.82866" lon="2.38747">
        <ele>91.6</ele>
        <time>2015-05-25T18:40:09.563Z</time>
      </trkpt>
      <trkpt lat="48.82861" lon="2.38752">
        <ele>91.6</ele>
        <time>2015-05-25T18:40:10.577Z</time>
      </trkpt>
      <trkpt lat="48.82857" lon="2.38757">
        <ele>91.3</ele>
        <time>2015-05-25T18:40:11.590Z</time>
      </trkpt>
      <trkpt lat="48.82852" lon="2.38762">
        <ele>91.2</ele>
        <time>2015-05-25T18:40:12.607Z</time>
      </trkpt>
      <trkpt lat="48.82847" lon="2.38767">
        <ele>91.2</ele>
        <time>2015-05-25T18:40:13.623Z</time>
      </trkpt>
      <trkpt lat="48.82843" lon="2.38772">
        <ele>91</ele>
        <time>2015-05-25T18:40:14.518Z</time>
      </trkpt>
      <trkpt lat="48.82838" lon="2.38778">
        <ele>90.9</ele>
        <time>2015-05-25T18:40:15.527Z</time>
      </trkpt>
      <trkpt lat="48.82816" lon="2.3881">
        <ele>89.6</ele>
        <time>2015-05-25T18:40:20.599Z</time>
      </trkpt>
      <trkpt lat="48.82812" lon="2.38816">
        <ele>89.1</ele>
        <time>2015-05-25T18:40:21.526Z</time>
      </trkpt>
      <trkpt lat="48.82809" lon="2.38821">
        <ele>89</ele>
        <time>2015-05-25T18:40:22.520Z</time>
      </trkpt>
      <trkpt lat="48.82805" lon="2.38831">
        <ele>88.2</ele>
        <time>2015-05-25T18:40:24.553Z</time>
      </trkpt>
      <trkpt lat="48.82802" lon="2.38835">
        <ele>88.2</ele>
        <time>2015-05-25T18:40:25.568Z</time>
      </trkpt>
      <trkpt lat="48.82797" lon="2.38844">
        <ele>87.9</ele>
        <time>2015-05-25T18:40:27.592Z</time>
      </trkpt>
      <trkpt lat="48.82794" lon="2.38848">
        <ele>87.9</ele>
        <time>2015-05-25T18:40:28.604Z</time>
      </trkpt>
      <trkpt lat="48.82789" lon="2.38856">
        <ele>88.3</ele>
        <time>2015-05-25T18:40:30.621Z</time>
      </trkpt>
      <trkpt lat="48.82787" lon="2.3886">
        <ele>88.4</ele>
        <time>2015-05-25T18:40:31.634Z</time>
      </trkpt>
      <trkpt lat="48.82782" lon="2.38866">
        <ele>88.5</ele>
        <time>2015-05-25T18:40:33.534Z</time>
      </trkpt>
      <trkpt lat="48.8278" lon="2.3887">
        <ele>88.5</ele>
        <time>2015-05-25T18:40:34.551Z</time>
      </trkpt>
      <trkpt lat="48.82775" lon="2.38875">
        <ele>88.2</ele>
        <time>2015-05-25T18:40:36.598Z</time>
      </trkpt>
      <trkpt lat="48.82773" lon="2.38878">
        <ele>88.3</ele>
        <time>2015-05-25T18:40:37.611Z</time>
      </trkpt>
      <trkpt lat="48.82768" lon="2.38885">
        <ele>88.5</ele>
        <time>2015-05-25T18:40:39.557Z</time>
      </trkpt>
      <trkpt lat="48.82765" lon="2.38889">
        <ele>88.5</ele>
        <time>2015-05-25T18:40:40.573Z</time>
      </trkpt>
      <trkpt lat="48.8276" lon="2.38897">
        <ele>88.7</ele>
        <time>2015-05-25T18:40:42.619Z</time>
      </trkpt>
      <trkpt lat="48.82758" lon="2.38901">
        <ele>88.9</ele>
        <time>2015-05-25T18:40:43.627Z</time>
      </trkpt>
      <trkpt lat="48.82752" lon="2.38909">
        <ele>88.9</ele>
        <time>2015-05-25T18:40:45.534Z</time>
      </trkpt>
      <trkpt lat="48.82749" lon="2.38913">
        <ele>89</ele>
        <time>2015-05-25T18:40:46.552Z</time>
      </trkpt>
      <trkpt lat="48.82742" lon="2.3892">
        <ele>88.7</ele>
        <time>2015-05-25T18:40:48.610Z</time>
      </trkpt>
      <trkpt lat="48.82739" lon="2.38924">
        <ele>88.5</ele>
        <time>2015-05-25T18:40:49.619Z</time>
      </trkpt>
      <trkpt lat="48.82735" lon="2.38929">
        <ele>88.3</ele>
        <time>2015-05-25T18:40:50.525Z</time>
      </trkpt>
      <trkpt lat="48.82731" lon="2.38933">
        <ele>88.1</ele>
        <time>2015-05-25T18:40:51.549Z</time>
      </trkpt>
      <trkpt lat="48.82728" lon="2.38938">
        <ele>87.9</ele>
        <time>2015-05-25T18:40:52.568Z</time>
      </trkpt>
      <trkpt lat="48.82724" lon="2.38944">
        <ele>87.8</ele>
        <time>2015-05-25T18:40:53.575Z</time>
      </trkpt>
      <trkpt lat="48.8272" lon="2.38949">
        <ele>87.8</ele>
        <time>2015-05-25T18:40:54.586Z</time>
      </trkpt>
      <trkpt lat="48.82715" lon="2.38954">
        <ele>87.9</ele>
        <time>2015-05-25T18:40:55.599Z</time>
      </trkpt>
      <trkpt lat="48.82711" lon="2.3896">
        <ele>87.8</ele>
        <time>2015-05-25T18:40:56.608Z</time>
      </trkpt>
      <trkpt lat="48.82707" lon="2.38965">
        <ele>87.9</ele>
        <time>2015-05-25T18:40:57.612Z</time>
      </trkpt>
      <trkpt lat="48.82702" lon="2.3897">
        <ele>87.9</ele>
        <time>2015-05-25T18:40:58.539Z</time>
      </trkpt>
      <trkpt lat="48.82697" lon="2.38972">
        <ele>87.9</ele>
        <time>2015-05-25T18:40:59.538Z</time>
      </trkpt>
      <trkpt lat="48.82691" lon="2.38974">
        <ele>87.7</ele>
        <time>2015-05-25T18:41:00.557Z</time>
      </trkpt>
      <trkpt lat="48.82678" lon="2.38976">
        <ele>87.9</ele>
        <time>2015-05-25T18:41:02.598Z</time>
      </trkpt>
      <trkpt lat="48.82666" lon="2.3898">
        <ele>88</ele>
        <time>2015-05-25T18:41:04.508Z</time>
      </trkpt>
      <trkpt lat="48.82662" lon="2.38985">
        <ele>87.8</ele>
        <time>2015-05-25T18:41:05.536Z</time>
      </trkpt>
      <trkpt lat="48.82658" lon="2.38991">
        <ele>87.7</ele>
        <time>2015-05-25T18:41:06.565Z</time>
      </trkpt>
      <trkpt lat="48.82657" lon="2.39">
        <ele>87.7</ele>
        <time>2015-05-25T18:41:07.532Z</time>
      </trkpt>
      <trkpt lat="48.82653" lon="2.39007">
        <ele>87.5</ele>
        <time>2015-05-25T18:41:08.534Z</time>
      </trkpt>
      <trkpt lat="48.8265" lon="2.39014">
        <ele>87.6</ele>
        <time>2015-05-25T18:41:09.546Z</time>
      </trkpt>
      <trkpt lat="48.82646" lon="2.39022">
        <ele>88.1</ele>
        <time>2015-05-25T18:41:10.580Z</time>
      </trkpt>
      <trkpt lat="48.82642" lon="2.39029">
        <ele>88.4</ele>
        <time>2015-05-25T18:41:11.502Z</time>
      </trkpt>
      <trkpt lat="48.82638" lon="2.39035">
        <ele>88.7</ele>
        <time>2015-05-25T18:41:12.571Z</time>
      </trkpt>
      <trkpt lat="48.82634" lon="2.39041">
        <ele>88.9</ele>
        <time>2015-05-25T18:41:13.595Z</time>
      </trkpt>
      <trkpt lat="48.8263" lon="2.39047">
        <ele>89.1</ele>
        <time>2015-05-25T18:41:14.610Z</time>
      </trkpt>
      <trkpt lat="48.82627" lon="2.39053">
        <ele>89</ele>
        <time>2015-05-25T18:41:15.620Z</time>
      </trkpt>
      <trkpt lat="48.82624" lon="2.39059">
        <ele>89.1</ele>
        <time>2015-05-25T18:41:16.549Z</time>
      </trkpt>
      <trkpt lat="48.8262" lon="2.39068">
        <ele>88.9</ele>
        <time>2015-05-25T18:41:18.573Z</time>
      </trkpt>
      <trkpt lat="48.82618" lon="2.39071">
        <ele>88.7</ele>
        <time>2015-05-25T18:41:19.606Z</time>
      </trkpt>
      <trkpt lat="48.82616" lon="2.39077">
        <ele>89.4</ele>
        <time>2015-05-25T18:41:22.550Z</time>
      </trkpt>
      <trkpt lat="48.82615" lon="2.39079">
        <ele>89.4</ele>
        <time>2015-05-25T18:41:23.578Z</time>
      </trkpt>
      <trkpt lat="48.82615" lon="2.3908">
        <ele>89.6</ele>
        <time>2015-05-25T18:41:27.526Z</time>
      </trkpt>
      <trkpt lat="48.82614" lon="2.39082">
        <ele>90</ele>
        <time>2015-05-25T18:41:28.572Z</time>
      </trkpt>
      <trkpt lat="48.82609" lon="2.39086">
        <ele>89.9</ele>
        <time>2015-05-25T18:41:31.656Z</time>
      </trkpt>
      <trkpt lat="48.82606" lon="2.39089">
        <ele>89.7</ele>
        <time>2015-05-25T18:41:32.545Z</time>
      </trkpt>
      <trkpt lat="48.826" lon="2.39097">
        <ele>89.7</ele>
        <time>2015-05-25T18:41:34.566Z</time>
      </trkpt>
      <trkpt lat="48.82596" lon="2.39102">
        <ele>89.6</ele>
        <time>2015-05-25T18:41:35.521Z</time>
      </trkpt>
      <trkpt lat="48.82592" lon="2.39106">
        <ele>89.5</ele>
        <time>2015-05-25T18:41:36.546Z</time>
      </trkpt>
      <trkpt lat="48.82588" lon="2.39112">
        <ele>89.5</ele>
        <time>2015-05-25T18:41:37.576Z</time>
      </trkpt>
      <trkpt lat="48.82584" lon="2.39117">
        <ele>89.5</ele>
        <time>2015-05-25T18:41:38.518Z</time>
      </trkpt>
      <trkpt lat="48.8258" lon="2.39122">
        <ele>89.5</ele>
        <time>2015-05-25T18:41:39.522Z</time>
      </trkpt>
      <trkpt lat="48.82575" lon="2.39128">
        <ele>89.4</ele>
        <time>2015-05-25T18:41:40.535Z</time>
      </trkpt>
      <trkpt lat="48.82571" lon="2.39135">
        <ele>89.2</ele>
        <time>2015-05-25T18:41:41.549Z</time>
      </trkpt>
      <trkpt lat="48.82566" lon="2.39142">
        <ele>88.7</ele>
        <time>2015-05-25T18:41:42.578Z</time>
      </trkpt>
      <trkpt lat="48.82561" lon="2.39148">
        <ele>88.4</ele>
        <time>2015-05-25T18:41:43.593Z</time>
      </trkpt>
      <trkpt lat="48.82556" lon="2.39155">
        <ele>88.3</ele>
        <time>2015-05-25T18:41:44.601Z</time>
      </trkpt>
      <trkpt lat="48.8255" lon="2.39163">
        <ele>88.3</ele>
        <time>2015-05-25T18:41:45.550Z</time>
      </trkpt>
      <trkpt lat="48.82544" lon="2.39171">
        <ele>88.1</ele>
        <time>2015-05-25T18:41:46.511Z</time>
      </trkpt>
      <trkpt lat="48.82539" lon="2.39179">
        <ele>88</ele>
        <time>2015-05-25T18:41:47.524Z</time>
      </trkpt>
      <trkpt lat="48.82533" lon="2.39188">
        <ele>88</ele>
        <time>2015-05-25T18:41:48.533Z</time>
      </trkpt>
      <trkpt lat="48.82528" lon="2.39196">
        <ele>87.9</ele>
        <time>2015-05-25T18:41:49.554Z</time>
      </trkpt>
      <trkpt lat="48.82522" lon="2.39205">
        <ele>87.9</ele>
        <time>2015-05-25T18:41:50.567Z</time>
      </trkpt>
      <trkpt lat="48.82517" lon="2.39212">
        <ele>88</ele>
        <time>2015-05-25T18:41:51.575Z</time>
      </trkpt>
      <trkpt lat="48.82512" lon="2.3922">
        <ele>87.9</ele>
        <time>2015-05-25T18:41:52.591Z</time>
      </trkpt>
      <trkpt lat="48.82507" lon="2.39227">
        <ele>87.9</ele>
        <time>2015-05-25T18:41:53.490Z</time>
      </trkpt>
      <trkpt lat="48.82503" lon="2.39235">
        <ele>87.9</ele>
        <time>2015-05-25T18:41:54.521Z</time>
      </trkpt>
      <trkpt lat="48.82498" lon="2.39243">
        <ele>87.8</ele>
        <time>2015-05-25T18:41:55.552Z</time>
      </trkpt>
      <trkpt lat="48.82493" lon="2.39251">
        <ele>87.8</ele>
        <time>2015-05-25T18:41:56.572Z</time>
      </trkpt>
      <trkpt lat="48.82489" lon="2.39258">
        <ele>88</ele>
        <time>2015-05-25T18:41:57.671Z</time>
      </trkpt>
      <trkpt lat="48.82484" lon="2.39265">
        <ele>88</ele>
        <time>2015-05-25T18:41:58.524Z</time>
      </trkpt>
      <trkpt lat="48.82479" lon="2.39272">
        <ele>88.1</ele>
        <time>2015-05-25T18:41:59.524Z</time>
      </trkpt>
      <trkpt lat="48.82475" lon="2.3928">
        <ele>88</ele>
        <time>2015-05-25T18:42:00.528Z</time>
      </trkpt>
      <trkpt lat="48.8247" lon="2.39287">
        <ele>88</ele>
        <time>2015-05-25T18:42:01.546Z</time>
      </trkpt>
      <trkpt lat="48.82466" lon="2.39296">
        <ele>87.6</ele>
        <time>2015-05-25T18:42:02.543Z</time>
      </trkpt>
      <trkpt lat="48.82461" lon="2.39304">
        <ele>87.3</ele>
        <time>2015-05-25T18:42:03.555Z</time>
      </trkpt>
      <trkpt lat="48.82457" lon="2.39312">
        <ele>87.3</ele>
        <time>2015-05-25T18:42:04.568Z</time>
      </trkpt>
      <trkpt lat="48.82451" lon="2.3932">
        <ele>87.2</ele>
        <time>2015-05-25T18:42:05.574Z</time>
      </trkpt>
      <trkpt lat="48.82446" lon="2.39329">
        <ele>86.7</ele>
        <time>2015-05-25T18:42:06.596Z</time>
      </trkpt>
      <trkpt lat="48.8244" lon="2.39337">
        <ele>86</ele>
        <time>2015-05-25T18:42:07.612Z</time>
      </trkpt>
      <trkpt lat="48.82435" lon="2.39346">
        <ele>84.7</ele>
        <time>2015-05-25T18:42:08.521Z</time>
      </trkpt>
      <trkpt lat="48.82429" lon="2.39355">
        <ele>83.9</ele>
        <time>2015-05-25T18:42:09.530Z</time>
      </trkpt>
      <trkpt lat="48.82423" lon="2.39363">
        <ele>83.1</ele>
        <time>2015-05-25T18:42:10.527Z</time>
      </trkpt>
      <trkpt lat="48.82417" lon="2.39371">
        <ele>83</ele>
        <time>2015-05-25T18:42:11.544Z</time>
      </trkpt>
      <trkpt lat="48.82411" lon="2.3938">
        <ele>83.2</ele>
        <time>2015-05-25T18:42:12.568Z</time>
      </trkpt>
      <trkpt lat="48.82406" lon="2.3939">
        <ele>83.1</ele>
        <time>2015-05-25T18:42:13.570Z</time>
      </trkpt>
      <trkpt lat="48.82399" lon="2.39398">
        <ele>83.4</ele>
        <time>2015-05-25T18:42:14.575Z</time>
      </trkpt>
      <trkpt lat="48.82393" lon="2.39407">
        <ele>83.2</ele>
        <time>2015-05-25T18:42:15.589Z</time>
      </trkpt>
      <trkpt lat="48.82389" lon="2.39416">
        <ele>82.7</ele>
        <time>2015-05-25T18:42:16.606Z</time>
      </trkpt>
      <trkpt lat="48.82384" lon="2.39426">
        <ele>82.5</ele>
        <time>2015-05-25T18:42:17.518Z</time>
      </trkpt>
      <trkpt lat="48.82379" lon="2.39434">
        <ele>81.7</ele>
        <time>2015-05-25T18:42:18.550Z</time>
      </trkpt>
      <trkpt lat="48.82373" lon="2.39442">
        <ele>81.3</ele>
        <time>2015-05-25T18:42:19.553Z</time>
      </trkpt>
      <trkpt lat="48.82367" lon="2.39449">
        <ele>80.7</ele>
        <time>2015-05-25T18:42:20.604Z</time>
      </trkpt>
      <trkpt lat="48.82362" lon="2.39457">
        <ele>80.6</ele>
        <time>2015-05-25T18:42:21.618Z</time>
      </trkpt>
      <trkpt lat="48.82356" lon="2.39464">
        <ele>80.8</ele>
        <time>2015-05-25T18:42:22.536Z</time>
      </trkpt>
      <trkpt lat="48.82351" lon="2.39473">
        <ele>80.9</ele>
        <time>2015-05-25T18:42:23.537Z</time>
      </trkpt>
      <trkpt lat="48.82345" lon="2.39483">
        <ele>80</ele>
        <time>2015-05-25T18:42:24.546Z</time>
      </trkpt>
      <trkpt lat="48.82339" lon="2.39492">
        <ele>79.6</ele>
        <time>2015-05-25T18:42:25.561Z</time>
      </trkpt>
      <trkpt lat="48.82333" lon="2.395">
        <ele>80.4</ele>
        <time>2015-05-25T18:42:26.565Z</time>
      </trkpt>
      <trkpt lat="48.82328" lon="2.39509">
        <ele>80.2</ele>
        <time>2015-05-25T18:42:27.600Z</time>
      </trkpt>
      <trkpt lat="48.82322" lon="2.39518">
        <ele>80.5</ele>
        <time>2015-05-25T18:42:28.619Z</time>
      </trkpt>
      <trkpt lat="48.82316" lon="2.39526">
        <ele>80.4</ele>
        <time>2015-05-25T18:42:29.557Z</time>
      </trkpt>
      <trkpt lat="48.8231" lon="2.39534">
        <ele>80.6</ele>
        <time>2015-05-25T18:42:30.529Z</time>
      </trkpt>
      <trkpt lat="48.82303" lon="2.39543">
        <ele>80.8</ele>
        <time>2015-05-25T18:42:31.604Z</time>
      </trkpt>
      <trkpt lat="48.82296" lon="2.39552">
        <ele>81</ele>
        <time>2015-05-25T18:42:32.598Z</time>
      </trkpt>
      <trkpt lat="48.8229" lon="2.39561">
        <ele>80.9</ele>
        <time>2015-05-25T18:42:33.578Z</time>
      </trkpt>
      <trkpt lat="48.82284" lon="2.39571">
        <ele>80.7</ele>
        <time>2015-05-25T18:42:34.550Z</time>
      </trkpt>
      <trkpt lat="48.82278" lon="2.3958">
        <ele>80.8</ele>
        <time>2015-05-25T18:42:35.616Z</time>
      </trkpt>
      <trkpt lat="48.82272" lon="2.3959">
        <ele>80.5</ele>
        <time>2015-05-25T18:42:36.650Z</time>
      </trkpt>
      <trkpt lat="48.82266" lon="2.396">
        <ele>80.2</ele>
        <time>2015-05-25T18:42:37.547Z</time>
      </trkpt>
      <trkpt lat="48.8226" lon="2.3961">
        <ele>80</ele>
        <time>2015-05-25T18:42:38.561Z</time>
      </trkpt>
      <trkpt lat="48.82255" lon="2.3962">
        <ele>79.9</ele>
        <time>2015-05-25T18:42:39.572Z</time>
      </trkpt>
      <trkpt lat="48.82249" lon="2.3963">
        <ele>79.6</ele>
        <time>2015-05-25T18:42:40.603Z</time>
      </trkpt>
      <trkpt lat="48.82243" lon="2.3964">
        <ele>79.6</ele>
        <time>2015-05-25T18:42:41.597Z</time>
      </trkpt>
      <trkpt lat="48.82237" lon="2.39651">
        <ele>79.4</ele>
        <time>2015-05-25T18:42:42.610Z</time>
      </trkpt>
      <trkpt lat="48.82231" lon="2.39661">
        <ele>79.4</ele>
        <time>2015-05-25T18:42:43.617Z</time>
      </trkpt>
      <trkpt lat="48.82226" lon="2.39671">
        <ele>79.1</ele>
        <time>2015-05-25T18:42:44.524Z</time>
      </trkpt>
      <trkpt lat="48.8222" lon="2.39681">
        <ele>79.2</ele>
        <time>2015-05-25T18:42:45.528Z</time>
      </trkpt>
      <trkpt lat="48.82215" lon="2.39691">
        <ele>79.9</ele>
        <time>2015-05-25T18:42:46.555Z</time>
      </trkpt>
      <trkpt lat="48.82209" lon="2.39702">
        <ele>80.3</ele>
        <time>2015-05-25T18:42:47.563Z</time>
      </trkpt>
      <trkpt lat="48.82203" lon="2.39712">
        <ele>80.8</ele>
        <time>2015-05-25T18:42:48.578Z</time>
      </trkpt>
      <trkpt lat="48.82197" lon="2.39722">
        <ele>81.1</ele>
        <time>2015-05-25T18:42:49.585Z</time>
      </trkpt>
      <trkpt lat="48.82191" lon="2.39732">
        <ele>80.8</ele>
        <time>2015-05-25T18:42:50.592Z</time>
      </trkpt>
      <trkpt lat="48.82186" lon="2.39743">
        <ele>80.6</ele>
        <time>2015-05-25T18:42:51.622Z</time>
      </trkpt>
      <trkpt lat="48.8218" lon="2.39753">
        <ele>80.9</ele>
        <time>2015-05-25T18:42:52.524Z</time>
      </trkpt>
      <trkpt lat="48.82175" lon="2.39764">
        <ele>81.1</ele>
        <time>2015-05-25T18:42:53.534Z</time>
      </trkpt>
      <trkpt lat="48.8217" lon="2.39775">
        <ele>80.9</ele>
        <time>2015-05-25T18:42:54.552Z</time>
      </trkpt>
      <trkpt lat="48.82165" lon="2.39786">
        <ele>81</ele>
        <time>2015-05-25T18:42:55.561Z</time>
      </trkpt>
      <trkpt lat="48.8216" lon="2.39797">
        <ele>80.7</ele>
        <time>2015-05-25T18:42:56.578Z</time>
      </trkpt>
      <trkpt lat="48.82155" lon="2.39808">
        <ele>80.7</ele>
        <time>2015-05-25T18:42:57.601Z</time>
      </trkpt>
      <trkpt lat="48.8215" lon="2.39819">
        <ele>80.8</ele>
        <time>2015-05-25T18:42:58.631Z</time>
      </trkpt>
      <trkpt lat="48.82146" lon="2.3983">
        <ele>81</ele>
        <time>2015-05-25T18:42:59.623Z</time>
      </trkpt>
      <trkpt lat="48.82142" lon="2.39841">
        <ele>81.2</ele>
        <time>2015-05-25T18:43:00.530Z</time>
      </trkpt>
      <trkpt lat="48.82138" lon="2.39853">
        <ele>81.4</ele>
        <time>2015-05-25T18:43:01.574Z</time>
      </trkpt>
      <trkpt lat="48.82133" lon="2.39863">
        <ele>81</ele>
        <time>2015-05-25T18:43:02.589Z</time>
      </trkpt>
      <trkpt lat="48.82129" lon="2.39874">
        <ele>81</ele>
        <time>2015-05-25T18:43:03.594Z</time>
      </trkpt>
      <trkpt lat="48.82124" lon="2.39884">
        <ele>81.3</ele>
        <time>2015-05-25T18:43:04.520Z</time>
      </trkpt>
      <trkpt lat="48.8212" lon="2.39893">
        <ele>81.3</ele>
        <time>2015-05-25T18:43:05.538Z</time>
      </trkpt>
      <trkpt lat="48.82115" lon="2.39904">
        <ele>81.6</ele>
        <time>2015-05-25T18:43:06.548Z</time>
      </trkpt>
      <trkpt lat="48.82111" lon="2.39913">
        <ele>81.3</ele>
        <time>2015-05-25T18:43:07.547Z</time>
      </trkpt>
      <trkpt lat="48.82106" lon="2.39922">
        <ele>81.2</ele>
        <time>2015-05-25T18:43:08.557Z</time>
      </trkpt>
      <trkpt lat="48.82102" lon="2.39931">
        <ele>81.3</ele>
        <time>2015-05-25T18:43:09.582Z</time>
      </trkpt>
      <trkpt lat="48.82097" lon="2.39942">
        <ele>81.5</ele>
        <time>2015-05-25T18:43:10.524Z</time>
      </trkpt>
      <trkpt lat="48.82093" lon="2.39952">
        <ele>81.6</ele>
        <time>2015-05-25T18:43:11.525Z</time>
      </trkpt>
      <trkpt lat="48.82089" lon="2.39962">
        <ele>81.6</ele>
        <time>2015-05-25T18:43:12.584Z</time>
      </trkpt>
      <trkpt lat="48.82085" lon="2.39972">
        <ele>81.8</ele>
        <time>2015-05-25T18:43:13.620Z</time>
      </trkpt>
      <trkpt lat="48.8208" lon="2.39982">
        <ele>81.9</ele>
        <time>2015-05-25T18:43:14.521Z</time>
      </trkpt>
      <trkpt lat="48.82077" lon="2.39993">
        <ele>81.9</ele>
        <time>2015-05-25T18:43:15.540Z</time>
      </trkpt>
      <trkpt lat="48.82074" lon="2.40003">
        <ele>82.2</ele>
        <time>2015-05-25T18:43:16.552Z</time>
      </trkpt>
      <trkpt lat="48.8207" lon="2.40014">
        <ele>82.2</ele>
        <time>2015-05-25T18:43:17.552Z</time>
      </trkpt>
      <trkpt lat="48.82067" lon="2.40025">
        <ele>82.2</ele>
        <time>2015-05-25T18:43:18.568Z</time>
      </trkpt>
      <trkpt lat="48.82064" lon="2.40036">
        <ele>82.8</ele>
        <time>2015-05-25T18:43:19.566Z</time>
      </trkpt>
      <trkpt lat="48.8206" lon="2.40047">
        <ele>83</ele>
        <time>2015-05-25T18:43:20.584Z</time>
      </trkpt>
      <trkpt lat="48.82057" lon="2.40057">
        <ele>83.4</ele>
        <time>2015-05-25T18:43:21.599Z</time>
      </trkpt>
      <trkpt lat="48.82054" lon="2.40069">
        <ele>83.8</ele>
        <time>2015-05-25T18:43:22.518Z</time>
      </trkpt>
      <trkpt lat="48.8205" lon="2.40079">
        <ele>83.9</ele>
        <time>2015-05-25T18:43:23.529Z</time>
      </trkpt>
      <trkpt lat="48.82047" lon="2.4009">
        <ele>84.1</ele>
        <time>2015-05-25T18:43:24.623Z</time>
      </trkpt>
      <trkpt lat="48.82044" lon="2.40099">
        <ele>84</ele>
        <time>2015-05-25T18:43:25.640Z</time>
      </trkpt>
      <trkpt lat="48.8204" lon="2.40108">
        <ele>84</ele>
        <time>2015-05-25T18:43:26.568Z</time>
      </trkpt>
      <trkpt lat="48.82036" lon="2.40117">
        <ele>83.9</ele>
        <time>2015-05-25T18:43:27.587Z</time>
      </trkpt>
      <trkpt lat="48.82031" lon="2.40127">
        <ele>83.9</ele>
        <time>2015-05-25T18:43:28.513Z</time>
      </trkpt>
      <trkpt lat="48.82027" lon="2.40136">
        <ele>83.7</ele>
        <time>2015-05-25T18:43:29.529Z</time>
      </trkpt>
      <trkpt lat="48.82023" lon="2.40147">
        <ele>83.6</ele>
        <time>2015-05-25T18:43:30.589Z</time>
      </trkpt>
      <trkpt lat="48.8202" lon="2.40158">
        <ele>84.3</ele>
        <time>2015-05-25T18:43:31.607Z</time>
      </trkpt>
      <trkpt lat="48.82016" lon="2.40168">
        <ele>84.4</ele>
        <time>2015-05-25T18:43:32.544Z</time>
      </trkpt>
      <trkpt lat="48.82013" lon="2.40179">
        <ele>84.3</ele>
        <time>2015-05-25T18:43:33.537Z</time>
      </trkpt>
      <trkpt lat="48.8201" lon="2.40191">
        <ele>84.1</ele>
        <time>2015-05-25T18:43:34.567Z</time>
      </trkpt>
      <trkpt lat="48.82008" lon="2.40204">
        <ele>83.1</ele>
        <time>2015-05-25T18:43:35.575Z</time>
      </trkpt>
      <trkpt lat="48.82005" lon="2.40215">
        <ele>81.9</ele>
        <time>2015-05-25T18:43:36.587Z</time>
      </trkpt>
      <trkpt lat="48.82002" lon="2.40227">
        <ele>81.8</ele>
        <time>2015-05-25T18:43:37.593Z</time>
      </trkpt>
      <trkpt lat="48.81999" lon="2.40238">
        <ele>81.9</ele>
        <time>2015-05-25T18:43:38.604Z</time>
      </trkpt>
      <trkpt lat="48.81996" lon="2.4025">
        <ele>82</ele>
        <time>2015-05-25T18:43:39.604Z</time>
      </trkpt>
      <trkpt lat="48.81992" lon="2.40261">
        <ele>81.9</ele>
        <time>2015-05-25T18:43:40.533Z</time>
      </trkpt>
      <trkpt lat="48.81988" lon="2.40272">
        <ele>81.6</ele>
        <time>2015-05-25T18:43:41.550Z</time>
      </trkpt>
      <trkpt lat="48.81985" lon="2.40284">
        <ele>81.1</ele>
        <time>2015-05-25T18:43:42.569Z</time>
      </trkpt>
      <trkpt lat="48.81981" lon="2.40295">
        <ele>81.4</ele>
        <time>2015-05-25T18:43:43.577Z</time>
      </trkpt>
      <trkpt lat="48.81978" lon="2.40306">
        <ele>81.8</ele>
        <time>2015-05-25T18:43:44.587Z</time>
      </trkpt>
      <trkpt lat="48.81976" lon="2.40316">
        <ele>81.3</ele>
        <time>2015-05-25T18:43:45.603Z</time>
      </trkpt>
      <trkpt lat="48.81972" lon="2.40327">
        <ele>82.1</ele>
        <time>2015-05-25T18:43:46.508Z</time>
      </trkpt>
      <trkpt lat="48.81969" lon="2.40337">
        <ele>82.7</ele>
        <time>2015-05-25T18:43:47.526Z</time>
      </trkpt>
      <trkpt lat="48.81966" lon="2.40348">
        <ele>82.6</ele>
        <time>2015-05-25T18:43:48.555Z</time>
      </trkpt>
      <trkpt lat="48.81963" lon="2.40359">
        <ele>82.6</ele>
        <time>2015-05-25T18:43:49.559Z</time>
      </trkpt>
      <trkpt lat="48.8196" lon="2.4037">
        <ele>83.1</ele>
        <time>2015-05-25T18:43:50.556Z</time>
      </trkpt>
      <trkpt lat="48.81957" lon="2.4038">
        <ele>83.2</ele>
        <time>2015-05-25T18:43:51.570Z</time>
      </trkpt>
      <trkpt lat="48.81954" lon="2.40391">
        <ele>82.9</ele>
        <time>2015-05-25T18:43:52.531Z</time>
      </trkpt>
      <trkpt lat="48.81952" lon="2.40402">
        <ele>82.8</ele>
        <time>2015-05-25T18:43:53.528Z</time>
      </trkpt>
      <trkpt lat="48.8195" lon="2.40413">
        <ele>82.3</ele>
        <time>2015-05-25T18:43:54.567Z</time>
      </trkpt>
      <trkpt lat="48.81948" lon="2.40424">
        <ele>81.5</ele>
        <time>2015-05-25T18:43:55.650Z</time>
      </trkpt>
      <trkpt lat="48.81946" lon="2.40435">
        <ele>81.3</ele>
        <time>2015-05-25T18:43:56.532Z</time>
      </trkpt>
      <trkpt lat="48.81945" lon="2.40443">
        <ele>80.5</ele>
        <time>2015-05-25T18:43:57.544Z</time>
      </trkpt>
      <trkpt lat="48.81946" lon="2.40452">
        <ele>80.5</ele>
        <time>2015-05-25T18:43:58.560Z</time>
      </trkpt>
      <trkpt lat="48.81946" lon="2.4046">
        <ele>80.5</ele>
        <time>2015-05-25T18:43:59.570Z</time>
      </trkpt>
      <trkpt lat="48.81944" lon="2.40469">
        <ele>80.6</ele>
        <time>2015-05-25T18:44:00.586Z</time>
      </trkpt>
      <trkpt lat="48.81942" lon="2.40478">
        <ele>80.8</ele>
        <time>2015-05-25T18:44:01.599Z</time>
      </trkpt>
      <trkpt lat="48.81939" lon="2.40487">
        <ele>80.9</ele>
        <time>2015-05-25T18:44:02.611Z</time>
      </trkpt>
      <trkpt lat="48.81936" lon="2.40497">
        <ele>80.7</ele>
        <time>2015-05-25T18:44:03.543Z</time>
      </trkpt>
      <trkpt lat="48.81933" lon="2.40507">
        <ele>80.8</ele>
        <time>2015-05-25T18:44:04.526Z</time>
      </trkpt>
      <trkpt lat="48.81931" lon="2.40517">
        <ele>81</ele>
        <time>2015-05-25T18:44:05.569Z</time>
      </trkpt>
      <trkpt lat="48.81928" lon="2.40527">
        <ele>80.9</ele>
        <time>2015-05-25T18:44:06.629Z</time>
      </trkpt>
      <trkpt lat="48.81925" lon="2.40537">
        <ele>80.7</ele>
        <time>2015-05-25T18:44:07.634Z</time>
      </trkpt>
      <trkpt lat="48.81922" lon="2.40548">
        <ele>80.9</ele>
        <time>2015-05-25T18:44:08.535Z</time>
      </trkpt>
      <trkpt lat="48.81919" lon="2.4056">
        <ele>80.8</ele>
        <time>2015-05-25T18:44:09.853Z</time>
      </trkpt>
      <trkpt lat="48.81916" lon="2.40572">
        <ele>80.8</ele>
        <time>2015-05-25T18:44:10.494Z</time>
      </trkpt>
      <trkpt lat="48.81912" lon="2.40583">
        <ele>80.9</ele>
        <time>2015-05-25T18:44:11.510Z</time>
      </trkpt>
      <trkpt lat="48.81909" lon="2.40594">
        <ele>81.3</ele>
        <time>2015-05-25T18:44:12.558Z</time>
      </trkpt>
      <trkpt lat="48.81907" lon="2.40605">
        <ele>81.6</ele>
        <time>2015-05-25T18:44:13.575Z</time>
      </trkpt>
      <trkpt lat="48.81903" lon="2.40616">
        <ele>81.5</ele>
        <time>2015-05-25T18:44:14.510Z</time>
      </trkpt>
      <trkpt lat="48.819" lon="2.40626">
        <ele>81.4</ele>
        <time>2015-05-25T18:44:15.525Z</time>
      </trkpt>
      <trkpt lat="48.81897" lon="2.40636">
        <ele>81.6</ele>
        <time>2015-05-25T18:44:16.542Z</time>
      </trkpt>
      <trkpt lat="48.81895" lon="2.40647">
        <ele>81.7</ele>
        <time>2015-05-25T18:44:17.543Z</time>
      </trkpt>
      <trkpt lat="48.81892" lon="2.40658">
        <ele>82</ele>
        <time>2015-05-25T18:44:18.551Z</time>
      </trkpt>
      <trkpt lat="48.8189" lon="2.40668">
        <ele>82.4</ele>
        <time>2015-05-25T18:44:19.561Z</time>
      </trkpt>
      <trkpt lat="48.81887" lon="2.40678">
        <ele>82.4</ele>
        <time>2015-05-25T18:44:20.572Z</time>
      </trkpt>
      <trkpt lat="48.81884" lon="2.40688">
        <ele>82.4</ele>
        <time>2015-05-25T18:44:21.579Z</time>
      </trkpt>
      <trkpt lat="48.81881" lon="2.40699">
        <ele>82.6</ele>
        <time>2015-05-25T18:44:22.542Z</time>
      </trkpt>
      <trkpt lat="48.81878" lon="2.40708">
        <ele>82.5</ele>
        <time>2015-05-25T18:44:23.517Z</time>
      </trkpt>
      <trkpt lat="48.81876" lon="2.40717">
        <ele>82.3</ele>
        <time>2015-05-25T18:44:24.573Z</time>
      </trkpt>
      <trkpt lat="48.81874" lon="2.40725">
        <ele>81.9</ele>
        <time>2015-05-25T18:44:25.593Z</time>
      </trkpt>
      <trkpt lat="48.81871" lon="2.40733">
        <ele>81.3</ele>
        <time>2015-05-25T18:44:26.611Z</time>
      </trkpt>
      <trkpt lat="48.81869" lon="2.40743">
        <ele>80.8</ele>
        <time>2015-05-25T18:44:27.521Z</time>
      </trkpt>
      <trkpt lat="48.81867" lon="2.40753">
        <ele>80.7</ele>
        <time>2015-05-25T18:44:28.540Z</time>
      </trkpt>
      <trkpt lat="48.81866" lon="2.40763">
        <ele>81.1</ele>
        <time>2015-05-25T18:44:29.530Z</time>
      </trkpt>
      <trkpt lat="48.81864" lon="2.40773">
        <ele>81.3</ele>
        <time>2015-05-25T18:44:30.551Z</time>
      </trkpt>
      <trkpt lat="48.81862" lon="2.40783">
        <ele>81.5</ele>
        <time>2015-05-25T18:44:31.571Z</time>
      </trkpt>
      <trkpt lat="48.8186" lon="2.40791">
        <ele>80.6</ele>
        <time>2015-05-25T18:44:32.570Z</time>
      </trkpt>
      <trkpt lat="48.81859" lon="2.40798">
        <ele>80.5</ele>
        <time>2015-05-25T18:44:33.579Z</time>
      </trkpt>
      <trkpt lat="48.81858" lon="2.40785">
        <ele>81.4</ele>
        <time>2015-05-25T18:44:43.547Z</time>
      </trkpt>
      <trkpt lat="48.81856" lon="2.4078">
        <ele>81.7</ele>
        <time>2015-05-25T18:44:44.554Z</time>
      </trkpt>
      <trkpt lat="48.81856" lon="2.40772">
        <ele>82.1</ele>
        <time>2015-05-25T18:44:46.589Z</time>
      </trkpt>
      <trkpt lat="48.81854" lon="2.40766">
        <ele>82.7</ele>
        <time>2015-05-25T18:44:47.604Z</time>
      </trkpt>
      <trkpt lat="48.81854" lon="2.40756">
        <ele>83.1</ele>
        <time>2015-05-25T18:44:49.513Z</time>
      </trkpt>
      <trkpt lat="48.81853" lon="2.40751">
        <ele>83.5</ele>
        <time>2015-05-25T18:44:50.538Z</time>
      </trkpt>
      <trkpt lat="48.81856" lon="2.40743">
        <ele>84.4</ele>
        <time>2015-05-25T18:47:20.540Z</time>
      </trkpt>
      <trkpt lat="48.81869" lon="2.40754">
        <ele>89.2</ele>
        <time>2015-05-25T18:47:21.585Z</time>
      </trkpt>
      <trkpt lat="48.8187" lon="2.40763">
        <ele>88.9</ele>
        <time>2015-05-25T18:47:25.571Z</time>
      </trkpt>
      <trkpt lat="48.81871" lon="2.40768">
        <ele>89.3</ele>
        <time>2015-05-25T18:47:26.602Z</time>
      </trkpt>
      <trkpt lat="48.81871" lon="2.40777">
        <ele>89.2</ele>
        <time>2015-05-25T18:47:28.520Z</time>
      </trkpt>
      <trkpt lat="48.81872" lon="2.40781">
        <ele>88.8</ele>
        <time>2015-05-25T18:47:29.535Z</time>
      </trkpt>
      <trkpt lat="48.81867" lon="2.40791">
        <ele>87.8</ele>
        <time>2015-05-25T18:47:34.513Z</time>
      </trkpt>
      <trkpt lat="48.81865" lon="2.40791">
        <ele>87.8</ele>
        <time>2015-05-25T18:47:35.606Z</time>
      </trkpt>
      <trkpt lat="48.81867" lon="2.40782">
        <ele>85.4</ele>
        <time>2015-05-25T18:48:21.567Z</time>
      </trkpt>
      <trkpt lat="48.81869" lon="2.40779">
        <ele>85.5</ele>
        <time>2015-05-25T18:48:22.583Z</time>
      </trkpt>
      <trkpt lat="48.81872" lon="2.4077">
        <ele>86.1</ele>
        <time>2015-05-25T18:48:24.529Z</time>
      </trkpt>
      <trkpt lat="48.81873" lon="2.40765">
        <ele>86.1</ele>
        <time>2015-05-25T18:48:25.566Z</time>
      </trkpt>
      <trkpt lat="48.81867" lon="2.40772">
        <ele>86.1</ele>
        <time>2015-05-25T18:48:32.490Z</time>
      </trkpt>
      <trkpt lat="48.81866" lon="2.40776">
        <ele>86.1</ele>
        <time>2015-05-25T18:48:33.505Z</time>
      </trkpt>
      <trkpt lat="48.81864" lon="2.40789">
        <ele>86.3</ele>
        <time>2015-05-25T18:48:35.535Z</time>
      </trkpt>
      <trkpt lat="48.81862" lon="2.40796">
        <ele>86.3</ele>
        <time>2015-05-25T18:48:36.555Z</time>
      </trkpt>
      <trkpt lat="48.8186" lon="2.40803">
        <ele>86.3</ele>
        <time>2015-05-25T18:48:37.522Z</time>
      </trkpt>
      <trkpt lat="48.81858" lon="2.40809">
        <ele>86.1</ele>
        <time>2015-05-25T18:48:38.535Z</time>
      </trkpt>
      <trkpt lat="48.81857" lon="2.40816">
        <ele>86.1</ele>
        <time>2015-05-25T18:48:39.553Z</time>
      </trkpt>
      <trkpt lat="48.81855" lon="2.40823">
        <ele>86</ele>
        <time>2015-05-25T18:48:40.574Z</time>
      </trkpt>
      <trkpt lat="48.81852" lon="2.4083">
        <ele>85.7</ele>
        <time>2015-05-25T18:48:41.586Z</time>
      </trkpt>
      <trkpt lat="48.81851" lon="2.40839">
        <ele>85.4</ele>
        <time>2015-05-25T18:48:42.597Z</time>
      </trkpt>
      <trkpt lat="48.81849" lon="2.40847">
        <ele>85</ele>
        <time>2015-05-25T18:48:43.614Z</time>
      </trkpt>
      <trkpt lat="48.81847" lon="2.40854">
        <ele>84.9</ele>
        <time>2015-05-25T18:48:44.505Z</time>
      </trkpt>
      <trkpt lat="48.81845" lon="2.40861">
        <ele>84.6</ele>
        <time>2015-05-25T18:48:45.520Z</time>
      </trkpt>
      <trkpt lat="48.81844" lon="2.40868">
        <ele>84.7</ele>
        <time>2015-05-25T18:48:46.527Z</time>
      </trkpt>
      <trkpt lat="48.81843" lon="2.40875">
        <ele>84.9</ele>
        <time>2015-05-25T18:48:47.549Z</time>
      </trkpt>
      <trkpt lat="48.81841" lon="2.40882">
        <ele>85</ele>
        <time>2015-05-25T18:48:48.562Z</time>
      </trkpt>
      <trkpt lat="48.81839" lon="2.40889">
        <ele>85.3</ele>
        <time>2015-05-25T18:48:49.607Z</time>
      </trkpt>
      <trkpt lat="48.81837" lon="2.40895">
        <ele>85.4</ele>
        <time>2015-05-25T18:48:50.507Z</time>
      </trkpt>
      <trkpt lat="48.81835" lon="2.40902">
        <ele>85.3</ele>
        <time>2015-05-25T18:48:51.531Z</time>
      </trkpt>
      <trkpt lat="48.81834" lon="2.4091">
        <ele>85.5</ele>
        <time>2015-05-25T18:48:52.536Z</time>
      </trkpt>
      <trkpt lat="48.81832" lon="2.40918">
        <ele>85.6</ele>
        <time>2015-05-25T18:48:53.538Z</time>
      </trkpt>
      <trkpt lat="48.8183" lon="2.40924">
        <ele>85.7</ele>
        <time>2015-05-25T18:48:54.552Z</time>
      </trkpt>
      <trkpt lat="48.81827" lon="2.40931">
        <ele>85.9</ele>
        <time>2015-05-25T18:48:55.564Z</time>
      </trkpt>
      <trkpt lat="48.81825" lon="2.40938">
        <ele>86</ele>
        <time>2015-05-25T18:48:56.567Z</time>
      </trkpt>
      <trkpt lat="48.81823" lon="2.40944">
        <ele>85.9</ele>
        <time>2015-05-25T18:48:57.582Z</time>
      </trkpt>
      <trkpt lat="48.81822" lon="2.40952">
        <ele>86.2</ele>
        <time>2015-05-25T18:48:58.509Z</time>
      </trkpt>
      <trkpt lat="48.81821" lon="2.4096">
        <ele>86.3</ele>
        <time>2015-05-25T18:48:59.508Z</time>
      </trkpt>
      <trkpt lat="48.81819" lon="2.40968">
        <ele>86.4</ele>
        <time>2015-05-25T18:49:00.551Z</time>
      </trkpt>
      <trkpt lat="48.81817" lon="2.40976">
        <ele>86.3</ele>
        <time>2015-05-25T18:49:01.536Z</time>
      </trkpt>
      <trkpt lat="48.81816" lon="2.40984">
        <ele>86.2</ele>
        <time>2015-05-25T18:49:02.534Z</time>
      </trkpt>
      <trkpt lat="48.81814" lon="2.40992">
        <ele>86.2</ele>
        <time>2015-05-25T18:49:03.555Z</time>
      </trkpt>
      <trkpt lat="48.81813" lon="2.41">
        <ele>86.1</ele>
        <time>2015-05-25T18:49:04.560Z</time>
      </trkpt>
      <trkpt lat="48.81811" lon="2.41007">
        <ele>86.1</ele>
        <time>2015-05-25T18:49:05.656Z</time>
      </trkpt>
      <trkpt lat="48.81808" lon="2.41015">
        <ele>86.1</ele>
        <time>2015-05-25T18:49:06.520Z</time>
      </trkpt>
      <trkpt lat="48.81807" lon="2.41024">
        <ele>86.1</ele>
        <time>2015-05-25T18:49:07.528Z</time>
      </trkpt>
      <trkpt lat="48.81805" lon="2.41032">
        <ele>86</ele>
        <time>2015-05-25T18:49:08.529Z</time>
      </trkpt>
      <trkpt lat="48.81803" lon="2.4104">
        <ele>85.9</ele>
        <time>2015-05-25T18:49:09.546Z</time>
      </trkpt>
      <trkpt lat="48.81801" lon="2.41047">
        <ele>85.6</ele>
        <time>2015-05-25T18:49:10.551Z</time>
      </trkpt>
      <trkpt lat="48.818" lon="2.41055">
        <ele>85.5</ele>
        <time>2015-05-25T18:49:11.560Z</time>
      </trkpt>
      <trkpt lat="48.81798" lon="2.41063">
        <ele>85.5</ele>
        <time>2015-05-25T18:49:12.563Z</time>
      </trkpt>
      <trkpt lat="48.81796" lon="2.4107">
        <ele>85.5</ele>
        <time>2015-05-25T18:49:13.583Z</time>
      </trkpt>
      <trkpt lat="48.81795" lon="2.41076">
        <ele>85.6</ele>
        <time>2015-05-25T18:49:14.591Z</time>
      </trkpt>
      <trkpt lat="48.81792" lon="2.41089">
        <ele>85.4</ele>
        <time>2015-05-25T18:49:16.507Z</time>
      </trkpt>
      <trkpt lat="48.81791" lon="2.41095">
        <ele>85.2</ele>
        <time>2015-05-25T18:49:17.515Z</time>
      </trkpt>
      <trkpt lat="48.8179" lon="2.41102">
        <ele>84.9</ele>
        <time>2015-05-25T18:49:18.533Z</time>
      </trkpt>
      <trkpt lat="48.81789" lon="2.41109">
        <ele>84.8</ele>
        <time>2015-05-25T18:49:19.551Z</time>
      </trkpt>
      <trkpt lat="48.81787" lon="2.4112">
        <ele>84.8</ele>
        <time>2015-05-25T18:49:21.575Z</time>
      </trkpt>
      <trkpt lat="48.81786" lon="2.41125">
        <ele>84.9</ele>
        <time>2015-05-25T18:49:22.477Z</time>
      </trkpt>
      <trkpt lat="48.81783" lon="2.41136">
        <ele>85.1</ele>
        <time>2015-05-25T18:49:24.554Z</time>
      </trkpt>
      <trkpt lat="48.81782" lon="2.41141">
        <ele>85.1</ele>
        <time>2015-05-25T18:49:25.571Z</time>
      </trkpt>
      <trkpt lat="48.8178" lon="2.41154">
        <ele>84.9</ele>
        <time>2015-05-25T18:49:27.516Z</time>
      </trkpt>
      <trkpt lat="48.81778" lon="2.4116">
        <ele>84.8</ele>
        <time>2015-05-25T18:49:28.527Z</time>
      </trkpt>
      <trkpt lat="48.81776" lon="2.41172">
        <ele>84.7</ele>
        <time>2015-05-25T18:49:30.554Z</time>
      </trkpt>
      <trkpt lat="48.81775" lon="2.41178">
        <ele>84.7</ele>
        <time>2015-05-25T18:49:31.580Z</time>
      </trkpt>
      <trkpt lat="48.81773" lon="2.41189">
        <ele>84.4</ele>
        <time>2015-05-25T18:49:33.598Z</time>
      </trkpt>
      <trkpt lat="48.81771" lon="2.41194">
        <ele>84.5</ele>
        <time>2015-05-25T18:49:34.523Z</time>
      </trkpt>
      <trkpt lat="48.8177" lon="2.41203">
        <ele>84.2</ele>
        <time>2015-05-25T18:49:36.532Z</time>
      </trkpt>
      <trkpt lat="48.81769" lon="2.41208">
        <ele>83.9</ele>
        <time>2015-05-25T18:49:37.563Z</time>
      </trkpt>
      <trkpt lat="48.81768" lon="2.4122">
        <ele>85</ele>
        <time>2015-05-25T18:49:41.532Z</time>
      </trkpt>
      <trkpt lat="48.81768" lon="2.41224">
        <ele>84.9</ele>
        <time>2015-05-25T18:49:42.576Z</time>
      </trkpt>
      <trkpt lat="48.81775" lon="2.41231">
        <ele>85.2</ele>
        <time>2015-05-25T18:49:46.577Z</time>
      </trkpt>
      <trkpt lat="48.81778" lon="2.41232">
        <ele>85</ele>
        <time>2015-05-25T18:49:47.578Z</time>
      </trkpt>
      <trkpt lat="48.81783" lon="2.41236">
        <ele>83.9</ele>
        <time>2015-05-25T18:49:52.550Z</time>
      </trkpt>
      <trkpt lat="48.81786" lon="2.41237">
        <ele>83.9</ele>
        <time>2015-05-25T18:49:53.563Z</time>
      </trkpt>
      <trkpt lat="48.81794" lon="2.41238">
        <ele>84.2</ele>
        <time>2015-05-25T18:49:57.579Z</time>
      </trkpt>
      <trkpt lat="48.81796" lon="2.41239">
        <ele>84.1</ele>
        <time>2015-05-25T18:49:58.665Z</time>
      </trkpt>
      <trkpt lat="48.81805" lon="2.41237">
        <ele>83.2</ele>
        <time>2015-05-25T18:50:02.606Z</time>
      </trkpt>
      <trkpt lat="48.81806" lon="2.41238">
        <ele>82.9</ele>
        <time>2015-05-25T18:50:03.490Z</time>
      </trkpt>
      <trkpt lat="48.81813" lon="2.41234">
        <ele>83</ele>
        <time>2015-05-25T18:50:13.490Z</time>
      </trkpt>
      <trkpt lat="48.81814" lon="2.41232">
        <ele>83.2</ele>
        <time>2015-05-25T18:50:14.509Z</time>
      </trkpt>
      <trkpt lat="48.81819" lon="2.41223">
        <ele>82.3</ele>
        <time>2015-05-25T18:50:16.535Z</time>
      </trkpt>
      <trkpt lat="48.8182" lon="2.41219">
        <ele>82.3</ele>
        <time>2015-05-25T18:50:17.549Z</time>
      </trkpt>
      <trkpt lat="48.81822" lon="2.41208">
        <ele>82</ele>
        <time>2015-05-25T18:50:19.573Z</time>
      </trkpt>
      <trkpt lat="48.81823" lon="2.41203">
        <ele>81.9</ele>
        <time>2015-05-25T18:50:20.472Z</time>
      </trkpt>
      <trkpt lat="48.81824" lon="2.41189">
        <ele>81.7</ele>
        <time>2015-05-25T18:50:22.518Z</time>
      </trkpt>
      <trkpt lat="48.81825" lon="2.41181">
        <ele>82</ele>
        <time>2015-05-25T18:50:23.522Z</time>
      </trkpt>
      <trkpt lat="48.81825" lon="2.41173">
        <ele>82</ele>
        <time>2015-05-25T18:50:24.505Z</time>
      </trkpt>
      <trkpt lat="48.81826" lon="2.41166">
        <ele>82</ele>
        <time>2015-05-25T18:50:25.509Z</time>
      </trkpt>
      <trkpt lat="48.81828" lon="2.41155">
        <ele>81.6</ele>
        <time>2015-05-25T18:50:27.537Z</time>
      </trkpt>
      <trkpt lat="48.8183" lon="2.41152">
        <ele>81.8</ele>
        <time>2015-05-25T18:50:28.609Z</time>
      </trkpt>
      <trkpt lat="48.81835" lon="2.41156">
        <ele>82.7</ele>
        <time>2015-05-25T18:50:31.633Z</time>
      </trkpt>
      <trkpt lat="48.81837" lon="2.41161">
        <ele>82.7</ele>
        <time>2015-05-25T18:50:32.496Z</time>
      </trkpt>
      <trkpt lat="48.81839" lon="2.41174">
        <ele>82.6</ele>
        <time>2015-05-25T18:50:34.484Z</time>
      </trkpt>
      <trkpt lat="48.81839" lon="2.41179">
        <ele>82.2</ele>
        <time>2015-05-25T18:50:35.503Z</time>
      </trkpt>
      <trkpt lat="48.81839" lon="2.41189">
        <ele>82</ele>
        <time>2015-05-25T18:50:37.556Z</time>
      </trkpt>
      <trkpt lat="48.8184" lon="2.41195">
        <ele>81.8</ele>
        <time>2015-05-25T18:50:38.565Z</time>
      </trkpt>
      <trkpt lat="48.81839" lon="2.41205">
        <ele>82.1</ele>
        <time>2015-05-25T18:50:40.744Z</time>
      </trkpt>
      <trkpt lat="48.81839" lon="2.4121">
        <ele>82.1</ele>
        <time>2015-05-25T18:50:41.519Z</time>
      </trkpt>
      <trkpt lat="48.81838" lon="2.41219">
        <ele>82</ele>
        <time>2015-05-25T18:50:43.581Z</time>
      </trkpt>
      <trkpt lat="48.81837" lon="2.41224">
        <ele>82</ele>
        <time>2015-05-25T18:50:44.500Z</time>
      </trkpt>
      <trkpt lat="48.81833" lon="2.41233">
        <ele>81.9</ele>
        <time>2015-05-25T18:50:46.494Z</time>
      </trkpt>
      <trkpt lat="48.81832" lon="2.41238">
        <ele>81.9</ele>
        <time>2015-05-25T18:50:47.549Z</time>
      </trkpt>
      <trkpt lat="48.81834" lon="2.41249">
        <ele>81.8</ele>
        <time>2015-05-25T18:50:49.507Z</time>
      </trkpt>
      <trkpt lat="48.81835" lon="2.41253">
        <ele>81.8</ele>
        <time>2015-05-25T18:50:50.633Z</time>
      </trkpt>
      <trkpt lat="48.81839" lon="2.41264">
        <ele>81.6</ele>
        <time>2015-05-25T18:50:53.604Z</time>
      </trkpt>
      <trkpt lat="48.8184" lon="2.41266">
        <ele>81.5</ele>
        <time>2015-05-25T18:50:54.680Z</time>
      </trkpt>
      <trkpt lat="48.81847" lon="2.41273">
        <ele>81.9</ele>
        <time>2015-05-25T18:50:57.525Z</time>
      </trkpt>
      <trkpt lat="48.81848" lon="2.41274">
        <ele>82.4</ele>
        <time>2015-05-25T18:50:58.536Z</time>
      </trkpt>
      <trkpt lat="48.81854" lon="2.4128">
        <ele>83.3</ele>
        <time>2015-05-25T18:51:01.543Z</time>
      </trkpt>
      <trkpt lat="48.81856" lon="2.41281">
        <ele>83.5</ele>
        <time>2015-05-25T18:51:02.567Z</time>
      </trkpt>
      <trkpt lat="48.81862" lon="2.41285">
        <ele>84</ele>
        <time>2015-05-25T18:51:05.523Z</time>
      </trkpt>
      <trkpt lat="48.81865" lon="2.41287">
        <ele>84</ele>
        <time>2015-05-25T18:51:06.535Z</time>
      </trkpt>
      <trkpt lat="48.81872" lon="2.4129">
        <ele>84.1</ele>
        <time>2015-05-25T18:51:08.455Z</time>
      </trkpt>
      <trkpt lat="48.81874" lon="2.41291">
        <ele>84.5</ele>
        <time>2015-05-25T18:51:09.571Z</time>
      </trkpt>
      <trkpt lat="48.8188" lon="2.41299">
        <ele>85.5</ele>
        <time>2015-05-25T18:51:13.663Z</time>
      </trkpt>
      <trkpt lat="48.81881" lon="2.413">
        <ele>85.6</ele>
        <time>2015-05-25T18:51:14.496Z</time>
      </trkpt>
      <trkpt lat="48.81881" lon="2.413">
        <ele>85.6</ele>
        <time>2015-05-25T18:51:44.479Z</time>
      </trkpt>
      <trkpt lat="48.81899" lon="2.41317">
        <ele>101.1</ele>
        <time>2015-05-25T18:51:45.494Z</time>
      </trkpt>
      <trkpt lat="48.81904" lon="2.41322">
        <ele>100.3</ele>
        <time>2015-05-25T18:51:48.545Z</time>
      </trkpt>
      <trkpt lat="48.81907" lon="2.41325">
        <ele>100</ele>
        <time>2015-05-25T18:51:49.544Z</time>
      </trkpt>
      <trkpt lat="48.81915" lon="2.4133">
        <ele>99.7</ele>
        <time>2015-05-25T18:51:53.046Z</time>
      </trkpt>
      <trkpt lat="48.81917" lon="2.41334">
        <ele>99.8</ele>
        <time>2015-05-25T18:51:53.502Z</time>
      </trkpt>
      <trkpt lat="48.81923" lon="2.41338">
        <ele>99.3</ele>
        <time>2015-05-25T18:51:55.551Z</time>
      </trkpt>
      <trkpt lat="48.81926" lon="2.4134">
        <ele>98</ele>
        <time>2015-05-25T18:51:56.470Z</time>
      </trkpt>
      <trkpt lat="48.81931" lon="2.41344">
        <ele>98</ele>
        <time>2015-05-25T18:51:58.510Z</time>
      </trkpt>
      <trkpt lat="48.81934" lon="2.41347">
        <ele>97.4</ele>
        <time>2015-05-25T18:51:59.512Z</time>
      </trkpt>
      <trkpt lat="48.81942" lon="2.41353">
        <ele>96.4</ele>
        <time>2015-05-25T18:52:01.761Z</time>
      </trkpt>
      <trkpt lat="48.81945" lon="2.41355">
        <ele>95.7</ele>
        <time>2015-05-25T18:52:02.555Z</time>
      </trkpt>
      <trkpt lat="48.81951" lon="2.41361">
        <ele>95.8</ele>
        <time>2015-05-25T18:52:04.573Z</time>
      </trkpt>
      <trkpt lat="48.81953" lon="2.41363">
        <ele>96</ele>
        <time>2015-05-25T18:52:05.464Z</time>
      </trkpt>
      <trkpt lat="48.81961" lon="2.41368">
        <ele>96.3</ele>
        <time>2015-05-25T18:52:08.519Z</time>
      </trkpt>
      <trkpt lat="48.81963" lon="2.4137">
        <ele>96.2</ele>
        <time>2015-05-25T18:52:09.550Z</time>
      </trkpt>
      <trkpt lat="48.81969" lon="2.41374">
        <ele>96.1</ele>
        <time>2015-05-25T18:52:13.252Z</time>
      </trkpt>
      <trkpt lat="48.81972" lon="2.41375">
        <ele>96</ele>
        <time>2015-05-25T18:52:13.547Z</time>
      </trkpt>
      <trkpt lat="48.8198" lon="2.41377">
        <ele>96</ele>
        <time>2015-05-25T18:52:39.522Z</time>
      </trkpt>
      <trkpt lat="48.81993" lon="2.41404">
        <ele>99.4</ele>
        <time>2015-05-25T18:52:40.538Z</time>
      </trkpt>
      <trkpt lat="48.82001" lon="2.41408">
        <ele>100.3</ele>
        <time>2015-05-25T18:52:44.494Z</time>
      </trkpt>
      <trkpt lat="48.82004" lon="2.4141">
        <ele>100.6</ele>
        <time>2015-05-25T18:52:45.520Z</time>
      </trkpt>
      <trkpt lat="48.8201" lon="2.41416">
        <ele>101.2</ele>
        <time>2015-05-25T18:52:48.905Z</time>
      </trkpt>
      <trkpt lat="48.82013" lon="2.41417">
        <ele>101.4</ele>
        <time>2015-05-25T18:52:49.558Z</time>
      </trkpt>
      <trkpt lat="48.8202" lon="2.41422">
        <ele>101.8</ele>
        <time>2015-05-25T18:52:52.980Z</time>
      </trkpt>
      <trkpt lat="48.82023" lon="2.41425">
        <ele>101.9</ele>
        <time>2015-05-25T18:52:53.589Z</time>
      </trkpt>
      <trkpt lat="48.82029" lon="2.41434">
        <ele>102.4</ele>
        <time>2015-05-25T18:52:56.539Z</time>
      </trkpt>
      <trkpt lat="48.8203" lon="2.41438">
        <ele>102.5</ele>
        <time>2015-05-25T18:52:57.550Z</time>
      </trkpt>
      <trkpt lat="48.82033" lon="2.4145">
        <ele>102.7</ele>
        <time>2015-05-25T18:53:03.493Z</time>
      </trkpt>
      <trkpt lat="48.82036" lon="2.41451">
        <ele>102.6</ele>
        <time>2015-05-25T18:53:04.469Z</time>
      </trkpt>
      <trkpt lat="48.82038" lon="2.41454">
        <ele>102.5</ele>
        <time>2015-05-25T18:53:05.523Z</time>
      </trkpt>
      <trkpt lat="48.82058" lon="2.41467">
        <ele>101.8</ele>
        <time>2015-05-25T18:53:14.470Z</time>
      </trkpt>
      <trkpt lat="48.82059" lon="2.41466">
        <ele>101.8</ele>
        <time>2015-05-25T18:53:15.479Z</time>
      </trkpt>
      <trkpt lat="48.82065" lon="2.41455">
        <ele>100.1</ele>
        <time>2015-05-25T18:53:16.527Z</time>
      </trkpt>
      <trkpt lat="48.82072" lon="2.41444">
        <ele>97.6</ele>
        <time>2015-05-25T18:53:17.576Z</time>
      </trkpt>
      <trkpt lat="48.82078" lon="2.41451">
        <ele>99.8</ele>
        <time>2015-05-25T18:53:20.527Z</time>
      </trkpt>
      <trkpt lat="48.82081" lon="2.41455">
        <ele>100.4</ele>
        <time>2015-05-25T18:53:21.491Z</time>
      </trkpt>
      <trkpt lat="48.82083" lon="2.41464">
        <ele>100.6</ele>
        <time>2015-05-25T18:53:30.506Z</time>
      </trkpt>
      <trkpt lat="48.82077" lon="2.41475">
        <ele>99.6</ele>
        <time>2015-05-25T18:53:31.514Z</time>
      </trkpt>
      <trkpt lat="48.8207" lon="2.41479">
        <ele>99.7</ele>
        <time>2015-05-25T18:53:35.501Z</time>
      </trkpt>
      <trkpt lat="48.82068" lon="2.4148">
        <ele>99.8</ele>
        <time>2015-05-25T18:53:36.522Z</time>
      </trkpt>
      <trkpt lat="48.8206" lon="2.41485">
        <ele>100.5</ele>
        <time>2015-05-25T18:53:40.548Z</time>
      </trkpt>
      <trkpt lat="48.82058" lon="2.41487">
        <ele>100.9</ele>
        <time>2015-05-25T18:53:41.562Z</time>
      </trkpt>
      <trkpt lat="48.82052" lon="2.41492">
        <ele>101.2</ele>
        <time>2015-05-25T18:53:44.408Z</time>
      </trkpt>
      <trkpt lat="48.82049" lon="2.41495">
        <ele>101.4</ele>
        <time>2015-05-25T18:53:44.464Z</time>
      </trkpt>
      <trkpt lat="48.82042" lon="2.41502">
        <ele>101.5</ele>
        <time>2015-05-25T18:53:46.504Z</time>
      </trkpt>
      <trkpt lat="48.82039" lon="2.41505">
        <ele>101.5</ele>
        <time>2015-05-25T18:53:47.521Z</time>
      </trkpt>
      <trkpt lat="48.82033" lon="2.41512">
        <ele>101.6</ele>
        <time>2015-05-25T18:53:49.537Z</time>
      </trkpt>
      <trkpt lat="48.8203" lon="2.41517">
        <ele>101.9</ele>
        <time>2015-05-25T18:53:50.550Z</time>
      </trkpt>
      <trkpt lat="48.82024" lon="2.41524">
        <ele>102</ele>
        <time>2015-05-25T18:53:52.974Z</time>
      </trkpt>
      <trkpt lat="48.82021" lon="2.41529">
        <ele>102.4</ele>
        <time>2015-05-25T18:53:53.584Z</time>
      </trkpt>
      <trkpt lat="48.82014" lon="2.41536">
        <ele>103.5</ele>
        <time>2015-05-25T18:53:55.544Z</time>
      </trkpt>
      <trkpt lat="48.82012" lon="2.41541">
        <ele>103.9</ele>
        <time>2015-05-25T18:53:56.629Z</time>
      </trkpt>
      <trkpt lat="48.82007" lon="2.4155">
        <ele>105.1</ele>
        <time>2015-05-25T18:53:59.490Z</time>
      </trkpt>
      <trkpt lat="48.82005" lon="2.41554">
        <ele>105</ele>
        <time>2015-05-25T18:54:00.506Z</time>
      </trkpt>
      <trkpt lat="48.81999" lon="2.41556">
        <ele>105</ele>
        <time>2015-05-25T18:54:03.115Z</time>
      </trkpt>
      <trkpt lat="48.81996" lon="2.41558">
        <ele>104.9</ele>
        <time>2015-05-25T18:54:03.498Z</time>
      </trkpt>
      <trkpt lat="48.81989" lon="2.41563">
        <ele>104.4</ele>
        <time>2015-05-25T18:54:05.507Z</time>
      </trkpt>
      <trkpt lat="48.81985" lon="2.41565">
        <ele>104</ele>
        <time>2015-05-25T18:54:06.529Z</time>
      </trkpt>
      <trkpt lat="48.81978" lon="2.41571">
        <ele>103.2</ele>
        <time>2015-05-25T18:54:08.554Z</time>
      </trkpt>
      <trkpt lat="48.81975" lon="2.41575">
        <ele>103.1</ele>
        <time>2015-05-25T18:54:09.570Z</time>
      </trkpt>
      <trkpt lat="48.81968" lon="2.41581">
        <ele>103.4</ele>
        <time>2015-05-25T18:54:11.574Z</time>
      </trkpt>
      <trkpt lat="48.81966" lon="2.41585">
        <ele>103.5</ele>
        <time>2015-05-25T18:54:12.589Z</time>
      </trkpt>
      <trkpt lat="48.8196" lon="2.41594">
        <ele>103.4</ele>
        <time>2015-05-25T18:54:15.585Z</time>
      </trkpt>
      <trkpt lat="48.81958" lon="2.41597">
        <ele>103.3</ele>
        <time>2015-05-25T18:54:16.461Z</time>
      </trkpt>
      <trkpt lat="48.81951" lon="2.41604">
        <ele>103.1</ele>
        <time>2015-05-25T18:54:19.503Z</time>
      </trkpt>
      <trkpt lat="48.81948" lon="2.41607">
        <ele>103.2</ele>
        <time>2015-05-25T18:54:20.507Z</time>
      </trkpt>
      <trkpt lat="48.81944" lon="2.41614">
        <ele>102.4</ele>
        <time>2015-05-25T18:54:22.526Z</time>
      </trkpt>
      <trkpt lat="48.81942" lon="2.41618">
        <ele>102.4</ele>
        <time>2015-05-25T18:54:23.740Z</time>
      </trkpt>
      <trkpt lat="48.81941" lon="2.4163">
        <ele>101.9</ele>
        <time>2015-05-25T18:54:26.523Z</time>
      </trkpt>
      <trkpt lat="48.81941" lon="2.41634">
        <ele>101.8</ele>
        <time>2015-05-25T18:54:27.531Z</time>
      </trkpt>
      <trkpt lat="48.81945" lon="2.41644">
        <ele>102.3</ele>
        <time>2015-05-25T18:54:30.579Z</time>
      </trkpt>
      <trkpt lat="48.81946" lon="2.41648">
        <ele>102.6</ele>
        <time>2015-05-25T18:54:31.582Z</time>
      </trkpt>
      <trkpt lat="48.81949" lon="2.4166">
        <ele>103.6</ele>
        <time>2015-05-25T18:54:34.469Z</time>
      </trkpt>
      <trkpt lat="48.81951" lon="2.41664">
        <ele>103.9</ele>
        <time>2015-05-25T18:54:35.491Z</time>
      </trkpt>
      <trkpt lat="48.81956" lon="2.41671">
        <ele>104.2</ele>
        <time>2015-05-25T18:54:37.503Z</time>
      </trkpt>
      <trkpt lat="48.81959" lon="2.41674">
        <ele>104.3</ele>
        <time>2015-05-25T18:54:38.510Z</time>
      </trkpt>
      <trkpt lat="48.81962" lon="2.41684">
        <ele>104.5</ele>
        <time>2015-05-25T18:54:40.570Z</time>
      </trkpt>
      <trkpt lat="48.81964" lon="2.41689">
        <ele>104.7</ele>
        <time>2015-05-25T18:54:41.521Z</time>
      </trkpt>
      <trkpt lat="48.81967" lon="2.41699">
        <ele>105.4</ele>
        <time>2015-05-25T18:54:44.241Z</time>
      </trkpt>
      <trkpt lat="48.81968" lon="2.41704">
        <ele>105.6</ele>
        <time>2015-05-25T18:54:44.497Z</time>
      </trkpt>
      <trkpt lat="48.81974" lon="2.41714">
        <ele>106.4</ele>
        <time>2015-05-25T18:54:46.531Z</time>
      </trkpt>
      <trkpt lat="48.81977" lon="2.41719">
        <ele>106.7</ele>
        <time>2015-05-25T18:54:47.468Z</time>
      </trkpt>
      <trkpt lat="48.8198" lon="2.4173">
        <ele>107.2</ele>
        <time>2015-05-25T18:54:49.486Z</time>
      </trkpt>
      <trkpt lat="48.8198" lon="2.41736">
        <ele>107.1</ele>
        <time>2015-05-25T18:54:50.506Z</time>
      </trkpt>
      <trkpt lat="48.8198" lon="2.41743">
        <ele>107.2</ele>
        <time>2015-05-25T18:54:51.537Z</time>
      </trkpt>
      <trkpt lat="48.81981" lon="2.4175">
        <ele>107.1</ele>
        <time>2015-05-25T18:54:52.558Z</time>
      </trkpt>
      <trkpt lat="48.81984" lon="2.41762">
        <ele>107.4</ele>
        <time>2015-05-25T18:54:54.505Z</time>
      </trkpt>
      <trkpt lat="48.81986" lon="2.41768">
        <ele>107.7</ele>
        <time>2015-05-25T18:54:55.538Z</time>
      </trkpt>
      <trkpt lat="48.81991" lon="2.41779">
        <ele>108.5</ele>
        <time>2015-05-25T18:54:57.499Z</time>
      </trkpt>
      <trkpt lat="48.81992" lon="2.41786">
        <ele>108.7</ele>
        <time>2015-05-25T18:54:58.536Z</time>
      </trkpt>
      <trkpt lat="48.81994" lon="2.41796">
        <ele>108.9</ele>
        <time>2015-05-25T18:55:00.508Z</time>
      </trkpt>
      <trkpt lat="48.81994" lon="2.41802">
        <ele>108.9</ele>
        <time>2015-05-25T18:55:01.557Z</time>
      </trkpt>
      <trkpt lat="48.81994" lon="2.41815">
        <ele>109.2</ele>
        <time>2015-05-25T18:55:03.587Z</time>
      </trkpt>
      <trkpt lat="48.81995" lon="2.41823">
        <ele>109.5</ele>
        <time>2015-05-25T18:55:04.518Z</time>
      </trkpt>
      <trkpt lat="48.81996" lon="2.4183">
        <ele>109.6</ele>
        <time>2015-05-25T18:55:05.556Z</time>
      </trkpt>
      <trkpt lat="48.81997" lon="2.41838">
        <ele>109.8</ele>
        <time>2015-05-25T18:55:06.559Z</time>
      </trkpt>
      <trkpt lat="48.81998" lon="2.41846">
        <ele>109.9</ele>
        <time>2015-05-25T18:55:07.583Z</time>
      </trkpt>
      <trkpt lat="48.81998" lon="2.41852">
        <ele>110</ele>
        <time>2015-05-25T18:55:08.502Z</time>
      </trkpt>
      <trkpt lat="48.82" lon="2.41865">
        <ele>109.9</ele>
        <time>2015-05-25T18:55:10.502Z</time>
      </trkpt>
      <trkpt lat="48.82001" lon="2.4187">
        <ele>110</ele>
        <time>2015-05-25T18:55:11.507Z</time>
      </trkpt>
      <trkpt lat="48.82003" lon="2.41882">
        <ele>110.6</ele>
        <time>2015-05-25T18:55:13.547Z</time>
      </trkpt>
      <trkpt lat="48.82004" lon="2.41887">
        <ele>110.7</ele>
        <time>2015-05-25T18:55:14.551Z</time>
      </trkpt>
      <trkpt lat="48.82007" lon="2.41899">
        <ele>111.5</ele>
        <time>2015-05-25T18:55:16.497Z</time>
      </trkpt>
      <trkpt lat="48.82008" lon="2.41905">
        <ele>112.3</ele>
        <time>2015-05-25T18:55:17.605Z</time>
      </trkpt>
      <trkpt lat="48.82009" lon="2.41912">
        <ele>112.9</ele>
        <time>2015-05-25T18:55:18.564Z</time>
      </trkpt>
      <trkpt lat="48.8201" lon="2.41919">
        <ele>113.4</ele>
        <time>2015-05-25T18:55:19.617Z</time>
      </trkpt>
      <trkpt lat="48.82011" lon="2.4193">
        <ele>114.1</ele>
        <time>2015-05-25T18:55:21.504Z</time>
      </trkpt>
      <trkpt lat="48.82012" lon="2.41934">
        <ele>114.3</ele>
        <time>2015-05-25T18:55:22.511Z</time>
      </trkpt>
      <trkpt lat="48.82015" lon="2.41946">
        <ele>114.6</ele>
        <time>2015-05-25T18:55:25.596Z</time>
      </trkpt>
      <trkpt lat="48.82017" lon="2.41949">
        <ele>115.2</ele>
        <time>2015-05-25T18:55:26.494Z</time>
      </trkpt>
      <trkpt lat="48.82022" lon="2.41955">
        <ele>117.2</ele>
        <time>2015-05-25T18:55:30.556Z</time>
      </trkpt>
      <trkpt lat="48.82025" lon="2.41956">
        <ele>117.8</ele>
        <time>2015-05-25T18:55:31.582Z</time>
      </trkpt>
      <trkpt lat="48.82032" lon="2.4196">
        <ele>118.1</ele>
        <time>2015-05-25T18:55:34.531Z</time>
      </trkpt>
      <trkpt lat="48.82034" lon="2.41962">
        <ele>118.6</ele>
        <time>2015-05-25T18:55:35.554Z</time>
      </trkpt>
      <trkpt lat="48.82041" lon="2.41966">
        <ele>119.9</ele>
        <time>2015-05-25T18:55:38.515Z</time>
      </trkpt>
      <trkpt lat="48.82046" lon="2.41966">
        <ele>120.1</ele>
        <time>2015-05-25T18:55:39.520Z</time>
      </trkpt>
      <trkpt lat="48.82054" lon="2.41965">
        <ele>120.2</ele>
        <time>2015-05-25T18:55:41.568Z</time>
      </trkpt>
      <trkpt lat="48.82058" lon="2.41965">
        <ele>120.4</ele>
        <time>2015-05-25T18:55:42.580Z</time>
      </trkpt>
      <trkpt lat="48.82067" lon="2.41968">
        <ele>120.7</ele>
        <time>2015-05-25T18:55:44.485Z</time>
      </trkpt>
      <trkpt lat="48.8207" lon="2.41971">
        <ele>120.8</ele>
        <time>2015-05-25T18:55:45.546Z</time>
      </trkpt>
      <trkpt lat="48.82069" lon="2.41978">
        <ele>120.2</ele>
        <time>2015-05-25T18:55:58.532Z</time>
      </trkpt>
      <trkpt lat="48.82064" lon="2.41982">
        <ele>120</ele>
        <time>2015-05-25T18:55:59.462Z</time>
      </trkpt>
      <trkpt lat="48.82057" lon="2.41981">
        <ele>120.9</ele>
        <time>2015-05-25T18:56:02.575Z</time>
      </trkpt>
      <trkpt lat="48.82054" lon="2.41982">
        <ele>121.1</ele>
        <time>2015-05-25T18:56:03.509Z</time>
      </trkpt>
      <trkpt lat="48.82049" lon="2.41982">
        <ele>121.2</ele>
        <time>2015-05-25T18:56:05.494Z</time>
      </trkpt>
      <trkpt lat="48.82045" lon="2.41982">
        <ele>121.5</ele>
        <time>2015-05-25T18:56:06.537Z</time>
      </trkpt>
      <trkpt lat="48.8204" lon="2.41984">
        <ele>121.8</ele>
        <time>2015-05-25T18:56:07.558Z</time>
      </trkpt>
      <trkpt lat="48.82035" lon="2.41984">
        <ele>121.9</ele>
        <time>2015-05-25T18:56:08.562Z</time>
      </trkpt>
      <trkpt lat="48.82027" lon="2.41983">
        <ele>121.2</ele>
        <time>2015-05-25T18:56:10.583Z</time>
      </trkpt>
      <trkpt lat="48.82023" lon="2.41982">
        <ele>120.9</ele>
        <time>2015-05-25T18:56:11.600Z</time>
      </trkpt>
      <trkpt lat="48.82015" lon="2.41982">
        <ele>121</ele>
        <time>2015-05-25T18:56:13.570Z</time>
      </trkpt>
      <trkpt lat="48.82012" lon="2.41982">
        <ele>121.5</ele>
        <time>2015-05-25T18:56:14.511Z</time>
      </trkpt>
      <trkpt lat="48.82004" lon="2.41982">
        <ele>121.6</ele>
        <time>2015-05-25T18:56:16.493Z</time>
      </trkpt>
      <trkpt lat="48.82" lon="2.41982">
        <ele>121.5</ele>
        <time>2015-05-25T18:56:17.513Z</time>
      </trkpt>
      <trkpt lat="48.81991" lon="2.41981">
        <ele>121.3</ele>
        <time>2015-05-25T18:56:19.540Z</time>
      </trkpt>
      <trkpt lat="48.81986" lon="2.41982">
        <ele>121.1</ele>
        <time>2015-05-25T18:56:20.561Z</time>
      </trkpt>
      <trkpt lat="48.81977" lon="2.41981">
        <ele>120.8</ele>
        <time>2015-05-25T18:56:22.507Z</time>
      </trkpt>
      <trkpt lat="48.81973" lon="2.4198">
        <ele>120.6</ele>
        <time>2015-05-25T18:56:23.495Z</time>
      </trkpt>
      <trkpt lat="48.81966" lon="2.41978">
        <ele>120.6</ele>
        <time>2015-05-25T18:56:25.521Z</time>
      </trkpt>
      <trkpt lat="48.81962" lon="2.41978">
        <ele>120.9</ele>
        <time>2015-05-25T18:56:26.551Z</time>
      </trkpt>
      <trkpt lat="48.81954" lon="2.41976">
        <ele>121.1</ele>
        <time>2015-05-25T18:56:28.463Z</time>
      </trkpt>
      <trkpt lat="48.8195" lon="2.41975">
        <ele>121.2</ele>
        <time>2015-05-25T18:56:29.510Z</time>
      </trkpt>
      <trkpt lat="48.81943" lon="2.41973">
        <ele>120.7</ele>
        <time>2015-05-25T18:56:31.562Z</time>
      </trkpt>
      <trkpt lat="48.8194" lon="2.41973">
        <ele>120.6</ele>
        <time>2015-05-25T18:56:32.566Z</time>
      </trkpt>
      <trkpt lat="48.81932" lon="2.41972">
        <ele>119.8</ele>
        <time>2015-05-25T18:56:34.582Z</time>
      </trkpt>
      <trkpt lat="48.81927" lon="2.41972">
        <ele>119.1</ele>
        <time>2015-05-25T18:56:35.520Z</time>
      </trkpt>
      <trkpt lat="48.81918" lon="2.4197">
        <ele>118.3</ele>
        <time>2015-05-25T18:56:37.543Z</time>
      </trkpt>
      <trkpt lat="48.81914" lon="2.41971">
        <ele>117.4</ele>
        <time>2015-05-25T18:56:38.553Z</time>
      </trkpt>
      <trkpt lat="48.81907" lon="2.4197">
        <ele>117</ele>
        <time>2015-05-25T18:56:40.466Z</time>
      </trkpt>
      <trkpt lat="48.81904" lon="2.4197">
        <ele>116.8</ele>
        <time>2015-05-25T18:56:41.497Z</time>
      </trkpt>
      <trkpt lat="48.81902" lon="2.4198">
        <ele>114.1</ele>
        <time>2015-05-25T18:57:02.507Z</time>
      </trkpt>
      <trkpt lat="48.81903" lon="2.41984">
        <ele>114</ele>
        <time>2015-05-25T18:57:03.535Z</time>
      </trkpt>
      <trkpt lat="48.81903" lon="2.41984">
        <ele>114</ele>
        <time>2015-05-25T18:57:15.467Z</time>
      </trkpt>
      <trkpt lat="48.81901" lon="2.41997">
        <ele>113.4</ele>
        <time>2015-05-25T18:57:31.502Z</time>
      </trkpt>
      <trkpt lat="48.81901" lon="2.41997">
        <ele>113.4</ele>
        <time>2015-05-25T18:57:58.014Z</time>
      </trkpt>
      <trkpt lat="48.81896" lon="2.42019">
        <ele>108.6</ele>
        <time>2015-05-25T18:57:58.439Z</time>
      </trkpt>
      <trkpt lat="48.8189" lon="2.42022">
        <ele>108.6</ele>
        <time>2015-05-25T18:58:49.523Z</time>
      </trkpt>
      <trkpt lat="48.81901" lon="2.42067">
        <ele>102.3</ele>
        <time>2015-05-25T18:58:50.529Z</time>
      </trkpt>
      <trkpt lat="48.81909" lon="2.42067">
        <ele>103.2</ele>
        <time>2015-05-25T18:58:59.566Z</time>
      </trkpt>
      <trkpt lat="48.81913" lon="2.42066">
        <ele>103.6</ele>
        <time>2015-05-25T18:59:00.507Z</time>
      </trkpt>
      <trkpt lat="48.81921" lon="2.4207">
        <ele>103.3</ele>
        <time>2015-05-25T18:59:06.541Z</time>
      </trkpt>
      <trkpt lat="48.81923" lon="2.42072">
        <ele>103.6</ele>
        <time>2015-05-25T18:59:07.581Z</time>
      </trkpt>
      <trkpt lat="48.8193" lon="2.42078">
        <ele>104.1</ele>
        <time>2015-05-25T18:59:10.506Z</time>
      </trkpt>
      <trkpt lat="48.8193" lon="2.4208">
        <ele>104.5</ele>
        <time>2015-05-25T18:59:11.567Z</time>
      </trkpt>
      <trkpt lat="48.8193" lon="2.42082">
        <ele>105.6</ele>
        <time>2015-05-25T18:59:18.555Z</time>
      </trkpt>
      <trkpt lat="48.81927" lon="2.42094">
        <ele>107.2</ele>
        <time>2015-05-25T18:59:19.565Z</time>
      </trkpt>
      <trkpt lat="48.81927" lon="2.42106">
        <ele>109.1</ele>
        <time>2015-05-25T18:59:23.520Z</time>
      </trkpt>
      <trkpt lat="48.81928" lon="2.42108">
        <ele>109.2</ele>
        <time>2015-05-25T18:59:24.572Z</time>
      </trkpt>
      <trkpt lat="48.81929" lon="2.42121">
        <ele>109.9</ele>
        <time>2015-05-25T18:59:28.458Z</time>
      </trkpt>
      <trkpt lat="48.81929" lon="2.42124">
        <ele>109.8</ele>
        <time>2015-05-25T18:59:29.494Z</time>
      </trkpt>
      <trkpt lat="48.81929" lon="2.42134">
        <ele>109.7</ele>
        <time>2015-05-25T18:59:33.316Z</time>
      </trkpt>
      <trkpt lat="48.81929" lon="2.42138">
        <ele>109.7</ele>
        <time>2015-05-25T18:59:33.480Z</time>
      </trkpt>
      <trkpt lat="48.8193" lon="2.4215">
        <ele>109.1</ele>
        <time>2015-05-25T18:59:36.476Z</time>
      </trkpt>
      <trkpt lat="48.81931" lon="2.42154">
        <ele>109.3</ele>
        <time>2015-05-25T18:59:37.503Z</time>
      </trkpt>
      <trkpt lat="48.81932" lon="2.42164">
        <ele>109.3</ele>
        <time>2015-05-25T18:59:40.528Z</time>
      </trkpt>
      <trkpt lat="48.81933" lon="2.42168">
        <ele>109.3</ele>
        <time>2015-05-25T18:59:41.566Z</time>
      </trkpt>
      <trkpt lat="48.81935" lon="2.42181">
        <ele>109.1</ele>
        <time>2015-05-25T18:59:44.540Z</time>
      </trkpt>
      <trkpt lat="48.81934" lon="2.42186">
        <ele>109.2</ele>
        <time>2015-05-25T18:59:45.562Z</time>
      </trkpt>
      <trkpt lat="48.81934" lon="2.42196">
        <ele>109.1</ele>
        <time>2015-05-25T18:59:47.505Z</time>
      </trkpt>
      <trkpt lat="48.81934" lon="2.422">
        <ele>109.1</ele>
        <time>2015-05-25T18:59:48.540Z</time>
      </trkpt>
      <trkpt lat="48.81935" lon="2.42213">
        <ele>109.8</ele>
        <time>2015-05-25T18:59:51.515Z</time>
      </trkpt>
      <trkpt lat="48.81935" lon="2.42218">
        <ele>110.1</ele>
        <time>2015-05-25T18:59:52.546Z</time>
      </trkpt>
      <trkpt lat="48.81937" lon="2.42231">
        <ele>110.1</ele>
        <time>2015-05-25T18:59:55.525Z</time>
      </trkpt>
      <trkpt lat="48.81937" lon="2.42234">
        <ele>109.8</ele>
        <time>2015-05-25T18:59:56.545Z</time>
      </trkpt>
      <trkpt lat="48.81939" lon="2.42247">
        <ele>110.1</ele>
        <time>2015-05-25T18:59:59.525Z</time>
      </trkpt>
      <trkpt lat="48.81939" lon="2.42252">
        <ele>110.2</ele>
        <time>2015-05-25T19:00:00.539Z</time>
      </trkpt>
      <trkpt lat="48.81945" lon="2.42259">
        <ele>110.1</ele>
        <time>2015-05-25T19:00:04.555Z</time>
      </trkpt>
      <trkpt lat="48.81947" lon="2.4226">
        <ele>110.1</ele>
        <time>2015-05-25T19:00:05.475Z</time>
      </trkpt>
      <trkpt lat="48.81949" lon="2.4226">
        <ele>110.1</ele>
        <time>2015-05-25T19:00:06.490Z</time>
      </trkpt>
      <trkpt lat="48.81958" lon="2.42263">
        <ele>110.1</ele>
        <time>2015-05-25T19:00:09.485Z</time>
      </trkpt>
      <trkpt lat="48.81963" lon="2.42264">
        <ele>110.2</ele>
        <time>2015-05-25T19:00:10.490Z</time>
      </trkpt>
      <trkpt lat="48.81972" lon="2.42267">
        <ele>110.4</ele>
        <time>2015-05-25T19:00:12.523Z</time>
      </trkpt>
      <trkpt lat="48.81976" lon="2.42269">
        <ele>110.5</ele>
        <time>2015-05-25T19:00:13.523Z</time>
      </trkpt>
      <trkpt lat="48.81981" lon="2.42271">
        <ele>110.6</ele>
        <time>2015-05-25T19:00:14.531Z</time>
      </trkpt>
      <trkpt lat="48.81988" lon="2.42275">
        <ele>111.2</ele>
        <time>2015-05-25T19:00:18.460Z</time>
      </trkpt>
      <trkpt lat="48.8199" lon="2.42275">
        <ele>111.3</ele>
        <time>2015-05-25T19:00:18.557Z</time>
      </trkpt>
      <trkpt lat="48.81998" lon="2.42274">
        <ele>111.7</ele>
        <time>2015-05-25T19:00:22.490Z</time>
      </trkpt>
      <trkpt lat="48.82001" lon="2.42273">
        <ele>111.6</ele>
        <time>2015-05-25T19:00:23.507Z</time>
      </trkpt>
      <trkpt lat="48.82004" lon="2.42265">
        <ele>110.2</ele>
        <time>2015-05-25T19:00:55.555Z</time>
      </trkpt>
      <trkpt lat="48.82022" lon="2.42278">
        <ele>115.2</ele>
        <time>2015-05-25T19:00:56.587Z</time>
      </trkpt>
      <trkpt lat="48.82021" lon="2.42291">
        <ele>114.3</ele>
        <time>2015-05-25T19:01:00.527Z</time>
      </trkpt>
      <trkpt lat="48.82022" lon="2.42295">
        <ele>113.8</ele>
        <time>2015-05-25T19:01:01.554Z</time>
      </trkpt>
      <trkpt lat="48.82021" lon="2.42308">
        <ele>113.4</ele>
        <time>2015-05-25T19:01:04.499Z</time>
      </trkpt>
      <trkpt lat="48.82021" lon="2.42313">
        <ele>112.8</ele>
        <time>2015-05-25T19:01:05.509Z</time>
      </trkpt>
      <trkpt lat="48.8202" lon="2.42324">
        <ele>111.1</ele>
        <time>2015-05-25T19:01:07.545Z</time>
      </trkpt>
      <trkpt lat="48.82016" lon="2.42328">
        <ele>110.5</ele>
        <time>2015-05-25T19:01:08.488Z</time>
      </trkpt>
      <trkpt lat="48.82009" lon="2.42331">
        <ele>109.9</ele>
        <time>2015-05-25T19:01:10.481Z</time>
      </trkpt>
      <trkpt lat="48.82006" lon="2.4233">
        <ele>110.1</ele>
        <time>2015-05-25T19:01:11.490Z</time>
      </trkpt>
      <trkpt lat="48.81998" lon="2.42329">
        <ele>110.5</ele>
        <time>2015-05-25T19:01:13.500Z</time>
      </trkpt>
      <trkpt lat="48.81995" lon="2.42328">
        <ele>110.7</ele>
        <time>2015-05-25T19:01:14.509Z</time>
      </trkpt>
      <trkpt lat="48.81988" lon="2.42324">
        <ele>111</ele>
        <time>2015-05-25T19:01:16.469Z</time>
      </trkpt>
      <trkpt lat="48.81984" lon="2.42322">
        <ele>111.1</ele>
        <time>2015-05-25T19:01:17.520Z</time>
      </trkpt>
      <trkpt lat="48.81977" lon="2.42319">
        <ele>111.6</ele>
        <time>2015-05-25T19:01:19.526Z</time>
      </trkpt>
      <trkpt lat="48.81974" lon="2.42317">
        <ele>111.8</ele>
        <time>2015-05-25T19:01:20.547Z</time>
      </trkpt>
      <trkpt lat="48.81969" lon="2.42316">
        <ele>112.1</ele>
        <time>2015-05-25T19:01:21.522Z</time>
      </trkpt>
      <trkpt lat="48.81965" lon="2.42316">
        <ele>112.5</ele>
        <time>2015-05-25T19:01:22.531Z</time>
      </trkpt>
      <trkpt lat="48.81956" lon="2.42316">
        <ele>110.6</ele>
        <time>2015-05-25T19:01:24.555Z</time>
      </trkpt>
      <trkpt lat="48.81952" lon="2.42317">
        <ele>110.5</ele>
        <time>2015-05-25T19:01:25.488Z</time>
      </trkpt>
      <trkpt lat="48.81948" lon="2.42326">
        <ele>110.3</ele>
        <time>2015-05-25T19:01:27.476Z</time>
      </trkpt>
      <trkpt lat="48.81947" lon="2.42331">
        <ele>110.1</ele>
        <time>2015-05-25T19:01:28.473Z</time>
      </trkpt>
      <trkpt lat="48.81944" lon="2.42343">
        <ele>109.5</ele>
        <time>2015-05-25T19:01:31.544Z</time>
      </trkpt>
      <trkpt lat="48.81943" lon="2.42346">
        <ele>109.1</ele>
        <time>2015-05-25T19:01:32.558Z</time>
      </trkpt>
      <trkpt lat="48.81938" lon="2.42357">
        <ele>108.8</ele>
        <time>2015-05-25T19:01:35.524Z</time>
      </trkpt>
      <trkpt lat="48.81937" lon="2.42362">
        <ele>108.8</ele>
        <time>2015-05-25T19:01:36.559Z</time>
      </trkpt>
      <trkpt lat="48.81935" lon="2.42371">
        <ele>108.1</ele>
        <time>2015-05-25T19:01:38.477Z</time>
      </trkpt>
      <trkpt lat="48.81934" lon="2.42375">
        <ele>107.7</ele>
        <time>2015-05-25T19:01:39.480Z</time>
      </trkpt>
      <trkpt lat="48.81932" lon="2.42387">
        <ele>106.8</ele>
        <time>2015-05-25T19:01:41.506Z</time>
      </trkpt>
      <trkpt lat="48.81931" lon="2.42393">
        <ele>106.5</ele>
        <time>2015-05-25T19:01:42.528Z</time>
      </trkpt>
      <trkpt lat="48.81927" lon="2.42403">
        <ele>106.2</ele>
        <time>2015-05-25T19:01:44.476Z</time>
      </trkpt>
      <trkpt lat="48.81925" lon="2.42408">
        <ele>105.4</ele>
        <time>2015-05-25T19:01:45.494Z</time>
      </trkpt>
      <trkpt lat="48.81919" lon="2.42414">
        <ele>104.5</ele>
        <time>2015-05-25T19:01:47.525Z</time>
      </trkpt>
      <trkpt lat="48.81916" lon="2.42418">
        <ele>104.7</ele>
        <time>2015-05-25T19:01:48.525Z</time>
      </trkpt>
      <trkpt lat="48.8191" lon="2.42424">
        <ele>105.2</ele>
        <time>2015-05-25T19:01:50.477Z</time>
      </trkpt>
      <trkpt lat="48.81906" lon="2.42428">
        <ele>104.9</ele>
        <time>2015-05-25T19:01:51.487Z</time>
      </trkpt>
      <trkpt lat="48.81899" lon="2.42435">
        <ele>104.2</ele>
        <time>2015-05-25T19:01:53.507Z</time>
      </trkpt>
      <trkpt lat="48.81896" lon="2.42438">
        <ele>104.1</ele>
        <time>2015-05-25T19:01:54.511Z</time>
      </trkpt>
      <trkpt lat="48.81889" lon="2.42441">
        <ele>103.7</ele>
        <time>2015-05-25T19:01:56.523Z</time>
      </trkpt>
      <trkpt lat="48.81885" lon="2.42442">
        <ele>103.7</ele>
        <time>2015-05-25T19:01:57.532Z</time>
      </trkpt>
      <trkpt lat="48.81878" lon="2.42443">
        <ele>103.8</ele>
        <time>2015-05-25T19:01:59.576Z</time>
      </trkpt>
      <trkpt lat="48.81875" lon="2.42443">
        <ele>104</ele>
        <time>2015-05-25T19:02:00.471Z</time>
      </trkpt>
      <trkpt lat="48.81867" lon="2.42443">
        <ele>105</ele>
        <time>2015-05-25T19:02:03.538Z</time>
      </trkpt>
      <trkpt lat="48.81863" lon="2.42442">
        <ele>105.1</ele>
        <time>2015-05-25T19:02:04.546Z</time>
      </trkpt>
      <trkpt lat="48.81855" lon="2.42439">
        <ele>105.7</ele>
        <time>2015-05-25T19:02:08.521Z</time>
      </trkpt>
      <trkpt lat="48.81853" lon="2.42437">
        <ele>105.8</ele>
        <time>2015-05-25T19:02:09.498Z</time>
      </trkpt>
      <trkpt lat="48.81853" lon="2.42438">
        <ele>106.1</ele>
        <time>2015-05-25T19:03:19.527Z</time>
      </trkpt>
      <trkpt lat="48.81831" lon="2.42453">
        <ele>105.4</ele>
        <time>2015-05-25T19:03:20.514Z</time>
      </trkpt>
      <trkpt lat="48.81823" lon="2.42451">
        <ele>104.8</ele>
        <time>2015-05-25T19:03:23.600Z</time>
      </trkpt>
      <trkpt lat="48.8182" lon="2.4245">
        <ele>104.5</ele>
        <time>2015-05-25T19:03:24.502Z</time>
      </trkpt>
      <trkpt lat="48.81814" lon="2.42452">
        <ele>104.2</ele>
        <time>2015-05-25T19:03:27.572Z</time>
      </trkpt>
      <trkpt lat="48.81813" lon="2.42452">
        <ele>104.5</ele>
        <time>2015-05-25T19:03:28.506Z</time>
      </trkpt>
      <trkpt lat="48.81813" lon="2.42452">
        <ele>105.4</ele>
        <time>2015-05-25T19:04:55.496Z</time>
      </trkpt>
      <trkpt lat="48.81816" lon="2.42455">
        <ele>100.3</ele>
        <time>2015-05-25T19:04:56.508Z</time>
      </trkpt>
      <trkpt lat="48.81813" lon="2.42463">
        <ele>99.7</ele>
        <time>2015-05-25T19:04:59.474Z</time>
      </trkpt>
      <trkpt lat="48.81811" lon="2.42466">
        <ele>100.5</ele>
        <time>2015-05-25T19:05:00.491Z</time>
      </trkpt>
      <trkpt lat="48.81806" lon="2.42476">
        <ele>101.9</ele>
        <time>2015-05-25T19:05:03.476Z</time>
      </trkpt>
      <trkpt lat="48.81805" lon="2.42482">
        <ele>102.2</ele>
        <time>2015-05-25T19:05:04.464Z</time>
      </trkpt>
      <trkpt lat="48.81802" lon="2.42492">
        <ele>102.4</ele>
        <time>2015-05-25T19:05:07.518Z</time>
      </trkpt>
      <trkpt lat="48.81801" lon="2.42497">
        <ele>102.4</ele>
        <time>2015-05-25T19:05:08.530Z</time>
      </trkpt>
      <trkpt lat="48.81802" lon="2.42508">
        <ele>102.4</ele>
        <time>2015-05-25T19:05:10.466Z</time>
      </trkpt>
      <trkpt lat="48.81802" lon="2.42514">
        <ele>102.1</ele>
        <time>2015-05-25T19:05:11.487Z</time>
      </trkpt>
      <trkpt lat="48.81802" lon="2.42526">
        <ele>101.7</ele>
        <time>2015-05-25T19:05:13.520Z</time>
      </trkpt>
      <trkpt lat="48.81802" lon="2.42531">
        <ele>101.6</ele>
        <time>2015-05-25T19:05:14.528Z</time>
      </trkpt>
      <trkpt lat="48.818" lon="2.42544">
        <ele>101.9</ele>
        <time>2015-05-25T19:05:17.517Z</time>
      </trkpt>
      <trkpt lat="48.81801" lon="2.42549">
        <ele>101.9</ele>
        <time>2015-05-25T19:05:18.527Z</time>
      </trkpt>
      <trkpt lat="48.818" lon="2.42561">
        <ele>101.6</ele>
        <time>2015-05-25T19:05:20.553Z</time>
      </trkpt>
      <trkpt lat="48.818" lon="2.42567">
        <ele>102</ele>
        <time>2015-05-25T19:05:21.561Z</time>
      </trkpt>
      <trkpt lat="48.81802" lon="2.42578">
        <ele>102.5</ele>
        <time>2015-05-25T19:05:23.473Z</time>
      </trkpt>
      <trkpt lat="48.81802" lon="2.42584">
        <ele>102.6</ele>
        <time>2015-05-25T19:05:24.477Z</time>
      </trkpt>
      <trkpt lat="48.81799" lon="2.42593">
        <ele>102.6</ele>
        <time>2015-05-25T19:05:26.699Z</time>
      </trkpt>
      <trkpt lat="48.81798" lon="2.42598">
        <ele>102.9</ele>
        <time>2015-05-25T19:05:27.533Z</time>
      </trkpt>
      <trkpt lat="48.81798" lon="2.4261">
        <ele>102.9</ele>
        <time>2015-05-25T19:05:29.442Z</time>
      </trkpt>
      <trkpt lat="48.81799" lon="2.42616">
        <ele>103.1</ele>
        <time>2015-05-25T19:05:30.455Z</time>
      </trkpt>
      <trkpt lat="48.81799" lon="2.42629">
        <ele>103.6</ele>
        <time>2015-05-25T19:05:32.521Z</time>
      </trkpt>
      <trkpt lat="48.81799" lon="2.42636">
        <ele>103.7</ele>
        <time>2015-05-25T19:05:33.488Z</time>
      </trkpt>
      <trkpt lat="48.81799" lon="2.42649">
        <ele>103.8</ele>
        <time>2015-05-25T19:05:35.521Z</time>
      </trkpt>
      <trkpt lat="48.81799" lon="2.42655">
        <ele>103.8</ele>
        <time>2015-05-25T19:05:36.565Z</time>
      </trkpt>
      <trkpt lat="48.818" lon="2.42667">
        <ele>103.8</ele>
        <time>2015-05-25T19:05:38.512Z</time>
      </trkpt>
      <trkpt lat="48.818" lon="2.42675">
        <ele>103.8</ele>
        <time>2015-05-25T19:05:39.597Z</time>
      </trkpt>
      <trkpt lat="48.818" lon="2.42682">
        <ele>103.9</ele>
        <time>2015-05-25T19:05:40.523Z</time>
      </trkpt>
      <trkpt lat="48.818" lon="2.42689">
        <ele>104.4</ele>
        <time>2015-05-25T19:05:41.525Z</time>
      </trkpt>
      <trkpt lat="48.81801" lon="2.42696">
        <ele>104.8</ele>
        <time>2015-05-25T19:05:42.544Z</time>
      </trkpt>
      <trkpt lat="48.81801" lon="2.42703">
        <ele>104.9</ele>
        <time>2015-05-25T19:05:43.549Z</time>
      </trkpt>
      <trkpt lat="48.81801" lon="2.42711">
        <ele>105</ele>
        <time>2015-05-25T19:05:44.459Z</time>
      </trkpt>
      <trkpt lat="48.81801" lon="2.42719">
        <ele>105.2</ele>
        <time>2015-05-25T19:05:45.462Z</time>
      </trkpt>
      <trkpt lat="48.81801" lon="2.42726">
        <ele>105.3</ele>
        <time>2015-05-25T19:05:46.549Z</time>
      </trkpt>
      <trkpt lat="48.81802" lon="2.42734">
        <ele>105.3</ele>
        <time>2015-05-25T19:05:47.443Z</time>
      </trkpt>
      <trkpt lat="48.81802" lon="2.42741">
        <ele>105.2</ele>
        <time>2015-05-25T19:05:48.483Z</time>
      </trkpt>
      <trkpt lat="48.81802" lon="2.42749">
        <ele>105.1</ele>
        <time>2015-05-25T19:05:49.505Z</time>
      </trkpt>
      <trkpt lat="48.81802" lon="2.42757">
        <ele>104.8</ele>
        <time>2015-05-25T19:05:50.526Z</time>
      </trkpt>
      <trkpt lat="48.81801" lon="2.42764">
        <ele>104.6</ele>
        <time>2015-05-25T19:05:51.544Z</time>
      </trkpt>
      <trkpt lat="48.818" lon="2.42772">
        <ele>104.2</ele>
        <time>2015-05-25T19:05:52.501Z</time>
      </trkpt>
      <trkpt lat="48.818" lon="2.42779">
        <ele>103.8</ele>
        <time>2015-05-25T19:05:53.559Z</time>
      </trkpt>
      <trkpt lat="48.818" lon="2.42786">
        <ele>103.5</ele>
        <time>2015-05-25T19:05:54.578Z</time>
      </trkpt>
      <trkpt lat="48.818" lon="2.42794">
        <ele>103.2</ele>
        <time>2015-05-25T19:05:55.590Z</time>
      </trkpt>
      <trkpt lat="48.818" lon="2.42801">
        <ele>102.9</ele>
        <time>2015-05-25T19:05:56.465Z</time>
      </trkpt>
      <trkpt lat="48.81801" lon="2.42809">
        <ele>102.7</ele>
        <time>2015-05-25T19:05:57.473Z</time>
      </trkpt>
      <trkpt lat="48.81801" lon="2.42816">
        <ele>102.3</ele>
        <time>2015-05-25T19:05:58.475Z</time>
      </trkpt>
      <trkpt lat="48.81801" lon="2.42823">
        <ele>102.3</ele>
        <time>2015-05-25T19:05:59.483Z</time>
      </trkpt>
      <trkpt lat="48.818" lon="2.42836">
        <ele>102.3</ele>
        <time>2015-05-25T19:06:01.529Z</time>
      </trkpt>
      <trkpt lat="48.818" lon="2.42844">
        <ele>102.3</ele>
        <time>2015-05-25T19:06:02.576Z</time>
      </trkpt>
      <trkpt lat="48.818" lon="2.42857">
        <ele>102</ele>
        <time>2015-05-25T19:06:04.546Z</time>
      </trkpt>
      <trkpt lat="48.818" lon="2.42863">
        <ele>102</ele>
        <time>2015-05-25T19:06:05.566Z</time>
      </trkpt>
      <trkpt lat="48.818" lon="2.4287">
        <ele>102.1</ele>
        <time>2015-05-25T19:06:06.489Z</time>
      </trkpt>
      <trkpt lat="48.818" lon="2.42878">
        <ele>102.1</ele>
        <time>2015-05-25T19:06:07.490Z</time>
      </trkpt>
      <trkpt lat="48.818" lon="2.42891">
        <ele>102.7</ele>
        <time>2015-05-25T19:06:09.520Z</time>
      </trkpt>
      <trkpt lat="48.81801" lon="2.42897">
        <ele>102.7</ele>
        <time>2015-05-25T19:06:10.524Z</time>
      </trkpt>
      <trkpt lat="48.818" lon="2.4291">
        <ele>102.8</ele>
        <time>2015-05-25T19:06:12.609Z</time>
      </trkpt>
      <trkpt lat="48.818" lon="2.42917">
        <ele>102.5</ele>
        <time>2015-05-25T19:06:13.518Z</time>
      </trkpt>
      <trkpt lat="48.81799" lon="2.42929">
        <ele>102.3</ele>
        <time>2015-05-25T19:06:15.532Z</time>
      </trkpt>
      <trkpt lat="48.81798" lon="2.42936">
        <ele>102.1</ele>
        <time>2015-05-25T19:06:16.546Z</time>
      </trkpt>
      <trkpt lat="48.81799" lon="2.42942">
        <ele>102.1</ele>
        <time>2015-05-25T19:06:17.169Z</time>
      </trkpt>
      <trkpt lat="48.81799" lon="2.4295">
        <ele>101.8</ele>
        <time>2015-05-25T19:06:18.445Z</time>
      </trkpt>
      <trkpt lat="48.81799" lon="2.42957">
        <ele>101.4</ele>
        <time>2015-05-25T19:06:19.516Z</time>
      </trkpt>
      <trkpt lat="48.81799" lon="2.42964">
        <ele>101.1</ele>
        <time>2015-05-25T19:06:20.525Z</time>
      </trkpt>
      <trkpt lat="48.81799" lon="2.42972">
        <ele>100.7</ele>
        <time>2015-05-25T19:06:21.544Z</time>
      </trkpt>
      <trkpt lat="48.818" lon="2.42979">
        <ele>100.5</ele>
        <time>2015-05-25T19:06:22.563Z</time>
      </trkpt>
      <trkpt lat="48.818" lon="2.42986">
        <ele>100.2</ele>
        <time>2015-05-25T19:06:23.448Z</time>
      </trkpt>
      <trkpt lat="48.818" lon="2.42993">
        <ele>100.1</ele>
        <time>2015-05-25T19:06:24.471Z</time>
      </trkpt>
      <trkpt lat="48.818" lon="2.43001">
        <ele>100.1</ele>
        <time>2015-05-25T19:06:26.205Z</time>
      </trkpt>
      <trkpt lat="48.818" lon="2.43008">
        <ele>99.9</ele>
        <time>2015-05-25T19:06:26.533Z</time>
      </trkpt>
      <trkpt lat="48.81799" lon="2.43015">
        <ele>99.5</ele>
        <time>2015-05-25T19:06:27.532Z</time>
      </trkpt>
      <trkpt lat="48.818" lon="2.43023">
        <ele>98.9</ele>
        <time>2015-05-25T19:06:28.449Z</time>
      </trkpt>
      <trkpt lat="48.818" lon="2.43032">
        <ele>98.6</ele>
        <time>2015-05-25T19:06:29.474Z</time>
      </trkpt>
      <trkpt lat="48.818" lon="2.43041">
        <ele>98.3</ele>
        <time>2015-05-25T19:06:30.481Z</time>
      </trkpt>
      <trkpt lat="48.81802" lon="2.43049">
        <ele>98.6</ele>
        <time>2015-05-25T19:06:31.507Z</time>
      </trkpt>
      <trkpt lat="48.81804" lon="2.43057">
        <ele>98.5</ele>
        <time>2015-05-25T19:06:32.504Z</time>
      </trkpt>
      <trkpt lat="48.81806" lon="2.43066">
        <ele>98.5</ele>
        <time>2015-05-25T19:06:33.524Z</time>
      </trkpt>
      <trkpt lat="48.81806" lon="2.43075">
        <ele>98.1</ele>
        <time>2015-05-25T19:06:34.535Z</time>
      </trkpt>
      <trkpt lat="48.81806" lon="2.43083">
        <ele>97.7</ele>
        <time>2015-05-25T19:06:35.467Z</time>
      </trkpt>
      <trkpt lat="48.81806" lon="2.43092">
        <ele>97.3</ele>
        <time>2015-05-25T19:06:36.477Z</time>
      </trkpt>
      <trkpt lat="48.81807" lon="2.43101">
        <ele>97</ele>
        <time>2015-05-25T19:06:37.525Z</time>
      </trkpt>
      <trkpt lat="48.81808" lon="2.4311">
        <ele>96.7</ele>
        <time>2015-05-25T19:06:38.540Z</time>
      </trkpt>
      <trkpt lat="48.8181" lon="2.43119">
        <ele>96.4</ele>
        <time>2015-05-25T19:06:39.466Z</time>
      </trkpt>
      <trkpt lat="48.81811" lon="2.43128">
        <ele>96.2</ele>
        <time>2015-05-25T19:06:40.540Z</time>
      </trkpt>
      <trkpt lat="48.81811" lon="2.43136">
        <ele>96.3</ele>
        <time>2015-05-25T19:06:41.467Z</time>
      </trkpt>
      <trkpt lat="48.81811" lon="2.43144">
        <ele>96.4</ele>
        <time>2015-05-25T19:06:42.478Z</time>
      </trkpt>
      <trkpt lat="48.81813" lon="2.43152">
        <ele>96.5</ele>
        <time>2015-05-25T19:06:43.513Z</time>
      </trkpt>
      <trkpt lat="48.81813" lon="2.43161">
        <ele>96</ele>
        <time>2015-05-25T19:06:44.522Z</time>
      </trkpt>
      <trkpt lat="48.81814" lon="2.43168">
        <ele>95.9</ele>
        <time>2015-05-25T19:06:45.540Z</time>
      </trkpt>
      <trkpt lat="48.81813" lon="2.43176">
        <ele>95.7</ele>
        <time>2015-05-25T19:06:46.481Z</time>
      </trkpt>
      <trkpt lat="48.81812" lon="2.43188">
        <ele>95.4</ele>
        <time>2015-05-25T19:06:48.479Z</time>
      </trkpt>
      <trkpt lat="48.81812" lon="2.43195">
        <ele>95.7</ele>
        <time>2015-05-25T19:06:49.594Z</time>
      </trkpt>
      <trkpt lat="48.81813" lon="2.43203">
        <ele>96.2</ele>
        <time>2015-05-25T19:06:50.464Z</time>
      </trkpt>
      <trkpt lat="48.81814" lon="2.4321">
        <ele>96.4</ele>
        <time>2015-05-25T19:06:51.457Z</time>
      </trkpt>
      <trkpt lat="48.81814" lon="2.43218">
        <ele>96.5</ele>
        <time>2015-05-25T19:06:52.464Z</time>
      </trkpt>
      <trkpt lat="48.81815" lon="2.43225">
        <ele>96.4</ele>
        <time>2015-05-25T19:06:53.474Z</time>
      </trkpt>
      <trkpt lat="48.81817" lon="2.43239">
        <ele>96.6</ele>
        <time>2015-05-25T19:06:56.544Z</time>
      </trkpt>
      <trkpt lat="48.81818" lon="2.43239">
        <ele>96.3</ele>
        <time>2015-05-25T19:06:57.449Z</time>
      </trkpt>
      <trkpt lat="48.81826" lon="2.43233">
        <ele>94.7</ele>
        <time>2015-05-25T19:07:01.532Z</time>
      </trkpt>
      <trkpt lat="48.81829" lon="2.43232">
        <ele>94.6</ele>
        <time>2015-05-25T19:07:02.526Z</time>
      </trkpt>
      <trkpt lat="48.81835" lon="2.43229">
        <ele>95.1</ele>
        <time>2015-05-25T19:07:04.487Z</time>
      </trkpt>
      <trkpt lat="48.81839" lon="2.43229">
        <ele>95.7</ele>
        <time>2015-05-25T19:07:05.516Z</time>
      </trkpt>
      <trkpt lat="48.81847" lon="2.43233">
        <ele>96.3</ele>
        <time>2015-05-25T19:07:08.510Z</time>
      </trkpt>
      <trkpt lat="48.8185" lon="2.43235">
        <ele>96.2</ele>
        <time>2015-05-25T19:07:09.524Z</time>
      </trkpt>
      <trkpt lat="48.81853" lon="2.43245">
        <ele>97.5</ele>
        <time>2015-05-25T19:07:13.488Z</time>
      </trkpt>
      <trkpt lat="48.81854" lon="2.43248">
        <ele>97.5</ele>
        <time>2015-05-25T19:07:14.502Z</time>
      </trkpt>
      <trkpt lat="48.81856" lon="2.4326">
        <ele>96.5</ele>
        <time>2015-05-25T19:07:18.501Z</time>
      </trkpt>
      <trkpt lat="48.81857" lon="2.43264">
        <ele>96.2</ele>
        <time>2015-05-25T19:07:19.537Z</time>
      </trkpt>
      <trkpt lat="48.81861" lon="2.43275">
        <ele>95.5</ele>
        <time>2015-05-25T19:07:21.475Z</time>
      </trkpt>
      <trkpt lat="48.81862" lon="2.43279">
        <ele>95.4</ele>
        <time>2015-05-25T19:07:22.494Z</time>
      </trkpt>
      <trkpt lat="48.81864" lon="2.43289">
        <ele>95</ele>
        <time>2015-05-25T19:07:25.490Z</time>
      </trkpt>
      <trkpt lat="48.81864" lon="2.43292">
        <ele>95</ele>
        <time>2015-05-25T19:07:26.527Z</time>
      </trkpt>
      <trkpt lat="48.81865" lon="2.43304">
        <ele>95.2</ele>
        <time>2015-05-25T19:07:30.514Z</time>
      </trkpt>
      <trkpt lat="48.81866" lon="2.43308">
        <ele>95.2</ele>
        <time>2015-05-25T19:07:31.542Z</time>
      </trkpt>
      <trkpt lat="48.81867" lon="2.43319">
        <ele>95.9</ele>
        <time>2015-05-25T19:07:34.506Z</time>
      </trkpt>
      <trkpt lat="48.81868" lon="2.43323">
        <ele>96.2</ele>
        <time>2015-05-25T19:07:35.508Z</time>
      </trkpt>
      <trkpt lat="48.81871" lon="2.43335">
        <ele>97.7</ele>
        <time>2015-05-25T19:07:40.533Z</time>
      </trkpt>
      <trkpt lat="48.81872" lon="2.43337">
        <ele>98</ele>
        <time>2015-05-25T19:07:41.551Z</time>
      </trkpt>
      <trkpt lat="48.81879" lon="2.43344">
        <ele>98.1</ele>
        <time>2015-05-25T19:07:45.557Z</time>
      </trkpt>
      <trkpt lat="48.8188" lon="2.43346">
        <ele>98.1</ele>
        <time>2015-05-25T19:07:46.469Z</time>
      </trkpt>
      <trkpt lat="48.81885" lon="2.43354">
        <ele>98.3</ele>
        <time>2015-05-25T19:07:50.528Z</time>
      </trkpt>
      <trkpt lat="48.81887" lon="2.43357">
        <ele>98.8</ele>
        <time>2015-05-25T19:07:51.538Z</time>
      </trkpt>
      <trkpt lat="48.81893" lon="2.43362">
        <ele>99.2</ele>
        <time>2015-05-25T19:07:53.475Z</time>
      </trkpt>
      <trkpt lat="48.81896" lon="2.43364">
        <ele>99.5</ele>
        <time>2015-05-25T19:07:54.466Z</time>
      </trkpt>
      <trkpt lat="48.81901" lon="2.43372">
        <ele>99.2</ele>
        <time>2015-05-25T19:07:57.522Z</time>
      </trkpt>
      <trkpt lat="48.81903" lon="2.43375">
        <ele>99.3</ele>
        <time>2015-05-25T19:07:58.554Z</time>
      </trkpt>
      <trkpt lat="48.8191" lon="2.43381">
        <ele>99.5</ele>
        <time>2015-05-25T19:08:03.143Z</time>
      </trkpt>
      <trkpt lat="48.81911" lon="2.43383">
        <ele>99.7</ele>
        <time>2015-05-25T19:08:03.469Z</time>
      </trkpt>
      <trkpt lat="48.81917" lon="2.43393">
        <ele>100.7</ele>
        <time>2015-05-25T19:08:06.512Z</time>
      </trkpt>
      <trkpt lat="48.81918" lon="2.43395">
        <ele>100.9</ele>
        <time>2015-05-25T19:08:07.583Z</time>
      </trkpt>
      <trkpt lat="48.81924" lon="2.43405">
        <ele>101.9</ele>
        <time>2015-05-25T19:08:11.474Z</time>
      </trkpt>
      <trkpt lat="48.81926" lon="2.43407">
        <ele>102.1</ele>
        <time>2015-05-25T19:08:12.500Z</time>
      </trkpt>
      <trkpt lat="48.81933" lon="2.43413">
        <ele>102.6</ele>
        <time>2015-05-25T19:08:16.504Z</time>
      </trkpt>
      <trkpt lat="48.81934" lon="2.43415">
        <ele>102.8</ele>
        <time>2015-05-25T19:08:17.445Z</time>
      </trkpt>
      <trkpt lat="48.81939" lon="2.43426">
        <ele>103.7</ele>
        <time>2015-05-25T19:08:21.444Z</time>
      </trkpt>
      <trkpt lat="48.8194" lon="2.43431">
        <ele>103.9</ele>
        <time>2015-05-25T19:08:22.513Z</time>
      </trkpt>
      <trkpt lat="48.81944" lon="2.43441">
        <ele>104.1</ele>
        <time>2015-05-25T19:08:26.511Z</time>
      </trkpt>
      <trkpt lat="48.81945" lon="2.43443">
        <ele>104.1</ele>
        <time>2015-05-25T19:08:27.440Z</time>
      </trkpt>
      <trkpt lat="48.81951" lon="2.43452">
        <ele>104.9</ele>
        <time>2015-05-25T19:08:32.610Z</time>
      </trkpt>
      <trkpt lat="48.81953" lon="2.43455">
        <ele>105.2</ele>
        <time>2015-05-25T19:08:33.456Z</time>
      </trkpt>
      <trkpt lat="48.81958" lon="2.43464">
        <ele>106.9</ele>
        <time>2015-05-25T19:08:36.474Z</time>
      </trkpt>
      <trkpt lat="48.8196" lon="2.43467">
        <ele>107.3</ele>
        <time>2015-05-25T19:08:37.532Z</time>
      </trkpt>
      <trkpt lat="48.81965" lon="2.43476">
        <ele>107.9</ele>
        <time>2015-05-25T19:08:40.526Z</time>
      </trkpt>
      <trkpt lat="48.81967" lon="2.43478">
        <ele>108</ele>
        <time>2015-05-25T19:08:41.449Z</time>
      </trkpt>
      <trkpt lat="48.81971" lon="2.43488">
        <ele>108.2</ele>
        <time>2015-05-25T19:08:45.542Z</time>
      </trkpt>
      <trkpt lat="48.81972" lon="2.4349">
        <ele>108.1</ele>
        <time>2015-05-25T19:08:46.549Z</time>
      </trkpt>
      <trkpt lat="48.81971" lon="2.43503">
        <ele>110.2</ele>
        <time>2015-05-25T19:08:52.997Z</time>
      </trkpt>
      <trkpt lat="48.8197" lon="2.43507">
        <ele>110.4</ele>
        <time>2015-05-25T19:08:53.483Z</time>
      </trkpt>
      <trkpt lat="48.81973" lon="2.43519">
        <ele>131.5</ele>
        <time>2015-05-25T19:12:26.656Z</time>
      </trkpt>
      <trkpt lat="48.81974" lon="2.43521">
        <ele>131.7</ele>
        <time>2015-05-25T19:12:27.474Z</time>
      </trkpt>
      <trkpt lat="48.81977" lon="2.43533">
        <ele>129.6</ele>
        <time>2015-05-25T19:12:34.488Z</time>
      </trkpt>
      <trkpt lat="48.81977" lon="2.43535">
        <ele>129.5</ele>
        <time>2015-05-25T19:12:35.495Z</time>
      </trkpt>
      <trkpt lat="48.81975" lon="2.43548">
        <ele>128.4</ele>
        <time>2015-05-25T19:12:40.476Z</time>
      </trkpt>
      <trkpt lat="48.81975" lon="2.43551">
        <ele>128.1</ele>
        <time>2015-05-25T19:12:41.488Z</time>
      </trkpt>
      <trkpt lat="48.81975" lon="2.43563">
        <ele>127.3</ele>
        <time>2015-05-25T19:12:45.454Z</time>
      </trkpt>
      <trkpt lat="48.81975" lon="2.43567">
        <ele>126.7</ele>
        <time>2015-05-25T19:12:46.529Z</time>
      </trkpt>
      <trkpt lat="48.81972" lon="2.43578">
        <ele>126</ele>
        <time>2015-05-25T19:12:49.583Z</time>
      </trkpt>
      <trkpt lat="48.81972" lon="2.43582">
        <ele>125.6</ele>
        <time>2015-05-25T19:12:50.493Z</time>
      </trkpt>
      <trkpt lat="48.81971" lon="2.43595">
        <ele>124.1</ele>
        <time>2015-05-25T19:12:54.552Z</time>
      </trkpt>
      <trkpt lat="48.81971" lon="2.43598">
        <ele>123.7</ele>
        <time>2015-05-25T19:12:55.572Z</time>
      </trkpt>
      <trkpt lat="48.81976" lon="2.43609">
        <ele>123</ele>
        <time>2015-05-25T19:12:58.489Z</time>
      </trkpt>
      <trkpt lat="48.81977" lon="2.43611">
        <ele>122.8</ele>
        <time>2015-05-25T19:12:59.508Z</time>
      </trkpt>
      <trkpt lat="48.81981" lon="2.43621">
        <ele>121.8</ele>
        <time>2015-05-25T19:13:02.489Z</time>
      </trkpt>
      <trkpt lat="48.8198" lon="2.43625">
        <ele>121.1</ele>
        <time>2015-05-25T19:13:03.579Z</time>
      </trkpt>
      <trkpt lat="48.81977" lon="2.43634">
        <ele>120.5</ele>
        <time>2015-05-25T19:13:05.527Z</time>
      </trkpt>
      <trkpt lat="48.81976" lon="2.43638">
        <ele>120.5</ele>
        <time>2015-05-25T19:13:06.558Z</time>
      </trkpt>
      <trkpt lat="48.81973" lon="2.43647">
        <ele>120.6</ele>
        <time>2015-05-25T19:13:08.466Z</time>
      </trkpt>
      <trkpt lat="48.8197" lon="2.43652">
        <ele>120.3</ele>
        <time>2015-05-25T19:13:09.489Z</time>
      </trkpt>
      <trkpt lat="48.81965" lon="2.43664">
        <ele>120.4</ele>
        <time>2015-05-25T19:13:11.488Z</time>
      </trkpt>
      <trkpt lat="48.81963" lon="2.4367">
        <ele>120.4</ele>
        <time>2015-05-25T19:13:12.500Z</time>
      </trkpt>
      <trkpt lat="48.81961" lon="2.43676">
        <ele>120.7</ele>
        <time>2015-05-25T19:13:13.542Z</time>
      </trkpt>
      <trkpt lat="48.81959" lon="2.43683">
        <ele>120.7</ele>
        <time>2015-05-25T19:13:14.549Z</time>
      </trkpt>
      <trkpt lat="48.81957" lon="2.43689">
        <ele>120.6</ele>
        <time>2015-05-25T19:13:15.471Z</time>
      </trkpt>
      <trkpt lat="48.81955" lon="2.43695">
        <ele>120.5</ele>
        <time>2015-05-25T19:13:16.470Z</time>
      </trkpt>
      <trkpt lat="48.81951" lon="2.43707">
        <ele>120.2</ele>
        <time>2015-05-25T19:13:18.511Z</time>
      </trkpt>
      <trkpt lat="48.8195" lon="2.43713">
        <ele>120.3</ele>
        <time>2015-05-25T19:13:19.597Z</time>
      </trkpt>
      <trkpt lat="48.81946" lon="2.43725">
        <ele>120.3</ele>
        <time>2015-05-25T19:13:21.470Z</time>
      </trkpt>
      <trkpt lat="48.81944" lon="2.43731">
        <ele>120.5</ele>
        <time>2015-05-25T19:13:22.491Z</time>
      </trkpt>
      <trkpt lat="48.81941" lon="2.43743">
        <ele>120</ele>
        <time>2015-05-25T19:13:24.480Z</time>
      </trkpt>
      <trkpt lat="48.81939" lon="2.4375">
        <ele>119.7</ele>
        <time>2015-05-25T19:13:25.532Z</time>
      </trkpt>
      <trkpt lat="48.81937" lon="2.43756">
        <ele>119.1</ele>
        <time>2015-05-25T19:13:26.490Z</time>
      </trkpt>
      <trkpt lat="48.81934" lon="2.43762">
        <ele>119</ele>
        <time>2015-05-25T19:13:27.468Z</time>
      </trkpt>
      <trkpt lat="48.81933" lon="2.43769">
        <ele>118.9</ele>
        <time>2015-05-25T19:13:29.606Z</time>
      </trkpt>
      <trkpt lat="48.81931" lon="2.43775">
        <ele>119</ele>
        <time>2015-05-25T19:13:30.628Z</time>
      </trkpt>
      <trkpt lat="48.81929" lon="2.43781">
        <ele>119</ele>
        <time>2015-05-25T19:13:31.654Z</time>
      </trkpt>
      <trkpt lat="48.81927" lon="2.43788">
        <ele>119</ele>
        <time>2015-05-25T19:13:32.697Z</time>
      </trkpt>
      <trkpt lat="48.81925" lon="2.43795">
        <ele>118.9</ele>
        <time>2015-05-25T19:13:33.695Z</time>
      </trkpt>
      <trkpt lat="48.81923" lon="2.43802">
        <ele>118.7</ele>
        <time>2015-05-25T19:13:34.706Z</time>
      </trkpt>
      <trkpt lat="48.81921" lon="2.43809">
        <ele>118.8</ele>
        <time>2015-05-25T19:13:35.593Z</time>
      </trkpt>
      <trkpt lat="48.81919" lon="2.43816">
        <ele>118.9</ele>
        <time>2015-05-25T19:13:36.627Z</time>
      </trkpt>
      <trkpt lat="48.81918" lon="2.43824">
        <ele>119.1</ele>
        <time>2015-05-25T19:13:37.642Z</time>
      </trkpt>
      <trkpt lat="48.81916" lon="2.43832">
        <ele>119.2</ele>
        <time>2015-05-25T19:13:38.649Z</time>
      </trkpt>
      <trkpt lat="48.81914" lon="2.43841">
        <ele>119.3</ele>
        <time>2015-05-25T19:13:39.668Z</time>
      </trkpt>
      <trkpt lat="48.81912" lon="2.43849">
        <ele>119.4</ele>
        <time>2015-05-25T19:13:40.679Z</time>
      </trkpt>
      <trkpt lat="48.8191" lon="2.43858">
        <ele>119.3</ele>
        <time>2015-05-25T19:13:41.704Z</time>
      </trkpt>
      <trkpt lat="48.81908" lon="2.43867">
        <ele>119.2</ele>
        <time>2015-05-25T19:13:42.709Z</time>
      </trkpt>
      <trkpt lat="48.81907" lon="2.43875">
        <ele>119</ele>
        <time>2015-05-25T19:13:43.631Z</time>
      </trkpt>
      <trkpt lat="48.81905" lon="2.43883">
        <ele>119.2</ele>
        <time>2015-05-25T19:13:44.655Z</time>
      </trkpt>
      <trkpt lat="48.81904" lon="2.43892">
        <ele>119.1</ele>
        <time>2015-05-25T19:13:45.677Z</time>
      </trkpt>
      <trkpt lat="48.81902" lon="2.439">
        <ele>118.9</ele>
        <time>2015-05-25T19:13:46.690Z</time>
      </trkpt>
      <trkpt lat="48.81902" lon="2.43909">
        <ele>119.1</ele>
        <time>2015-05-25T19:13:47.587Z</time>
      </trkpt>
      <trkpt lat="48.81901" lon="2.43918">
        <ele>119.1</ele>
        <time>2015-05-25T19:13:49.085Z</time>
      </trkpt>
      <trkpt lat="48.81899" lon="2.43927">
        <ele>118.9</ele>
        <time>2015-05-25T19:13:50.151Z</time>
      </trkpt>
      <trkpt lat="48.81898" lon="2.43936">
        <ele>119.2</ele>
        <time>2015-05-25T19:13:51.126Z</time>
      </trkpt>
      <trkpt lat="48.81896" lon="2.43944">
        <ele>119</ele>
        <time>2015-05-25T19:13:52.174Z</time>
      </trkpt>
      <trkpt lat="48.81895" lon="2.43953">
        <ele>119</ele>
        <time>2015-05-25T19:13:53.135Z</time>
      </trkpt>
      <trkpt lat="48.81893" lon="2.43961">
        <ele>119</ele>
        <time>2015-05-25T19:13:54.078Z</time>
      </trkpt>
      <trkpt lat="48.81892" lon="2.4397">
        <ele>118.8</ele>
        <time>2015-05-25T19:13:55.175Z</time>
      </trkpt>
      <trkpt lat="48.8189" lon="2.4398">
        <ele>118.3</ele>
        <time>2015-05-25T19:13:56.148Z</time>
      </trkpt>
      <trkpt lat="48.81889" lon="2.43991">
        <ele>118.3</ele>
        <time>2015-05-25T19:13:57.170Z</time>
      </trkpt>
      <trkpt lat="48.81889" lon="2.44">
        <ele>118.5</ele>
        <time>2015-05-25T19:13:58.055Z</time>
      </trkpt>
      <trkpt lat="48.81888" lon="2.4401">
        <ele>118.3</ele>
        <time>2015-05-25T19:13:59.110Z</time>
      </trkpt>
      <trkpt lat="48.81888" lon="2.44019">
        <ele>118.3</ele>
        <time>2015-05-25T19:14:00.130Z</time>
      </trkpt>
      <trkpt lat="48.81886" lon="2.44028">
        <ele>118.3</ele>
        <time>2015-05-25T19:14:01.137Z</time>
      </trkpt>
      <trkpt lat="48.81885" lon="2.44037">
        <ele>118.2</ele>
        <time>2015-05-25T19:14:02.141Z</time>
      </trkpt>
      <trkpt lat="48.81884" lon="2.44047">
        <ele>118.2</ele>
        <time>2015-05-25T19:14:03.146Z</time>
      </trkpt>
      <trkpt lat="48.81883" lon="2.44056">
        <ele>118.4</ele>
        <time>2015-05-25T19:14:04.163Z</time>
      </trkpt>
      <trkpt lat="48.8188" lon="2.44066">
        <ele>118.5</ele>
        <time>2015-05-25T19:14:05.094Z</time>
      </trkpt>
      <trkpt lat="48.81878" lon="2.44076">
        <ele>118.6</ele>
        <time>2015-05-25T19:14:06.131Z</time>
      </trkpt>
      <trkpt lat="48.81876" lon="2.44086">
        <ele>118.8</ele>
        <time>2015-05-25T19:14:07.118Z</time>
      </trkpt>
      <trkpt lat="48.81875" lon="2.44096">
        <ele>119.2</ele>
        <time>2015-05-25T19:14:08.160Z</time>
      </trkpt>
      <trkpt lat="48.81874" lon="2.44107">
        <ele>119.3</ele>
        <time>2015-05-25T19:14:09.173Z</time>
      </trkpt>
      <trkpt lat="48.81872" lon="2.44118">
        <ele>119.2</ele>
        <time>2015-05-25T19:14:10.142Z</time>
      </trkpt>
      <trkpt lat="48.81871" lon="2.44128">
        <ele>119.2</ele>
        <time>2015-05-25T19:14:11.095Z</time>
      </trkpt>
      <trkpt lat="48.8187" lon="2.44139">
        <ele>119.4</ele>
        <time>2015-05-25T19:14:12.116Z</time>
      </trkpt>
      <trkpt lat="48.8187" lon="2.4415">
        <ele>119.7</ele>
        <time>2015-05-25T19:14:13.131Z</time>
      </trkpt>
      <trkpt lat="48.81869" lon="2.44161">
        <ele>119.4</ele>
        <time>2015-05-25T19:14:14.141Z</time>
      </trkpt>
      <trkpt lat="48.81868" lon="2.44172">
        <ele>118.8</ele>
        <time>2015-05-25T19:14:15.158Z</time>
      </trkpt>
      <trkpt lat="48.81867" lon="2.44183">
        <ele>118.3</ele>
        <time>2015-05-25T19:14:16.127Z</time>
      </trkpt>
      <trkpt lat="48.81866" lon="2.44194">
        <ele>117.9</ele>
        <time>2015-05-25T19:14:17.063Z</time>
      </trkpt>
      <trkpt lat="48.81865" lon="2.44204">
        <ele>117.6</ele>
        <time>2015-05-25T19:14:18.059Z</time>
      </trkpt>
      <trkpt lat="48.81864" lon="2.44215">
        <ele>117.3</ele>
        <time>2015-05-25T19:14:19.105Z</time>
      </trkpt>
      <trkpt lat="48.81864" lon="2.44225">
        <ele>116.9</ele>
        <time>2015-05-25T19:14:20.122Z</time>
      </trkpt>
      <trkpt lat="48.81864" lon="2.44235">
        <ele>116.2</ele>
        <time>2015-05-25T19:14:21.148Z</time>
      </trkpt>
      <trkpt lat="48.81864" lon="2.44245">
        <ele>115.7</ele>
        <time>2015-05-25T19:14:22.203Z</time>
      </trkpt>
      <trkpt lat="48.81863" lon="2.44255">
        <ele>115.1</ele>
        <time>2015-05-25T19:14:23.046Z</time>
      </trkpt>
      <trkpt lat="48.81863" lon="2.44264">
        <ele>114.7</ele>
        <time>2015-05-25T19:14:24.075Z</time>
      </trkpt>
      <trkpt lat="48.81864" lon="2.44275">
        <ele>114.4</ele>
        <time>2015-05-25T19:14:25.081Z</time>
      </trkpt>
      <trkpt lat="48.81864" lon="2.44285">
        <ele>114</ele>
        <time>2015-05-25T19:14:26.099Z</time>
      </trkpt>
      <trkpt lat="48.81864" lon="2.44295">
        <ele>113.7</ele>
        <time>2015-05-25T19:14:27.119Z</time>
      </trkpt>
      <trkpt lat="48.81864" lon="2.44305">
        <ele>113.4</ele>
        <time>2015-05-25T19:14:28.121Z</time>
      </trkpt>
      <trkpt lat="48.81864" lon="2.44315">
        <ele>113.1</ele>
        <time>2015-05-25T19:14:29.121Z</time>
      </trkpt>
      <trkpt lat="48.81864" lon="2.44325">
        <ele>113</ele>
        <time>2015-05-25T19:14:30.132Z</time>
      </trkpt>
      <trkpt lat="48.81863" lon="2.44334">
        <ele>113.2</ele>
        <time>2015-05-25T19:14:31.142Z</time>
      </trkpt>
      <trkpt lat="48.81863" lon="2.44345">
        <ele>113.4</ele>
        <time>2015-05-25T19:14:32.155Z</time>
      </trkpt>
      <trkpt lat="48.81863" lon="2.44356">
        <ele>113.8</ele>
        <time>2015-05-25T19:14:33.170Z</time>
      </trkpt>
      <trkpt lat="48.81862" lon="2.44366">
        <ele>114.1</ele>
        <time>2015-05-25T19:14:34.077Z</time>
      </trkpt>
      <trkpt lat="48.81862" lon="2.44376">
        <ele>114</ele>
        <time>2015-05-25T19:14:35.074Z</time>
      </trkpt>
      <trkpt lat="48.81862" lon="2.44386">
        <ele>114</ele>
        <time>2015-05-25T19:14:36.085Z</time>
      </trkpt>
      <trkpt lat="48.81863" lon="2.44396">
        <ele>113.8</ele>
        <time>2015-05-25T19:14:37.090Z</time>
      </trkpt>
      <trkpt lat="48.81863" lon="2.44405">
        <ele>113.5</ele>
        <time>2015-05-25T19:14:38.096Z</time>
      </trkpt>
      <trkpt lat="48.81863" lon="2.44416">
        <ele>113.6</ele>
        <time>2015-05-25T19:14:39.106Z</time>
      </trkpt>
      <trkpt lat="48.81863" lon="2.44426">
        <ele>113.6</ele>
        <time>2015-05-25T19:14:40.144Z</time>
      </trkpt>
      <trkpt lat="48.81863" lon="2.44436">
        <ele>113.7</ele>
        <time>2015-05-25T19:14:41.141Z</time>
      </trkpt>
      <trkpt lat="48.81864" lon="2.44445">
        <ele>113.9</ele>
        <time>2015-05-25T19:14:42.185Z</time>
      </trkpt>
      <trkpt lat="48.81864" lon="2.44455">
        <ele>114</ele>
        <time>2015-05-25T19:14:43.047Z</time>
      </trkpt>
      <trkpt lat="48.81864" lon="2.44465">
        <ele>113.9</ele>
        <time>2015-05-25T19:14:44.097Z</time>
      </trkpt>
      <trkpt lat="48.81864" lon="2.44474">
        <ele>113.9</ele>
        <time>2015-05-25T19:14:45.112Z</time>
      </trkpt>
      <trkpt lat="48.81864" lon="2.44482">
        <ele>113.6</ele>
        <time>2015-05-25T19:14:46.107Z</time>
      </trkpt>
      <trkpt lat="48.81863" lon="2.4449">
        <ele>113.6</ele>
        <time>2015-05-25T19:14:47.120Z</time>
      </trkpt>
      <trkpt lat="48.81863" lon="2.445">
        <ele>113.8</ele>
        <time>2015-05-25T19:14:48.124Z</time>
      </trkpt>
      <trkpt lat="48.81862" lon="2.44509">
        <ele>113.9</ele>
        <time>2015-05-25T19:14:49.131Z</time>
      </trkpt>
      <trkpt lat="48.81863" lon="2.44518">
        <ele>114.1</ele>
        <time>2015-05-25T19:14:50.137Z</time>
      </trkpt>
      <trkpt lat="48.81864" lon="2.44526">
        <ele>114.3</ele>
        <time>2015-05-25T19:14:51.144Z</time>
      </trkpt>
      <trkpt lat="48.81865" lon="2.44535">
        <ele>114.4</ele>
        <time>2015-05-25T19:14:52.163Z</time>
      </trkpt>
      <trkpt lat="48.81866" lon="2.44544">
        <ele>114.5</ele>
        <time>2015-05-25T19:14:53.077Z</time>
      </trkpt>
      <trkpt lat="48.81867" lon="2.44553">
        <ele>114.5</ele>
        <time>2015-05-25T19:14:54.078Z</time>
      </trkpt>
      <trkpt lat="48.81867" lon="2.44561">
        <ele>114.6</ele>
        <time>2015-05-25T19:14:55.080Z</time>
      </trkpt>
      <trkpt lat="48.81867" lon="2.4457">
        <ele>114.3</ele>
        <time>2015-05-25T19:14:56.095Z</time>
      </trkpt>
      <trkpt lat="48.81867" lon="2.44578">
        <ele>114.2</ele>
        <time>2015-05-25T19:14:57.104Z</time>
      </trkpt>
      <trkpt lat="48.81868" lon="2.44588">
        <ele>114.4</ele>
        <time>2015-05-25T19:14:58.113Z</time>
      </trkpt>
      <trkpt lat="48.81869" lon="2.44596">
        <ele>114.7</ele>
        <time>2015-05-25T19:14:59.118Z</time>
      </trkpt>
      <trkpt lat="48.8187" lon="2.44603">
        <ele>114.8</ele>
        <time>2015-05-25T19:15:00.128Z</time>
      </trkpt>
      <trkpt lat="48.8187" lon="2.4461">
        <ele>115</ele>
        <time>2015-05-25T19:15:01.139Z</time>
      </trkpt>
      <trkpt lat="48.8187" lon="2.44618">
        <ele>114.9</ele>
        <time>2015-05-25T19:15:02.062Z</time>
      </trkpt>
      <trkpt lat="48.8187" lon="2.44625">
        <ele>115.3</ele>
        <time>2015-05-25T19:15:03.113Z</time>
      </trkpt>
      <trkpt lat="48.81871" lon="2.44633">
        <ele>115.2</ele>
        <time>2015-05-25T19:15:04.115Z</time>
      </trkpt>
      <trkpt lat="48.8187" lon="2.44639">
        <ele>115.1</ele>
        <time>2015-05-25T19:15:05.145Z</time>
      </trkpt>
      <trkpt lat="48.8187" lon="2.44646">
        <ele>114.7</ele>
        <time>2015-05-25T19:15:06.104Z</time>
      </trkpt>
      <trkpt lat="48.81869" lon="2.44653">
        <ele>114.7</ele>
        <time>2015-05-25T19:15:07.071Z</time>
      </trkpt>
      <trkpt lat="48.81868" lon="2.4466">
        <ele>114.4</ele>
        <time>2015-05-25T19:15:08.091Z</time>
      </trkpt>
      <trkpt lat="48.81868" lon="2.44667">
        <ele>114.6</ele>
        <time>2015-05-25T19:15:09.103Z</time>
      </trkpt>
      <trkpt lat="48.81868" lon="2.44674">
        <ele>114.3</ele>
        <time>2015-05-25T19:15:10.117Z</time>
      </trkpt>
      <trkpt lat="48.81869" lon="2.44681">
        <ele>113.6</ele>
        <time>2015-05-25T19:15:11.118Z</time>
      </trkpt>
      <trkpt lat="48.81869" lon="2.44688">
        <ele>113.1</ele>
        <time>2015-05-25T19:15:12.145Z</time>
      </trkpt>
      <trkpt lat="48.81869" lon="2.44696">
        <ele>112.8</ele>
        <time>2015-05-25T19:15:13.052Z</time>
      </trkpt>
      <trkpt lat="48.81869" lon="2.44705">
        <ele>112.9</ele>
        <time>2015-05-25T19:15:14.098Z</time>
      </trkpt>
      <trkpt lat="48.8187" lon="2.44712">
        <ele>113.1</ele>
        <time>2015-05-25T19:15:15.114Z</time>
      </trkpt>
      <trkpt lat="48.8187" lon="2.4472">
        <ele>113.4</ele>
        <time>2015-05-25T19:15:16.124Z</time>
      </trkpt>
      <trkpt lat="48.8187" lon="2.44728">
        <ele>113.5</ele>
        <time>2015-05-25T19:15:17.134Z</time>
      </trkpt>
      <trkpt lat="48.81871" lon="2.44736">
        <ele>113</ele>
        <time>2015-05-25T19:15:18.048Z</time>
      </trkpt>
      <trkpt lat="48.81871" lon="2.44743">
        <ele>113.4</ele>
        <time>2015-05-25T19:15:19.059Z</time>
      </trkpt>
      <trkpt lat="48.81871" lon="2.44751">
        <ele>113.4</ele>
        <time>2015-05-25T19:15:20.079Z</time>
      </trkpt>
      <trkpt lat="48.8187" lon="2.4476">
        <ele>113.5</ele>
        <time>2015-05-25T19:15:21.109Z</time>
      </trkpt>
      <trkpt lat="48.8187" lon="2.44768">
        <ele>114</ele>
        <time>2015-05-25T19:15:22.133Z</time>
      </trkpt>
      <trkpt lat="48.8187" lon="2.44777">
        <ele>114.2</ele>
        <time>2015-05-25T19:15:23.157Z</time>
      </trkpt>
      <trkpt lat="48.8187" lon="2.44786">
        <ele>114.2</ele>
        <time>2015-05-25T19:15:24.056Z</time>
      </trkpt>
      <trkpt lat="48.8187" lon="2.44795">
        <ele>113.9</ele>
        <time>2015-05-25T19:15:25.078Z</time>
      </trkpt>
      <trkpt lat="48.81871" lon="2.44804">
        <ele>114.1</ele>
        <time>2015-05-25T19:15:26.082Z</time>
      </trkpt>
      <trkpt lat="48.8187" lon="2.44813">
        <ele>114.4</ele>
        <time>2015-05-25T19:15:27.124Z</time>
      </trkpt>
      <trkpt lat="48.81869" lon="2.44822">
        <ele>114.8</ele>
        <time>2015-05-25T19:15:28.144Z</time>
      </trkpt>
      <trkpt lat="48.81868" lon="2.44832">
        <ele>114.5</ele>
        <time>2015-05-25T19:15:29.056Z</time>
      </trkpt>
      <trkpt lat="48.81868" lon="2.44841">
        <ele>115</ele>
        <time>2015-05-25T19:15:30.077Z</time>
      </trkpt>
      <trkpt lat="48.81869" lon="2.4485">
        <ele>115</ele>
        <time>2015-05-25T19:15:31.087Z</time>
      </trkpt>
      <trkpt lat="48.81869" lon="2.4486">
        <ele>115.1</ele>
        <time>2015-05-25T19:15:32.102Z</time>
      </trkpt>
      <trkpt lat="48.8187" lon="2.4487">
        <ele>115</ele>
        <time>2015-05-25T19:15:33.137Z</time>
      </trkpt>
      <trkpt lat="48.8187" lon="2.4488">
        <ele>115</ele>
        <time>2015-05-25T19:15:34.130Z</time>
      </trkpt>
      <trkpt lat="48.8187" lon="2.4489">
        <ele>115.2</ele>
        <time>2015-05-25T19:15:35.144Z</time>
      </trkpt>
      <trkpt lat="48.8187" lon="2.44899">
        <ele>115.2</ele>
        <time>2015-05-25T19:15:36.140Z</time>
      </trkpt>
      <trkpt lat="48.81869" lon="2.44909">
        <ele>115</ele>
        <time>2015-05-25T19:15:37.147Z</time>
      </trkpt>
      <trkpt lat="48.81867" lon="2.44919">
        <ele>114.9</ele>
        <time>2015-05-25T19:15:38.178Z</time>
      </trkpt>
      <trkpt lat="48.81868" lon="2.44928">
        <ele>115.2</ele>
        <time>2015-05-25T19:15:39.167Z</time>
      </trkpt>
      <trkpt lat="48.81867" lon="2.44938">
        <ele>115.4</ele>
        <time>2015-05-25T19:15:40.103Z</time>
      </trkpt>
      <trkpt lat="48.81867" lon="2.44947">
        <ele>115.6</ele>
        <time>2015-05-25T19:15:41.095Z</time>
      </trkpt>
      <trkpt lat="48.81867" lon="2.44957">
        <ele>115.9</ele>
        <time>2015-05-25T19:15:42.110Z</time>
      </trkpt>
      <trkpt lat="48.81866" lon="2.44967">
        <ele>115.9</ele>
        <time>2015-05-25T19:15:43.149Z</time>
      </trkpt>
      <trkpt lat="48.81866" lon="2.44977">
        <ele>115.9</ele>
        <time>2015-05-25T19:15:44.157Z</time>
      </trkpt>
      <trkpt lat="48.81866" lon="2.44987">
        <ele>115.8</ele>
        <time>2015-05-25T19:15:45.158Z</time>
      </trkpt>
      <trkpt lat="48.81865" lon="2.44996">
        <ele>115.8</ele>
        <time>2015-05-25T19:15:46.077Z</time>
      </trkpt>
      <trkpt lat="48.81864" lon="2.45006">
        <ele>115.6</ele>
        <time>2015-05-25T19:15:47.085Z</time>
      </trkpt>
      <trkpt lat="48.81862" lon="2.45016">
        <ele>115.5</ele>
        <time>2015-05-25T19:15:48.090Z</time>
      </trkpt>
      <trkpt lat="48.81862" lon="2.45025">
        <ele>115.4</ele>
        <time>2015-05-25T19:15:49.105Z</time>
      </trkpt>
      <trkpt lat="48.81861" lon="2.45034">
        <ele>115.6</ele>
        <time>2015-05-25T19:15:50.117Z</time>
      </trkpt>
      <trkpt lat="48.8186" lon="2.45043">
        <ele>115.5</ele>
        <time>2015-05-25T19:15:51.137Z</time>
      </trkpt>
      <trkpt lat="48.81859" lon="2.45053">
        <ele>115.3</ele>
        <time>2015-05-25T19:15:52.154Z</time>
      </trkpt>
      <trkpt lat="48.81857" lon="2.45063">
        <ele>115.3</ele>
        <time>2015-05-25T19:15:53.140Z</time>
      </trkpt>
      <trkpt lat="48.81856" lon="2.45072">
        <ele>115.3</ele>
        <time>2015-05-25T19:15:54.169Z</time>
      </trkpt>
      <trkpt lat="48.81855" lon="2.45081">
        <ele>115.2</ele>
        <time>2015-05-25T19:15:55.089Z</time>
      </trkpt>
      <trkpt lat="48.81853" lon="2.45089">
        <ele>115</ele>
        <time>2015-05-25T19:15:56.104Z</time>
      </trkpt>
      <trkpt lat="48.81851" lon="2.45097">
        <ele>114.6</ele>
        <time>2015-05-25T19:15:57.152Z</time>
      </trkpt>
      <trkpt lat="48.81851" lon="2.45106">
        <ele>114.5</ele>
        <time>2015-05-25T19:15:58.085Z</time>
      </trkpt>
      <trkpt lat="48.8185" lon="2.45113">
        <ele>114.4</ele>
        <time>2015-05-25T19:15:59.094Z</time>
      </trkpt>
      <trkpt lat="48.81849" lon="2.45122">
        <ele>114.3</ele>
        <time>2015-05-25T19:16:00.103Z</time>
      </trkpt>
      <trkpt lat="48.81848" lon="2.45128">
        <ele>114.6</ele>
        <time>2015-05-25T19:16:01.130Z</time>
      </trkpt>
      <trkpt lat="48.81846" lon="2.4514">
        <ele>115.5</ele>
        <time>2015-05-25T19:16:03.150Z</time>
      </trkpt>
      <trkpt lat="48.81846" lon="2.45146">
        <ele>116</ele>
        <time>2015-05-25T19:16:04.160Z</time>
      </trkpt>
      <trkpt lat="48.8185" lon="2.45158">
        <ele>115.4</ele>
        <time>2015-05-25T19:16:09.144Z</time>
      </trkpt>
      <trkpt lat="48.81851" lon="2.45158">
        <ele>115.2</ele>
        <time>2015-05-25T19:16:10.222Z</time>
      </trkpt>
      <trkpt lat="48.81857" lon="2.45152">
        <ele>117.7</ele>
        <time>2015-05-25T19:17:31.100Z</time>
      </trkpt>
      <trkpt lat="48.81859" lon="2.45152">
        <ele>117.5</ele>
        <time>2015-05-25T19:17:32.115Z</time>
      </trkpt>
      <trkpt lat="48.81868" lon="2.45154">
        <ele>117.1</ele>
        <time>2015-05-25T19:17:35.241Z</time>
      </trkpt>
      <trkpt lat="48.81871" lon="2.45155">
        <ele>117.2</ele>
        <time>2015-05-25T19:17:36.095Z</time>
      </trkpt>
      <trkpt lat="48.81877" lon="2.45159">
        <ele>117.3</ele>
        <time>2015-05-25T19:17:38.121Z</time>
      </trkpt>
      <trkpt lat="48.81881" lon="2.45163">
        <ele>117.3</ele>
        <time>2015-05-25T19:17:39.143Z</time>
      </trkpt>
      <trkpt lat="48.81888" lon="2.45168">
        <ele>117.4</ele>
        <time>2015-05-25T19:17:41.169Z</time>
      </trkpt>
      <trkpt lat="48.8189" lon="2.4517">
        <ele>117.3</ele>
        <time>2015-05-25T19:17:42.090Z</time>
      </trkpt>
      <trkpt lat="48.81898" lon="2.45175">
        <ele>117.3</ele>
        <time>2015-05-25T19:17:44.115Z</time>
      </trkpt>
      <trkpt lat="48.81901" lon="2.45177">
        <ele>117.2</ele>
        <time>2015-05-25T19:17:45.131Z</time>
      </trkpt>
      <trkpt lat="48.81907" lon="2.45181">
        <ele>117.3</ele>
        <time>2015-05-25T19:17:47.158Z</time>
      </trkpt>
      <trkpt lat="48.8191" lon="2.45183">
        <ele>117.3</ele>
        <time>2015-05-25T19:17:48.086Z</time>
      </trkpt>
      <trkpt lat="48.81915" lon="2.45187">
        <ele>117.7</ele>
        <time>2015-05-25T19:17:50.138Z</time>
      </trkpt>
      <trkpt lat="48.81919" lon="2.45191">
        <ele>117.8</ele>
        <time>2015-05-25T19:17:51.216Z</time>
      </trkpt>
      <trkpt lat="48.81924" lon="2.45196">
        <ele>117.6</ele>
        <time>2015-05-25T19:17:53.101Z</time>
      </trkpt>
      <trkpt lat="48.81927" lon="2.45198">
        <ele>117.4</ele>
        <time>2015-05-25T19:17:54.121Z</time>
      </trkpt>
      <trkpt lat="48.81933" lon="2.45203">
        <ele>117.8</ele>
        <time>2015-05-25T19:17:56.162Z</time>
      </trkpt>
      <trkpt lat="48.81935" lon="2.45206">
        <ele>117.8</ele>
        <time>2015-05-25T19:17:57.213Z</time>
      </trkpt>
      <trkpt lat="48.8194" lon="2.45213">
        <ele>117.9</ele>
        <time>2015-05-25T19:17:59.094Z</time>
      </trkpt>
      <trkpt lat="48.81943" lon="2.45216">
        <ele>118</ele>
        <time>2015-05-25T19:18:00.106Z</time>
      </trkpt>
      <trkpt lat="48.81949" lon="2.45224">
        <ele>117.7</ele>
        <time>2015-05-25T19:18:02.137Z</time>
      </trkpt>
      <trkpt lat="48.81952" lon="2.45229">
        <ele>117.8</ele>
        <time>2015-05-25T19:18:03.141Z</time>
      </trkpt>
      <trkpt lat="48.81958" lon="2.45237">
        <ele>117.7</ele>
        <time>2015-05-25T19:18:05.103Z</time>
      </trkpt>
      <trkpt lat="48.8196" lon="2.45242">
        <ele>117.6</ele>
        <time>2015-05-25T19:18:06.149Z</time>
      </trkpt>
      <trkpt lat="48.81965" lon="2.45252">
        <ele>117.9</ele>
        <time>2015-05-25T19:18:08.168Z</time>
      </trkpt>
      <trkpt lat="48.81967" lon="2.45257">
        <ele>117.8</ele>
        <time>2015-05-25T19:18:09.227Z</time>
      </trkpt>
      <trkpt lat="48.8197" lon="2.45268">
        <ele>118.2</ele>
        <time>2015-05-25T19:18:11.091Z</time>
      </trkpt>
      <trkpt lat="48.81972" lon="2.45274">
        <ele>118.4</ele>
        <time>2015-05-25T19:18:12.126Z</time>
      </trkpt>
      <trkpt lat="48.81973" lon="2.45286">
        <ele>118.5</ele>
        <time>2015-05-25T19:18:14.111Z</time>
      </trkpt>
      <trkpt lat="48.81973" lon="2.45292">
        <ele>118.4</ele>
        <time>2015-05-25T19:18:15.129Z</time>
      </trkpt>
      <trkpt lat="48.81975" lon="2.45304">
        <ele>117.6</ele>
        <time>2015-05-25T19:18:17.082Z</time>
      </trkpt>
      <trkpt lat="48.81976" lon="2.4531">
        <ele>117.2</ele>
        <time>2015-05-25T19:18:18.129Z</time>
      </trkpt>
      <trkpt lat="48.81978" lon="2.45321">
        <ele>117.2</ele>
        <time>2015-05-25T19:18:20.109Z</time>
      </trkpt>
      <trkpt lat="48.81979" lon="2.45327">
        <ele>117.5</ele>
        <time>2015-05-25T19:18:21.129Z</time>
      </trkpt>
      <trkpt lat="48.81979" lon="2.4534">
        <ele>117.9</ele>
        <time>2015-05-25T19:18:23.202Z</time>
      </trkpt>
      <trkpt lat="48.8198" lon="2.45346">
        <ele>117.7</ele>
        <time>2015-05-25T19:18:24.110Z</time>
      </trkpt>
      <trkpt lat="48.81981" lon="2.45358">
        <ele>118</ele>
        <time>2015-05-25T19:18:26.090Z</time>
      </trkpt>
      <trkpt lat="48.81982" lon="2.45364">
        <ele>118.2</ele>
        <time>2015-05-25T19:18:27.129Z</time>
      </trkpt>
      <trkpt lat="48.81983" lon="2.45376">
        <ele>118.7</ele>
        <time>2015-05-25T19:18:29.107Z</time>
      </trkpt>
      <trkpt lat="48.81983" lon="2.45382">
        <ele>118.5</ele>
        <time>2015-05-25T19:18:30.093Z</time>
      </trkpt>
      <trkpt lat="48.81983" lon="2.45396">
        <ele>118.1</ele>
        <time>2015-05-25T19:18:32.162Z</time>
      </trkpt>
      <trkpt lat="48.81982" lon="2.45402">
        <ele>118.3</ele>
        <time>2015-05-25T19:18:33.208Z</time>
      </trkpt>
      <trkpt lat="48.8198" lon="2.45414">
        <ele>118.1</ele>
        <time>2015-05-25T19:18:35.089Z</time>
      </trkpt>
      <trkpt lat="48.81979" lon="2.4542">
        <ele>118.2</ele>
        <time>2015-05-25T19:18:36.105Z</time>
      </trkpt>
      <trkpt lat="48.81978" lon="2.45431">
        <ele>118.5</ele>
        <time>2015-05-25T19:18:38.200Z</time>
      </trkpt>
      <trkpt lat="48.81978" lon="2.45437">
        <ele>118.5</ele>
        <time>2015-05-25T19:18:39.079Z</time>
      </trkpt>
      <trkpt lat="48.81978" lon="2.45449">
        <ele>118.3</ele>
        <time>2015-05-25T19:18:41.114Z</time>
      </trkpt>
      <trkpt lat="48.81977" lon="2.45455">
        <ele>118</ele>
        <time>2015-05-25T19:18:42.125Z</time>
      </trkpt>
      <trkpt lat="48.81975" lon="2.45466">
        <ele>117.2</ele>
        <time>2015-05-25T19:18:44.905Z</time>
      </trkpt>
      <trkpt lat="48.81975" lon="2.45471">
        <ele>117.1</ele>
        <time>2015-05-25T19:18:45.142Z</time>
      </trkpt>
      <trkpt lat="48.81976" lon="2.45481">
        <ele>117.3</ele>
        <time>2015-05-25T19:18:47.169Z</time>
      </trkpt>
      <trkpt lat="48.81976" lon="2.45485">
        <ele>117.3</ele>
        <time>2015-05-25T19:18:48.090Z</time>
      </trkpt>
      <trkpt lat="48.81977" lon="2.45493">
        <ele>117.1</ele>
        <time>2015-05-25T19:18:50.129Z</time>
      </trkpt>
      <trkpt lat="48.81977" lon="2.45499">
        <ele>116.9</ele>
        <time>2015-05-25T19:18:51.241Z</time>
      </trkpt>
      <trkpt lat="48.81979" lon="2.4551">
        <ele>116.4</ele>
        <time>2015-05-25T19:18:53.091Z</time>
      </trkpt>
      <trkpt lat="48.8198" lon="2.45515">
        <ele>116.2</ele>
        <time>2015-05-25T19:18:54.103Z</time>
      </trkpt>
      <trkpt lat="48.81981" lon="2.45527">
        <ele>116.2</ele>
        <time>2015-05-25T19:18:56.150Z</time>
      </trkpt>
      <trkpt lat="48.81982" lon="2.45532">
        <ele>115.9</ele>
        <time>2015-05-25T19:18:57.187Z</time>
      </trkpt>
      <trkpt lat="48.81981" lon="2.45541">
        <ele>116</ele>
        <time>2015-05-25T19:18:59.895Z</time>
      </trkpt>
      <trkpt lat="48.81982" lon="2.45545">
        <ele>116</ele>
        <time>2015-05-25T19:19:00.107Z</time>
      </trkpt>
      <trkpt lat="48.81983" lon="2.45558">
        <ele>115.8</ele>
        <time>2015-05-25T19:19:03.203Z</time>
      </trkpt>
      <trkpt lat="48.81983" lon="2.45564">
        <ele>115.7</ele>
        <time>2015-05-25T19:19:04.090Z</time>
      </trkpt>
      <trkpt lat="48.81984" lon="2.45574">
        <ele>115.8</ele>
        <time>2015-05-25T19:19:06.145Z</time>
      </trkpt>
      <trkpt lat="48.81984" lon="2.45579">
        <ele>115.9</ele>
        <time>2015-05-25T19:19:07.150Z</time>
      </trkpt>
      <trkpt lat="48.81985" lon="2.4559">
        <ele>115.8</ele>
        <time>2015-05-25T19:19:09.128Z</time>
      </trkpt>
      <trkpt lat="48.81986" lon="2.45596">
        <ele>115.8</ele>
        <time>2015-05-25T19:19:10.130Z</time>
      </trkpt>
      <trkpt lat="48.81987" lon="2.45606">
        <ele>115.7</ele>
        <time>2015-05-25T19:19:12.156Z</time>
      </trkpt>
      <trkpt lat="48.81987" lon="2.45611">
        <ele>115.8</ele>
        <time>2015-05-25T19:19:13.162Z</time>
      </trkpt>
      <trkpt lat="48.81989" lon="2.45624">
        <ele>116.6</ele>
        <time>2015-05-25T19:19:16.090Z</time>
      </trkpt>
      <trkpt lat="48.81989" lon="2.45629">
        <ele>116.5</ele>
        <time>2015-05-25T19:19:17.082Z</time>
      </trkpt>
      <trkpt lat="48.81987" lon="2.45638">
        <ele>115.4</ele>
        <time>2015-05-25T19:19:34.103Z</time>
      </trkpt>
      <trkpt lat="48.81989" lon="2.45664">
        <ele>117.5</ele>
        <time>2015-05-25T19:19:35.113Z</time>
      </trkpt>
      <trkpt lat="48.81992" lon="2.45675">
        <ele>116.6</ele>
        <time>2015-05-25T19:19:38.085Z</time>
      </trkpt>
      <trkpt lat="48.81993" lon="2.45679">
        <ele>116.4</ele>
        <time>2015-05-25T19:19:39.112Z</time>
      </trkpt>
      <trkpt lat="48.81994" lon="2.45691">
        <ele>116.4</ele>
        <time>2015-05-25T19:19:44.202Z</time>
      </trkpt>
      <trkpt lat="48.81994" lon="2.45698">
        <ele>116.4</ele>
        <time>2015-05-25T19:19:45.214Z</time>
      </trkpt>
      <trkpt lat="48.81994" lon="2.45708">
        <ele>116.4</ele>
        <time>2015-05-25T19:19:48.107Z</time>
      </trkpt>
      <trkpt lat="48.81994" lon="2.45713">
        <ele>116.5</ele>
        <time>2015-05-25T19:19:49.129Z</time>
      </trkpt>
      <trkpt lat="48.81993" lon="2.45722">
        <ele>116.2</ele>
        <time>2015-05-25T19:19:51.129Z</time>
      </trkpt>
      <trkpt lat="48.81993" lon="2.45727">
        <ele>116</ele>
        <time>2015-05-25T19:19:52.132Z</time>
      </trkpt>
      <trkpt lat="48.81993" lon="2.45739">
        <ele>116</ele>
        <time>2015-05-25T19:19:54.147Z</time>
      </trkpt>
      <trkpt lat="48.81993" lon="2.45746">
        <ele>116.1</ele>
        <time>2015-05-25T19:19:55.108Z</time>
      </trkpt>
      <trkpt lat="48.81993" lon="2.45759">
        <ele>115.9</ele>
        <time>2015-05-25T19:19:57.125Z</time>
      </trkpt>
      <trkpt lat="48.81994" lon="2.45764">
        <ele>116.2</ele>
        <time>2015-05-25T19:19:58.132Z</time>
      </trkpt>
      <trkpt lat="48.81995" lon="2.45777">
        <ele>116.7</ele>
        <time>2015-05-25T19:20:00.088Z</time>
      </trkpt>
      <trkpt lat="48.81995" lon="2.45784">
        <ele>117</ele>
        <time>2015-05-25T19:20:01.103Z</time>
      </trkpt>
      <trkpt lat="48.81995" lon="2.45792">
        <ele>117.1</ele>
        <time>2015-05-25T19:20:02.134Z</time>
      </trkpt>
      <trkpt lat="48.81995" lon="2.45798">
        <ele>117.4</ele>
        <time>2015-05-25T19:20:03.157Z</time>
      </trkpt>
      <trkpt lat="48.81996" lon="2.45811">
        <ele>117.5</ele>
        <time>2015-05-25T19:20:05.080Z</time>
      </trkpt>
      <trkpt lat="48.81997" lon="2.45816">
        <ele>117.7</ele>
        <time>2015-05-25T19:20:06.106Z</time>
      </trkpt>
      <trkpt lat="48.81998" lon="2.45828">
        <ele>117.2</ele>
        <time>2015-05-25T19:20:08.156Z</time>
      </trkpt>
      <trkpt lat="48.81998" lon="2.45835">
        <ele>117.1</ele>
        <time>2015-05-25T19:20:09.220Z</time>
      </trkpt>
      <trkpt lat="48.81999" lon="2.45842">
        <ele>117.1</ele>
        <time>2015-05-25T19:20:10.065Z</time>
      </trkpt>
      <trkpt lat="48.82" lon="2.45848">
        <ele>117.1</ele>
        <time>2015-05-25T19:20:11.092Z</time>
      </trkpt>
      <trkpt lat="48.82002" lon="2.4586">
        <ele>117.1</ele>
        <time>2015-05-25T19:20:13.148Z</time>
      </trkpt>
      <trkpt lat="48.82003" lon="2.45866">
        <ele>116.9</ele>
        <time>2015-05-25T19:20:14.153Z</time>
      </trkpt>
      <trkpt lat="48.82005" lon="2.45878">
        <ele>116.8</ele>
        <time>2015-05-25T19:20:16.076Z</time>
      </trkpt>
      <trkpt lat="48.82008" lon="2.45885">
        <ele>116.8</ele>
        <time>2015-05-25T19:20:17.098Z</time>
      </trkpt>
      <trkpt lat="48.8201" lon="2.45892">
        <ele>116.6</ele>
        <time>2015-05-25T19:20:18.137Z</time>
      </trkpt>
      <trkpt lat="48.82012" lon="2.45899">
        <ele>116.7</ele>
        <time>2015-05-25T19:20:19.147Z</time>
      </trkpt>
      <trkpt lat="48.82014" lon="2.45907">
        <ele>116.7</ele>
        <time>2015-05-25T19:20:20.184Z</time>
      </trkpt>
      <trkpt lat="48.82016" lon="2.45914">
        <ele>116.6</ele>
        <time>2015-05-25T19:20:21.194Z</time>
      </trkpt>
      <trkpt lat="48.82018" lon="2.4592">
        <ele>116.5</ele>
        <time>2015-05-25T19:20:22.079Z</time>
      </trkpt>
      <trkpt lat="48.8202" lon="2.45927">
        <ele>116.6</ele>
        <time>2015-05-25T19:20:23.078Z</time>
      </trkpt>
      <trkpt lat="48.82023" lon="2.45933">
        <ele>116.4</ele>
        <time>2015-05-25T19:20:24.100Z</time>
      </trkpt>
      <trkpt lat="48.82025" lon="2.45938">
        <ele>116.6</ele>
        <time>2015-05-25T19:20:25.105Z</time>
      </trkpt>
      <trkpt lat="48.82029" lon="2.45949">
        <ele>116.6</ele>
        <time>2015-05-25T19:20:27.099Z</time>
      </trkpt>
      <trkpt lat="48.82031" lon="2.45954">
        <ele>116.6</ele>
        <time>2015-05-25T19:20:28.051Z</time>
      </trkpt>
      <trkpt lat="48.82034" lon="2.45964">
        <ele>116.3</ele>
        <time>2015-05-25T19:20:30.182Z</time>
      </trkpt>
      <trkpt lat="48.82036" lon="2.45969">
        <ele>116.5</ele>
        <time>2015-05-25T19:20:31.080Z</time>
      </trkpt>
      <trkpt lat="48.82039" lon="2.45981">
        <ele>116.1</ele>
        <time>2015-05-25T19:20:33.129Z</time>
      </trkpt>
      <trkpt lat="48.82041" lon="2.45987">
        <ele>116.3</ele>
        <time>2015-05-25T19:20:34.142Z</time>
      </trkpt>
      <trkpt lat="48.82045" lon="2.45996">
        <ele>116</ele>
        <time>2015-05-25T19:20:36.085Z</time>
      </trkpt>
      <trkpt lat="48.82048" lon="2.46">
        <ele>115.1</ele>
        <time>2015-05-25T19:20:37.127Z</time>
      </trkpt>
      <trkpt lat="48.82054" lon="2.46007">
        <ele>114.6</ele>
        <time>2015-05-25T19:20:39.151Z</time>
      </trkpt>
      <trkpt lat="48.82057" lon="2.46009">
        <ele>114.1</ele>
        <time>2015-05-25T19:20:40.163Z</time>
      </trkpt>
      <trkpt lat="48.82063" lon="2.46013">
        <ele>114.1</ele>
        <time>2015-05-25T19:20:42.098Z</time>
      </trkpt>
      <trkpt lat="48.82065" lon="2.46015">
        <ele>114.3</ele>
        <time>2015-05-25T19:20:43.107Z</time>
      </trkpt>
      <trkpt lat="48.82068" lon="2.46015">
        <ele>113.6</ele>
        <time>2015-05-25T19:22:03.175Z</time>
      </trkpt>
      <trkpt lat="48.82081" lon="2.46038">
        <ele>108.3</ele>
        <time>2015-05-25T19:22:04.075Z</time>
      </trkpt>
      <trkpt lat="48.82089" lon="2.46046">
        <ele>107.1</ele>
        <time>2015-05-25T19:22:08.158Z</time>
      </trkpt>
      <trkpt lat="48.82091" lon="2.46049">
        <ele>107</ele>
        <time>2015-05-25T19:22:09.105Z</time>
      </trkpt>
      <trkpt lat="48.82097" lon="2.46057">
        <ele>107</ele>
        <time>2015-05-25T19:22:12.139Z</time>
      </trkpt>
      <trkpt lat="48.82099" lon="2.4606">
        <ele>107</ele>
        <time>2015-05-25T19:22:13.150Z</time>
      </trkpt>
      <trkpt lat="48.82106" lon="2.46065">
        <ele>107.4</ele>
        <time>2015-05-25T19:22:15.132Z</time>
      </trkpt>
      <trkpt lat="48.82108" lon="2.46067">
        <ele>107.3</ele>
        <time>2015-05-25T19:22:16.143Z</time>
      </trkpt>
      <trkpt lat="48.82113" lon="2.46076">
        <ele>107.4</ele>
        <time>2015-05-25T19:22:20.108Z</time>
      </trkpt>
      <trkpt lat="48.82114" lon="2.4608">
        <ele>107.1</ele>
        <time>2015-05-25T19:22:21.200Z</time>
      </trkpt>
      <trkpt lat="48.82118" lon="2.46088">
        <ele>106.6</ele>
        <time>2015-05-25T19:22:23.080Z</time>
      </trkpt>
      <trkpt lat="48.82119" lon="2.46092">
        <ele>106.4</ele>
        <time>2015-05-25T19:22:24.096Z</time>
      </trkpt>
      <trkpt lat="48.82122" lon="2.461">
        <ele>106.3</ele>
        <time>2015-05-25T19:22:26.159Z</time>
      </trkpt>
      <trkpt lat="48.82124" lon="2.46104">
        <ele>106.3</ele>
        <time>2015-05-25T19:22:27.174Z</time>
      </trkpt>
      <trkpt lat="48.82129" lon="2.46112">
        <ele>106.7</ele>
        <time>2015-05-25T19:22:29.081Z</time>
      </trkpt>
      <trkpt lat="48.82132" lon="2.46116">
        <ele>107</ele>
        <time>2015-05-25T19:22:30.092Z</time>
      </trkpt>
      <trkpt lat="48.82137" lon="2.46124">
        <ele>107.5</ele>
        <time>2015-05-25T19:22:32.145Z</time>
      </trkpt>
      <trkpt lat="48.8214" lon="2.46129">
        <ele>107.5</ele>
        <time>2015-05-25T19:22:33.164Z</time>
      </trkpt>
      <trkpt lat="48.82144" lon="2.46136">
        <ele>107</ele>
        <time>2015-05-25T19:22:35.097Z</time>
      </trkpt>
      <trkpt lat="48.82146" lon="2.4614">
        <ele>106.8</ele>
        <time>2015-05-25T19:22:36.103Z</time>
      </trkpt>
      <trkpt lat="48.82153" lon="2.46148">
        <ele>106.4</ele>
        <time>2015-05-25T19:22:38.167Z</time>
      </trkpt>
      <trkpt lat="48.82157" lon="2.46152">
        <ele>106.1</ele>
        <time>2015-05-25T19:22:39.176Z</time>
      </trkpt>
      <trkpt lat="48.82163" lon="2.46161">
        <ele>105.9</ele>
        <time>2015-05-25T19:22:41.097Z</time>
      </trkpt>
      <trkpt lat="48.82166" lon="2.46165">
        <ele>105.8</ele>
        <time>2015-05-25T19:22:42.135Z</time>
      </trkpt>
      <trkpt lat="48.82171" lon="2.46168">
        <ele>105.4</ele>
        <time>2015-05-25T19:22:43.083Z</time>
      </trkpt>
      <trkpt lat="48.82176" lon="2.46171">
        <ele>105.2</ele>
        <time>2015-05-25T19:22:44.090Z</time>
      </trkpt>
      <trkpt lat="48.82181" lon="2.46174">
        <ele>105.2</ele>
        <time>2015-05-25T19:22:45.114Z</time>
      </trkpt>
      <trkpt lat="48.82186" lon="2.46177">
        <ele>105.2</ele>
        <time>2015-05-25T19:22:46.121Z</time>
      </trkpt>
      <trkpt lat="48.8219" lon="2.46179">
        <ele>105.3</ele>
        <time>2015-05-25T19:22:47.051Z</time>
      </trkpt>
      <trkpt lat="48.82195" lon="2.46182">
        <ele>105.1</ele>
        <time>2015-05-25T19:22:48.044Z</time>
      </trkpt>
      <trkpt lat="48.82199" lon="2.46184">
        <ele>104.9</ele>
        <time>2015-05-25T19:22:49.467Z</time>
      </trkpt>
      <trkpt lat="48.82204" lon="2.46187">
        <ele>104.5</ele>
        <time>2015-05-25T19:22:50.076Z</time>
      </trkpt>
      <trkpt lat="48.82209" lon="2.46189">
        <ele>104.4</ele>
        <time>2015-05-25T19:22:49.240Z</time>
      </trkpt>
      <trkpt lat="48.82213" lon="2.46191">
        <ele>104.2</ele>
        <time>2015-05-25T19:22:52.213Z</time>
      </trkpt>
      <trkpt lat="48.82222" lon="2.46193">
        <ele>104.4</ele>
        <time>2015-05-25T19:22:54.615Z</time>
      </trkpt>
      <trkpt lat="48.82225" lon="2.46193">
        <ele>104.4</ele>
        <time>2015-05-25T19:22:55.105Z</time>
      </trkpt>
      <trkpt lat="48.82233" lon="2.46193">
        <ele>104.5</ele>
        <time>2015-05-25T19:22:57.501Z</time>
      </trkpt>
      <trkpt lat="48.82236" lon="2.46193">
        <ele>104.8</ele>
        <time>2015-05-25T19:22:58.081Z</time>
      </trkpt>
      <trkpt lat="48.82244" lon="2.46193">
        <ele>104.7</ele>
        <time>2015-05-25T19:23:01.126Z</time>
      </trkpt>
      <trkpt lat="48.82246" lon="2.46193">
        <ele>104.7</ele>
        <time>2015-05-25T19:23:02.208Z</time>
      </trkpt>
      <trkpt lat="48.82251" lon="2.46193">
        <ele>104.9</ele>
        <time>2015-05-25T19:23:04.830Z</time>
      </trkpt>
      <trkpt lat="48.82255" lon="2.46194">
        <ele>104.9</ele>
        <time>2015-05-25T19:23:05.064Z</time>
      </trkpt>
      <trkpt lat="48.82263" lon="2.46195">
        <ele>105.3</ele>
        <time>2015-05-25T19:23:08.085Z</time>
      </trkpt>
      <trkpt lat="48.82267" lon="2.46196">
        <ele>105.4</ele>
        <time>2015-05-25T19:23:09.121Z</time>
      </trkpt>
      <trkpt lat="48.82273" lon="2.46197">
        <ele>105.2</ele>
        <time>2015-05-25T19:23:11.149Z</time>
      </trkpt>
      <trkpt lat="48.82277" lon="2.46198">
        <ele>105.3</ele>
        <time>2015-05-25T19:23:12.159Z</time>
      </trkpt>
      <trkpt lat="48.82284" lon="2.46198">
        <ele>105.3</ele>
        <time>2015-05-25T19:23:14.182Z</time>
      </trkpt>
      <trkpt lat="48.82287" lon="2.46199">
        <ele>105.2</ele>
        <time>2015-05-25T19:23:15.233Z</time>
      </trkpt>
      <trkpt lat="48.82295" lon="2.46199">
        <ele>105</ele>
        <time>2015-05-25T19:23:17.126Z</time>
      </trkpt>
      <trkpt lat="48.82298" lon="2.46199">
        <ele>104.9</ele>
        <time>2015-05-25T19:23:18.138Z</time>
      </trkpt>
      <trkpt lat="48.82305" lon="2.462">
        <ele>104.7</ele>
        <time>2015-05-25T19:23:21.129Z</time>
      </trkpt>
      <trkpt lat="48.82308" lon="2.46201">
        <ele>104.7</ele>
        <time>2015-05-25T19:23:22.167Z</time>
      </trkpt>
      <trkpt lat="48.82316" lon="2.46203">
        <ele>105.3</ele>
        <time>2015-05-25T19:23:25.141Z</time>
      </trkpt>
      <trkpt lat="48.82318" lon="2.46203">
        <ele>105.7</ele>
        <time>2015-05-25T19:23:26.142Z</time>
      </trkpt>
      <trkpt lat="48.82325" lon="2.46206">
        <ele>106.3</ele>
        <time>2015-05-25T19:23:28.165Z</time>
      </trkpt>
      <trkpt lat="48.82328" lon="2.46207">
        <ele>106.4</ele>
        <time>2015-05-25T19:23:29.086Z</time>
      </trkpt>
      <trkpt lat="48.82335" lon="2.46211">
        <ele>106.4</ele>
        <time>2015-05-25T19:23:31.110Z</time>
      </trkpt>
      <trkpt lat="48.82339" lon="2.46212">
        <ele>106.4</ele>
        <time>2015-05-25T19:23:32.115Z</time>
      </trkpt>
      <trkpt lat="48.82347" lon="2.46213">
        <ele>106.4</ele>
        <time>2015-05-25T19:23:34.137Z</time>
      </trkpt>
      <trkpt lat="48.8235" lon="2.46214">
        <ele>106.4</ele>
        <time>2015-05-25T19:23:35.146Z</time>
      </trkpt>
      <trkpt lat="48.82358" lon="2.46214">
        <ele>106.5</ele>
        <time>2015-05-25T19:23:37.081Z</time>
      </trkpt>
      <trkpt lat="48.82361" lon="2.46214">
        <ele>106.7</ele>
        <time>2015-05-25T19:23:38.101Z</time>
      </trkpt>
      <trkpt lat="48.82366" lon="2.46217">
        <ele>106.4</ele>
        <time>2015-05-25T19:23:40.392Z</time>
      </trkpt>
      <trkpt lat="48.8237" lon="2.46219">
        <ele>106.4</ele>
        <time>2015-05-25T19:23:41.365Z</time>
      </trkpt>
      <trkpt lat="48.82375" lon="2.4622">
        <ele>107.6</ele>
        <time>2015-05-25T19:23:43.147Z</time>
      </trkpt>
      <trkpt lat="48.82379" lon="2.46219">
        <ele>107.7</ele>
        <time>2015-05-25T19:23:44.159Z</time>
      </trkpt>
      <trkpt lat="48.82386" lon="2.46221">
        <ele>108</ele>
        <time>2015-05-25T19:23:48.082Z</time>
      </trkpt>
      <trkpt lat="48.82389" lon="2.46222">
        <ele>108.2</ele>
        <time>2015-05-25T19:23:49.095Z</time>
      </trkpt>
      <trkpt lat="48.82396" lon="2.46225">
        <ele>108.1</ele>
        <time>2015-05-25T19:23:52.173Z</time>
      </trkpt>
      <trkpt lat="48.82397" lon="2.46225">
        <ele>108.1</ele>
        <time>2015-05-25T19:23:53.094Z</time>
      </trkpt>
      <trkpt lat="48.82405" lon="2.46227">
        <ele>108.2</ele>
        <time>2015-05-25T19:23:57.200Z</time>
      </trkpt>
      <trkpt lat="48.82407" lon="2.46228">
        <ele>108.3</ele>
        <time>2015-05-25T19:23:58.067Z</time>
      </trkpt>
      <trkpt lat="48.82414" lon="2.46229">
        <ele>108.4</ele>
        <time>2015-05-25T19:24:02.152Z</time>
      </trkpt>
      <trkpt lat="48.82416" lon="2.46229">
        <ele>108.4</ele>
        <time>2015-05-25T19:24:03.115Z</time>
      </trkpt>
      <trkpt lat="48.82425" lon="2.4623">
        <ele>108.3</ele>
        <time>2015-05-25T19:24:08.093Z</time>
      </trkpt>
      <trkpt lat="48.82426" lon="2.4623">
        <ele>108.1</ele>
        <time>2015-05-25T19:24:09.119Z</time>
      </trkpt>
      <trkpt lat="48.82434" lon="2.4623">
        <ele>108.1</ele>
        <time>2015-05-25T19:24:15.050Z</time>
      </trkpt>
      <trkpt lat="48.82436" lon="2.4623">
        <ele>108.2</ele>
        <time>2015-05-25T19:24:15.115Z</time>
      </trkpt>
      <trkpt lat="48.82444" lon="2.46227">
        <ele>108.6</ele>
        <time>2015-05-25T19:24:20.094Z</time>
      </trkpt>
      <trkpt lat="48.82445" lon="2.46227">
        <ele>108.5</ele>
        <time>2015-05-25T19:24:21.181Z</time>
      </trkpt>
      <trkpt lat="48.82453" lon="2.46226">
        <ele>108</ele>
        <time>2015-05-25T19:24:26.170Z</time>
      </trkpt>
      <trkpt lat="48.82454" lon="2.46226">
        <ele>108.1</ele>
        <time>2015-05-25T19:24:27.194Z</time>
      </trkpt>
      <trkpt lat="48.82463" lon="2.46224">
        <ele>108.5</ele>
        <time>2015-05-25T19:24:33.199Z</time>
      </trkpt>
      <trkpt lat="48.82464" lon="2.46224">
        <ele>108.7</ele>
        <time>2015-05-25T19:24:34.144Z</time>
      </trkpt>
      <trkpt lat="48.82467" lon="2.46224">
        <ele>108.8</ele>
        <time>2015-05-25T19:25:05.135Z</time>
      </trkpt>
      <trkpt lat="48.82499" lon="2.46231">
        <ele>107.5</ele>
        <time>2015-05-25T19:25:06.147Z</time>
      </trkpt>
      <trkpt lat="48.82507" lon="2.46234">
        <ele>107.6</ele>
        <time>2015-05-25T19:25:11.153Z</time>
      </trkpt>
      <trkpt lat="48.82509" lon="2.46234">
        <ele>107.9</ele>
        <time>2015-05-25T19:25:12.104Z</time>
      </trkpt>
      <trkpt lat="48.82517" lon="2.46239">
        <ele>108</ele>
        <time>2015-05-25T19:25:18.061Z</time>
      </trkpt>
      <trkpt lat="48.82518" lon="2.46239">
        <ele>108</ele>
        <time>2015-05-25T19:25:19.141Z</time>
      </trkpt>
      <trkpt lat="48.82527" lon="2.46239">
        <ele>108</ele>
        <time>2015-05-25T19:25:24.047Z</time>
      </trkpt>
      <trkpt lat="48.82531" lon="2.46241">
        <ele>108.1</ele>
        <time>2015-05-25T19:25:25.075Z</time>
      </trkpt>
      <trkpt lat="48.82539" lon="2.46244">
        <ele>108.7</ele>
        <time>2015-05-25T19:25:28.081Z</time>
      </trkpt>
      <trkpt lat="48.82541" lon="2.46244">
        <ele>108.8</ele>
        <time>2015-05-25T19:25:29.036Z</time>
      </trkpt>
      <trkpt lat="48.8255" lon="2.46247">
        <ele>108.6</ele>
        <time>2015-05-25T19:25:33.692Z</time>
      </trkpt>
      <trkpt lat="48.82552" lon="2.46247">
        <ele>108.7</ele>
        <time>2015-05-25T19:25:34.050Z</time>
      </trkpt>
      <trkpt lat="48.8256" lon="2.46251">
        <ele>109</ele>
        <time>2015-05-25T19:25:39.141Z</time>
      </trkpt>
      <trkpt lat="48.82562" lon="2.46251">
        <ele>109.3</ele>
        <time>2015-05-25T19:25:40.069Z</time>
      </trkpt>
      <trkpt lat="48.8257" lon="2.46253">
        <ele>109.6</ele>
        <time>2015-05-25T19:25:45.083Z</time>
      </trkpt>
      <trkpt lat="48.82571" lon="2.46254">
        <ele>109.5</ele>
        <time>2015-05-25T19:25:46.100Z</time>
      </trkpt>
      <trkpt lat="48.82571" lon="2.46254">
        <ele>109.5</ele>
        <time>2015-05-25T19:26:41.314Z</time>
      </trkpt>
      <trkpt lat="48.82607" lon="2.46252">
        <ele>115</ele>
        <time>2015-05-25T19:26:42.027Z</time>
      </trkpt>
      <trkpt lat="48.82604" lon="2.46256">
        <ele>112.6</ele>
        <time>2015-05-25T19:28:06.144Z</time>
      </trkpt>
      <trkpt lat="48.82617" lon="2.46271">
        <ele>115.7</ele>
        <time>2015-05-25T19:28:07.104Z</time>
      </trkpt>
      <trkpt lat="48.82625" lon="2.46277">
        <ele>115.5</ele>
        <time>2015-05-25T19:28:10.136Z</time>
      </trkpt>
      <trkpt lat="48.82627" lon="2.4628">
        <ele>115.5</ele>
        <time>2015-05-25T19:28:11.104Z</time>
      </trkpt>
      <trkpt lat="48.82631" lon="2.46287">
        <ele>115.7</ele>
        <time>2015-05-25T19:28:13.136Z</time>
      </trkpt>
      <trkpt lat="48.82633" lon="2.46291">
        <ele>115.9</ele>
        <time>2015-05-25T19:28:14.044Z</time>
      </trkpt>
      <trkpt lat="48.82639" lon="2.46297">
        <ele>116.4</ele>
        <time>2015-05-25T19:28:16.216Z</time>
      </trkpt>
      <trkpt lat="48.82641" lon="2.46301">
        <ele>116.4</ele>
        <time>2015-05-25T19:28:17.107Z</time>
      </trkpt>
      <trkpt lat="48.82644" lon="2.46309">
        <ele>116.1</ele>
        <time>2015-05-25T19:28:19.132Z</time>
      </trkpt>
      <trkpt lat="48.82645" lon="2.46313">
        <ele>116</ele>
        <time>2015-05-25T19:28:20.151Z</time>
      </trkpt>
      <trkpt lat="48.82649" lon="2.46323">
        <ele>116.2</ele>
        <time>2015-05-25T19:28:22.099Z</time>
      </trkpt>
      <trkpt lat="48.82651" lon="2.46328">
        <ele>116.1</ele>
        <time>2015-05-25T19:28:23.122Z</time>
      </trkpt>
      <trkpt lat="48.82656" lon="2.46335">
        <ele>115.9</ele>
        <time>2015-05-25T19:28:25.055Z</time>
      </trkpt>
      <trkpt lat="48.82659" lon="2.46339">
        <ele>115.8</ele>
        <time>2015-05-25T19:28:26.071Z</time>
      </trkpt>
      <trkpt lat="48.82665" lon="2.46346">
        <ele>115.8</ele>
        <time>2015-05-25T19:28:28.115Z</time>
      </trkpt>
      <trkpt lat="48.82667" lon="2.46349">
        <ele>115.6</ele>
        <time>2015-05-25T19:28:29.134Z</time>
      </trkpt>
      <trkpt lat="48.82671" lon="2.46357">
        <ele>115.1</ele>
        <time>2015-05-25T19:28:31.067Z</time>
      </trkpt>
      <trkpt lat="48.82674" lon="2.46362">
        <ele>114.7</ele>
        <time>2015-05-25T19:28:32.084Z</time>
      </trkpt>
      <trkpt lat="48.82679" lon="2.46371">
        <ele>114.3</ele>
        <time>2015-05-25T19:28:34.048Z</time>
      </trkpt>
      <trkpt lat="48.82681" lon="2.46375">
        <ele>114.4</ele>
        <time>2015-05-25T19:28:35.144Z</time>
      </trkpt>
      <trkpt lat="48.82686" lon="2.46383">
        <ele>114.2</ele>
        <time>2015-05-25T19:28:37.052Z</time>
      </trkpt>
      <trkpt lat="48.82687" lon="2.46387">
        <ele>114</ele>
        <time>2015-05-25T19:28:38.084Z</time>
      </trkpt>
      <trkpt lat="48.82689" lon="2.46396">
        <ele>112.5</ele>
        <time>2015-05-25T19:28:40.157Z</time>
      </trkpt>
      <trkpt lat="48.8269" lon="2.46401">
        <ele>112.4</ele>
        <time>2015-05-25T19:28:41.235Z</time>
      </trkpt>
      <trkpt lat="48.82694" lon="2.4641">
        <ele>112.1</ele>
        <time>2015-05-25T19:28:43.126Z</time>
      </trkpt>
      <trkpt lat="48.82695" lon="2.46414">
        <ele>112</ele>
        <time>2015-05-25T19:28:44.159Z</time>
      </trkpt>
      <trkpt lat="48.827" lon="2.46421">
        <ele>111.8</ele>
        <time>2015-05-25T19:28:46.028Z</time>
      </trkpt>
      <trkpt lat="48.82702" lon="2.46425">
        <ele>111.8</ele>
        <time>2015-05-25T19:28:47.084Z</time>
      </trkpt>
      <trkpt lat="48.82706" lon="2.46435">
        <ele>112</ele>
        <time>2015-05-25T19:28:49.024Z</time>
      </trkpt>
      <trkpt lat="48.82708" lon="2.4644">
        <ele>112.1</ele>
        <time>2015-05-25T19:28:50.067Z</time>
      </trkpt>
      <trkpt lat="48.82713" lon="2.46448">
        <ele>112.2</ele>
        <time>2015-05-25T19:28:52.087Z</time>
      </trkpt>
      <trkpt lat="48.82714" lon="2.46452">
        <ele>112.2</ele>
        <time>2015-05-25T19:28:53.092Z</time>
      </trkpt>
      <trkpt lat="48.82721" lon="2.46457">
        <ele>112</ele>
        <time>2015-05-25T19:28:57.138Z</time>
      </trkpt>
      <trkpt lat="48.82723" lon="2.46458">
        <ele>112</ele>
        <time>2015-05-25T19:28:58.055Z</time>
      </trkpt>
      <trkpt lat="48.82729" lon="2.46467">
        <ele>112.2</ele>
        <time>2015-05-25T19:29:01.062Z</time>
      </trkpt>
      <trkpt lat="48.82732" lon="2.4647">
        <ele>112.3</ele>
        <time>2015-05-25T19:29:02.077Z</time>
      </trkpt>
      <trkpt lat="48.82736" lon="2.46476">
        <ele>112.8</ele>
        <time>2015-05-25T19:29:04.794Z</time>
      </trkpt>
      <trkpt lat="48.82738" lon="2.46479">
        <ele>112.8</ele>
        <time>2015-05-25T19:29:05.101Z</time>
      </trkpt>
      <trkpt lat="48.82746" lon="2.46483">
        <ele>111.9</ele>
        <time>2015-05-25T19:29:08.124Z</time>
      </trkpt>
      <trkpt lat="48.82748" lon="2.46481">
        <ele>112.1</ele>
        <time>2015-05-25T19:29:09.148Z</time>
      </trkpt>
      <trkpt lat="48.82753" lon="2.46476">
        <ele>112</ele>
        <time>2015-05-25T19:29:11.068Z</time>
      </trkpt>
      <trkpt lat="48.82755" lon="2.46472">
        <ele>112</ele>
        <time>2015-05-25T19:29:12.060Z</time>
      </trkpt>
      <trkpt lat="48.82761" lon="2.46467">
        <ele>112.3</ele>
        <time>2015-05-25T19:29:14.988Z</time>
      </trkpt>
      <trkpt lat="48.82764" lon="2.46465">
        <ele>112.3</ele>
        <time>2015-05-25T19:29:15.088Z</time>
      </trkpt>
      <trkpt lat="48.82773" lon="2.46463">
        <ele>112.6</ele>
        <time>2015-05-25T19:29:17.108Z</time>
      </trkpt>
      <trkpt lat="48.82777" lon="2.46461">
        <ele>112.7</ele>
        <time>2015-05-25T19:29:18.132Z</time>
      </trkpt>
      <trkpt lat="48.82782" lon="2.46461">
        <ele>112.7</ele>
        <time>2015-05-25T19:29:19.067Z</time>
      </trkpt>
      <trkpt lat="48.82787" lon="2.46461">
        <ele>112.5</ele>
        <time>2015-05-25T19:29:20.142Z</time>
      </trkpt>
      <trkpt lat="48.82792" lon="2.4646">
        <ele>112.4</ele>
        <time>2015-05-25T19:29:21.094Z</time>
      </trkpt>
      <trkpt lat="48.82799" lon="2.46459">
        <ele>112.3</ele>
        <time>2015-05-25T19:29:22.106Z</time>
      </trkpt>
      <trkpt lat="48.82805" lon="2.46457">
        <ele>112.3</ele>
        <time>2015-05-25T19:29:23.118Z</time>
      </trkpt>
      <trkpt lat="48.82811" lon="2.46457">
        <ele>112.2</ele>
        <time>2015-05-25T19:29:24.029Z</time>
      </trkpt>
      <trkpt lat="48.82818" lon="2.46457">
        <ele>111.7</ele>
        <time>2015-05-25T19:29:25.450Z</time>
      </trkpt>
      <trkpt lat="48.82824" lon="2.46457">
        <ele>112</ele>
        <time>2015-05-25T19:29:26.065Z</time>
      </trkpt>
      <trkpt lat="48.8283" lon="2.46458">
        <ele>112</ele>
        <time>2015-05-25T19:29:27.084Z</time>
      </trkpt>
      <trkpt lat="48.82835" lon="2.46458">
        <ele>112.2</ele>
        <time>2015-05-25T19:29:28.099Z</time>
      </trkpt>
      <trkpt lat="48.8284" lon="2.46459">
        <ele>112.4</ele>
        <time>2015-05-25T19:29:29.102Z</time>
      </trkpt>
      <trkpt lat="48.82845" lon="2.46459">
        <ele>112.8</ele>
        <time>2015-05-25T19:29:30.112Z</time>
      </trkpt>
      <trkpt lat="48.8285" lon="2.4646">
        <ele>112.8</ele>
        <time>2015-05-25T19:29:31.071Z</time>
      </trkpt>
      <trkpt lat="48.82855" lon="2.4646">
        <ele>112.7</ele>
        <time>2015-05-25T19:29:32.141Z</time>
      </trkpt>
      <trkpt lat="48.82864" lon="2.4646">
        <ele>112.5</ele>
        <time>2015-05-25T19:29:34.075Z</time>
      </trkpt>
      <trkpt lat="48.82868" lon="2.4646">
        <ele>112.6</ele>
        <time>2015-05-25T19:29:35.104Z</time>
      </trkpt>
      <trkpt lat="48.82874" lon="2.46461">
        <ele>112.4</ele>
        <time>2015-05-25T19:29:36.341Z</time>
      </trkpt>
      <trkpt lat="48.82878" lon="2.46463">
        <ele>112.1</ele>
        <time>2015-05-25T19:29:37.020Z</time>
      </trkpt>
      <trkpt lat="48.82883" lon="2.46466">
        <ele>112</ele>
        <time>2015-05-25T19:29:38.023Z</time>
      </trkpt>
      <trkpt lat="48.82887" lon="2.4647">
        <ele>112.2</ele>
        <time>2015-05-25T19:29:39.079Z</time>
      </trkpt>
      <trkpt lat="48.82892" lon="2.46474">
        <ele>112</ele>
        <time>2015-05-25T19:29:40.101Z</time>
      </trkpt>
      <trkpt lat="48.82896" lon="2.46479">
        <ele>112.1</ele>
        <time>2015-05-25T19:29:41.118Z</time>
      </trkpt>
      <trkpt lat="48.82901" lon="2.46483">
        <ele>112.1</ele>
        <time>2015-05-25T19:29:42.025Z</time>
      </trkpt>
      <trkpt lat="48.82906" lon="2.46486">
        <ele>111.9</ele>
        <time>2015-05-25T19:29:43.051Z</time>
      </trkpt>
      <trkpt lat="48.82913" lon="2.46495">
        <ele>112</ele>
        <time>2015-05-25T19:29:45.113Z</time>
      </trkpt>
      <trkpt lat="48.82916" lon="2.46499">
        <ele>111.8</ele>
        <time>2015-05-25T19:29:46.186Z</time>
      </trkpt>
      <trkpt lat="48.82921" lon="2.46504">
        <ele>111.8</ele>
        <time>2015-05-25T19:29:48.057Z</time>
      </trkpt>
      <trkpt lat="48.82923" lon="2.46507">
        <ele>111.9</ele>
        <time>2015-05-25T19:29:49.056Z</time>
      </trkpt>
      <trkpt lat="48.82924" lon="2.46508">
        <ele>111.9</ele>
        <time>2015-05-25T19:29:50.080Z</time>
      </trkpt>
      <trkpt lat="48.82924" lon="2.46507">
        <ele>112.1</ele>
        <time>2015-05-25T19:29:51.099Z</time>
      </trkpt>
      <trkpt lat="48.82923" lon="2.46508">
        <ele>111.8</ele>
        <time>2015-05-25T19:29:52.110Z</time>
      </trkpt>
      <trkpt lat="48.82921" lon="2.46506">
        <ele>112</ele>
        <time>2015-05-25T19:29:53.118Z</time>
      </trkpt>
      <trkpt lat="48.82915" lon="2.46501">
        <ele>112.2</ele>
        <time>2015-05-25T19:29:56.161Z</time>
      </trkpt>
      <trkpt lat="48.82911" lon="2.46498">
        <ele>112.3</ele>
        <time>2015-05-25T19:29:57.089Z</time>
      </trkpt>
      <trkpt lat="48.82904" lon="2.4649">
        <ele>112.7</ele>
        <time>2015-05-25T19:29:59.050Z</time>
      </trkpt>
      <trkpt lat="48.82901" lon="2.46485">
        <ele>112.7</ele>
        <time>2015-05-25T19:30:00.063Z</time>
      </trkpt>
      <trkpt lat="48.82901" lon="2.46471">
        <ele>112.5</ele>
        <time>2015-05-25T19:30:02.062Z</time>
      </trkpt>
      <trkpt lat="48.82905" lon="2.46468">
        <ele>112.7</ele>
        <time>2015-05-25T19:30:03.162Z</time>
      </trkpt>
      <trkpt lat="48.82913" lon="2.46468">
        <ele>112.4</ele>
        <time>2015-05-25T19:30:05.069Z</time>
      </trkpt>
      <trkpt lat="48.82918" lon="2.46469">
        <ele>112</ele>
        <time>2015-05-25T19:30:06.082Z</time>
      </trkpt>
      <trkpt lat="48.82922" lon="2.4647">
        <ele>111.6</ele>
        <time>2015-05-25T19:30:07.098Z</time>
      </trkpt>
      <trkpt lat="48.82927" lon="2.46472">
        <ele>111.3</ele>
        <time>2015-05-25T19:30:08.106Z</time>
      </trkpt>
      <trkpt lat="48.82932" lon="2.46474">
        <ele>111.4</ele>
        <time>2015-05-25T19:30:09.125Z</time>
      </trkpt>
      <trkpt lat="48.82938" lon="2.46476">
        <ele>111.5</ele>
        <time>2015-05-25T19:30:10.143Z</time>
      </trkpt>
      <trkpt lat="48.82943" lon="2.46478">
        <ele>111.5</ele>
        <time>2015-05-25T19:30:11.050Z</time>
      </trkpt>
      <trkpt lat="48.8295" lon="2.4648">
        <ele>111.3</ele>
        <time>2015-05-25T19:30:12.058Z</time>
      </trkpt>
      <trkpt lat="48.82955" lon="2.4648">
        <ele>111.4</ele>
        <time>2015-05-25T19:30:13.076Z</time>
      </trkpt>
      <trkpt lat="48.82961" lon="2.46481">
        <ele>111.7</ele>
        <time>2015-05-25T19:30:14.083Z</time>
      </trkpt>
      <trkpt lat="48.82967" lon="2.46482">
        <ele>111.8</ele>
        <time>2015-05-25T19:30:15.097Z</time>
      </trkpt>
      <trkpt lat="48.82972" lon="2.46482">
        <ele>111.8</ele>
        <time>2015-05-25T19:30:16.102Z</time>
      </trkpt>
      <trkpt lat="48.82978" lon="2.46483">
        <ele>111.9</ele>
        <time>2015-05-25T19:30:17.114Z</time>
      </trkpt>
      <trkpt lat="48.82983" lon="2.46485">
        <ele>111.7</ele>
        <time>2015-05-25T19:30:18.119Z</time>
      </trkpt>
      <trkpt lat="48.82988" lon="2.46487">
        <ele>111.5</ele>
        <time>2015-05-25T19:30:19.133Z</time>
      </trkpt>
      <trkpt lat="48.82994" lon="2.4649">
        <ele>111.7</ele>
        <time>2015-05-25T19:30:20.046Z</time>
      </trkpt>
      <trkpt lat="48.83001" lon="2.46492">
        <ele>111.7</ele>
        <time>2015-05-25T19:30:21.063Z</time>
      </trkpt>
      <trkpt lat="48.83007" lon="2.46493">
        <ele>111.9</ele>
        <time>2015-05-25T19:30:22.072Z</time>
      </trkpt>
      <trkpt lat="48.83012" lon="2.46493">
        <ele>112</ele>
        <time>2015-05-25T19:30:23.081Z</time>
      </trkpt>
      <trkpt lat="48.83017" lon="2.46494">
        <ele>112.2</ele>
        <time>2015-05-25T19:30:24.094Z</time>
      </trkpt>
      <trkpt lat="48.83022" lon="2.46495">
        <ele>112.4</ele>
        <time>2015-05-25T19:30:25.102Z</time>
      </trkpt>
      <trkpt lat="48.83027" lon="2.46496">
        <ele>112.2</ele>
        <time>2015-05-25T19:30:26.111Z</time>
      </trkpt>
      <trkpt lat="48.83031" lon="2.46498">
        <ele>112.3</ele>
        <time>2015-05-25T19:30:27.121Z</time>
      </trkpt>
      <trkpt lat="48.83036" lon="2.46499">
        <ele>112.7</ele>
        <time>2015-05-25T19:30:28.133Z</time>
      </trkpt>
      <trkpt lat="48.83044" lon="2.46502">
        <ele>112.7</ele>
        <time>2015-05-25T19:30:30.045Z</time>
      </trkpt>
      <trkpt lat="48.83046" lon="2.46503">
        <ele>113</ele>
        <time>2015-05-25T19:30:31.077Z</time>
      </trkpt>
      <trkpt lat="48.83052" lon="2.46508">
        <ele>113.1</ele>
        <time>2015-05-25T19:30:33.102Z</time>
      </trkpt>
      <trkpt lat="48.83055" lon="2.4651">
        <ele>113.2</ele>
        <time>2015-05-25T19:30:34.134Z</time>
      </trkpt>
      <trkpt lat="48.83059" lon="2.46513">
        <ele>113.8</ele>
        <time>2015-05-25T19:30:36.064Z</time>
      </trkpt>
      <trkpt lat="48.83063" lon="2.46516">
        <ele>113.6</ele>
        <time>2015-05-25T19:30:37.113Z</time>
      </trkpt>
      <trkpt lat="48.83068" lon="2.46518">
        <ele>113.6</ele>
        <time>2015-05-25T19:30:38.127Z</time>
      </trkpt>
      <trkpt lat="48.83072" lon="2.46521">
        <ele>113.3</ele>
        <time>2015-05-25T19:30:39.130Z</time>
      </trkpt>
      <trkpt lat="48.83077" lon="2.46523">
        <ele>113.1</ele>
        <time>2015-05-25T19:30:40.019Z</time>
      </trkpt>
      <trkpt lat="48.83082" lon="2.46525">
        <ele>113.3</ele>
        <time>2015-05-25T19:30:41.058Z</time>
      </trkpt>
      <trkpt lat="48.83087" lon="2.46528">
        <ele>113.5</ele>
        <time>2015-05-25T19:30:42.119Z</time>
      </trkpt>
      <trkpt lat="48.83092" lon="2.4653">
        <ele>113.5</ele>
        <time>2015-05-25T19:30:43.126Z</time>
      </trkpt>
      <trkpt lat="48.83097" lon="2.46532">
        <ele>113.4</ele>
        <time>2015-05-25T19:30:44.099Z</time>
      </trkpt>
      <trkpt lat="48.83102" lon="2.46534">
        <ele>113.5</ele>
        <time>2015-05-25T19:30:45.102Z</time>
      </trkpt>
      <trkpt lat="48.83111" lon="2.46537">
        <ele>113.2</ele>
        <time>2015-05-25T19:30:47.123Z</time>
      </trkpt>
      <trkpt lat="48.83115" lon="2.46539">
        <ele>113.3</ele>
        <time>2015-05-25T19:30:48.140Z</time>
      </trkpt>
      <trkpt lat="48.83122" lon="2.46544">
        <ele>112.9</ele>
        <time>2015-05-25T19:30:50.030Z</time>
      </trkpt>
      <trkpt lat="48.83127" lon="2.46545">
        <ele>112.9</ele>
        <time>2015-05-25T19:30:51.104Z</time>
      </trkpt>
      <trkpt lat="48.83132" lon="2.46548">
        <ele>112.7</ele>
        <time>2015-05-25T19:30:52.044Z</time>
      </trkpt>
      <trkpt lat="48.83137" lon="2.4655">
        <ele>112.7</ele>
        <time>2015-05-25T19:30:53.052Z</time>
      </trkpt>
      <trkpt lat="48.83141" lon="2.46553">
        <ele>113.2</ele>
        <time>2015-05-25T19:30:54.067Z</time>
      </trkpt>
      <trkpt lat="48.83146" lon="2.46556">
        <ele>113.3</ele>
        <time>2015-05-25T19:30:55.078Z</time>
      </trkpt>
      <trkpt lat="48.83153" lon="2.46559">
        <ele>113.6</ele>
        <time>2015-05-25T19:30:57.096Z</time>
      </trkpt>
      <trkpt lat="48.83157" lon="2.46561">
        <ele>113.7</ele>
        <time>2015-05-25T19:30:58.105Z</time>
      </trkpt>
      <trkpt lat="48.83164" lon="2.46567">
        <ele>114.1</ele>
        <time>2015-05-25T19:31:00.127Z</time>
      </trkpt>
      <trkpt lat="48.83168" lon="2.4657">
        <ele>114.4</ele>
        <time>2015-05-25T19:31:01.131Z</time>
      </trkpt>
      <trkpt lat="48.83172" lon="2.46574">
        <ele>114.6</ele>
        <time>2015-05-25T19:31:02.042Z</time>
      </trkpt>
      <trkpt lat="48.83177" lon="2.46578">
        <ele>114.9</ele>
        <time>2015-05-25T19:31:03.178Z</time>
      </trkpt>
      <trkpt lat="48.83181" lon="2.46581">
        <ele>115.3</ele>
        <time>2015-05-25T19:31:04.099Z</time>
      </trkpt>
      <trkpt lat="48.83186" lon="2.46584">
        <ele>115.8</ele>
        <time>2015-05-25T19:31:05.117Z</time>
      </trkpt>
      <trkpt lat="48.8319" lon="2.46587">
        <ele>116.3</ele>
        <time>2015-05-25T19:31:06.040Z</time>
      </trkpt>
      <trkpt lat="48.83196" lon="2.46592">
        <ele>116.5</ele>
        <time>2015-05-25T19:31:07.041Z</time>
      </trkpt>
      <trkpt lat="48.83202" lon="2.46599">
        <ele>116.6</ele>
        <time>2015-05-25T19:31:08.052Z</time>
      </trkpt>
      <trkpt lat="48.83207" lon="2.46604">
        <ele>116.5</ele>
        <time>2015-05-25T19:31:09.085Z</time>
      </trkpt>
      <trkpt lat="48.83212" lon="2.46608">
        <ele>116.4</ele>
        <time>2015-05-25T19:31:10.098Z</time>
      </trkpt>
      <trkpt lat="48.83217" lon="2.46613">
        <ele>116.3</ele>
        <time>2015-05-25T19:31:11.107Z</time>
      </trkpt>
      <trkpt lat="48.83222" lon="2.46617">
        <ele>116.6</ele>
        <time>2015-05-25T19:31:12.116Z</time>
      </trkpt>
      <trkpt lat="48.83227" lon="2.46622">
        <ele>116.6</ele>
        <time>2015-05-25T19:31:13.122Z</time>
      </trkpt>
      <trkpt lat="48.83232" lon="2.46627">
        <ele>116.6</ele>
        <time>2015-05-25T19:31:14.030Z</time>
      </trkpt>
      <trkpt lat="48.83238" lon="2.46632">
        <ele>116.4</ele>
        <time>2015-05-25T19:31:15.094Z</time>
      </trkpt>
      <trkpt lat="48.83242" lon="2.46637">
        <ele>116.5</ele>
        <time>2015-05-25T19:31:16.116Z</time>
      </trkpt>
      <trkpt lat="48.83247" lon="2.46643">
        <ele>116.5</ele>
        <time>2015-05-25T19:31:17.132Z</time>
      </trkpt>
      <trkpt lat="48.83251" lon="2.46648">
        <ele>116.7</ele>
        <time>2015-05-25T19:31:18.029Z</time>
      </trkpt>
      <trkpt lat="48.83255" lon="2.46654">
        <ele>116.7</ele>
        <time>2015-05-25T19:31:19.035Z</time>
      </trkpt>
      <trkpt lat="48.83259" lon="2.46659">
        <ele>116.7</ele>
        <time>2015-05-25T19:31:20.057Z</time>
      </trkpt>
      <trkpt lat="48.83264" lon="2.46664">
        <ele>116.4</ele>
        <time>2015-05-25T19:31:21.067Z</time>
      </trkpt>
      <trkpt lat="48.83267" lon="2.46669">
        <ele>116.1</ele>
        <time>2015-05-25T19:31:22.089Z</time>
      </trkpt>
      <trkpt lat="48.8327" lon="2.46674">
        <ele>116.2</ele>
        <time>2015-05-25T19:31:23.094Z</time>
      </trkpt>
      <trkpt lat="48.83273" lon="2.4668">
        <ele>116.5</ele>
        <time>2015-05-25T19:31:24.105Z</time>
      </trkpt>
      <trkpt lat="48.83276" lon="2.46686">
        <ele>116.6</ele>
        <time>2015-05-25T19:31:25.119Z</time>
      </trkpt>
      <trkpt lat="48.83278" lon="2.46692">
        <ele>116.4</ele>
        <time>2015-05-25T19:31:26.126Z</time>
      </trkpt>
      <trkpt lat="48.83282" lon="2.46698">
        <ele>116.4</ele>
        <time>2015-05-25T19:31:27.138Z</time>
      </trkpt>
      <trkpt lat="48.83286" lon="2.46704">
        <ele>116.3</ele>
        <time>2015-05-25T19:31:28.092Z</time>
      </trkpt>
      <trkpt lat="48.83289" lon="2.46711">
        <ele>116.2</ele>
        <time>2015-05-25T19:31:29.027Z</time>
      </trkpt>
      <trkpt lat="48.83293" lon="2.46718">
        <ele>116.1</ele>
        <time>2015-05-25T19:31:30.055Z</time>
      </trkpt>
      <trkpt lat="48.83296" lon="2.46725">
        <ele>116.3</ele>
        <time>2015-05-25T19:31:31.064Z</time>
      </trkpt>
      <trkpt lat="48.833" lon="2.46731">
        <ele>116.2</ele>
        <time>2015-05-25T19:31:32.131Z</time>
      </trkpt>
      <trkpt lat="48.83304" lon="2.46738">
        <ele>116.4</ele>
        <time>2015-05-25T19:31:33.116Z</time>
      </trkpt>
      <trkpt lat="48.83308" lon="2.46744">
        <ele>116.4</ele>
        <time>2015-05-25T19:31:34.135Z</time>
      </trkpt>
      <trkpt lat="48.83311" lon="2.46751">
        <ele>116.6</ele>
        <time>2015-05-25T19:31:35.152Z</time>
      </trkpt>
      <trkpt lat="48.83314" lon="2.46757">
        <ele>116.7</ele>
        <time>2015-05-25T19:31:36.044Z</time>
      </trkpt>
      <trkpt lat="48.83317" lon="2.46765">
        <ele>116.9</ele>
        <time>2015-05-25T19:31:37.057Z</time>
      </trkpt>
      <trkpt lat="48.8332" lon="2.46772">
        <ele>116.9</ele>
        <time>2015-05-25T19:31:38.058Z</time>
      </trkpt>
      <trkpt lat="48.83324" lon="2.46778">
        <ele>117.3</ele>
        <time>2015-05-25T19:31:39.097Z</time>
      </trkpt>
      <trkpt lat="48.83328" lon="2.46785">
        <ele>117.2</ele>
        <time>2015-05-25T19:31:40.106Z</time>
      </trkpt>
      <trkpt lat="48.83331" lon="2.46792">
        <ele>117.2</ele>
        <time>2015-05-25T19:31:41.110Z</time>
      </trkpt>
      <trkpt lat="48.83335" lon="2.46799">
        <ele>117.2</ele>
        <time>2015-05-25T19:31:42.128Z</time>
      </trkpt>
      <trkpt lat="48.83338" lon="2.46806">
        <ele>117.1</ele>
        <time>2015-05-25T19:31:43.135Z</time>
      </trkpt>
      <trkpt lat="48.83341" lon="2.46813">
        <ele>117</ele>
        <time>2015-05-25T19:31:44.063Z</time>
      </trkpt>
      <trkpt lat="48.83345" lon="2.46819">
        <ele>116.9</ele>
        <time>2015-05-25T19:31:45.069Z</time>
      </trkpt>
      <trkpt lat="48.83349" lon="2.46826">
        <ele>116.9</ele>
        <time>2015-05-25T19:31:46.085Z</time>
      </trkpt>
      <trkpt lat="48.83352" lon="2.46833">
        <ele>116.8</ele>
        <time>2015-05-25T19:31:47.264Z</time>
      </trkpt>
      <trkpt lat="48.83356" lon="2.4684">
        <ele>116.8</ele>
        <time>2015-05-25T19:31:48.106Z</time>
      </trkpt>
      <trkpt lat="48.83359" lon="2.46846">
        <ele>116.9</ele>
        <time>2015-05-25T19:31:49.107Z</time>
      </trkpt>
      <trkpt lat="48.83363" lon="2.46853">
        <ele>116.6</ele>
        <time>2015-05-25T19:31:50.125Z</time>
      </trkpt>
      <trkpt lat="48.83367" lon="2.46858">
        <ele>116.6</ele>
        <time>2015-05-25T19:31:51.127Z</time>
      </trkpt>
      <trkpt lat="48.83371" lon="2.46864">
        <ele>116.7</ele>
        <time>2015-05-25T19:31:52.140Z</time>
      </trkpt>
      <trkpt lat="48.83375" lon="2.46869">
        <ele>116.7</ele>
        <time>2015-05-25T19:31:53.086Z</time>
      </trkpt>
      <trkpt lat="48.83378" lon="2.46874">
        <ele>116.7</ele>
        <time>2015-05-25T19:31:54.054Z</time>
      </trkpt>
      <trkpt lat="48.83383" lon="2.46878">
        <ele>116.5</ele>
        <time>2015-05-25T19:31:55.063Z</time>
      </trkpt>
      <trkpt lat="48.83386" lon="2.46883">
        <ele>116.7</ele>
        <time>2015-05-25T19:31:56.076Z</time>
      </trkpt>
      <trkpt lat="48.83389" lon="2.46888">
        <ele>116.5</ele>
        <time>2015-05-25T19:31:57.093Z</time>
      </trkpt>
      <trkpt lat="48.83392" lon="2.46893">
        <ele>116.2</ele>
        <time>2015-05-25T19:31:58.096Z</time>
      </trkpt>
      <trkpt lat="48.83396" lon="2.46897">
        <ele>116.4</ele>
        <time>2015-05-25T19:31:59.105Z</time>
      </trkpt>
      <trkpt lat="48.83402" lon="2.46905">
        <ele>116.1</ele>
        <time>2015-05-25T19:32:01.128Z</time>
      </trkpt>
      <trkpt lat="48.83406" lon="2.46909">
        <ele>116.1</ele>
        <time>2015-05-25T19:32:02.124Z</time>
      </trkpt>
      <trkpt lat="48.83411" lon="2.46916">
        <ele>116.4</ele>
        <time>2015-05-25T19:32:04.069Z</time>
      </trkpt>
      <trkpt lat="48.83415" lon="2.46919">
        <ele>116.3</ele>
        <time>2015-05-25T19:32:05.068Z</time>
      </trkpt>
      <trkpt lat="48.8342" lon="2.46922">
        <ele>116.3</ele>
        <time>2015-05-25T19:32:06.116Z</time>
      </trkpt>
      <trkpt lat="48.83424" lon="2.46925">
        <ele>116.5</ele>
        <time>2015-05-25T19:32:07.118Z</time>
      </trkpt>
      <trkpt lat="48.83432" lon="2.4693">
        <ele>115.9</ele>
        <time>2015-05-25T19:32:09.135Z</time>
      </trkpt>
      <trkpt lat="48.83436" lon="2.46932">
        <ele>115.6</ele>
        <time>2015-05-25T19:32:10.197Z</time>
      </trkpt>
      <trkpt lat="48.83441" lon="2.4694">
        <ele>115.5</ele>
        <time>2015-05-25T19:32:13.105Z</time>
      </trkpt>
      <trkpt lat="48.83442" lon="2.46943">
        <ele>115.5</ele>
        <time>2015-05-25T19:32:14.108Z</time>
      </trkpt>
      <trkpt lat="48.83449" lon="2.46946">
        <ele>112.3</ele>
        <time>2015-05-25T19:32:37.097Z</time>
      </trkpt>
      <trkpt lat="48.83451" lon="2.46946">
        <ele>112.7</ele>
        <time>2015-05-25T19:32:38.108Z</time>
      </trkpt>
      <trkpt lat="48.83458" lon="2.46952">
        <ele>112.3</ele>
        <time>2015-05-25T19:32:41.061Z</time>
      </trkpt>
      <trkpt lat="48.8346" lon="2.46954">
        <ele>112.3</ele>
        <time>2015-05-25T19:32:42.071Z</time>
      </trkpt>
      <trkpt lat="48.83462" lon="2.46955">
        <ele>111.9</ele>
        <time>2015-05-25T19:32:53.075Z</time>
      </trkpt>
      <trkpt lat="48.83478" lon="2.46955">
        <ele>111.5</ele>
        <time>2015-05-25T19:32:54.074Z</time>
      </trkpt>
      <trkpt lat="48.83482" lon="2.46957">
        <ele>111.6</ele>
        <time>2015-05-25T19:33:19.024Z</time>
      </trkpt>
      <trkpt lat="48.83491" lon="2.46964">
        <ele>112.5</ele>
        <time>2015-05-25T19:33:20.071Z</time>
      </trkpt>
      <trkpt lat="48.83498" lon="2.46967">
        <ele>112.2</ele>
        <time>2015-05-25T19:33:23.370Z</time>
      </trkpt>
      <trkpt lat="48.835" lon="2.46969">
        <ele>112.7</ele>
        <time>2015-05-25T19:33:24.055Z</time>
      </trkpt>
      <trkpt lat="48.83506" lon="2.46973">
        <ele>112.7</ele>
        <time>2015-05-25T19:33:26.122Z</time>
      </trkpt>
      <trkpt lat="48.83509" lon="2.46974">
        <ele>112.5</ele>
        <time>2015-05-25T19:33:27.142Z</time>
      </trkpt>
      <trkpt lat="48.83518" lon="2.46976">
        <ele>111.5</ele>
        <time>2015-05-25T19:33:30.063Z</time>
      </trkpt>
      <trkpt lat="48.8352" lon="2.46977">
        <ele>111.2</ele>
        <time>2015-05-25T19:33:31.072Z</time>
      </trkpt>
      <trkpt lat="48.83527" lon="2.46978">
        <ele>111.1</ele>
        <time>2015-05-25T19:33:33.092Z</time>
      </trkpt>
      <trkpt lat="48.8353" lon="2.46978">
        <ele>111.1</ele>
        <time>2015-05-25T19:33:34.106Z</time>
      </trkpt>
      <trkpt lat="48.83538" lon="2.46982">
        <ele>111.2</ele>
        <time>2015-05-25T19:33:37.629Z</time>
      </trkpt>
      <trkpt lat="48.83541" lon="2.46982">
        <ele>111.1</ele>
        <time>2015-05-25T19:33:38.060Z</time>
      </trkpt>
      <trkpt lat="48.8355" lon="2.46982">
        <ele>111.2</ele>
        <time>2015-05-25T19:33:40.106Z</time>
      </trkpt>
      <trkpt lat="48.83555" lon="2.46983">
        <ele>111</ele>
        <time>2015-05-25T19:33:41.075Z</time>
      </trkpt>
      <trkpt lat="48.8356" lon="2.46984">
        <ele>110.9</ele>
        <time>2015-05-25T19:33:42.737Z</time>
      </trkpt>
      <trkpt lat="48.83565" lon="2.46984">
        <ele>111</ele>
        <time>2015-05-25T19:33:43.108Z</time>
      </trkpt>
      <trkpt lat="48.83569" lon="2.46984">
        <ele>111.3</ele>
        <time>2015-05-25T19:33:44.048Z</time>
      </trkpt>
      <trkpt lat="48.83574" lon="2.46984">
        <ele>111.8</ele>
        <time>2015-05-25T19:33:45.099Z</time>
      </trkpt>
      <trkpt lat="48.83582" lon="2.46984">
        <ele>111.8</ele>
        <time>2015-05-25T19:33:47.799Z</time>
      </trkpt>
      <trkpt lat="48.83586" lon="2.46983">
        <ele>111.3</ele>
        <time>2015-05-25T19:33:48.047Z</time>
      </trkpt>
      <trkpt lat="48.83592" lon="2.46984">
        <ele>111.5</ele>
        <time>2015-05-25T19:33:50.083Z</time>
      </trkpt>
      <trkpt lat="48.83596" lon="2.46984">
        <ele>112.2</ele>
        <time>2015-05-25T19:33:51.165Z</time>
      </trkpt>
      <trkpt lat="48.83602" lon="2.46984">
        <ele>112.8</ele>
        <time>2015-05-25T19:33:53.070Z</time>
      </trkpt>
      <trkpt lat="48.83605" lon="2.46983">
        <ele>113.4</ele>
        <time>2015-05-25T19:33:54.111Z</time>
      </trkpt>
      <trkpt lat="48.83612" lon="2.46982">
        <ele>114</ele>
        <time>2015-05-25T19:33:56.067Z</time>
      </trkpt>
      <trkpt lat="48.83615" lon="2.46982">
        <ele>114.4</ele>
        <time>2015-05-25T19:33:57.095Z</time>
      </trkpt>
      <trkpt lat="48.83623" lon="2.46982">
        <ele>115.3</ele>
        <time>2015-05-25T19:34:00.160Z</time>
      </trkpt>
      <trkpt lat="48.83626" lon="2.46981">
        <ele>115.5</ele>
        <time>2015-05-25T19:34:01.048Z</time>
      </trkpt>
      <trkpt lat="48.8363" lon="2.4698">
        <ele>114.4</ele>
        <time>2015-05-25T19:37:15.123Z</time>
      </trkpt>
      <trkpt lat="48.83634" lon="2.46991">
        <ele>98.5</ele>
        <time>2015-05-25T19:37:16.135Z</time>
      </trkpt>
      <trkpt lat="48.83642" lon="2.46989">
        <ele>99.2</ele>
        <time>2015-05-25T19:37:19.041Z</time>
      </trkpt>
      <trkpt lat="48.83646" lon="2.46988">
        <ele>99.6</ele>
        <time>2015-05-25T19:37:20.080Z</time>
      </trkpt>
      <trkpt lat="48.83652" lon="2.46985">
        <ele>100.5</ele>
        <time>2015-05-25T19:37:22.112Z</time>
      </trkpt>
      <trkpt lat="48.83655" lon="2.46984">
        <ele>100.9</ele>
        <time>2015-05-25T19:37:23.133Z</time>
      </trkpt>
      <trkpt lat="48.83663" lon="2.46981">
        <ele>101.6</ele>
        <time>2015-05-25T19:37:25.205Z</time>
      </trkpt>
      <trkpt lat="48.83666" lon="2.46979">
        <ele>102.2</ele>
        <time>2015-05-25T19:37:26.071Z</time>
      </trkpt>
      <trkpt lat="48.8367" lon="2.46976">
        <ele>102.5</ele>
        <time>2015-05-25T19:37:27.201Z</time>
      </trkpt>
      <trkpt lat="48.83675" lon="2.46973">
        <ele>103.1</ele>
        <time>2015-05-25T19:37:28.074Z</time>
      </trkpt>
      <trkpt lat="48.83682" lon="2.46964">
        <ele>103.9</ele>
        <time>2015-05-25T19:37:30.218Z</time>
      </trkpt>
      <trkpt lat="48.83686" lon="2.46961">
        <ele>104.4</ele>
        <time>2015-05-25T19:37:31.101Z</time>
      </trkpt>
      <trkpt lat="48.8369" lon="2.46957">
        <ele>104.7</ele>
        <time>2015-05-25T19:37:32.132Z</time>
      </trkpt>
      <trkpt lat="48.83695" lon="2.46954">
        <ele>105.2</ele>
        <time>2015-05-25T19:37:33.138Z</time>
      </trkpt>
      <trkpt lat="48.837" lon="2.4695">
        <ele>105.4</ele>
        <time>2015-05-25T19:37:34.072Z</time>
      </trkpt>
      <trkpt lat="48.83704" lon="2.46946">
        <ele>106</ele>
        <time>2015-05-25T19:37:35.082Z</time>
      </trkpt>
      <trkpt lat="48.83709" lon="2.46942">
        <ele>106.3</ele>
        <time>2015-05-25T19:37:36.105Z</time>
      </trkpt>
      <trkpt lat="48.83713" lon="2.46937">
        <ele>106.6</ele>
        <time>2015-05-25T19:37:37.110Z</time>
      </trkpt>
      <trkpt lat="48.83717" lon="2.46932">
        <ele>106.8</ele>
        <time>2015-05-25T19:37:38.119Z</time>
      </trkpt>
      <trkpt lat="48.83721" lon="2.46926">
        <ele>107.1</ele>
        <time>2015-05-25T19:37:39.142Z</time>
      </trkpt>
      <trkpt lat="48.83724" lon="2.4692">
        <ele>107.5</ele>
        <time>2015-05-25T19:37:40.062Z</time>
      </trkpt>
      <trkpt lat="48.83728" lon="2.46916">
        <ele>107.6</ele>
        <time>2015-05-25T19:37:41.057Z</time>
      </trkpt>
      <trkpt lat="48.83732" lon="2.4691">
        <ele>107.9</ele>
        <time>2015-05-25T19:37:42.081Z</time>
      </trkpt>
      <trkpt lat="48.83735" lon="2.46904">
        <ele>108.1</ele>
        <time>2015-05-25T19:37:43.092Z</time>
      </trkpt>
      <trkpt lat="48.83738" lon="2.46898">
        <ele>108</ele>
        <time>2015-05-25T19:37:44.108Z</time>
      </trkpt>
      <trkpt lat="48.83741" lon="2.46891">
        <ele>107.5</ele>
        <time>2015-05-25T19:37:45.116Z</time>
      </trkpt>
      <trkpt lat="48.83745" lon="2.46885">
        <ele>107.2</ele>
        <time>2015-05-25T19:37:46.128Z</time>
      </trkpt>
      <trkpt lat="48.83749" lon="2.4688">
        <ele>107.3</ele>
        <time>2015-05-25T19:37:47.138Z</time>
      </trkpt>
      <trkpt lat="48.83753" lon="2.46874">
        <ele>107.5</ele>
        <time>2015-05-25T19:37:48.037Z</time>
      </trkpt>
      <trkpt lat="48.83756" lon="2.46869">
        <ele>107.5</ele>
        <time>2015-05-25T19:37:49.038Z</time>
      </trkpt>
      <trkpt lat="48.83759" lon="2.46864">
        <ele>107.4</ele>
        <time>2015-05-25T19:37:50.057Z</time>
      </trkpt>
      <trkpt lat="48.83764" lon="2.4686">
        <ele>107.5</ele>
        <time>2015-05-25T19:37:51.075Z</time>
      </trkpt>
      <trkpt lat="48.83768" lon="2.46855">
        <ele>107.6</ele>
        <time>2015-05-25T19:37:52.085Z</time>
      </trkpt>
      <trkpt lat="48.8377" lon="2.46849">
        <ele>107.9</ele>
        <time>2015-05-25T19:37:53.095Z</time>
      </trkpt>
      <trkpt lat="48.83774" lon="2.46846">
        <ele>108.3</ele>
        <time>2015-05-25T19:37:54.101Z</time>
      </trkpt>
      <trkpt lat="48.83778" lon="2.46842">
        <ele>108.4</ele>
        <time>2015-05-25T19:37:55.101Z</time>
      </trkpt>
      <trkpt lat="48.83782" lon="2.46838">
        <ele>108.8</ele>
        <time>2015-05-25T19:37:56.121Z</time>
      </trkpt>
      <trkpt lat="48.83787" lon="2.46834">
        <ele>109.2</ele>
        <time>2015-05-25T19:37:57.130Z</time>
      </trkpt>
      <trkpt lat="48.83791" lon="2.46832">
        <ele>109.5</ele>
        <time>2015-05-25T19:37:58.142Z</time>
      </trkpt>
      <trkpt lat="48.83795" lon="2.46828">
        <ele>109.6</ele>
        <time>2015-05-25T19:37:59.149Z</time>
      </trkpt>
      <trkpt lat="48.83798" lon="2.46824">
        <ele>109.8</ele>
        <time>2015-05-25T19:38:00.074Z</time>
      </trkpt>
      <trkpt lat="48.83802" lon="2.46819">
        <ele>110</ele>
        <time>2015-05-25T19:38:01.074Z</time>
      </trkpt>
      <trkpt lat="48.83806" lon="2.46813">
        <ele>110.5</ele>
        <time>2015-05-25T19:38:02.082Z</time>
      </trkpt>
      <trkpt lat="48.8381" lon="2.46809">
        <ele>110.7</ele>
        <time>2015-05-25T19:38:03.103Z</time>
      </trkpt>
      <trkpt lat="48.83816" lon="2.46801">
        <ele>110.9</ele>
        <time>2015-05-25T19:38:05.108Z</time>
      </trkpt>
      <trkpt lat="48.83819" lon="2.46796">
        <ele>111</ele>
        <time>2015-05-25T19:38:06.126Z</time>
      </trkpt>
      <trkpt lat="48.83823" lon="2.4679">
        <ele>111.1</ele>
        <time>2015-05-25T19:38:07.057Z</time>
      </trkpt>
      <trkpt lat="48.83826" lon="2.46785">
        <ele>111.2</ele>
        <time>2015-05-25T19:38:08.077Z</time>
      </trkpt>
      <trkpt lat="48.83829" lon="2.46779">
        <ele>111.4</ele>
        <time>2015-05-25T19:38:09.100Z</time>
      </trkpt>
      <trkpt lat="48.83833" lon="2.46776">
        <ele>111.6</ele>
        <time>2015-05-25T19:38:10.105Z</time>
      </trkpt>
      <trkpt lat="48.83838" lon="2.46772">
        <ele>111.5</ele>
        <time>2015-05-25T19:38:11.152Z</time>
      </trkpt>
      <trkpt lat="48.83844" lon="2.46769">
        <ele>112</ele>
        <time>2015-05-25T19:38:12.135Z</time>
      </trkpt>
      <trkpt lat="48.83848" lon="2.46764">
        <ele>112.4</ele>
        <time>2015-05-25T19:38:13.028Z</time>
      </trkpt>
      <trkpt lat="48.83851" lon="2.46761">
        <ele>112.6</ele>
        <time>2015-05-25T19:38:14.057Z</time>
      </trkpt>
      <trkpt lat="48.83858" lon="2.46755">
        <ele>113.2</ele>
        <time>2015-05-25T19:38:16.105Z</time>
      </trkpt>
      <trkpt lat="48.83863" lon="2.46752">
        <ele>113.4</ele>
        <time>2015-05-25T19:38:17.058Z</time>
      </trkpt>
      <trkpt lat="48.83867" lon="2.46749">
        <ele>113.6</ele>
        <time>2015-05-25T19:38:18.079Z</time>
      </trkpt>
      <trkpt lat="48.83872" lon="2.46747">
        <ele>113.8</ele>
        <time>2015-05-25T19:38:19.104Z</time>
      </trkpt>
      <trkpt lat="48.83878" lon="2.46747">
        <ele>113.7</ele>
        <time>2015-05-25T19:38:20.106Z</time>
      </trkpt>
      <trkpt lat="48.83883" lon="2.46745">
        <ele>112.7</ele>
        <time>2015-05-25T19:38:21.111Z</time>
      </trkpt>
      <trkpt lat="48.83887" lon="2.4674">
        <ele>111.9</ele>
        <time>2015-05-25T19:38:22.064Z</time>
      </trkpt>
      <trkpt lat="48.83891" lon="2.46735">
        <ele>111.6</ele>
        <time>2015-05-25T19:38:23.059Z</time>
      </trkpt>
      <trkpt lat="48.83898" lon="2.46728">
        <ele>111.9</ele>
        <time>2015-05-25T19:38:25.087Z</time>
      </trkpt>
      <trkpt lat="48.83902" lon="2.46725">
        <ele>112</ele>
        <time>2015-05-25T19:38:26.094Z</time>
      </trkpt>
      <trkpt lat="48.83907" lon="2.46723">
        <ele>112.3</ele>
        <time>2015-05-25T19:38:27.110Z</time>
      </trkpt>
      <trkpt lat="48.83912" lon="2.46721">
        <ele>112.4</ele>
        <time>2015-05-25T19:38:28.126Z</time>
      </trkpt>
      <trkpt lat="48.83917" lon="2.4672">
        <ele>112.8</ele>
        <time>2015-05-25T19:38:29.138Z</time>
      </trkpt>
      <trkpt lat="48.83921" lon="2.46718">
        <ele>113.2</ele>
        <time>2015-05-25T19:38:30.146Z</time>
      </trkpt>
      <trkpt lat="48.83925" lon="2.46714">
        <ele>113.1</ele>
        <time>2015-05-25T19:38:31.055Z</time>
      </trkpt>
      <trkpt lat="48.8393" lon="2.4671">
        <ele>113.1</ele>
        <time>2015-05-25T19:38:32.061Z</time>
      </trkpt>
      <trkpt lat="48.83934" lon="2.46705">
        <ele>113</ele>
        <time>2015-05-25T19:38:33.128Z</time>
      </trkpt>
      <trkpt lat="48.83938" lon="2.46699">
        <ele>112.8</ele>
        <time>2015-05-25T19:38:34.134Z</time>
      </trkpt>
      <trkpt lat="48.83941" lon="2.46695">
        <ele>112.7</ele>
        <time>2015-05-25T19:38:35.050Z</time>
      </trkpt>
      <trkpt lat="48.83946" lon="2.46691">
        <ele>112.8</ele>
        <time>2015-05-25T19:38:36.078Z</time>
      </trkpt>
      <trkpt lat="48.83952" lon="2.46689">
        <ele>113.2</ele>
        <time>2015-05-25T19:38:37.097Z</time>
      </trkpt>
      <trkpt lat="48.83956" lon="2.46685">
        <ele>113.3</ele>
        <time>2015-05-25T19:38:38.104Z</time>
      </trkpt>
      <trkpt lat="48.83961" lon="2.46682">
        <ele>113.2</ele>
        <time>2015-05-25T19:38:39.117Z</time>
      </trkpt>
      <trkpt lat="48.83966" lon="2.46679">
        <ele>113.2</ele>
        <time>2015-05-25T19:38:40.136Z</time>
      </trkpt>
      <trkpt lat="48.83971" lon="2.46675">
        <ele>113</ele>
        <time>2015-05-25T19:38:41.021Z</time>
      </trkpt>
      <trkpt lat="48.83977" lon="2.46671">
        <ele>112.7</ele>
        <time>2015-05-25T19:38:42.051Z</time>
      </trkpt>
      <trkpt lat="48.83982" lon="2.46668">
        <ele>112.6</ele>
        <time>2015-05-25T19:38:43.054Z</time>
      </trkpt>
      <trkpt lat="48.83987" lon="2.46663">
        <ele>112.4</ele>
        <time>2015-05-25T19:38:44.074Z</time>
      </trkpt>
      <trkpt lat="48.83992" lon="2.46657">
        <ele>112.4</ele>
        <time>2015-05-25T19:38:45.101Z</time>
      </trkpt>
      <trkpt lat="48.83998" lon="2.46652">
        <ele>112.4</ele>
        <time>2015-05-25T19:38:46.108Z</time>
      </trkpt>
      <trkpt lat="48.84004" lon="2.46648">
        <ele>112.6</ele>
        <time>2015-05-25T19:38:47.129Z</time>
      </trkpt>
      <trkpt lat="48.84009" lon="2.46643">
        <ele>113.1</ele>
        <time>2015-05-25T19:38:48.135Z</time>
      </trkpt>
      <trkpt lat="48.84014" lon="2.46636">
        <ele>113.4</ele>
        <time>2015-05-25T19:38:49.049Z</time>
      </trkpt>
      <trkpt lat="48.84018" lon="2.4663">
        <ele>113.6</ele>
        <time>2015-05-25T19:38:50.057Z</time>
      </trkpt>
      <trkpt lat="48.84022" lon="2.46625">
        <ele>113.7</ele>
        <time>2015-05-25T19:38:51.140Z</time>
      </trkpt>
      <trkpt lat="48.84027" lon="2.46619">
        <ele>112.8</ele>
        <time>2015-05-25T19:38:52.112Z</time>
      </trkpt>
      <trkpt lat="48.84032" lon="2.46614">
        <ele>113</ele>
        <time>2015-05-25T19:38:53.132Z</time>
      </trkpt>
      <trkpt lat="48.84037" lon="2.46608">
        <ele>112.9</ele>
        <time>2015-05-25T19:38:54.141Z</time>
      </trkpt>
      <trkpt lat="48.84042" lon="2.46604">
        <ele>113.1</ele>
        <time>2015-05-25T19:38:55.058Z</time>
      </trkpt>
      <trkpt lat="48.84047" lon="2.466">
        <ele>113.1</ele>
        <time>2015-05-25T19:38:56.062Z</time>
      </trkpt>
      <trkpt lat="48.84052" lon="2.46596">
        <ele>113.2</ele>
        <time>2015-05-25T19:38:57.103Z</time>
      </trkpt>
      <trkpt lat="48.84057" lon="2.46592">
        <ele>113.8</ele>
        <time>2015-05-25T19:38:58.101Z</time>
      </trkpt>
      <trkpt lat="48.84061" lon="2.46586">
        <ele>114.1</ele>
        <time>2015-05-25T19:38:59.111Z</time>
      </trkpt>
      <trkpt lat="48.84064" lon="2.46579">
        <ele>114.5</ele>
        <time>2015-05-25T19:39:00.122Z</time>
      </trkpt>
      <trkpt lat="48.84068" lon="2.46573">
        <ele>114.9</ele>
        <time>2015-05-25T19:39:01.051Z</time>
      </trkpt>
      <trkpt lat="48.84071" lon="2.46565">
        <ele>115</ele>
        <time>2015-05-25T19:39:02.062Z</time>
      </trkpt>
      <trkpt lat="48.84075" lon="2.4656">
        <ele>114.6</ele>
        <time>2015-05-25T19:39:03.099Z</time>
      </trkpt>
      <trkpt lat="48.84079" lon="2.46553">
        <ele>114.6</ele>
        <time>2015-05-25T19:39:04.110Z</time>
      </trkpt>
      <trkpt lat="48.84083" lon="2.46547">
        <ele>114.6</ele>
        <time>2015-05-25T19:39:05.133Z</time>
      </trkpt>
      <trkpt lat="48.84087" lon="2.46542">
        <ele>114.5</ele>
        <time>2015-05-25T19:39:06.136Z</time>
      </trkpt>
      <trkpt lat="48.84092" lon="2.46536">
        <ele>114.4</ele>
        <time>2015-05-25T19:39:07.046Z</time>
      </trkpt>
      <trkpt lat="48.84097" lon="2.46531">
        <ele>114.5</ele>
        <time>2015-05-25T19:39:08.053Z</time>
      </trkpt>
      <trkpt lat="48.84103" lon="2.46525">
        <ele>114.7</ele>
        <time>2015-05-25T19:39:09.100Z</time>
      </trkpt>
      <trkpt lat="48.84108" lon="2.46517">
        <ele>114.6</ele>
        <time>2015-05-25T19:39:10.110Z</time>
      </trkpt>
      <trkpt lat="48.84113" lon="2.46509">
        <ele>114.3</ele>
        <time>2015-05-25T19:39:11.119Z</time>
      </trkpt>
      <trkpt lat="48.84119" lon="2.46503">
        <ele>114</ele>
        <time>2015-05-25T19:39:12.131Z</time>
      </trkpt>
      <trkpt lat="48.84125" lon="2.46499">
        <ele>114</ele>
        <time>2015-05-25T19:39:13.051Z</time>
      </trkpt>
      <trkpt lat="48.8413" lon="2.46492">
        <ele>114.2</ele>
        <time>2015-05-25T19:39:14.057Z</time>
      </trkpt>
      <trkpt lat="48.84135" lon="2.46482">
        <ele>114.6</ele>
        <time>2015-05-25T19:39:15.104Z</time>
      </trkpt>
      <trkpt lat="48.8414" lon="2.46474">
        <ele>114.6</ele>
        <time>2015-05-25T19:39:16.108Z</time>
      </trkpt>
      <trkpt lat="48.84146" lon="2.46467">
        <ele>113.7</ele>
        <time>2015-05-25T19:39:17.123Z</time>
      </trkpt>
      <trkpt lat="48.84149" lon="2.46456">
        <ele>113.5</ele>
        <time>2015-05-25T19:39:18.138Z</time>
      </trkpt>
      <trkpt lat="48.84154" lon="2.46446">
        <ele>113</ele>
        <time>2015-05-25T19:39:19.019Z</time>
      </trkpt>
      <trkpt lat="48.84161" lon="2.4644">
        <ele>112.5</ele>
        <time>2015-05-25T19:39:20.034Z</time>
      </trkpt>
      <trkpt lat="48.84166" lon="2.46433">
        <ele>112.4</ele>
        <time>2015-05-25T19:39:21.085Z</time>
      </trkpt>
      <trkpt lat="48.8417" lon="2.46425">
        <ele>112.6</ele>
        <time>2015-05-25T19:39:22.084Z</time>
      </trkpt>
      <trkpt lat="48.84175" lon="2.46418">
        <ele>112.5</ele>
        <time>2015-05-25T19:39:23.103Z</time>
      </trkpt>
      <trkpt lat="48.84181" lon="2.46409">
        <ele>112.3</ele>
        <time>2015-05-25T19:39:24.112Z</time>
      </trkpt>
      <trkpt lat="48.84185" lon="2.46399">
        <ele>111.9</ele>
        <time>2015-05-25T19:39:25.110Z</time>
      </trkpt>
      <trkpt lat="48.84188" lon="2.46387">
        <ele>112.1</ele>
        <time>2015-05-25T19:39:26.121Z</time>
      </trkpt>
      <trkpt lat="48.84193" lon="2.46379">
        <ele>112.1</ele>
        <time>2015-05-25T19:39:27.137Z</time>
      </trkpt>
      <trkpt lat="48.84198" lon="2.46372">
        <ele>112.7</ele>
        <time>2015-05-25T19:39:28.044Z</time>
      </trkpt>
      <trkpt lat="48.84203" lon="2.46364">
        <ele>112.3</ele>
        <time>2015-05-25T19:39:29.036Z</time>
      </trkpt>
      <trkpt lat="48.84207" lon="2.46356">
        <ele>112.3</ele>
        <time>2015-05-25T19:39:30.046Z</time>
      </trkpt>
      <trkpt lat="48.8421" lon="2.46348">
        <ele>112.4</ele>
        <time>2015-05-25T19:39:31.081Z</time>
      </trkpt>
      <trkpt lat="48.84213" lon="2.4634">
        <ele>112.1</ele>
        <time>2015-05-25T19:39:32.096Z</time>
      </trkpt>
      <trkpt lat="48.84217" lon="2.46334">
        <ele>112.2</ele>
        <time>2015-05-25T19:39:33.104Z</time>
      </trkpt>
      <trkpt lat="48.8422" lon="2.46328">
        <ele>111.9</ele>
        <time>2015-05-25T19:39:34.121Z</time>
      </trkpt>
      <trkpt lat="48.84226" lon="2.46318">
        <ele>111.9</ele>
        <time>2015-05-25T19:39:37.065Z</time>
      </trkpt>
      <trkpt lat="48.84225" lon="2.46317">
        <ele>110.6</ele>
        <time>2015-05-25T19:39:38.066Z</time>
      </trkpt>
      <trkpt lat="48.8422" lon="2.46314">
        <ele>107.7</ele>
        <time>2015-05-25T19:39:42.047Z</time>
      </trkpt>
      <trkpt lat="48.8422" lon="2.46316">
        <ele>106.5</ele>
        <time>2015-05-25T19:39:43.040Z</time>
      </trkpt>
      <trkpt lat="48.8422" lon="2.46316">
        <ele>106.3</ele>
        <time>2015-05-25T19:40:16.064Z</time>
      </trkpt>
      <trkpt lat="48.84221" lon="2.46317">
        <ele>104.7</ele>
        <time>2015-05-25T19:40:17.067Z</time>
      </trkpt>
      <trkpt lat="48.84225" lon="2.46311">
        <ele>104.7</ele>
        <time>2015-05-25T19:40:19.050Z</time>
      </trkpt>
      <trkpt lat="48.84228" lon="2.46308">
        <ele>104.8</ele>
        <time>2015-05-25T19:40:20.070Z</time>
      </trkpt>
      <trkpt lat="48.84236" lon="2.46301">
        <ele>104.9</ele>
        <time>2015-05-25T19:40:22.103Z</time>
      </trkpt>
      <trkpt lat="48.84239" lon="2.46297">
        <ele>105</ele>
        <time>2015-05-25T19:40:23.109Z</time>
      </trkpt>
      <trkpt lat="48.84244" lon="2.46288">
        <ele>105</ele>
        <time>2015-05-25T19:40:25.135Z</time>
      </trkpt>
      <trkpt lat="48.84246" lon="2.46284">
        <ele>105</ele>
        <time>2015-05-25T19:40:26.047Z</time>
      </trkpt>
      <trkpt lat="48.84251" lon="2.46274">
        <ele>105</ele>
        <time>2015-05-25T19:40:28.097Z</time>
      </trkpt>
      <trkpt lat="48.84253" lon="2.46269">
        <ele>105.1</ele>
        <time>2015-05-25T19:40:29.181Z</time>
      </trkpt>
      <trkpt lat="48.84258" lon="2.46257">
        <ele>105.1</ele>
        <time>2015-05-25T19:40:31.019Z</time>
      </trkpt>
      <trkpt lat="48.8426" lon="2.46252">
        <ele>105.2</ele>
        <time>2015-05-25T19:40:32.073Z</time>
      </trkpt>
      <trkpt lat="48.84262" lon="2.46244">
        <ele>105.3</ele>
        <time>2015-05-25T19:40:33.115Z</time>
      </trkpt>
      <trkpt lat="48.84264" lon="2.46237">
        <ele>105.2</ele>
        <time>2015-05-25T19:40:34.122Z</time>
      </trkpt>
      <trkpt lat="48.84267" lon="2.46228">
        <ele>105.1</ele>
        <time>2015-05-25T19:40:35.130Z</time>
      </trkpt>
      <trkpt lat="48.8427" lon="2.46219">
        <ele>104.8</ele>
        <time>2015-05-25T19:40:36.131Z</time>
      </trkpt>
      <trkpt lat="48.84272" lon="2.46209">
        <ele>104.6</ele>
        <time>2015-05-25T19:40:37.018Z</time>
      </trkpt>
      <trkpt lat="48.84274" lon="2.46199">
        <ele>104.5</ele>
        <time>2015-05-25T19:40:38.053Z</time>
      </trkpt>
      <trkpt lat="48.84276" lon="2.4619">
        <ele>104.5</ele>
        <time>2015-05-25T19:40:39.105Z</time>
      </trkpt>
      <trkpt lat="48.84278" lon="2.46179">
        <ele>104.7</ele>
        <time>2015-05-25T19:40:40.122Z</time>
      </trkpt>
      <trkpt lat="48.84278" lon="2.46167">
        <ele>104.9</ele>
        <time>2015-05-25T19:40:41.044Z</time>
      </trkpt>
      <trkpt lat="48.84279" lon="2.46155">
        <ele>104.6</ele>
        <time>2015-05-25T19:40:42.055Z</time>
      </trkpt>
      <trkpt lat="48.84281" lon="2.46144">
        <ele>104.3</ele>
        <time>2015-05-25T19:40:43.072Z</time>
      </trkpt>
      <trkpt lat="48.84282" lon="2.46132">
        <ele>104.1</ele>
        <time>2015-05-25T19:40:44.079Z</time>
      </trkpt>
      <trkpt lat="48.84284" lon="2.46121">
        <ele>103.7</ele>
        <time>2015-05-25T19:40:45.115Z</time>
      </trkpt>
      <trkpt lat="48.84286" lon="2.46111">
        <ele>103.5</ele>
        <time>2015-05-25T19:40:46.127Z</time>
      </trkpt>
      <trkpt lat="48.84288" lon="2.461">
        <ele>103.3</ele>
        <time>2015-05-25T19:40:47.048Z</time>
      </trkpt>
      <trkpt lat="48.84289" lon="2.46086">
        <ele>103.9</ele>
        <time>2015-05-25T19:40:48.021Z</time>
      </trkpt>
      <trkpt lat="48.84291" lon="2.46076">
        <ele>103.9</ele>
        <time>2015-05-25T19:40:49.045Z</time>
      </trkpt>
      <trkpt lat="48.84293" lon="2.46066">
        <ele>103.6</ele>
        <time>2015-05-25T19:40:50.052Z</time>
      </trkpt>
      <trkpt lat="48.84296" lon="2.46058">
        <ele>103.4</ele>
        <time>2015-05-25T19:40:51.060Z</time>
      </trkpt>
      <trkpt lat="48.84297" lon="2.46048">
        <ele>103.6</ele>
        <time>2015-05-25T19:40:52.073Z</time>
      </trkpt>
      <trkpt lat="48.84299" lon="2.46037">
        <ele>104.1</ele>
        <time>2015-05-25T19:40:53.091Z</time>
      </trkpt>
      <trkpt lat="48.84302" lon="2.46028">
        <ele>104.1</ele>
        <time>2015-05-25T19:40:54.101Z</time>
      </trkpt>
      <trkpt lat="48.84304" lon="2.46018">
        <ele>104.4</ele>
        <time>2015-05-25T19:40:55.127Z</time>
      </trkpt>
      <trkpt lat="48.84307" lon="2.46009">
        <ele>104.6</ele>
        <time>2015-05-25T19:40:56.139Z</time>
      </trkpt>
      <trkpt lat="48.8431" lon="2.46">
        <ele>104.5</ele>
        <time>2015-05-25T19:40:57.138Z</time>
      </trkpt>
      <trkpt lat="48.84313" lon="2.4599">
        <ele>104.7</ele>
        <time>2015-05-25T19:40:58.059Z</time>
      </trkpt>
      <trkpt lat="48.84315" lon="2.45981">
        <ele>104.5</ele>
        <time>2015-05-25T19:40:59.032Z</time>
      </trkpt>
      <trkpt lat="48.84318" lon="2.45972">
        <ele>104.6</ele>
        <time>2015-05-25T19:41:00.061Z</time>
      </trkpt>
      <trkpt lat="48.8432" lon="2.45963">
        <ele>104.5</ele>
        <time>2015-05-25T19:41:01.079Z</time>
      </trkpt>
      <trkpt lat="48.84323" lon="2.45954">
        <ele>104</ele>
        <time>2015-05-25T19:41:02.089Z</time>
      </trkpt>
      <trkpt lat="48.84325" lon="2.45944">
        <ele>103.6</ele>
        <time>2015-05-25T19:41:03.138Z</time>
      </trkpt>
      <trkpt lat="48.84327" lon="2.45933">
        <ele>103.6</ele>
        <time>2015-05-25T19:41:04.042Z</time>
      </trkpt>
      <trkpt lat="48.84328" lon="2.45921">
        <ele>104</ele>
        <time>2015-05-25T19:41:05.040Z</time>
      </trkpt>
      <trkpt lat="48.84329" lon="2.4591">
        <ele>104.4</ele>
        <time>2015-05-25T19:41:06.047Z</time>
      </trkpt>
      <trkpt lat="48.84331" lon="2.459">
        <ele>104.5</ele>
        <time>2015-05-25T19:41:07.058Z</time>
      </trkpt>
      <trkpt lat="48.84332" lon="2.45889">
        <ele>104.1</ele>
        <time>2015-05-25T19:41:08.078Z</time>
      </trkpt>
      <trkpt lat="48.84334" lon="2.45877">
        <ele>103.8</ele>
        <time>2015-05-25T19:41:09.138Z</time>
      </trkpt>
      <trkpt lat="48.84337" lon="2.45866">
        <ele>103.7</ele>
        <time>2015-05-25T19:41:10.042Z</time>
      </trkpt>
      <trkpt lat="48.8434" lon="2.45857">
        <ele>103.2</ele>
        <time>2015-05-25T19:41:11.048Z</time>
      </trkpt>
      <trkpt lat="48.84342" lon="2.45846">
        <ele>102.9</ele>
        <time>2015-05-25T19:41:12.062Z</time>
      </trkpt>
      <trkpt lat="48.84344" lon="2.45833">
        <ele>103.2</ele>
        <time>2015-05-25T19:41:13.072Z</time>
      </trkpt>
      <trkpt lat="48.84347" lon="2.45822">
        <ele>103.7</ele>
        <time>2015-05-25T19:41:14.103Z</time>
      </trkpt>
      <trkpt lat="48.8435" lon="2.45811">
        <ele>103.6</ele>
        <time>2015-05-25T19:41:15.123Z</time>
      </trkpt>
      <trkpt lat="48.84351" lon="2.45799">
        <ele>103.7</ele>
        <time>2015-05-25T19:41:16.043Z</time>
      </trkpt>
      <trkpt lat="48.84354" lon="2.45788">
        <ele>104.1</ele>
        <time>2015-05-25T19:41:17.034Z</time>
      </trkpt>
      <trkpt lat="48.84356" lon="2.45777">
        <ele>104.4</ele>
        <time>2015-05-25T19:41:18.040Z</time>
      </trkpt>
      <trkpt lat="48.84358" lon="2.45766">
        <ele>105.1</ele>
        <time>2015-05-25T19:41:19.057Z</time>
      </trkpt>
      <trkpt lat="48.84359" lon="2.45754">
        <ele>105.3</ele>
        <time>2015-05-25T19:41:20.068Z</time>
      </trkpt>
      <trkpt lat="48.84358" lon="2.45741">
        <ele>104.7</ele>
        <time>2015-05-25T19:41:21.131Z</time>
      </trkpt>
      <trkpt lat="48.84358" lon="2.45729">
        <ele>104</ele>
        <time>2015-05-25T19:41:22.118Z</time>
      </trkpt>
      <trkpt lat="48.84359" lon="2.45718">
        <ele>103.5</ele>
        <time>2015-05-25T19:41:23.132Z</time>
      </trkpt>
      <trkpt lat="48.8436" lon="2.45707">
        <ele>103.7</ele>
        <time>2015-05-25T19:41:24.042Z</time>
      </trkpt>
      <trkpt lat="48.84361" lon="2.45696">
        <ele>103.7</ele>
        <time>2015-05-25T19:41:25.051Z</time>
      </trkpt>
      <trkpt lat="48.84363" lon="2.45685">
        <ele>103.9</ele>
        <time>2015-05-25T19:41:26.063Z</time>
      </trkpt>
      <trkpt lat="48.84365" lon="2.45674">
        <ele>104.6</ele>
        <time>2015-05-25T19:41:27.085Z</time>
      </trkpt>
      <trkpt lat="48.84366" lon="2.45663">
        <ele>104.4</ele>
        <time>2015-05-25T19:41:28.092Z</time>
      </trkpt>
      <trkpt lat="48.84367" lon="2.45653">
        <ele>104.5</ele>
        <time>2015-05-25T19:41:29.101Z</time>
      </trkpt>
      <trkpt lat="48.8437" lon="2.45643">
        <ele>104.8</ele>
        <time>2015-05-25T19:41:30.104Z</time>
      </trkpt>
      <trkpt lat="48.84372" lon="2.45633">
        <ele>104.5</ele>
        <time>2015-05-25T19:41:31.112Z</time>
      </trkpt>
      <trkpt lat="48.84373" lon="2.45622">
        <ele>104.4</ele>
        <time>2015-05-25T19:41:32.119Z</time>
      </trkpt>
      <trkpt lat="48.84375" lon="2.45611">
        <ele>104.3</ele>
        <time>2015-05-25T19:41:33.137Z</time>
      </trkpt>
      <trkpt lat="48.84377" lon="2.45601">
        <ele>104.4</ele>
        <time>2015-05-25T19:41:34.039Z</time>
      </trkpt>
      <trkpt lat="48.84379" lon="2.45591">
        <ele>104.5</ele>
        <time>2015-05-25T19:41:35.073Z</time>
      </trkpt>
      <trkpt lat="48.84383" lon="2.45582">
        <ele>104.5</ele>
        <time>2015-05-25T19:41:36.073Z</time>
      </trkpt>
      <trkpt lat="48.84385" lon="2.45572">
        <ele>104.4</ele>
        <time>2015-05-25T19:41:37.070Z</time>
      </trkpt>
      <trkpt lat="48.84388" lon="2.45563">
        <ele>104.4</ele>
        <time>2015-05-25T19:41:38.075Z</time>
      </trkpt>
      <trkpt lat="48.8439" lon="2.45553">
        <ele>104.1</ele>
        <time>2015-05-25T19:41:39.087Z</time>
      </trkpt>
      <trkpt lat="48.84392" lon="2.45543">
        <ele>104</ele>
        <time>2015-05-25T19:41:40.094Z</time>
      </trkpt>
      <trkpt lat="48.84395" lon="2.45533">
        <ele>104.3</ele>
        <time>2015-05-25T19:41:41.107Z</time>
      </trkpt>
      <trkpt lat="48.84396" lon="2.45521">
        <ele>104.2</ele>
        <time>2015-05-25T19:41:42.120Z</time>
      </trkpt>
      <trkpt lat="48.84396" lon="2.45509">
        <ele>104.4</ele>
        <time>2015-05-25T19:41:43.135Z</time>
      </trkpt>
      <trkpt lat="48.84397" lon="2.45496">
        <ele>104.5</ele>
        <time>2015-05-25T19:41:44.034Z</time>
      </trkpt>
      <trkpt lat="48.84398" lon="2.45485">
        <ele>104.6</ele>
        <time>2015-05-25T19:41:45.091Z</time>
      </trkpt>
      <trkpt lat="48.844" lon="2.45473">
        <ele>103.7</ele>
        <time>2015-05-25T19:41:46.084Z</time>
      </trkpt>
      <trkpt lat="48.844" lon="2.4546">
        <ele>102.7</ele>
        <time>2015-05-25T19:41:47.082Z</time>
      </trkpt>
      <trkpt lat="48.84399" lon="2.45447">
        <ele>102.4</ele>
        <time>2015-05-25T19:41:48.094Z</time>
      </trkpt>
      <trkpt lat="48.844" lon="2.45436">
        <ele>102.2</ele>
        <time>2015-05-25T19:41:49.101Z</time>
      </trkpt>
      <trkpt lat="48.84401" lon="2.45425">
        <ele>102.2</ele>
        <time>2015-05-25T19:41:50.112Z</time>
      </trkpt>
      <trkpt lat="48.84402" lon="2.45414">
        <ele>102</ele>
        <time>2015-05-25T19:41:51.142Z</time>
      </trkpt>
      <trkpt lat="48.84403" lon="2.45403">
        <ele>101.8</ele>
        <time>2015-05-25T19:41:52.057Z</time>
      </trkpt>
      <trkpt lat="48.84405" lon="2.45393">
        <ele>102</ele>
        <time>2015-05-25T19:41:53.062Z</time>
      </trkpt>
      <trkpt lat="48.84407" lon="2.45383">
        <ele>102.1</ele>
        <time>2015-05-25T19:41:54.080Z</time>
      </trkpt>
      <trkpt lat="48.84408" lon="2.45373">
        <ele>101.8</ele>
        <time>2015-05-25T19:41:55.089Z</time>
      </trkpt>
      <trkpt lat="48.84409" lon="2.45361">
        <ele>102</ele>
        <time>2015-05-25T19:41:56.092Z</time>
      </trkpt>
      <trkpt lat="48.8441" lon="2.45351">
        <ele>102.3</ele>
        <time>2015-05-25T19:41:57.103Z</time>
      </trkpt>
      <trkpt lat="48.84411" lon="2.45342">
        <ele>102.1</ele>
        <time>2015-05-25T19:41:58.105Z</time>
      </trkpt>
      <trkpt lat="48.84412" lon="2.45332">
        <ele>102.2</ele>
        <time>2015-05-25T19:41:59.015Z</time>
      </trkpt>
      <trkpt lat="48.84413" lon="2.45321">
        <ele>101.6</ele>
        <time>2015-05-25T19:42:00.119Z</time>
      </trkpt>
      <trkpt lat="48.84414" lon="2.45311">
        <ele>101.7</ele>
        <time>2015-05-25T19:42:01.037Z</time>
      </trkpt>
      <trkpt lat="48.84415" lon="2.453">
        <ele>102.1</ele>
        <time>2015-05-25T19:42:02.034Z</time>
      </trkpt>
      <trkpt lat="48.84416" lon="2.45289">
        <ele>102.1</ele>
        <time>2015-05-25T19:42:03.087Z</time>
      </trkpt>
      <trkpt lat="48.84417" lon="2.45278">
        <ele>102.3</ele>
        <time>2015-05-25T19:42:04.084Z</time>
      </trkpt>
      <trkpt lat="48.84417" lon="2.45265">
        <ele>102.6</ele>
        <time>2015-05-25T19:42:05.092Z</time>
      </trkpt>
      <trkpt lat="48.84418" lon="2.45253">
        <ele>102.8</ele>
        <time>2015-05-25T19:42:06.095Z</time>
      </trkpt>
      <trkpt lat="48.84419" lon="2.45242">
        <ele>102.4</ele>
        <time>2015-05-25T19:42:07.126Z</time>
      </trkpt>
      <trkpt lat="48.84419" lon="2.4523">
        <ele>102.3</ele>
        <time>2015-05-25T19:42:08.042Z</time>
      </trkpt>
      <trkpt lat="48.8442" lon="2.45219">
        <ele>102.5</ele>
        <time>2015-05-25T19:42:09.087Z</time>
      </trkpt>
      <trkpt lat="48.84421" lon="2.45207">
        <ele>102.2</ele>
        <time>2015-05-25T19:42:10.096Z</time>
      </trkpt>
      <trkpt lat="48.84423" lon="2.45196">
        <ele>101.5</ele>
        <time>2015-05-25T19:42:11.105Z</time>
      </trkpt>
      <trkpt lat="48.84425" lon="2.45185">
        <ele>101.8</ele>
        <time>2015-05-25T19:42:12.111Z</time>
      </trkpt>
      <trkpt lat="48.84427" lon="2.45174">
        <ele>101.5</ele>
        <time>2015-05-25T19:42:13.117Z</time>
      </trkpt>
      <trkpt lat="48.84429" lon="2.45165">
        <ele>101.1</ele>
        <time>2015-05-25T19:42:14.038Z</time>
      </trkpt>
      <trkpt lat="48.84431" lon="2.45156">
        <ele>101.5</ele>
        <time>2015-05-25T19:42:15.088Z</time>
      </trkpt>
      <trkpt lat="48.84433" lon="2.45147">
        <ele>101.8</ele>
        <time>2015-05-25T19:42:16.099Z</time>
      </trkpt>
      <trkpt lat="48.84434" lon="2.45138">
        <ele>101.8</ele>
        <time>2015-05-25T19:42:17.110Z</time>
      </trkpt>
      <trkpt lat="48.84435" lon="2.4513">
        <ele>101.5</ele>
        <time>2015-05-25T19:42:18.123Z</time>
      </trkpt>
      <trkpt lat="48.84436" lon="2.45122">
        <ele>101.5</ele>
        <time>2015-05-25T19:42:19.045Z</time>
      </trkpt>
      <trkpt lat="48.84437" lon="2.45115">
        <ele>101.4</ele>
        <time>2015-05-25T19:42:20.044Z</time>
      </trkpt>
      <trkpt lat="48.84439" lon="2.45108">
        <ele>101.4</ele>
        <time>2015-05-25T19:42:21.080Z</time>
      </trkpt>
      <trkpt lat="48.84439" lon="2.45101">
        <ele>101.5</ele>
        <time>2015-05-25T19:42:22.096Z</time>
      </trkpt>
      <trkpt lat="48.84441" lon="2.4509">
        <ele>101.7</ele>
        <time>2015-05-25T19:42:24.119Z</time>
      </trkpt>
      <trkpt lat="48.84441" lon="2.45086">
        <ele>101.7</ele>
        <time>2015-05-25T19:42:25.127Z</time>
      </trkpt>
      <trkpt lat="48.84448" lon="2.45083">
        <ele>101.6</ele>
        <time>2015-05-25T19:42:28.146Z</time>
      </trkpt>
      <trkpt lat="48.84451" lon="2.45084">
        <ele>102</ele>
        <time>2015-05-25T19:42:29.038Z</time>
      </trkpt>
      <trkpt lat="48.8445" lon="2.45086">
        <ele>102.2</ele>
        <time>2015-05-25T19:43:20.098Z</time>
      </trkpt>
      <trkpt lat="48.84442" lon="2.451">
        <ele>109.9</ele>
        <time>2015-05-25T19:43:21.120Z</time>
      </trkpt>
      <trkpt lat="48.84437" lon="2.45098">
        <ele>109.5</ele>
        <time>2015-05-25T19:45:07.047Z</time>
      </trkpt>
      <trkpt lat="48.84456" lon="2.45085">
        <ele>109.3</ele>
        <time>2015-05-25T19:45:08.072Z</time>
      </trkpt>
      <trkpt lat="48.84456" lon="2.45073">
        <ele>108.9</ele>
        <time>2015-05-25T19:45:11.067Z</time>
      </trkpt>
      <trkpt lat="48.84457" lon="2.45068">
        <ele>108.6</ele>
        <time>2015-05-25T19:45:12.130Z</time>
      </trkpt>
      <trkpt lat="48.84458" lon="2.45058">
        <ele>108.3</ele>
        <time>2015-05-25T19:45:14.030Z</time>
      </trkpt>
      <trkpt lat="48.84458" lon="2.45053">
        <ele>108.3</ele>
        <time>2015-05-25T19:45:15.072Z</time>
      </trkpt>
      <trkpt lat="48.84457" lon="2.4504">
        <ele>107.8</ele>
        <time>2015-05-25T19:45:18.014Z</time>
      </trkpt>
      <trkpt lat="48.84456" lon="2.45035">
        <ele>107.6</ele>
        <time>2015-05-25T19:45:19.051Z</time>
      </trkpt>
      <trkpt lat="48.84457" lon="2.45023">
        <ele>108</ele>
        <time>2015-05-25T19:45:24.047Z</time>
      </trkpt>
      <trkpt lat="48.84457" lon="2.45021">
        <ele>108</ele>
        <time>2015-05-25T19:45:25.072Z</time>
      </trkpt>
      <trkpt lat="48.84457" lon="2.45012">
        <ele>107.4</ele>
        <time>2015-05-25T19:45:43.014Z</time>
      </trkpt>
      <trkpt lat="48.8446" lon="2.45008">
        <ele>106.4</ele>
        <time>2015-05-25T19:45:44.020Z</time>
      </trkpt>
      <trkpt lat="48.8446" lon="2.44998">
        <ele>106.1</ele>
        <time>2015-05-25T19:45:47.065Z</time>
      </trkpt>
      <trkpt lat="48.84462" lon="2.44994">
        <ele>106.4</ele>
        <time>2015-05-25T19:45:48.079Z</time>
      </trkpt>
      <trkpt lat="48.84464" lon="2.44981">
        <ele>106.3</ele>
        <time>2015-05-25T19:45:51.097Z</time>
      </trkpt>
      <trkpt lat="48.84464" lon="2.44976">
        <ele>106.4</ele>
        <time>2015-05-25T19:45:52.027Z</time>
      </trkpt>
      <trkpt lat="48.84464" lon="2.44965">
        <ele>106.4</ele>
        <time>2015-05-25T19:45:54.042Z</time>
      </trkpt>
      <trkpt lat="48.84464" lon="2.4496">
        <ele>106.6</ele>
        <time>2015-05-25T19:45:55.084Z</time>
      </trkpt>
      <trkpt lat="48.84465" lon="2.44948">
        <ele>106.7</ele>
        <time>2015-05-25T19:45:57.173Z</time>
      </trkpt>
      <trkpt lat="48.84465" lon="2.44941">
        <ele>106.4</ele>
        <time>2015-05-25T19:45:58.032Z</time>
      </trkpt>
      <trkpt lat="48.84464" lon="2.44933">
        <ele>106.2</ele>
        <time>2015-05-25T19:45:59.043Z</time>
      </trkpt>
      <trkpt lat="48.84464" lon="2.44925">
        <ele>105.9</ele>
        <time>2015-05-25T19:46:00.126Z</time>
      </trkpt>
      <trkpt lat="48.84465" lon="2.44918">
        <ele>105.4</ele>
        <time>2015-05-25T19:46:01.066Z</time>
      </trkpt>
      <trkpt lat="48.84465" lon="2.44911">
        <ele>104.9</ele>
        <time>2015-05-25T19:46:02.078Z</time>
      </trkpt>
      <trkpt lat="48.84466" lon="2.44904">
        <ele>105.1</ele>
        <time>2015-05-25T19:46:03.094Z</time>
      </trkpt>
      <trkpt lat="48.84467" lon="2.44897">
        <ele>105.2</ele>
        <time>2015-05-25T19:46:04.109Z</time>
      </trkpt>
      <trkpt lat="48.8447" lon="2.44885">
        <ele>105</ele>
        <time>2015-05-25T19:46:06.046Z</time>
      </trkpt>
      <trkpt lat="48.84471" lon="2.44879">
        <ele>105</ele>
        <time>2015-05-25T19:46:07.171Z</time>
      </trkpt>
      <trkpt lat="48.84474" lon="2.44866">
        <ele>105.1</ele>
        <time>2015-05-25T19:46:09.074Z</time>
      </trkpt>
      <trkpt lat="48.84475" lon="2.4486">
        <ele>104.8</ele>
        <time>2015-05-25T19:46:10.124Z</time>
      </trkpt>
      <trkpt lat="48.84476" lon="2.44847">
        <ele>104.5</ele>
        <time>2015-05-25T19:46:12.050Z</time>
      </trkpt>
      <trkpt lat="48.84476" lon="2.4484">
        <ele>104.2</ele>
        <time>2015-05-25T19:46:13.133Z</time>
      </trkpt>
      <trkpt lat="48.84476" lon="2.44827">
        <ele>103.9</ele>
        <time>2015-05-25T19:46:15.088Z</time>
      </trkpt>
      <trkpt lat="48.84478" lon="2.44822">
        <ele>103.6</ele>
        <time>2015-05-25T19:46:16.103Z</time>
      </trkpt>
      <trkpt lat="48.8448" lon="2.4481">
        <ele>103.1</ele>
        <time>2015-05-25T19:46:18.047Z</time>
      </trkpt>
      <trkpt lat="48.84481" lon="2.44804">
        <ele>102.9</ele>
        <time>2015-05-25T19:46:19.279Z</time>
      </trkpt>
      <trkpt lat="48.84481" lon="2.44797">
        <ele>103.3</ele>
        <time>2015-05-25T19:46:20.123Z</time>
      </trkpt>
      <trkpt lat="48.84483" lon="2.44789">
        <ele>103.2</ele>
        <time>2015-05-25T19:46:21.132Z</time>
      </trkpt>
      <trkpt lat="48.84482" lon="2.44782">
        <ele>103</ele>
        <time>2015-05-25T19:46:22.016Z</time>
      </trkpt>
      <trkpt lat="48.84483" lon="2.44774">
        <ele>102.9</ele>
        <time>2015-05-25T19:46:23.041Z</time>
      </trkpt>
      <trkpt lat="48.84483" lon="2.44766">
        <ele>102.8</ele>
        <time>2015-05-25T19:46:24.060Z</time>
      </trkpt>
      <trkpt lat="48.84484" lon="2.44759">
        <ele>102.5</ele>
        <time>2015-05-25T19:46:25.068Z</time>
      </trkpt>
      <trkpt lat="48.84485" lon="2.44752">
        <ele>102.6</ele>
        <time>2015-05-25T19:46:26.085Z</time>
      </trkpt>
      <trkpt lat="48.84486" lon="2.44743">
        <ele>102.6</ele>
        <time>2015-05-25T19:46:27.087Z</time>
      </trkpt>
      <trkpt lat="48.84486" lon="2.44734">
        <ele>102.7</ele>
        <time>2015-05-25T19:46:28.129Z</time>
      </trkpt>
      <trkpt lat="48.84486" lon="2.44725">
        <ele>102.7</ele>
        <time>2015-05-25T19:46:29.115Z</time>
      </trkpt>
      <trkpt lat="48.84487" lon="2.44717">
        <ele>102.5</ele>
        <time>2015-05-25T19:46:30.052Z</time>
      </trkpt>
      <trkpt lat="48.84487" lon="2.44709">
        <ele>102.4</ele>
        <time>2015-05-25T19:46:31.033Z</time>
      </trkpt>
      <trkpt lat="48.84488" lon="2.44696">
        <ele>101.9</ele>
        <time>2015-05-25T19:46:33.077Z</time>
      </trkpt>
      <trkpt lat="48.84488" lon="2.44689">
        <ele>101.8</ele>
        <time>2015-05-25T19:46:34.094Z</time>
      </trkpt>
      <trkpt lat="48.84487" lon="2.44677">
        <ele>101.8</ele>
        <time>2015-05-25T19:46:36.042Z</time>
      </trkpt>
      <trkpt lat="48.84489" lon="2.44673">
        <ele>101.9</ele>
        <time>2015-05-25T19:46:37.119Z</time>
      </trkpt>
      <trkpt lat="48.84493" lon="2.44664">
        <ele>102.3</ele>
        <time>2015-05-25T19:46:39.134Z</time>
      </trkpt>
      <trkpt lat="48.84495" lon="2.44661">
        <ele>102.6</ele>
        <time>2015-05-25T19:46:40.259Z</time>
      </trkpt>
      <trkpt lat="48.84501" lon="2.44655">
        <ele>102.7</ele>
        <time>2015-05-25T19:46:42.122Z</time>
      </trkpt>
      <trkpt lat="48.84506" lon="2.44657">
        <ele>101.8</ele>
        <time>2015-05-25T19:46:43.124Z</time>
      </trkpt>
      <trkpt lat="48.84512" lon="2.44659">
        <ele>101.6</ele>
        <time>2015-05-25T19:46:45.076Z</time>
      </trkpt>
      <trkpt lat="48.84516" lon="2.44659">
        <ele>101.7</ele>
        <time>2015-05-25T19:46:46.099Z</time>
      </trkpt>
      <trkpt lat="48.84523" lon="2.44659">
        <ele>101.5</ele>
        <time>2015-05-25T19:46:48.044Z</time>
      </trkpt>
      <trkpt lat="48.84526" lon="2.44659">
        <ele>101.1</ele>
        <time>2015-05-25T19:46:49.062Z</time>
      </trkpt>
      <trkpt lat="48.84535" lon="2.4466">
        <ele>100.3</ele>
        <time>2015-05-25T19:46:52.121Z</time>
      </trkpt>
      <trkpt lat="48.84538" lon="2.44661">
        <ele>100.1</ele>
        <time>2015-05-25T19:46:53.128Z</time>
      </trkpt>
      <trkpt lat="48.84544" lon="2.44661">
        <ele>100.9</ele>
        <time>2015-05-25T19:46:55.053Z</time>
      </trkpt>
      <trkpt lat="48.84548" lon="2.44661">
        <ele>101.2</ele>
        <time>2015-05-25T19:46:56.065Z</time>
      </trkpt>
      <trkpt lat="48.84557" lon="2.4466">
        <ele>101.3</ele>
        <time>2015-05-25T19:46:58.097Z</time>
      </trkpt>
      <trkpt lat="48.84561" lon="2.44659">
        <ele>100.7</ele>
        <time>2015-05-25T19:46:59.042Z</time>
      </trkpt>
      <trkpt lat="48.84569" lon="2.44657">
        <ele>100.1</ele>
        <time>2015-05-25T19:47:01.062Z</time>
      </trkpt>
      <trkpt lat="48.84572" lon="2.44654">
        <ele>100.2</ele>
        <time>2015-05-25T19:47:02.087Z</time>
      </trkpt>
      <trkpt lat="48.84576" lon="2.44648">
        <ele>99.7</ele>
        <time>2015-05-25T19:47:04.034Z</time>
      </trkpt>
      <trkpt lat="48.84576" lon="2.44642">
        <ele>99.9</ele>
        <time>2015-05-25T19:47:05.069Z</time>
      </trkpt>
      <trkpt lat="48.84578" lon="2.44631">
        <ele>100.9</ele>
        <time>2015-05-25T19:47:07.042Z</time>
      </trkpt>
      <trkpt lat="48.84579" lon="2.44625">
        <ele>101.2</ele>
        <time>2015-05-25T19:47:08.061Z</time>
      </trkpt>
      <trkpt lat="48.84579" lon="2.44613">
        <ele>100.8</ele>
        <time>2015-05-25T19:47:10.113Z</time>
      </trkpt>
      <trkpt lat="48.84579" lon="2.44605">
        <ele>100.9</ele>
        <time>2015-05-25T19:47:11.130Z</time>
      </trkpt>
      <trkpt lat="48.84579" lon="2.44597">
        <ele>100.9</ele>
        <time>2015-05-25T19:47:12.042Z</time>
      </trkpt>
      <trkpt lat="48.84578" lon="2.4459">
        <ele>100.9</ele>
        <time>2015-05-25T19:47:13.064Z</time>
      </trkpt>
      <trkpt lat="48.8458" lon="2.44578">
        <ele>101.7</ele>
        <time>2015-05-25T19:47:15.078Z</time>
      </trkpt>
      <trkpt lat="48.84582" lon="2.44571">
        <ele>102</ele>
        <time>2015-05-25T19:47:16.100Z</time>
      </trkpt>
      <trkpt lat="48.84583" lon="2.44564">
        <ele>102.3</ele>
        <time>2015-05-25T19:47:17.047Z</time>
      </trkpt>
      <trkpt lat="48.84583" lon="2.44557">
        <ele>102.3</ele>
        <time>2015-05-25T19:47:18.052Z</time>
      </trkpt>
      <trkpt lat="48.84584" lon="2.4455">
        <ele>102.5</ele>
        <time>2015-05-25T19:47:19.046Z</time>
      </trkpt>
      <trkpt lat="48.84583" lon="2.44543">
        <ele>103.1</ele>
        <time>2015-05-25T19:47:20.027Z</time>
      </trkpt>
      <trkpt lat="48.84583" lon="2.44535">
        <ele>103.8</ele>
        <time>2015-05-25T19:47:21.090Z</time>
      </trkpt>
      <trkpt lat="48.84583" lon="2.44527">
        <ele>103.8</ele>
        <time>2015-05-25T19:47:22.080Z</time>
      </trkpt>
      <trkpt lat="48.84584" lon="2.4452">
        <ele>103.4</ele>
        <time>2015-05-25T19:47:21.865Z</time>
      </trkpt>
      <trkpt lat="48.84583" lon="2.44513">
        <ele>103.5</ele>
        <time>2015-05-25T19:47:24.096Z</time>
      </trkpt>
      <trkpt lat="48.84585" lon="2.445">
        <ele>103.6</ele>
        <time>2015-05-25T19:47:26.927Z</time>
      </trkpt>
      <trkpt lat="48.84585" lon="2.44495">
        <ele>103.5</ele>
        <time>2015-05-25T19:47:27.125Z</time>
      </trkpt>
      <trkpt lat="48.84587" lon="2.44487">
        <ele>102.6</ele>
        <time>2015-05-25T19:47:29.045Z</time>
      </trkpt>
      <trkpt lat="48.84587" lon="2.44482">
        <ele>102.1</ele>
        <time>2015-05-25T19:47:30.062Z</time>
      </trkpt>
      <trkpt lat="48.84588" lon="2.44469">
        <ele>101.7</ele>
        <time>2015-05-25T19:47:32.049Z</time>
      </trkpt>
      <trkpt lat="48.8459" lon="2.44464">
        <ele>101.5</ele>
        <time>2015-05-25T19:47:33.106Z</time>
      </trkpt>
      <trkpt lat="48.8459" lon="2.44456">
        <ele>101.5</ele>
        <time>2015-05-25T19:47:34.134Z</time>
      </trkpt>
      <trkpt lat="48.84588" lon="2.44448">
        <ele>101.3</ele>
        <time>2015-05-25T19:47:35.009Z</time>
      </trkpt>
      <trkpt lat="48.84589" lon="2.44436">
        <ele>101.2</ele>
        <time>2015-05-25T19:47:37.062Z</time>
      </trkpt>
      <trkpt lat="48.84589" lon="2.44429">
        <ele>101.3</ele>
        <time>2015-05-25T19:47:38.070Z</time>
      </trkpt>
      <trkpt lat="48.8459" lon="2.44422">
        <ele>101.3</ele>
        <time>2015-05-25T19:47:39.073Z</time>
      </trkpt>
      <trkpt lat="48.84592" lon="2.44414">
        <ele>100.9</ele>
        <time>2015-05-25T19:47:40.079Z</time>
      </trkpt>
      <trkpt lat="48.84591" lon="2.44407">
        <ele>101.2</ele>
        <time>2015-05-25T19:47:41.093Z</time>
      </trkpt>
      <trkpt lat="48.84591" lon="2.444">
        <ele>100.8</ele>
        <time>2015-05-25T19:47:42.103Z</time>
      </trkpt>
      <trkpt lat="48.84591" lon="2.44392">
        <ele>100.5</ele>
        <time>2015-05-25T19:47:43.109Z</time>
      </trkpt>
      <trkpt lat="48.84591" lon="2.44386">
        <ele>100.7</ele>
        <time>2015-05-25T19:47:44.113Z</time>
      </trkpt>
      <trkpt lat="48.84592" lon="2.44373">
        <ele>100.7</ele>
        <time>2015-05-25T19:47:46.125Z</time>
      </trkpt>
      <trkpt lat="48.84592" lon="2.44366">
        <ele>101</ele>
        <time>2015-05-25T19:47:47.089Z</time>
      </trkpt>
      <trkpt lat="48.84592" lon="2.4436">
        <ele>101.4</ele>
        <time>2015-05-25T19:47:48.105Z</time>
      </trkpt>
      <trkpt lat="48.84592" lon="2.44352">
        <ele>101.7</ele>
        <time>2015-05-25T19:47:49.103Z</time>
      </trkpt>
      <trkpt lat="48.84591" lon="2.44344">
        <ele>102</ele>
        <time>2015-05-25T19:47:50.239Z</time>
      </trkpt>
      <trkpt lat="48.84591" lon="2.44334">
        <ele>102.3</ele>
        <time>2015-05-25T19:47:51.115Z</time>
      </trkpt>
      <trkpt lat="48.8459" lon="2.44324">
        <ele>102.7</ele>
        <time>2015-05-25T19:47:52.049Z</time>
      </trkpt>
      <trkpt lat="48.84589" lon="2.44314">
        <ele>103</ele>
        <time>2015-05-25T19:47:53.042Z</time>
      </trkpt>
      <trkpt lat="48.84589" lon="2.44304">
        <ele>102.9</ele>
        <time>2015-05-25T19:47:54.061Z</time>
      </trkpt>
      <trkpt lat="48.84588" lon="2.44295">
        <ele>102.6</ele>
        <time>2015-05-25T19:47:55.060Z</time>
      </trkpt>
      <trkpt lat="48.84588" lon="2.44285">
        <ele>102.7</ele>
        <time>2015-05-25T19:47:56.066Z</time>
      </trkpt>
      <trkpt lat="48.84587" lon="2.44277">
        <ele>102.8</ele>
        <time>2015-05-25T19:47:57.110Z</time>
      </trkpt>
      <trkpt lat="48.84589" lon="2.4427">
        <ele>102.7</ele>
        <time>2015-05-25T19:47:58.152Z</time>
      </trkpt>
      <trkpt lat="48.8459" lon="2.44263">
        <ele>102.7</ele>
        <time>2015-05-25T19:47:59.047Z</time>
      </trkpt>
      <trkpt lat="48.84591" lon="2.4425">
        <ele>102.1</ele>
        <time>2015-05-25T19:48:01.085Z</time>
      </trkpt>
      <trkpt lat="48.84591" lon="2.44244">
        <ele>102</ele>
        <time>2015-05-25T19:48:02.098Z</time>
      </trkpt>
      <trkpt lat="48.84591" lon="2.44232">
        <ele>101.8</ele>
        <time>2015-05-25T19:48:04.030Z</time>
      </trkpt>
      <trkpt lat="48.84591" lon="2.44225">
        <ele>101.9</ele>
        <time>2015-05-25T19:48:05.052Z</time>
      </trkpt>
      <trkpt lat="48.84591" lon="2.44217">
        <ele>101.8</ele>
        <time>2015-05-25T19:48:06.065Z</time>
      </trkpt>
      <trkpt lat="48.84591" lon="2.44208">
        <ele>101.6</ele>
        <time>2015-05-25T19:48:07.071Z</time>
      </trkpt>
      <trkpt lat="48.84591" lon="2.44199">
        <ele>101.6</ele>
        <time>2015-05-25T19:48:08.083Z</time>
      </trkpt>
      <trkpt lat="48.84591" lon="2.4419">
        <ele>101.8</ele>
        <time>2015-05-25T19:48:09.085Z</time>
      </trkpt>
      <trkpt lat="48.84591" lon="2.44181">
        <ele>101.9</ele>
        <time>2015-05-25T19:48:10.103Z</time>
      </trkpt>
      <trkpt lat="48.84591" lon="2.44174">
        <ele>102.3</ele>
        <time>2015-05-25T19:48:11.015Z</time>
      </trkpt>
      <trkpt lat="48.8459" lon="2.44167">
        <ele>102.6</ele>
        <time>2015-05-25T19:48:12.071Z</time>
      </trkpt>
      <trkpt lat="48.84589" lon="2.44159">
        <ele>102.5</ele>
        <time>2015-05-25T19:48:13.104Z</time>
      </trkpt>
      <trkpt lat="48.84588" lon="2.44152">
        <ele>102.6</ele>
        <time>2015-05-25T19:48:14.088Z</time>
      </trkpt>
      <trkpt lat="48.84588" lon="2.44145">
        <ele>102.5</ele>
        <time>2015-05-25T19:48:15.097Z</time>
      </trkpt>
      <trkpt lat="48.8459" lon="2.44133">
        <ele>101.1</ele>
        <time>2015-05-25T19:48:17.013Z</time>
      </trkpt>
      <trkpt lat="48.8459" lon="2.44126">
        <ele>100.7</ele>
        <time>2015-05-25T19:48:18.032Z</time>
      </trkpt>
      <trkpt lat="48.84593" lon="2.44115">
        <ele>100.6</ele>
        <time>2015-05-25T19:48:20.062Z</time>
      </trkpt>
      <trkpt lat="48.84594" lon="2.44108">
        <ele>101.3</ele>
        <time>2015-05-25T19:48:21.092Z</time>
      </trkpt>
      <trkpt lat="48.84596" lon="2.44096">
        <ele>101.5</ele>
        <time>2015-05-25T19:48:23.110Z</time>
      </trkpt>
      <trkpt lat="48.84595" lon="2.44087">
        <ele>101.9</ele>
        <time>2015-05-25T19:48:24.078Z</time>
      </trkpt>
      <trkpt lat="48.84595" lon="2.44079">
        <ele>102.3</ele>
        <time>2015-05-25T19:48:25.038Z</time>
      </trkpt>
      <trkpt lat="48.84596" lon="2.44071">
        <ele>102.5</ele>
        <time>2015-05-25T19:48:26.041Z</time>
      </trkpt>
      <trkpt lat="48.84598" lon="2.44064">
        <ele>102.1</ele>
        <time>2015-05-25T19:48:27.076Z</time>
      </trkpt>
      <trkpt lat="48.84601" lon="2.44059">
        <ele>101.9</ele>
        <time>2015-05-25T19:48:28.086Z</time>
      </trkpt>
      <trkpt lat="48.84603" lon="2.44051">
        <ele>101.9</ele>
        <time>2015-05-25T19:48:29.097Z</time>
      </trkpt>
      <trkpt lat="48.84604" lon="2.44044">
        <ele>102.1</ele>
        <time>2015-05-25T19:48:30.109Z</time>
      </trkpt>
      <trkpt lat="48.84606" lon="2.44037">
        <ele>101.2</ele>
        <time>2015-05-25T19:48:31.036Z</time>
      </trkpt>
      <trkpt lat="48.84607" lon="2.44031">
        <ele>101.1</ele>
        <time>2015-05-25T19:48:32.039Z</time>
      </trkpt>
      <trkpt lat="48.84609" lon="2.44018">
        <ele>101.5</ele>
        <time>2015-05-25T19:48:34.131Z</time>
      </trkpt>
      <trkpt lat="48.84608" lon="2.44011">
        <ele>101.8</ele>
        <time>2015-05-25T19:48:35.053Z</time>
      </trkpt>
      <trkpt lat="48.84608" lon="2.44001">
        <ele>101.9</ele>
        <time>2015-05-25T19:48:37.087Z</time>
      </trkpt>
      <trkpt lat="48.84607" lon="2.43996">
        <ele>102.1</ele>
        <time>2015-05-25T19:48:38.105Z</time>
      </trkpt>
      <trkpt lat="48.84601" lon="2.43987">
        <ele>101.5</ele>
        <time>2015-05-25T19:48:41.110Z</time>
      </trkpt>
      <trkpt lat="48.84599" lon="2.43985">
        <ele>101.1</ele>
        <time>2015-05-25T19:48:42.100Z</time>
      </trkpt>
      <trkpt lat="48.84604" lon="2.43974">
        <ele>103.5</ele>
        <time>2015-05-25T19:51:07.139Z</time>
      </trkpt>
      <trkpt lat="48.84603" lon="2.43971">
        <ele>103.6</ele>
        <time>2015-05-25T19:51:08.056Z</time>
      </trkpt>
      <trkpt lat="48.84597" lon="2.43967">
        <ele>103.1</ele>
        <time>2015-05-25T19:51:11.067Z</time>
      </trkpt>
      <trkpt lat="48.84594" lon="2.43967">
        <ele>102.8</ele>
        <time>2015-05-25T19:51:12.128Z</time>
      </trkpt>
      <trkpt lat="48.84586" lon="2.43964">
        <ele>102.4</ele>
        <time>2015-05-25T19:51:15.154Z</time>
      </trkpt>
      <trkpt lat="48.84584" lon="2.43963">
        <ele>102.3</ele>
        <time>2015-05-25T19:51:16.057Z</time>
      </trkpt>
      <trkpt lat="48.84576" lon="2.43962">
        <ele>102.8</ele>
        <time>2015-05-25T19:51:19.074Z</time>
      </trkpt>
      <trkpt lat="48.84574" lon="2.43962">
        <ele>103</ele>
        <time>2015-05-25T19:51:20.073Z</time>
      </trkpt>
      <trkpt lat="48.84567" lon="2.43956">
        <ele>103.5</ele>
        <time>2015-05-25T19:51:23.114Z</time>
      </trkpt>
      <trkpt lat="48.84566" lon="2.43954">
        <ele>103.6</ele>
        <time>2015-05-25T19:51:24.011Z</time>
      </trkpt>
      <trkpt lat="48.84564" lon="2.43942">
        <ele>103.1</ele>
        <time>2015-05-25T19:51:27.084Z</time>
      </trkpt>
      <trkpt lat="48.84564" lon="2.43937">
        <ele>102.5</ele>
        <time>2015-05-25T19:51:28.086Z</time>
      </trkpt>
      <trkpt lat="48.84558" lon="2.43929">
        <ele>102.2</ele>
        <time>2015-05-25T19:51:32.130Z</time>
      </trkpt>
      <trkpt lat="48.84555" lon="2.43927">
        <ele>102.2</ele>
        <time>2015-05-25T19:51:33.139Z</time>
      </trkpt>
      <trkpt lat="48.8455" lon="2.43918">
        <ele>102.3</ele>
        <time>2015-05-25T19:51:36.142Z</time>
      </trkpt>
      <trkpt lat="48.84548" lon="2.43914">
        <ele>102.3</ele>
        <time>2015-05-25T19:51:37.157Z</time>
      </trkpt>
      <trkpt lat="48.8454" lon="2.43909">
        <ele>102.2</ele>
        <time>2015-05-25T19:51:41.047Z</time>
      </trkpt>
      <trkpt lat="48.84538" lon="2.43909">
        <ele>102.2</ele>
        <time>2015-05-25T19:51:42.073Z</time>
      </trkpt>
      <trkpt lat="48.84533" lon="2.43898">
        <ele>102.2</ele>
        <time>2015-05-25T19:51:46.060Z</time>
      </trkpt>
      <trkpt lat="48.84533" lon="2.43896">
        <ele>102.6</ele>
        <time>2015-05-25T19:51:47.067Z</time>
      </trkpt>
      <trkpt lat="48.84526" lon="2.43892">
        <ele>103.7</ele>
        <time>2015-05-25T19:51:55.087Z</time>
      </trkpt>
      <trkpt lat="48.84524" lon="2.43891">
        <ele>104.5</ele>
        <time>2015-05-25T19:51:56.111Z</time>
      </trkpt>
      <trkpt lat="48.84516" lon="2.43889">
        <ele>105.4</ele>
        <time>2015-05-25T19:51:59.070Z</time>
      </trkpt>
      <trkpt lat="48.84513" lon="2.43887">
        <ele>105.5</ele>
        <time>2015-05-25T19:52:00.177Z</time>
      </trkpt>
      <trkpt lat="48.84506" lon="2.43886">
        <ele>105.2</ele>
        <time>2015-05-25T19:52:03.118Z</time>
      </trkpt>
      <trkpt lat="48.84503" lon="2.43887">
        <ele>105.1</ele>
        <time>2015-05-25T19:52:04.032Z</time>
      </trkpt>
      <trkpt lat="48.84495" lon="2.43885">
        <ele>104.6</ele>
        <time>2015-05-25T19:52:07.064Z</time>
      </trkpt>
      <trkpt lat="48.84492" lon="2.43885">
        <ele>104.6</ele>
        <time>2015-05-25T19:52:08.138Z</time>
      </trkpt>
      <trkpt lat="48.84484" lon="2.43884">
        <ele>104.4</ele>
        <time>2015-05-25T19:52:11.054Z</time>
      </trkpt>
      <trkpt lat="48.84481" lon="2.43883">
        <ele>104.6</ele>
        <time>2015-05-25T19:52:12.091Z</time>
      </trkpt>
      <trkpt lat="48.84472" lon="2.43883">
        <ele>105.7</ele>
        <time>2015-05-25T19:52:15.147Z</time>
      </trkpt>
      <trkpt lat="48.84469" lon="2.43883">
        <ele>106</ele>
        <time>2015-05-25T19:52:16.071Z</time>
      </trkpt>
      <trkpt lat="48.84461" lon="2.4388">
        <ele>106.5</ele>
        <time>2015-05-25T19:52:22.068Z</time>
      </trkpt>
      <trkpt lat="48.8446" lon="2.43876">
        <ele>107</ele>
        <time>2015-05-25T19:52:23.101Z</time>
      </trkpt>
      <trkpt lat="48.84463" lon="2.43863">
        <ele>107</ele>
        <time>2015-05-25T19:52:26.104Z</time>
      </trkpt>
      <trkpt lat="48.84464" lon="2.4386">
        <ele>107.4</ele>
        <time>2015-05-25T19:52:27.106Z</time>
      </trkpt>
      <trkpt lat="48.84465" lon="2.43848">
        <ele>107.3</ele>
        <time>2015-05-25T19:52:29.037Z</time>
      </trkpt>
      <trkpt lat="48.84465" lon="2.43843">
        <ele>107.7</ele>
        <time>2015-05-25T19:52:30.072Z</time>
      </trkpt>
      <trkpt lat="48.84466" lon="2.4383">
        <ele>107.8</ele>
        <time>2015-05-25T19:52:32.057Z</time>
      </trkpt>
      <trkpt lat="48.84466" lon="2.43823">
        <ele>107.7</ele>
        <time>2015-05-25T19:52:33.087Z</time>
      </trkpt>
      <trkpt lat="48.84467" lon="2.43816">
        <ele>107.5</ele>
        <time>2015-05-25T19:52:34.092Z</time>
      </trkpt>
      <trkpt lat="48.84469" lon="2.43808">
        <ele>107.6</ele>
        <time>2015-05-25T19:52:35.100Z</time>
      </trkpt>
      <trkpt lat="48.84469" lon="2.43799">
        <ele>107.5</ele>
        <time>2015-05-25T19:52:36.136Z</time>
      </trkpt>
      <trkpt lat="48.8447" lon="2.43791">
        <ele>107.4</ele>
        <time>2015-05-25T19:52:37.040Z</time>
      </trkpt>
      <trkpt lat="48.8447" lon="2.43782">
        <ele>107.5</ele>
        <time>2015-05-25T19:52:38.053Z</time>
      </trkpt>
      <trkpt lat="48.84471" lon="2.43775">
        <ele>107.6</ele>
        <time>2015-05-25T19:52:39.085Z</time>
      </trkpt>
      <trkpt lat="48.84472" lon="2.43768">
        <ele>107.9</ele>
        <time>2015-05-25T19:52:40.088Z</time>
      </trkpt>
      <trkpt lat="48.84473" lon="2.43761">
        <ele>108.3</ele>
        <time>2015-05-25T19:52:41.090Z</time>
      </trkpt>
      <trkpt lat="48.84474" lon="2.43754">
        <ele>108.7</ele>
        <time>2015-05-25T19:52:42.098Z</time>
      </trkpt>
      <trkpt lat="48.84474" lon="2.43746">
        <ele>108.6</ele>
        <time>2015-05-25T19:52:43.033Z</time>
      </trkpt>
      <trkpt lat="48.84474" lon="2.43739">
        <ele>108.9</ele>
        <time>2015-05-25T19:52:44.036Z</time>
      </trkpt>
      <trkpt lat="48.84475" lon="2.43732">
        <ele>109.3</ele>
        <time>2015-05-25T19:52:45.071Z</time>
      </trkpt>
      <trkpt lat="48.84474" lon="2.43724">
        <ele>109.6</ele>
        <time>2015-05-25T19:52:46.079Z</time>
      </trkpt>
      <trkpt lat="48.84474" lon="2.43718">
        <ele>109.8</ele>
        <time>2015-05-25T19:52:47.083Z</time>
      </trkpt>
      <trkpt lat="48.84475" lon="2.43707">
        <ele>110.3</ele>
        <time>2015-05-25T19:52:49.026Z</time>
      </trkpt>
      <trkpt lat="48.84476" lon="2.43701">
        <ele>110.6</ele>
        <time>2015-05-25T19:52:50.078Z</time>
      </trkpt>
      <trkpt lat="48.84478" lon="2.4369">
        <ele>111.7</ele>
        <time>2015-05-25T19:52:52.137Z</time>
      </trkpt>
      <trkpt lat="48.84479" lon="2.43684">
        <ele>111.8</ele>
        <time>2015-05-25T19:52:53.010Z</time>
      </trkpt>
      <trkpt lat="48.8448" lon="2.43671">
        <ele>112.2</ele>
        <time>2015-05-25T19:52:55.045Z</time>
      </trkpt>
      <trkpt lat="48.8448" lon="2.43666">
        <ele>112.5</ele>
        <time>2015-05-25T19:52:56.019Z</time>
      </trkpt>
      <trkpt lat="48.84483" lon="2.43654">
        <ele>112</ele>
        <time>2015-05-25T19:52:59.803Z</time>
      </trkpt>
      <trkpt lat="48.84483" lon="2.4365">
        <ele>111.9</ele>
        <time>2015-05-25T19:53:00.110Z</time>
      </trkpt>
      <trkpt lat="48.84483" lon="2.43641">
        <ele>111.8</ele>
        <time>2015-05-25T19:53:02.045Z</time>
      </trkpt>
      <trkpt lat="48.84483" lon="2.43637">
        <ele>111.4</ele>
        <time>2015-05-25T19:53:03.084Z</time>
      </trkpt>
      <trkpt lat="48.84485" lon="2.43627">
        <ele>111.1</ele>
        <time>2015-05-25T19:53:05.036Z</time>
      </trkpt>
      <trkpt lat="48.84485" lon="2.4362">
        <ele>111.1</ele>
        <time>2015-05-25T19:53:06.010Z</time>
      </trkpt>
      <trkpt lat="48.84486" lon="2.43614">
        <ele>110.5</ele>
        <time>2015-05-25T19:53:07.089Z</time>
      </trkpt>
      <trkpt lat="48.84486" lon="2.43607">
        <ele>110.6</ele>
        <time>2015-05-25T19:53:08.104Z</time>
      </trkpt>
      <trkpt lat="48.84488" lon="2.43594">
        <ele>110.4</ele>
        <time>2015-05-25T19:53:10.004Z</time>
      </trkpt>
      <trkpt lat="48.84489" lon="2.43588">
        <ele>110.4</ele>
        <time>2015-05-25T19:53:11.060Z</time>
      </trkpt>
      <trkpt lat="48.8449" lon="2.43574">
        <ele>110.3</ele>
        <time>2015-05-25T19:53:13.093Z</time>
      </trkpt>
      <trkpt lat="48.8449" lon="2.43567">
        <ele>110.5</ele>
        <time>2015-05-25T19:53:14.098Z</time>
      </trkpt>
      <trkpt lat="48.84492" lon="2.43554">
        <ele>110.3</ele>
        <time>2015-05-25T19:53:16.120Z</time>
      </trkpt>
      <trkpt lat="48.84493" lon="2.43548">
        <ele>110.1</ele>
        <time>2015-05-25T19:53:17.125Z</time>
      </trkpt>
      <trkpt lat="48.84496" lon="2.43537">
        <ele>110.1</ele>
        <time>2015-05-25T19:53:19.031Z</time>
      </trkpt>
      <trkpt lat="48.84497" lon="2.43531">
        <ele>110.2</ele>
        <time>2015-05-25T19:53:20.049Z</time>
      </trkpt>
      <trkpt lat="48.84498" lon="2.43521">
        <ele>110.4</ele>
        <time>2015-05-25T19:53:22.043Z</time>
      </trkpt>
      <trkpt lat="48.84499" lon="2.43515">
        <ele>110.4</ele>
        <time>2015-05-25T19:53:23.035Z</time>
      </trkpt>
      <trkpt lat="48.845" lon="2.43502">
        <ele>110.1</ele>
        <time>2015-05-25T19:53:25.204Z</time>
      </trkpt>
      <trkpt lat="48.84499" lon="2.43496">
        <ele>110</ele>
        <time>2015-05-25T19:53:26.079Z</time>
      </trkpt>
      <trkpt lat="48.845" lon="2.43483">
        <ele>109.4</ele>
        <time>2015-05-25T19:53:28.105Z</time>
      </trkpt>
      <trkpt lat="48.845" lon="2.43477">
        <ele>109.2</ele>
        <time>2015-05-25T19:53:29.113Z</time>
      </trkpt>
      <trkpt lat="48.84499" lon="2.43465">
        <ele>109.3</ele>
        <time>2015-05-25T19:53:31.025Z</time>
      </trkpt>
      <trkpt lat="48.84498" lon="2.43461">
        <ele>109.3</ele>
        <time>2015-05-25T19:53:32.038Z</time>
      </trkpt>
      <trkpt lat="48.84492" lon="2.43454">
        <ele>109.2</ele>
        <time>2015-05-25T19:53:34.091Z</time>
      </trkpt>
      <trkpt lat="48.84489" lon="2.43453">
        <ele>109</ele>
        <time>2015-05-25T19:53:35.099Z</time>
      </trkpt>
      <trkpt lat="48.84481" lon="2.43452">
        <ele>108.1</ele>
        <time>2015-05-25T19:53:37.024Z</time>
      </trkpt>
      <trkpt lat="48.84477" lon="2.43452">
        <ele>107.7</ele>
        <time>2015-05-25T19:53:38.050Z</time>
      </trkpt>
      <trkpt lat="48.84469" lon="2.43451">
        <ele>107.8</ele>
        <time>2015-05-25T19:53:40.532Z</time>
      </trkpt>
      <trkpt lat="48.84464" lon="2.4345">
        <ele>107.9</ele>
        <time>2015-05-25T19:53:41.010Z</time>
      </trkpt>
      <trkpt lat="48.84455" lon="2.43449">
        <ele>107.3</ele>
        <time>2015-05-25T19:53:43.045Z</time>
      </trkpt>
      <trkpt lat="48.8445" lon="2.43447">
        <ele>106.9</ele>
        <time>2015-05-25T19:53:44.066Z</time>
      </trkpt>
      <trkpt lat="48.84445" lon="2.43445">
        <ele>106.6</ele>
        <time>2015-05-25T19:53:45.090Z</time>
      </trkpt>
      <trkpt lat="48.84439" lon="2.43443">
        <ele>106.4</ele>
        <time>2015-05-25T19:53:46.022Z</time>
      </trkpt>
      <trkpt lat="48.84434" lon="2.43441">
        <ele>106.2</ele>
        <time>2015-05-25T19:53:47.022Z</time>
      </trkpt>
      <trkpt lat="48.84429" lon="2.4344">
        <ele>106</ele>
        <time>2015-05-25T19:53:48.039Z</time>
      </trkpt>
      <trkpt lat="48.84424" lon="2.43439">
        <ele>106.2</ele>
        <time>2015-05-25T19:53:49.041Z</time>
      </trkpt>
      <trkpt lat="48.84419" lon="2.43438">
        <ele>106.2</ele>
        <time>2015-05-25T19:53:50.045Z</time>
      </trkpt>
      <trkpt lat="48.84414" lon="2.43438">
        <ele>106</ele>
        <time>2015-05-25T19:53:51.097Z</time>
      </trkpt>
      <trkpt lat="48.84409" lon="2.43437">
        <ele>106.2</ele>
        <time>2015-05-25T19:53:52.102Z</time>
      </trkpt>
      <trkpt lat="48.84405" lon="2.43436">
        <ele>106.2</ele>
        <time>2015-05-25T19:53:53.065Z</time>
      </trkpt>
      <trkpt lat="48.844" lon="2.43433">
        <ele>106</ele>
        <time>2015-05-25T19:53:54.062Z</time>
      </trkpt>
      <trkpt lat="48.84395" lon="2.4343">
        <ele>106</ele>
        <time>2015-05-25T19:53:55.083Z</time>
      </trkpt>
      <trkpt lat="48.8439" lon="2.43428">
        <ele>106</ele>
        <time>2015-05-25T19:53:56.258Z</time>
      </trkpt>
      <trkpt lat="48.84385" lon="2.43428">
        <ele>106</ele>
        <time>2015-05-25T19:53:57.120Z</time>
      </trkpt>
      <trkpt lat="48.8438" lon="2.43427">
        <ele>105.8</ele>
        <time>2015-05-25T19:53:58.065Z</time>
      </trkpt>
      <trkpt lat="48.84375" lon="2.43425">
        <ele>105.9</ele>
        <time>2015-05-25T19:53:59.051Z</time>
      </trkpt>
      <trkpt lat="48.8437" lon="2.43424">
        <ele>105.7</ele>
        <time>2015-05-25T19:54:00.079Z</time>
      </trkpt>
      <trkpt lat="48.84366" lon="2.43419">
        <ele>105.6</ele>
        <time>2015-05-25T19:54:01.098Z</time>
      </trkpt>
      <trkpt lat="48.84363" lon="2.43412">
        <ele>105.5</ele>
        <time>2015-05-25T19:54:02.104Z</time>
      </trkpt>
      <trkpt lat="48.8436" lon="2.43406">
        <ele>105.4</ele>
        <time>2015-05-25T19:54:03.109Z</time>
      </trkpt>
      <trkpt lat="48.84357" lon="2.43399">
        <ele>105.5</ele>
        <time>2015-05-25T19:54:04.121Z</time>
      </trkpt>
      <trkpt lat="48.84355" lon="2.43392">
        <ele>105.3</ele>
        <time>2015-05-25T19:54:05.029Z</time>
      </trkpt>
      <trkpt lat="48.84352" lon="2.43386">
        <ele>105.1</ele>
        <time>2015-05-25T19:54:06.018Z</time>
      </trkpt>
      <trkpt lat="48.8435" lon="2.4338">
        <ele>105.4</ele>
        <time>2015-05-25T19:54:07.299Z</time>
      </trkpt>
      <trkpt lat="48.84347" lon="2.43373">
        <ele>105.8</ele>
        <time>2015-05-25T19:54:08.025Z</time>
      </trkpt>
      <trkpt lat="48.84343" lon="2.43369">
        <ele>106.2</ele>
        <time>2015-05-25T19:54:09.034Z</time>
      </trkpt>
      <trkpt lat="48.84339" lon="2.43365">
        <ele>106</ele>
        <time>2015-05-25T19:54:10.056Z</time>
      </trkpt>
      <trkpt lat="48.84335" lon="2.43362">
        <ele>105.6</ele>
        <time>2015-05-25T19:54:11.070Z</time>
      </trkpt>
      <trkpt lat="48.8433" lon="2.43361">
        <ele>105.6</ele>
        <time>2015-05-25T19:54:12.077Z</time>
      </trkpt>
      <trkpt lat="48.84325" lon="2.43358">
        <ele>105.6</ele>
        <time>2015-05-25T19:54:12.989Z</time>
      </trkpt>
      <trkpt lat="48.8432" lon="2.43357">
        <ele>105.5</ele>
        <time>2015-05-25T19:54:14.109Z</time>
      </trkpt>
      <trkpt lat="48.84315" lon="2.43354">
        <ele>105.2</ele>
        <time>2015-05-25T19:54:15.124Z</time>
      </trkpt>
      <trkpt lat="48.84311" lon="2.43354">
        <ele>105</ele>
        <time>2015-05-25T19:54:16.029Z</time>
      </trkpt>
      <trkpt lat="48.84306" lon="2.43354">
        <ele>104.6</ele>
        <time>2015-05-25T19:54:17.027Z</time>
      </trkpt>
      <trkpt lat="48.84301" lon="2.43353">
        <ele>104.3</ele>
        <time>2015-05-25T19:54:18.036Z</time>
      </trkpt>
      <trkpt lat="48.84297" lon="2.43352">
        <ele>104</ele>
        <time>2015-05-25T19:54:19.064Z</time>
      </trkpt>
      <trkpt lat="48.84292" lon="2.4335">
        <ele>103.8</ele>
        <time>2015-05-25T19:54:20.074Z</time>
      </trkpt>
      <trkpt lat="48.84284" lon="2.43345">
        <ele>103.6</ele>
        <time>2015-05-25T19:54:22.090Z</time>
      </trkpt>
      <trkpt lat="48.84281" lon="2.43342">
        <ele>103.7</ele>
        <time>2015-05-25T19:54:23.251Z</time>
      </trkpt>
      <trkpt lat="48.84273" lon="2.43338">
        <ele>103.3</ele>
        <time>2015-05-25T19:54:25.028Z</time>
      </trkpt>
      <trkpt lat="48.84268" lon="2.43335">
        <ele>103.1</ele>
        <time>2015-05-25T19:54:26.033Z</time>
      </trkpt>
      <trkpt lat="48.84264" lon="2.43332">
        <ele>103.1</ele>
        <time>2015-05-25T19:54:27.097Z</time>
      </trkpt>
      <trkpt lat="48.8426" lon="2.43329">
        <ele>102.9</ele>
        <time>2015-05-25T19:54:28.014Z</time>
      </trkpt>
      <trkpt lat="48.84255" lon="2.43329">
        <ele>103.1</ele>
        <time>2015-05-25T19:54:29.074Z</time>
      </trkpt>
      <trkpt lat="48.84249" lon="2.43328">
        <ele>103.3</ele>
        <time>2015-05-25T19:54:30.017Z</time>
      </trkpt>
      <trkpt lat="48.84241" lon="2.43327">
        <ele>103.7</ele>
        <time>2015-05-25T19:54:32.032Z</time>
      </trkpt>
      <trkpt lat="48.84237" lon="2.43326">
        <ele>103.5</ele>
        <time>2015-05-25T19:54:33.069Z</time>
      </trkpt>
      <trkpt lat="48.84228" lon="2.43324">
        <ele>103.2</ele>
        <time>2015-05-25T19:54:35.009Z</time>
      </trkpt>
      <trkpt lat="48.84224" lon="2.43321">
        <ele>103.1</ele>
        <time>2015-05-25T19:54:36.012Z</time>
      </trkpt>
      <trkpt lat="48.8422" lon="2.43321">
        <ele>103</ele>
        <time>2015-05-25T19:54:37.033Z</time>
      </trkpt>
      <trkpt lat="48.84215" lon="2.43322">
        <ele>102.7</ele>
        <time>2015-05-25T19:54:38.090Z</time>
      </trkpt>
      <trkpt lat="48.8421" lon="2.4332">
        <ele>102.5</ele>
        <time>2015-05-25T19:54:39.069Z</time>
      </trkpt>
      <trkpt lat="48.84205" lon="2.43318">
        <ele>102.6</ele>
        <time>2015-05-25T19:54:40.078Z</time>
      </trkpt>
      <trkpt lat="48.842" lon="2.43317">
        <ele>102.6</ele>
        <time>2015-05-25T19:54:41.101Z</time>
      </trkpt>
      <trkpt lat="48.84194" lon="2.43316">
        <ele>102.4</ele>
        <time>2015-05-25T19:54:41.980Z</time>
      </trkpt>
      <trkpt lat="48.84187" lon="2.43318">
        <ele>103</ele>
        <time>2015-05-25T19:54:43.000Z</time>
      </trkpt>
      <trkpt lat="48.8418" lon="2.43318">
        <ele>102.8</ele>
        <time>2015-05-25T19:54:44.017Z</time>
      </trkpt>
      <trkpt lat="48.84174" lon="2.43318">
        <ele>102.6</ele>
        <time>2015-05-25T19:54:45.053Z</time>
      </trkpt>
      <trkpt lat="48.84168" lon="2.43317">
        <ele>102.3</ele>
        <time>2015-05-25T19:54:46.065Z</time>
      </trkpt>
      <trkpt lat="48.84162" lon="2.43316">
        <ele>102.3</ele>
        <time>2015-05-25T19:54:47.079Z</time>
      </trkpt>
      <trkpt lat="48.84157" lon="2.43316">
        <ele>102.3</ele>
        <time>2015-05-25T19:54:48.085Z</time>
      </trkpt>
      <trkpt lat="48.84152" lon="2.43315">
        <ele>102.4</ele>
        <time>2015-05-25T19:54:48.989Z</time>
      </trkpt>
      <trkpt lat="48.84145" lon="2.43316">
        <ele>102.2</ele>
        <time>2015-05-25T19:54:49.996Z</time>
      </trkpt>
      <trkpt lat="48.8414" lon="2.43315">
        <ele>101.9</ele>
        <time>2015-05-25T19:54:51.057Z</time>
      </trkpt>
      <trkpt lat="48.84135" lon="2.43313">
        <ele>101.8</ele>
        <time>2015-05-25T19:54:52.067Z</time>
      </trkpt>
      <trkpt lat="48.84126" lon="2.4331">
        <ele>102</ele>
        <time>2015-05-25T19:54:54.026Z</time>
      </trkpt>
      <trkpt lat="48.84122" lon="2.43308">
        <ele>101.8</ele>
        <time>2015-05-25T19:54:55.015Z</time>
      </trkpt>
      <trkpt lat="48.84117" lon="2.43308">
        <ele>101.9</ele>
        <time>2015-05-25T19:54:56.034Z</time>
      </trkpt>
      <trkpt lat="48.84112" lon="2.43309">
        <ele>102.1</ele>
        <time>2015-05-25T19:54:57.094Z</time>
      </trkpt>
      <trkpt lat="48.84111" lon="2.43303">
        <ele>100.3</ele>
        <time>2015-05-25T19:55:33.187Z</time>
      </trkpt>
      <trkpt lat="48.84118" lon="2.43283">
        <ele>101.8</ele>
        <time>2015-05-25T19:55:34.056Z</time>
      </trkpt>
      <trkpt lat="48.84116" lon="2.43272">
        <ele>101.8</ele>
        <time>2015-05-25T19:55:37.058Z</time>
      </trkpt>
      <trkpt lat="48.84116" lon="2.43268">
        <ele>102</ele>
        <time>2015-05-25T19:55:38.060Z</time>
      </trkpt>
      <trkpt lat="48.84115" lon="2.43259">
        <ele>104.5</ele>
        <time>2015-05-25T19:55:40.105Z</time>
      </trkpt>
      <trkpt lat="48.84115" lon="2.43253">
        <ele>104.8</ele>
        <time>2015-05-25T19:55:41.188Z</time>
      </trkpt>
      <trkpt lat="48.84117" lon="2.43241">
        <ele>104.7</ele>
        <time>2015-05-25T19:55:43.058Z</time>
      </trkpt>
      <trkpt lat="48.84118" lon="2.43235">
        <ele>104.5</ele>
        <time>2015-05-25T19:55:44.069Z</time>
      </trkpt>
      <trkpt lat="48.84118" lon="2.43229">
        <ele>104.5</ele>
        <time>2015-05-25T19:55:45.228Z</time>
      </trkpt>
      <trkpt lat="48.84119" lon="2.43221">
        <ele>104.7</ele>
        <time>2015-05-25T19:55:46.028Z</time>
      </trkpt>
      <trkpt lat="48.8412" lon="2.43213">
        <ele>104.8</ele>
        <time>2015-05-25T19:55:47.025Z</time>
      </trkpt>
      <trkpt lat="48.8412" lon="2.43205">
        <ele>104.8</ele>
        <time>2015-05-25T19:55:48.039Z</time>
      </trkpt>
      <trkpt lat="48.84122" lon="2.43198">
        <ele>104.6</ele>
        <time>2015-05-25T19:55:49.037Z</time>
      </trkpt>
      <trkpt lat="48.84124" lon="2.43191">
        <ele>104.7</ele>
        <time>2015-05-25T19:55:50.043Z</time>
      </trkpt>
      <trkpt lat="48.84125" lon="2.43185">
        <ele>104.6</ele>
        <time>2015-05-25T19:55:51.068Z</time>
      </trkpt>
      <trkpt lat="48.84126" lon="2.43177">
        <ele>104.5</ele>
        <time>2015-05-25T19:55:52.077Z</time>
      </trkpt>
      <trkpt lat="48.84127" lon="2.4317">
        <ele>104.6</ele>
        <time>2015-05-25T19:55:53.085Z</time>
      </trkpt>
      <trkpt lat="48.84128" lon="2.43162">
        <ele>104.5</ele>
        <time>2015-05-25T19:55:54.091Z</time>
      </trkpt>
      <trkpt lat="48.84129" lon="2.43154">
        <ele>104.3</ele>
        <time>2015-05-25T19:55:55.016Z</time>
      </trkpt>
      <trkpt lat="48.84129" lon="2.43146">
        <ele>104.1</ele>
        <time>2015-05-25T19:55:56.032Z</time>
      </trkpt>
      <trkpt lat="48.84129" lon="2.43136">
        <ele>103.6</ele>
        <time>2015-05-25T19:55:57.065Z</time>
      </trkpt>
      <trkpt lat="48.84129" lon="2.43127">
        <ele>103.4</ele>
        <time>2015-05-25T19:55:58.065Z</time>
      </trkpt>
      <trkpt lat="48.84129" lon="2.43118">
        <ele>103.2</ele>
        <time>2015-05-25T19:55:59.087Z</time>
      </trkpt>
      <trkpt lat="48.84129" lon="2.4311">
        <ele>102.9</ele>
        <time>2015-05-25T19:56:00.097Z</time>
      </trkpt>
      <trkpt lat="48.84129" lon="2.43101">
        <ele>103</ele>
        <time>2015-05-25T19:56:01.108Z</time>
      </trkpt>
      <trkpt lat="48.84129" lon="2.43094">
        <ele>103</ele>
        <time>2015-05-25T19:56:02.116Z</time>
      </trkpt>
      <trkpt lat="48.84131" lon="2.43086">
        <ele>103.3</ele>
        <time>2015-05-25T19:56:03.147Z</time>
      </trkpt>
      <trkpt lat="48.84132" lon="2.43079">
        <ele>103.5</ele>
        <time>2015-05-25T19:56:04.027Z</time>
      </trkpt>
      <trkpt lat="48.84133" lon="2.4307">
        <ele>103.5</ele>
        <time>2015-05-25T19:56:05.035Z</time>
      </trkpt>
      <trkpt lat="48.84134" lon="2.43061">
        <ele>103.8</ele>
        <time>2015-05-25T19:56:06.046Z</time>
      </trkpt>
      <trkpt lat="48.84135" lon="2.43051">
        <ele>103.3</ele>
        <time>2015-05-25T19:56:07.059Z</time>
      </trkpt>
      <trkpt lat="48.84136" lon="2.43041">
        <ele>102.1</ele>
        <time>2015-05-25T19:56:08.064Z</time>
      </trkpt>
      <trkpt lat="48.84136" lon="2.43031">
        <ele>101.1</ele>
        <time>2015-05-25T19:56:09.074Z</time>
      </trkpt>
      <trkpt lat="48.84136" lon="2.43021">
        <ele>100.4</ele>
        <time>2015-05-25T19:56:10.092Z</time>
      </trkpt>
      <trkpt lat="48.84137" lon="2.43011">
        <ele>100.3</ele>
        <time>2015-05-25T19:56:11.036Z</time>
      </trkpt>
      <trkpt lat="48.84138" lon="2.43002">
        <ele>99.7</ele>
        <time>2015-05-25T19:56:12.041Z</time>
      </trkpt>
      <trkpt lat="48.84139" lon="2.42992">
        <ele>99.6</ele>
        <time>2015-05-25T19:56:13.057Z</time>
      </trkpt>
      <trkpt lat="48.8414" lon="2.42982">
        <ele>99.3</ele>
        <time>2015-05-25T19:56:14.065Z</time>
      </trkpt>
      <trkpt lat="48.84141" lon="2.42973">
        <ele>98.7</ele>
        <time>2015-05-25T19:56:15.077Z</time>
      </trkpt>
      <trkpt lat="48.84141" lon="2.42962">
        <ele>98.6</ele>
        <time>2015-05-25T19:56:16.082Z</time>
      </trkpt>
      <trkpt lat="48.84142" lon="2.42953">
        <ele>98.7</ele>
        <time>2015-05-25T19:56:17.096Z</time>
      </trkpt>
      <trkpt lat="48.84142" lon="2.42943">
        <ele>98.5</ele>
        <time>2015-05-25T19:56:18.094Z</time>
      </trkpt>
      <trkpt lat="48.84144" lon="2.42935">
        <ele>98.5</ele>
        <time>2015-05-25T19:56:19.107Z</time>
      </trkpt>
      <trkpt lat="48.84146" lon="2.42926">
        <ele>98.4</ele>
        <time>2015-05-25T19:56:20.109Z</time>
      </trkpt>
      <trkpt lat="48.84147" lon="2.42918">
        <ele>98.3</ele>
        <time>2015-05-25T19:56:21.118Z</time>
      </trkpt>
      <trkpt lat="48.84148" lon="2.42907">
        <ele>98.3</ele>
        <time>2015-05-25T19:56:22.015Z</time>
      </trkpt>
      <trkpt lat="48.84149" lon="2.42897">
        <ele>98.5</ele>
        <time>2015-05-25T19:56:23.016Z</time>
      </trkpt>
      <trkpt lat="48.84151" lon="2.42887">
        <ele>98.7</ele>
        <time>2015-05-25T19:56:24.046Z</time>
      </trkpt>
      <trkpt lat="48.84152" lon="2.42876">
        <ele>98.9</ele>
        <time>2015-05-25T19:56:25.071Z</time>
      </trkpt>
      <trkpt lat="48.84153" lon="2.42863">
        <ele>99.1</ele>
        <time>2015-05-25T19:56:26.074Z</time>
      </trkpt>
      <trkpt lat="48.84153" lon="2.42851">
        <ele>99.1</ele>
        <time>2015-05-25T19:56:27.144Z</time>
      </trkpt>
      <trkpt lat="48.84155" lon="2.42839">
        <ele>99.5</ele>
        <time>2015-05-25T19:56:28.004Z</time>
      </trkpt>
      <trkpt lat="48.84156" lon="2.42829">
        <ele>99.5</ele>
        <time>2015-05-25T19:56:29.054Z</time>
      </trkpt>
      <trkpt lat="48.84157" lon="2.42819">
        <ele>99.1</ele>
        <time>2015-05-25T19:56:30.065Z</time>
      </trkpt>
      <trkpt lat="48.84158" lon="2.42808">
        <ele>98.6</ele>
        <time>2015-05-25T19:56:31.082Z</time>
      </trkpt>
      <trkpt lat="48.84158" lon="2.42796">
        <ele>97.8</ele>
        <time>2015-05-25T19:56:32.050Z</time>
      </trkpt>
      <trkpt lat="48.8416" lon="2.42784">
        <ele>97.2</ele>
        <time>2015-05-25T19:56:33.082Z</time>
      </trkpt>
      <trkpt lat="48.84161" lon="2.42772">
        <ele>96.5</ele>
        <time>2015-05-25T19:56:34.076Z</time>
      </trkpt>
      <trkpt lat="48.84162" lon="2.4276">
        <ele>96</ele>
        <time>2015-05-25T19:56:35.093Z</time>
      </trkpt>
      <trkpt lat="48.84163" lon="2.42749">
        <ele>96.1</ele>
        <time>2015-05-25T19:56:36.107Z</time>
      </trkpt>
      <trkpt lat="48.84164" lon="2.42738">
        <ele>95.8</ele>
        <time>2015-05-25T19:56:37.023Z</time>
      </trkpt>
      <trkpt lat="48.84165" lon="2.42727">
        <ele>95.1</ele>
        <time>2015-05-25T19:56:38.029Z</time>
      </trkpt>
      <trkpt lat="48.84166" lon="2.42716">
        <ele>94.7</ele>
        <time>2015-05-25T19:56:39.143Z</time>
      </trkpt>
      <trkpt lat="48.84167" lon="2.42706">
        <ele>94.4</ele>
        <time>2015-05-25T19:56:40.027Z</time>
      </trkpt>
      <trkpt lat="48.84167" lon="2.42696">
        <ele>94</ele>
        <time>2015-05-25T19:56:41.043Z</time>
      </trkpt>
      <trkpt lat="48.84168" lon="2.42686">
        <ele>93.5</ele>
        <time>2015-05-25T19:56:42.046Z</time>
      </trkpt>
      <trkpt lat="48.84169" lon="2.42677">
        <ele>93.1</ele>
        <time>2015-05-25T19:56:43.063Z</time>
      </trkpt>
      <trkpt lat="48.8417" lon="2.42666">
        <ele>92.8</ele>
        <time>2015-05-25T19:56:44.075Z</time>
      </trkpt>
      <trkpt lat="48.84172" lon="2.42657">
        <ele>92.3</ele>
        <time>2015-05-25T19:56:45.117Z</time>
      </trkpt>
      <trkpt lat="48.84172" lon="2.42647">
        <ele>92</ele>
        <time>2015-05-25T19:56:46.025Z</time>
      </trkpt>
      <trkpt lat="48.84173" lon="2.42636">
        <ele>92.1</ele>
        <time>2015-05-25T19:56:47.055Z</time>
      </trkpt>
      <trkpt lat="48.84173" lon="2.42626">
        <ele>91.8</ele>
        <time>2015-05-25T19:56:48.064Z</time>
      </trkpt>
      <trkpt lat="48.84174" lon="2.42615">
        <ele>91.8</ele>
        <time>2015-05-25T19:56:49.106Z</time>
      </trkpt>
      <trkpt lat="48.84174" lon="2.42606">
        <ele>92</ele>
        <time>2015-05-25T19:56:50.093Z</time>
      </trkpt>
      <trkpt lat="48.84174" lon="2.42596">
        <ele>92.3</ele>
        <time>2015-05-25T19:56:51.116Z</time>
      </trkpt>
      <trkpt lat="48.84175" lon="2.42587">
        <ele>92.3</ele>
        <time>2015-05-25T19:56:52.039Z</time>
      </trkpt>
      <trkpt lat="48.84176" lon="2.42578">
        <ele>92.5</ele>
        <time>2015-05-25T19:56:53.049Z</time>
      </trkpt>
      <trkpt lat="48.84177" lon="2.4257">
        <ele>92.6</ele>
        <time>2015-05-25T19:56:54.063Z</time>
      </trkpt>
      <trkpt lat="48.84179" lon="2.42562">
        <ele>93.3</ele>
        <time>2015-05-25T19:56:55.120Z</time>
      </trkpt>
      <trkpt lat="48.8418" lon="2.42554">
        <ele>93.6</ele>
        <time>2015-05-25T19:56:56.135Z</time>
      </trkpt>
      <trkpt lat="48.84181" lon="2.42546">
        <ele>93.7</ele>
        <time>2015-05-25T19:56:57.080Z</time>
      </trkpt>
      <trkpt lat="48.8418" lon="2.42538">
        <ele>93.5</ele>
        <time>2015-05-25T19:56:58.084Z</time>
      </trkpt>
      <trkpt lat="48.8418" lon="2.42529">
        <ele>93.3</ele>
        <time>2015-05-25T19:56:59.109Z</time>
      </trkpt>
      <trkpt lat="48.84181" lon="2.42522">
        <ele>93.3</ele>
        <time>2015-05-25T19:57:00.087Z</time>
      </trkpt>
      <trkpt lat="48.84183" lon="2.42515">
        <ele>93</ele>
        <time>2015-05-25T19:57:01.027Z</time>
      </trkpt>
      <trkpt lat="48.84184" lon="2.42507">
        <ele>92.9</ele>
        <time>2015-05-25T19:57:02.052Z</time>
      </trkpt>
      <trkpt lat="48.84185" lon="2.42499">
        <ele>93</ele>
        <time>2015-05-25T19:57:03.069Z</time>
      </trkpt>
      <trkpt lat="48.84187" lon="2.42491">
        <ele>92.7</ele>
        <time>2015-05-25T19:57:04.070Z</time>
      </trkpt>
      <trkpt lat="48.84189" lon="2.42483">
        <ele>92.4</ele>
        <time>2015-05-25T19:57:05.089Z</time>
      </trkpt>
      <trkpt lat="48.8419" lon="2.42475">
        <ele>92.2</ele>
        <time>2015-05-25T19:57:06.100Z</time>
      </trkpt>
      <trkpt lat="48.84191" lon="2.42466">
        <ele>92.1</ele>
        <time>2015-05-25T19:57:07.109Z</time>
      </trkpt>
      <trkpt lat="48.84192" lon="2.42458">
        <ele>92.1</ele>
        <time>2015-05-25T19:57:08.121Z</time>
      </trkpt>
      <trkpt lat="48.84194" lon="2.42451">
        <ele>92.1</ele>
        <time>2015-05-25T19:57:09.137Z</time>
      </trkpt>
      <trkpt lat="48.84196" lon="2.42443">
        <ele>91.9</ele>
        <time>2015-05-25T19:57:10.035Z</time>
      </trkpt>
      <trkpt lat="48.84197" lon="2.42435">
        <ele>92</ele>
        <time>2015-05-25T19:57:11.044Z</time>
      </trkpt>
      <trkpt lat="48.84199" lon="2.42428">
        <ele>92.2</ele>
        <time>2015-05-25T19:57:12.069Z</time>
      </trkpt>
      <trkpt lat="48.84201" lon="2.42419">
        <ele>92.6</ele>
        <time>2015-05-25T19:57:13.077Z</time>
      </trkpt>
      <trkpt lat="48.84204" lon="2.42413">
        <ele>92.9</ele>
        <time>2015-05-25T19:57:14.092Z</time>
      </trkpt>
      <trkpt lat="48.84206" lon="2.42406">
        <ele>93.1</ele>
        <time>2015-05-25T19:57:15.094Z</time>
      </trkpt>
      <trkpt lat="48.84208" lon="2.42399">
        <ele>93.4</ele>
        <time>2015-05-25T19:57:16.097Z</time>
      </trkpt>
      <trkpt lat="48.84213" lon="2.42388">
        <ele>93.8</ele>
        <time>2015-05-25T19:57:18.100Z</time>
      </trkpt>
      <trkpt lat="48.84216" lon="2.42383">
        <ele>94.2</ele>
        <time>2015-05-25T19:57:19.110Z</time>
      </trkpt>
      <trkpt lat="48.84222" lon="2.42373">
        <ele>94.9</ele>
        <time>2015-05-25T19:57:21.111Z</time>
      </trkpt>
      <trkpt lat="48.84225" lon="2.42367">
        <ele>95.5</ele>
        <time>2015-05-25T19:57:22.122Z</time>
      </trkpt>
      <trkpt lat="48.84229" lon="2.42362">
        <ele>95.9</ele>
        <time>2015-05-25T19:57:23.034Z</time>
      </trkpt>
      <trkpt lat="48.84233" lon="2.42358">
        <ele>95.8</ele>
        <time>2015-05-25T19:57:24.048Z</time>
      </trkpt>
      <trkpt lat="48.84236" lon="2.42353">
        <ele>95.9</ele>
        <time>2015-05-25T19:57:25.052Z</time>
      </trkpt>
      <trkpt lat="48.84241" lon="2.4235">
        <ele>96.2</ele>
        <time>2015-05-25T19:57:26.085Z</time>
      </trkpt>
      <trkpt lat="48.84246" lon="2.42346">
        <ele>96.6</ele>
        <time>2015-05-25T19:57:27.109Z</time>
      </trkpt>
      <trkpt lat="48.84249" lon="2.42343">
        <ele>96.8</ele>
        <time>2015-05-25T19:57:28.114Z</time>
      </trkpt>
      <trkpt lat="48.84257" lon="2.42336">
        <ele>97.2</ele>
        <time>2015-05-25T19:57:30.036Z</time>
      </trkpt>
      <trkpt lat="48.8426" lon="2.42334">
        <ele>97.3</ele>
        <time>2015-05-25T19:57:31.112Z</time>
      </trkpt>
      <trkpt lat="48.84267" lon="2.42331">
        <ele>97.4</ele>
        <time>2015-05-25T19:57:33.150Z</time>
      </trkpt>
      <trkpt lat="48.8427" lon="2.42329">
        <ele>97.8</ele>
        <time>2015-05-25T19:57:34.090Z</time>
      </trkpt>
      <trkpt lat="48.84277" lon="2.42327">
        <ele>97.8</ele>
        <time>2015-05-25T19:57:36.007Z</time>
      </trkpt>
      <trkpt lat="48.8428" lon="2.42326">
        <ele>97.6</ele>
        <time>2015-05-25T19:57:37.021Z</time>
      </trkpt>
      <trkpt lat="48.84284" lon="2.42314">
        <ele>97.9</ele>
        <time>2015-05-25T19:57:42.048Z</time>
      </trkpt>
      <trkpt lat="48.84284" lon="2.42312">
        <ele>97.6</ele>
        <time>2015-05-25T19:57:43.037Z</time>
      </trkpt>
      <trkpt lat="48.84285" lon="2.42311">
        <ele>96.8</ele>
        <time>2015-05-25T19:58:30.617Z</time>
      </trkpt>
      <trkpt lat="48.84298" lon="2.42309">
        <ele>97.8</ele>
        <time>2015-05-25T19:58:31.061Z</time>
      </trkpt>
      <trkpt lat="48.84303" lon="2.423">
        <ele>98.1</ele>
        <time>2015-05-25T19:58:35.716Z</time>
      </trkpt>
      <trkpt lat="48.84304" lon="2.42295">
        <ele>98.2</ele>
        <time>2015-05-25T19:58:36.132Z</time>
      </trkpt>
      <trkpt lat="48.84307" lon="2.42287">
        <ele>98.5</ele>
        <time>2015-05-25T19:58:38.073Z</time>
      </trkpt>
      <trkpt lat="48.84308" lon="2.42281">
        <ele>98.7</ele>
        <time>2015-05-25T19:58:39.082Z</time>
      </trkpt>
      <trkpt lat="48.8431" lon="2.42269">
        <ele>98.7</ele>
        <time>2015-05-25T19:58:41.090Z</time>
      </trkpt>
      <trkpt lat="48.84311" lon="2.42263">
        <ele>99</ele>
        <time>2015-05-25T19:58:42.102Z</time>
      </trkpt>
      <trkpt lat="48.84311" lon="2.42249">
        <ele>99.1</ele>
        <time>2015-05-25T19:58:45.830Z</time>
      </trkpt>
      <trkpt lat="48.84312" lon="2.42246">
        <ele>99.3</ele>
        <time>2015-05-25T19:58:46.082Z</time>
      </trkpt>
      <trkpt lat="48.84315" lon="2.42234">
        <ele>99.8</ele>
        <time>2015-05-25T19:58:49.023Z</time>
      </trkpt>
      <trkpt lat="48.84316" lon="2.42229">
        <ele>100</ele>
        <time>2015-05-25T19:58:50.039Z</time>
      </trkpt>
      <trkpt lat="48.84318" lon="2.42219">
        <ele>100.1</ele>
        <time>2015-05-25T19:58:52.085Z</time>
      </trkpt>
      <trkpt lat="48.84319" lon="2.42214">
        <ele>100.1</ele>
        <time>2015-05-25T19:58:53.096Z</time>
      </trkpt>
      <trkpt lat="48.84321" lon="2.42206">
        <ele>100.4</ele>
        <time>2015-05-25T19:58:55.109Z</time>
      </trkpt>
      <trkpt lat="48.84322" lon="2.422">
        <ele>100.3</ele>
        <time>2015-05-25T19:58:56.000Z</time>
      </trkpt>
      <trkpt lat="48.84324" lon="2.4219">
        <ele>100.4</ele>
        <time>2015-05-25T19:58:58.111Z</time>
      </trkpt>
      <trkpt lat="48.84324" lon="2.42184">
        <ele>100.5</ele>
        <time>2015-05-25T19:58:59.124Z</time>
      </trkpt>
      <trkpt lat="48.84327" lon="2.42172">
        <ele>100.2</ele>
        <time>2015-05-25T19:59:02.040Z</time>
      </trkpt>
      <trkpt lat="48.84327" lon="2.42166">
        <ele>100.3</ele>
        <time>2015-05-25T19:59:03.071Z</time>
      </trkpt>
      <trkpt lat="48.84328" lon="2.42157">
        <ele>100.5</ele>
        <time>2015-05-25T19:59:05.088Z</time>
      </trkpt>
      <trkpt lat="48.84329" lon="2.42152">
        <ele>100.7</ele>
        <time>2015-05-25T19:59:06.096Z</time>
      </trkpt>
      <trkpt lat="48.8433" lon="2.42144">
        <ele>101.1</ele>
        <time>2015-05-25T19:59:08.123Z</time>
      </trkpt>
      <trkpt lat="48.84331" lon="2.42138">
        <ele>101.3</ele>
        <time>2015-05-25T19:59:09.129Z</time>
      </trkpt>
      <trkpt lat="48.84333" lon="2.42126">
        <ele>101.4</ele>
        <time>2015-05-25T19:59:11.029Z</time>
      </trkpt>
      <trkpt lat="48.84334" lon="2.42119">
        <ele>101.6</ele>
        <time>2015-05-25T19:59:12.040Z</time>
      </trkpt>
      <trkpt lat="48.84334" lon="2.42111">
        <ele>102</ele>
        <time>2015-05-25T19:59:13.097Z</time>
      </trkpt>
      <trkpt lat="48.84334" lon="2.42103">
        <ele>102.2</ele>
        <time>2015-05-25T19:59:14.094Z</time>
      </trkpt>
      <trkpt lat="48.84335" lon="2.42092">
        <ele>102.5</ele>
        <time>2015-05-25T19:59:16.115Z</time>
      </trkpt>
      <trkpt lat="48.84336" lon="2.42085">
        <ele>102.7</ele>
        <time>2015-05-25T19:59:17.047Z</time>
      </trkpt>
      <trkpt lat="48.84335" lon="2.42077">
        <ele>102.8</ele>
        <time>2015-05-25T19:59:18.042Z</time>
      </trkpt>
      <trkpt lat="48.84336" lon="2.42071">
        <ele>102.9</ele>
        <time>2015-05-25T19:59:19.037Z</time>
      </trkpt>
      <trkpt lat="48.84337" lon="2.42058">
        <ele>102.8</ele>
        <time>2015-05-25T19:59:21.143Z</time>
      </trkpt>
      <trkpt lat="48.84337" lon="2.42051">
        <ele>102.5</ele>
        <time>2015-05-25T19:59:22.036Z</time>
      </trkpt>
      <trkpt lat="48.84338" lon="2.42038">
        <ele>103.1</ele>
        <time>2015-05-25T19:59:24.031Z</time>
      </trkpt>
      <trkpt lat="48.84339" lon="2.42031">
        <ele>103.5</ele>
        <time>2015-05-25T19:59:25.037Z</time>
      </trkpt>
      <trkpt lat="48.84342" lon="2.42018">
        <ele>103.8</ele>
        <time>2015-05-25T19:59:27.078Z</time>
      </trkpt>
      <trkpt lat="48.84342" lon="2.42011">
        <ele>103.9</ele>
        <time>2015-05-25T19:59:28.094Z</time>
      </trkpt>
      <trkpt lat="48.84344" lon="2.41999">
        <ele>104.4</ele>
        <time>2015-05-25T19:59:30.114Z</time>
      </trkpt>
      <trkpt lat="48.84344" lon="2.41992">
        <ele>104.1</ele>
        <time>2015-05-25T19:59:31.033Z</time>
      </trkpt>
      <trkpt lat="48.84343" lon="2.41985">
        <ele>103.7</ele>
        <time>2015-05-25T19:59:32.053Z</time>
      </trkpt>
      <trkpt lat="48.84343" lon="2.41978">
        <ele>103.2</ele>
        <time>2015-05-25T19:59:33.137Z</time>
      </trkpt>
      <trkpt lat="48.84344" lon="2.41971">
        <ele>102.2</ele>
        <time>2015-05-25T19:59:34.028Z</time>
      </trkpt>
      <trkpt lat="48.84345" lon="2.41964">
        <ele>101.8</ele>
        <time>2015-05-25T19:59:35.035Z</time>
      </trkpt>
      <trkpt lat="48.84347" lon="2.41951">
        <ele>101.2</ele>
        <time>2015-05-25T19:59:37.057Z</time>
      </trkpt>
      <trkpt lat="48.84347" lon="2.41945">
        <ele>101.1</ele>
        <time>2015-05-25T19:59:38.087Z</time>
      </trkpt>
      <trkpt lat="48.84349" lon="2.41936">
        <ele>101.8</ele>
        <time>2015-05-25T19:59:40.466Z</time>
      </trkpt>
      <trkpt lat="48.84349" lon="2.4193">
        <ele>102.3</ele>
        <time>2015-05-25T19:59:41.139Z</time>
      </trkpt>
      <trkpt lat="48.84351" lon="2.41919">
        <ele>103.2</ele>
        <time>2015-05-25T19:59:43.036Z</time>
      </trkpt>
      <trkpt lat="48.84351" lon="2.41912">
        <ele>103.4</ele>
        <time>2015-05-25T19:59:44.102Z</time>
      </trkpt>
      <trkpt lat="48.84353" lon="2.419">
        <ele>103.4</ele>
        <time>2015-05-25T19:59:46.016Z</time>
      </trkpt>
      <trkpt lat="48.84354" lon="2.41896">
        <ele>103.6</ele>
        <time>2015-05-25T19:59:47.072Z</time>
      </trkpt>
      <trkpt lat="48.84356" lon="2.41886">
        <ele>104.1</ele>
        <time>2015-05-25T19:59:49.019Z</time>
      </trkpt>
      <trkpt lat="48.84358" lon="2.41882">
        <ele>104.1</ele>
        <time>2015-05-25T19:59:50.043Z</time>
      </trkpt>
      <trkpt lat="48.8436" lon="2.41869">
        <ele>104.1</ele>
        <time>2015-05-25T19:59:53.088Z</time>
      </trkpt>
      <trkpt lat="48.8436" lon="2.41865">
        <ele>104.1</ele>
        <time>2015-05-25T19:59:54.098Z</time>
      </trkpt>
      <trkpt lat="48.84363" lon="2.41857">
        <ele>104.2</ele>
        <time>2015-05-25T19:59:54.733Z</time>
      </trkpt>
      <trkpt lat="48.84365" lon="2.41853">
        <ele>104.5</ele>
        <time>2015-05-25T19:59:57.116Z</time>
      </trkpt>
      <trkpt lat="48.84365" lon="2.41842">
        <ele>104.3</ele>
        <time>2015-05-25T19:59:59.790Z</time>
      </trkpt>
      <trkpt lat="48.84365" lon="2.41836">
        <ele>104.4</ele>
        <time>2015-05-25T20:00:00.057Z</time>
      </trkpt>
      <trkpt lat="48.84365" lon="2.41822">
        <ele>104.6</ele>
        <time>2015-05-25T20:00:02.105Z</time>
      </trkpt>
      <trkpt lat="48.84365" lon="2.41815">
        <ele>105.3</ele>
        <time>2015-05-25T20:00:03.126Z</time>
      </trkpt>
      <trkpt lat="48.84365" lon="2.41802">
        <ele>106.2</ele>
        <time>2015-05-25T20:00:05.005Z</time>
      </trkpt>
      <trkpt lat="48.84366" lon="2.41796">
        <ele>106.7</ele>
        <time>2015-05-25T20:00:06.117Z</time>
      </trkpt>
      <trkpt lat="48.84368" lon="2.41787">
        <ele>107.1</ele>
        <time>2015-05-25T20:00:08.020Z</time>
      </trkpt>
      <trkpt lat="48.84368" lon="2.41782">
        <ele>107.4</ele>
        <time>2015-05-25T20:00:09.252Z</time>
      </trkpt>
      <trkpt lat="48.84367" lon="2.41771">
        <ele>108.3</ele>
        <time>2015-05-25T20:00:11.093Z</time>
      </trkpt>
      <trkpt lat="48.84365" lon="2.41766">
        <ele>108.7</ele>
        <time>2015-05-25T20:00:12.073Z</time>
      </trkpt>
      <trkpt lat="48.8436" lon="2.4176">
        <ele>108.4</ele>
        <time>2015-05-25T20:00:18.001Z</time>
      </trkpt>
      <trkpt lat="48.84356" lon="2.41763">
        <ele>108.1</ele>
        <time>2015-05-25T20:00:19.031Z</time>
      </trkpt>
      <trkpt lat="48.8435" lon="2.41767">
        <ele>107.4</ele>
        <time>2015-05-25T20:00:21.080Z</time>
      </trkpt>
      <trkpt lat="48.84346" lon="2.41768">
        <ele>107.3</ele>
        <time>2015-05-25T20:00:22.092Z</time>
      </trkpt>
      <trkpt lat="48.8434" lon="2.41768">
        <ele>106.3</ele>
        <time>2015-05-25T20:00:24.014Z</time>
      </trkpt>
      <trkpt lat="48.84336" lon="2.41768">
        <ele>106.1</ele>
        <time>2015-05-25T20:00:24.999Z</time>
      </trkpt>
      <trkpt lat="48.84331" lon="2.41768">
        <ele>106.1</ele>
        <time>2015-05-25T20:00:26.031Z</time>
      </trkpt>
      <trkpt lat="48.84326" lon="2.41768">
        <ele>106.1</ele>
        <time>2015-05-25T20:00:27.112Z</time>
      </trkpt>
      <trkpt lat="48.84321" lon="2.41768">
        <ele>106.1</ele>
        <time>2015-05-25T20:00:28.024Z</time>
      </trkpt>
      <trkpt lat="48.84316" lon="2.41768">
        <ele>106</ele>
        <time>2015-05-25T20:00:29.030Z</time>
      </trkpt>
      <trkpt lat="48.84311" lon="2.41768">
        <ele>105.8</ele>
        <time>2015-05-25T20:00:30.629Z</time>
      </trkpt>
      <trkpt lat="48.84305" lon="2.41767">
        <ele>105.4</ele>
        <time>2015-05-25T20:00:31.046Z</time>
      </trkpt>
      <trkpt lat="48.84301" lon="2.41766">
        <ele>105.1</ele>
        <time>2015-05-25T20:00:32.022Z</time>
      </trkpt>
      <trkpt lat="48.84296" lon="2.41766">
        <ele>105.1</ele>
        <time>2015-05-25T20:00:33.079Z</time>
      </trkpt>
      <trkpt lat="48.84291" lon="2.41766">
        <ele>105.1</ele>
        <time>2015-05-25T20:00:34.085Z</time>
      </trkpt>
      <trkpt lat="48.84286" lon="2.41766">
        <ele>105.1</ele>
        <time>2015-05-25T20:00:34.996Z</time>
      </trkpt>
      <trkpt lat="48.8428" lon="2.41767">
        <ele>105.1</ele>
        <time>2015-05-25T20:00:36.002Z</time>
      </trkpt>
      <trkpt lat="48.84273" lon="2.41767">
        <ele>105.2</ele>
        <time>2015-05-25T20:00:37.016Z</time>
      </trkpt>
      <trkpt lat="48.84267" lon="2.41766">
        <ele>105.2</ele>
        <time>2015-05-25T20:00:38.041Z</time>
      </trkpt>
      <trkpt lat="48.84261" lon="2.41765">
        <ele>105.2</ele>
        <time>2015-05-25T20:00:39.083Z</time>
      </trkpt>
      <trkpt lat="48.84255" lon="2.41765">
        <ele>105.1</ele>
        <time>2015-05-25T20:00:39.972Z</time>
      </trkpt>
      <trkpt lat="48.84249" lon="2.41766">
        <ele>104.8</ele>
        <time>2015-05-25T20:00:41.013Z</time>
      </trkpt>
      <trkpt lat="48.84243" lon="2.41766">
        <ele>104.8</ele>
        <time>2015-05-25T20:00:42.032Z</time>
      </trkpt>
      <trkpt lat="48.84236" lon="2.41763">
        <ele>104.6</ele>
        <time>2015-05-25T20:00:43.036Z</time>
      </trkpt>
      <trkpt lat="48.84229" lon="2.41759">
        <ele>104.4</ele>
        <time>2015-05-25T20:00:44.066Z</time>
      </trkpt>
      <trkpt lat="48.84223" lon="2.41756">
        <ele>104</ele>
        <time>2015-05-25T20:00:45.075Z</time>
      </trkpt>
      <trkpt lat="48.84216" lon="2.41755">
        <ele>104</ele>
        <time>2015-05-25T20:00:46.018Z</time>
      </trkpt>
      <trkpt lat="48.84211" lon="2.41755">
        <ele>104.1</ele>
        <time>2015-05-25T20:00:46.988Z</time>
      </trkpt>
      <trkpt lat="48.84205" lon="2.41755">
        <ele>104.4</ele>
        <time>2015-05-25T20:00:47.994Z</time>
      </trkpt>
      <trkpt lat="48.842" lon="2.41755">
        <ele>104.5</ele>
        <time>2015-05-25T20:00:48.999Z</time>
      </trkpt>
      <trkpt lat="48.84194" lon="2.41756">
        <ele>104.4</ele>
        <time>2015-05-25T20:00:50.022Z</time>
      </trkpt>
      <trkpt lat="48.84188" lon="2.41757">
        <ele>104.5</ele>
        <time>2015-05-25T20:00:51.030Z</time>
      </trkpt>
      <trkpt lat="48.84182" lon="2.41757">
        <ele>104.4</ele>
        <time>2015-05-25T20:00:52.032Z</time>
      </trkpt>
      <trkpt lat="48.84176" lon="2.41757">
        <ele>104.5</ele>
        <time>2015-05-25T20:00:53.045Z</time>
      </trkpt>
      <trkpt lat="48.8417" lon="2.41757">
        <ele>104.3</ele>
        <time>2015-05-25T20:00:54.057Z</time>
      </trkpt>
      <trkpt lat="48.84164" lon="2.41757">
        <ele>104.1</ele>
        <time>2015-05-25T20:00:55.074Z</time>
      </trkpt>
      <trkpt lat="48.84158" lon="2.41757">
        <ele>103.7</ele>
        <time>2015-05-25T20:00:56.081Z</time>
      </trkpt>
      <trkpt lat="48.84154" lon="2.41758">
        <ele>103.3</ele>
        <time>2015-05-25T20:00:57.092Z</time>
      </trkpt>
      <trkpt lat="48.84148" lon="2.41757">
        <ele>103.2</ele>
        <time>2015-05-25T20:00:57.989Z</time>
      </trkpt>
      <trkpt lat="48.84143" lon="2.41757">
        <ele>102.8</ele>
        <time>2015-05-25T20:00:59.005Z</time>
      </trkpt>
      <trkpt lat="48.84136" lon="2.41759">
        <ele>103.4</ele>
        <time>2015-05-25T20:01:00.008Z</time>
      </trkpt>
      <trkpt lat="48.8413" lon="2.4176">
        <ele>103.5</ele>
        <time>2015-05-25T20:01:01.009Z</time>
      </trkpt>
      <trkpt lat="48.84125" lon="2.41761">
        <ele>103.5</ele>
        <time>2015-05-25T20:01:02.023Z</time>
      </trkpt>
      <trkpt lat="48.84119" lon="2.41762">
        <ele>103</ele>
        <time>2015-05-25T20:01:03.032Z</time>
      </trkpt>
      <trkpt lat="48.84113" lon="2.41762">
        <ele>103</ele>
        <time>2015-05-25T20:01:04.054Z</time>
      </trkpt>
      <trkpt lat="48.84107" lon="2.41759">
        <ele>103.2</ele>
        <time>2015-05-25T20:01:05.059Z</time>
      </trkpt>
      <trkpt lat="48.84099" lon="2.41758">
        <ele>103.7</ele>
        <time>2015-05-25T20:01:06.083Z</time>
      </trkpt>
      <trkpt lat="48.84092" lon="2.41757">
        <ele>104.1</ele>
        <time>2015-05-25T20:01:07.005Z</time>
      </trkpt>
      <trkpt lat="48.84085" lon="2.41756">
        <ele>104.4</ele>
        <time>2015-05-25T20:01:07.989Z</time>
      </trkpt>
      <trkpt lat="48.84079" lon="2.41756">
        <ele>104.5</ele>
        <time>2015-05-25T20:01:09.032Z</time>
      </trkpt>
      <trkpt lat="48.84073" lon="2.41757">
        <ele>104.6</ele>
        <time>2015-05-25T20:01:10.036Z</time>
      </trkpt>
      <trkpt lat="48.84068" lon="2.41758">
        <ele>104.3</ele>
        <time>2015-05-25T20:01:11.045Z</time>
      </trkpt>
      <trkpt lat="48.84061" lon="2.41756">
        <ele>104.1</ele>
        <time>2015-05-25T20:01:12.054Z</time>
      </trkpt>
      <trkpt lat="48.84055" lon="2.41755">
        <ele>103.4</ele>
        <time>2015-05-25T20:01:13.063Z</time>
      </trkpt>
      <trkpt lat="48.84049" lon="2.41753">
        <ele>103.3</ele>
        <time>2015-05-25T20:01:14.087Z</time>
      </trkpt>
      <trkpt lat="48.84042" lon="2.41752">
        <ele>103.8</ele>
        <time>2015-05-25T20:01:15.085Z</time>
      </trkpt>
      <trkpt lat="48.84035" lon="2.41752">
        <ele>104.4</ele>
        <time>2015-05-25T20:01:16.092Z</time>
      </trkpt>
      <trkpt lat="48.84029" lon="2.41751">
        <ele>104</ele>
        <time>2015-05-25T20:01:17.097Z</time>
      </trkpt>
      <trkpt lat="48.84022" lon="2.4175">
        <ele>104.1</ele>
        <time>2015-05-25T20:01:18.007Z</time>
      </trkpt>
      <trkpt lat="48.84017" lon="2.4175">
        <ele>104.2</ele>
        <time>2015-05-25T20:01:19.015Z</time>
      </trkpt>
      <trkpt lat="48.84011" lon="2.4175">
        <ele>103.9</ele>
        <time>2015-05-25T20:01:20.023Z</time>
      </trkpt>
      <trkpt lat="48.84007" lon="2.41752">
        <ele>103.3</ele>
        <time>2015-05-25T20:01:21.050Z</time>
      </trkpt>
      <trkpt lat="48.84002" lon="2.41752">
        <ele>102.6</ele>
        <time>2015-05-25T20:01:22.055Z</time>
      </trkpt>
      <trkpt lat="48.83997" lon="2.41754">
        <ele>102.5</ele>
        <time>2015-05-25T20:01:23.065Z</time>
      </trkpt>
      <trkpt lat="48.8399" lon="2.41754">
        <ele>102.6</ele>
        <time>2015-05-25T20:01:24.082Z</time>
      </trkpt>
      <trkpt lat="48.83984" lon="2.41755">
        <ele>102.8</ele>
        <time>2015-05-25T20:01:25.083Z</time>
      </trkpt>
      <trkpt lat="48.83978" lon="2.41755">
        <ele>103.2</ele>
        <time>2015-05-25T20:01:26.262Z</time>
      </trkpt>
      <trkpt lat="48.83972" lon="2.41755">
        <ele>103.8</ele>
        <time>2015-05-25T20:01:27.108Z</time>
      </trkpt>
      <trkpt lat="48.83966" lon="2.41756">
        <ele>104.3</ele>
        <time>2015-05-25T20:01:28.113Z</time>
      </trkpt>
      <trkpt lat="48.8396" lon="2.41757">
        <ele>104.3</ele>
        <time>2015-05-25T20:01:29.042Z</time>
      </trkpt>
      <trkpt lat="48.83955" lon="2.41757">
        <ele>104.6</ele>
        <time>2015-05-25T20:01:30.004Z</time>
      </trkpt>
      <trkpt lat="48.83949" lon="2.41756">
        <ele>105.1</ele>
        <time>2015-05-25T20:01:31.050Z</time>
      </trkpt>
      <trkpt lat="48.83944" lon="2.41757">
        <ele>105.1</ele>
        <time>2015-05-25T20:01:32.089Z</time>
      </trkpt>
      <trkpt lat="48.83939" lon="2.41756">
        <ele>105.2</ele>
        <time>2015-05-25T20:01:33.113Z</time>
      </trkpt>
      <trkpt lat="48.83933" lon="2.41756">
        <ele>105.5</ele>
        <time>2015-05-25T20:01:34.011Z</time>
      </trkpt>
      <trkpt lat="48.83928" lon="2.41756">
        <ele>105.4</ele>
        <time>2015-05-25T20:01:35.030Z</time>
      </trkpt>
      <trkpt lat="48.83923" lon="2.41756">
        <ele>105.1</ele>
        <time>2015-05-25T20:01:36.048Z</time>
      </trkpt>
      <trkpt lat="48.83918" lon="2.41755">
        <ele>105.1</ele>
        <time>2015-05-25T20:01:37.332Z</time>
      </trkpt>
      <trkpt lat="48.83912" lon="2.41755">
        <ele>105.2</ele>
        <time>2015-05-25T20:01:38.110Z</time>
      </trkpt>
      <trkpt lat="48.83908" lon="2.41755">
        <ele>105.4</ele>
        <time>2015-05-25T20:01:39.120Z</time>
      </trkpt>
      <trkpt lat="48.83899" lon="2.41754">
        <ele>105.2</ele>
        <time>2015-05-25T20:01:41.027Z</time>
      </trkpt>
      <trkpt lat="48.83895" lon="2.41754">
        <ele>105.3</ele>
        <time>2015-05-25T20:01:42.048Z</time>
      </trkpt>
      <trkpt lat="48.83889" lon="2.41753">
        <ele>105.8</ele>
        <time>2015-05-25T20:01:44.080Z</time>
      </trkpt>
      <trkpt lat="48.83886" lon="2.41752">
        <ele>106.1</ele>
        <time>2015-05-25T20:01:45.154Z</time>
      </trkpt>
      <trkpt lat="48.8388" lon="2.41752">
        <ele>106.2</ele>
        <time>2015-05-25T20:02:21.093Z</time>
      </trkpt>
      <trkpt lat="48.83877" lon="2.41754">
        <ele>106.1</ele>
        <time>2015-05-25T20:02:22.110Z</time>
      </trkpt>
      <trkpt lat="48.83869" lon="2.41758">
        <ele>105.9</ele>
        <time>2015-05-25T20:02:25.050Z</time>
      </trkpt>
      <trkpt lat="48.83866" lon="2.41759">
        <ele>106</ele>
        <time>2015-05-25T20:02:26.062Z</time>
      </trkpt>
      <trkpt lat="48.83859" lon="2.41761">
        <ele>105.9</ele>
        <time>2015-05-25T20:02:28.098Z</time>
      </trkpt>
      <trkpt lat="48.83856" lon="2.41762">
        <ele>105.8</ele>
        <time>2015-05-25T20:02:29.104Z</time>
      </trkpt>
      <trkpt lat="48.8385" lon="2.41764">
        <ele>106</ele>
        <time>2015-05-25T20:02:31.028Z</time>
      </trkpt>
      <trkpt lat="48.83846" lon="2.41764">
        <ele>106.2</ele>
        <time>2015-05-25T20:02:32.041Z</time>
      </trkpt>
      <trkpt lat="48.83839" lon="2.41765">
        <ele>106.6</ele>
        <time>2015-05-25T20:02:34.057Z</time>
      </trkpt>
      <trkpt lat="48.83836" lon="2.41766">
        <ele>106.8</ele>
        <time>2015-05-25T20:02:35.086Z</time>
      </trkpt>
      <trkpt lat="48.83829" lon="2.41769">
        <ele>107</ele>
        <time>2015-05-25T20:02:37.027Z</time>
      </trkpt>
      <trkpt lat="48.83825" lon="2.4177">
        <ele>107</ele>
        <time>2015-05-25T20:02:38.022Z</time>
      </trkpt>
      <trkpt lat="48.83817" lon="2.4177">
        <ele>107.1</ele>
        <time>2015-05-25T20:02:40.000Z</time>
      </trkpt>
      <trkpt lat="48.83813" lon="2.41771">
        <ele>107.3</ele>
        <time>2015-05-25T20:02:41.059Z</time>
      </trkpt>
      <trkpt lat="48.83805" lon="2.41773">
        <ele>107.6</ele>
        <time>2015-05-25T20:02:43.052Z</time>
      </trkpt>
      <trkpt lat="48.83802" lon="2.41774">
        <ele>107.8</ele>
        <time>2015-05-25T20:02:44.060Z</time>
      </trkpt>
      <trkpt lat="48.83793" lon="2.41775">
        <ele>108.2</ele>
        <time>2015-05-25T20:02:46.031Z</time>
      </trkpt>
      <trkpt lat="48.8379" lon="2.41777">
        <ele>108.3</ele>
        <time>2015-05-25T20:02:47.043Z</time>
      </trkpt>
      <trkpt lat="48.83783" lon="2.41785">
        <ele>108</ele>
        <time>2015-05-25T20:02:49.099Z</time>
      </trkpt>
      <trkpt lat="48.8378" lon="2.41787">
        <ele>108.1</ele>
        <time>2015-05-25T20:02:50.168Z</time>
      </trkpt>
      <trkpt lat="48.83774" lon="2.41792">
        <ele>108.2</ele>
        <time>2015-05-25T20:02:52.056Z</time>
      </trkpt>
      <trkpt lat="48.83771" lon="2.41795">
        <ele>108.2</ele>
        <time>2015-05-25T20:02:53.140Z</time>
      </trkpt>
      <trkpt lat="48.83764" lon="2.41801">
        <ele>108.3</ele>
        <time>2015-05-25T20:02:55.030Z</time>
      </trkpt>
      <trkpt lat="48.8376" lon="2.41807">
        <ele>108.4</ele>
        <time>2015-05-25T20:02:56.040Z</time>
      </trkpt>
      <trkpt lat="48.83754" lon="2.41811">
        <ele>108.8</ele>
        <time>2015-05-25T20:02:57.999Z</time>
      </trkpt>
      <trkpt lat="48.8375" lon="2.41813">
        <ele>109</ele>
        <time>2015-05-25T20:02:59.049Z</time>
      </trkpt>
      <trkpt lat="48.83742" lon="2.41819">
        <ele>109.2</ele>
        <time>2015-05-25T20:02:59.795Z</time>
      </trkpt>
      <trkpt lat="48.83738" lon="2.41824">
        <ele>109.5</ele>
        <time>2015-05-25T20:03:02.073Z</time>
      </trkpt>
      <trkpt lat="48.83735" lon="2.41827">
        <ele>109.9</ele>
        <time>2015-05-25T20:03:03.090Z</time>
      </trkpt>
      <trkpt lat="48.8373" lon="2.4183">
        <ele>110.1</ele>
        <time>2015-05-25T20:03:04.109Z</time>
      </trkpt>
      <trkpt lat="48.83725" lon="2.41834">
        <ele>110.3</ele>
        <time>2015-05-25T20:03:04.987Z</time>
      </trkpt>
      <trkpt lat="48.8372" lon="2.41836">
        <ele>110.8</ele>
        <time>2015-05-25T20:03:06.083Z</time>
      </trkpt>
      <trkpt lat="48.83715" lon="2.41838">
        <ele>110.9</ele>
        <time>2015-05-25T20:03:06.994Z</time>
      </trkpt>
      <trkpt lat="48.8371" lon="2.41841">
        <ele>110.9</ele>
        <time>2015-05-25T20:03:08.024Z</time>
      </trkpt>
      <trkpt lat="48.83704" lon="2.41843">
        <ele>110.2</ele>
        <time>2015-05-25T20:03:09.115Z</time>
      </trkpt>
      <trkpt lat="48.83699" lon="2.41846">
        <ele>109.8</ele>
        <time>2015-05-25T20:03:10.077Z</time>
      </trkpt>
      <trkpt lat="48.83694" lon="2.41849">
        <ele>109.8</ele>
        <time>2015-05-25T20:03:11.208Z</time>
      </trkpt>
      <trkpt lat="48.83689" lon="2.41851">
        <ele>110</ele>
        <time>2015-05-25T20:03:11.985Z</time>
      </trkpt>
      <trkpt lat="48.83684" lon="2.41853">
        <ele>109.7</ele>
        <time>2015-05-25T20:03:13.020Z</time>
      </trkpt>
      <trkpt lat="48.83679" lon="2.41856">
        <ele>109.7</ele>
        <time>2015-05-25T20:03:14.011Z</time>
      </trkpt>
      <trkpt lat="48.83673" lon="2.41857">
        <ele>109.2</ele>
        <time>2015-05-25T20:03:15.019Z</time>
      </trkpt>
      <trkpt lat="48.83667" lon="2.4186">
        <ele>109</ele>
        <time>2015-05-25T20:03:16.053Z</time>
      </trkpt>
      <trkpt lat="48.8366" lon="2.41863">
        <ele>108.9</ele>
        <time>2015-05-25T20:03:17.063Z</time>
      </trkpt>
      <trkpt lat="48.83655" lon="2.41867">
        <ele>109</ele>
        <time>2015-05-25T20:03:18.074Z</time>
      </trkpt>
      <trkpt lat="48.8365" lon="2.4187">
        <ele>109.1</ele>
        <time>2015-05-25T20:03:19.103Z</time>
      </trkpt>
      <trkpt lat="48.83644" lon="2.41872">
        <ele>109.4</ele>
        <time>2015-05-25T20:03:19.998Z</time>
      </trkpt>
      <trkpt lat="48.83636" lon="2.41877">
        <ele>109.4</ele>
        <time>2015-05-25T20:03:22.035Z</time>
      </trkpt>
      <trkpt lat="48.83634" lon="2.41878">
        <ele>109.1</ele>
        <time>2015-05-25T20:03:23.048Z</time>
      </trkpt>
      <trkpt lat="48.83638" lon="2.41866">
        <ele>109</ele>
        <time>2015-05-25T20:03:31.027Z</time>
      </trkpt>
      <trkpt lat="48.83638" lon="2.41863">
        <ele>109.5</ele>
        <time>2015-05-25T20:03:32.038Z</time>
      </trkpt>
      <trkpt lat="48.83637" lon="2.4185">
        <ele>110.3</ele>
        <time>2015-05-25T20:03:35.994Z</time>
      </trkpt>
      <trkpt lat="48.83636" lon="2.41845">
        <ele>110.7</ele>
        <time>2015-05-25T20:03:36.048Z</time>
      </trkpt>
      <trkpt lat="48.83634" lon="2.41838">
        <ele>110.8</ele>
        <time>2015-05-25T20:03:37.061Z</time>
      </trkpt>
      <trkpt lat="48.83631" lon="2.41831">
        <ele>111.1</ele>
        <time>2015-05-25T20:03:38.077Z</time>
      </trkpt>
      <trkpt lat="48.83628" lon="2.41824">
        <ele>111.4</ele>
        <time>2015-05-25T20:03:39.086Z</time>
      </trkpt>
      <trkpt lat="48.83626" lon="2.41818">
        <ele>111.5</ele>
        <time>2015-05-25T20:03:39.990Z</time>
      </trkpt>
      <trkpt lat="48.83622" lon="2.41807">
        <ele>111.8</ele>
        <time>2015-05-25T20:03:42.037Z</time>
      </trkpt>
      <trkpt lat="48.8362" lon="2.41801">
        <ele>111.8</ele>
        <time>2015-05-25T20:03:43.034Z</time>
      </trkpt>
      <trkpt lat="48.83618" lon="2.41794">
        <ele>111.8</ele>
        <time>2015-05-25T20:03:44.080Z</time>
      </trkpt>
      <trkpt lat="48.83616" lon="2.41788">
        <ele>111.8</ele>
        <time>2015-05-25T20:03:45.129Z</time>
      </trkpt>
      <trkpt lat="48.83613" lon="2.41776">
        <ele>111.7</ele>
        <time>2015-05-25T20:03:47.002Z</time>
      </trkpt>
      <trkpt lat="48.83612" lon="2.41769">
        <ele>111.7</ele>
        <time>2015-05-25T20:03:48.090Z</time>
      </trkpt>
      <trkpt lat="48.8361" lon="2.41763">
        <ele>111.9</ele>
        <time>2015-05-25T20:03:49.045Z</time>
      </trkpt>
      <trkpt lat="48.83607" lon="2.41756">
        <ele>112.1</ele>
        <time>2015-05-25T20:03:50.053Z</time>
      </trkpt>
      <trkpt lat="48.83602" lon="2.41745">
        <ele>112.3</ele>
        <time>2015-05-25T20:03:52.100Z</time>
      </trkpt>
      <trkpt lat="48.836" lon="2.41739">
        <ele>111.7</ele>
        <time>2015-05-25T20:03:53.174Z</time>
      </trkpt>
      <trkpt lat="48.83596" lon="2.41728">
        <ele>110.4</ele>
        <time>2015-05-25T20:03:55.042Z</time>
      </trkpt>
      <trkpt lat="48.83594" lon="2.41721">
        <ele>110.2</ele>
        <time>2015-05-25T20:03:56.051Z</time>
      </trkpt>
      <trkpt lat="48.83591" lon="2.41715">
        <ele>110</ele>
        <time>2015-05-25T20:03:57.135Z</time>
      </trkpt>
      <trkpt lat="48.8359" lon="2.41708">
        <ele>109.9</ele>
        <time>2015-05-25T20:03:58.017Z</time>
      </trkpt>
      <trkpt lat="48.83587" lon="2.41698">
        <ele>109.5</ele>
        <time>2015-05-25T20:04:00.062Z</time>
      </trkpt>
      <trkpt lat="48.83584" lon="2.41691">
        <ele>109.4</ele>
        <time>2015-05-25T20:04:01.068Z</time>
      </trkpt>
      <trkpt lat="48.83582" lon="2.41685">
        <ele>109.7</ele>
        <time>2015-05-25T20:04:02.030Z</time>
      </trkpt>
      <trkpt lat="48.83579" lon="2.41678">
        <ele>109.7</ele>
        <time>2015-05-25T20:04:03.059Z</time>
      </trkpt>
      <trkpt lat="48.83576" lon="2.41667">
        <ele>110.1</ele>
        <time>2015-05-25T20:04:05.082Z</time>
      </trkpt>
      <trkpt lat="48.83575" lon="2.41662">
        <ele>110.2</ele>
        <time>2015-05-25T20:04:06.107Z</time>
      </trkpt>
      <trkpt lat="48.83574" lon="2.41655">
        <ele>110</ele>
        <time>2015-05-25T20:04:07.002Z</time>
      </trkpt>
      <trkpt lat="48.83573" lon="2.41649">
        <ele>110.3</ele>
        <time>2015-05-25T20:04:08.022Z</time>
      </trkpt>
      <trkpt lat="48.83569" lon="2.41637">
        <ele>110.1</ele>
        <time>2015-05-25T20:04:10.077Z</time>
      </trkpt>
      <trkpt lat="48.83568" lon="2.41632">
        <ele>110.5</ele>
        <time>2015-05-25T20:04:11.007Z</time>
      </trkpt>
      <trkpt lat="48.83565" lon="2.4162">
        <ele>110.7</ele>
        <time>2015-05-25T20:04:13.041Z</time>
      </trkpt>
      <trkpt lat="48.83564" lon="2.41614">
        <ele>110.9</ele>
        <time>2015-05-25T20:04:14.094Z</time>
      </trkpt>
      <trkpt lat="48.83562" lon="2.41603">
        <ele>110.2</ele>
        <time>2015-05-25T20:04:16.019Z</time>
      </trkpt>
      <trkpt lat="48.83559" lon="2.41598">
        <ele>110.1</ele>
        <time>2015-05-25T20:04:17.037Z</time>
      </trkpt>
      <trkpt lat="48.83555" lon="2.41587">
        <ele>110.6</ele>
        <time>2015-05-25T20:04:19.086Z</time>
      </trkpt>
      <trkpt lat="48.83553" lon="2.4158">
        <ele>110.4</ele>
        <time>2015-05-25T20:04:20.126Z</time>
      </trkpt>
      <trkpt lat="48.83552" lon="2.41573">
        <ele>110.1</ele>
        <time>2015-05-25T20:04:21.077Z</time>
      </trkpt>
      <trkpt lat="48.8355" lon="2.41567">
        <ele>110.1</ele>
        <time>2015-05-25T20:04:22.092Z</time>
      </trkpt>
      <trkpt lat="48.83546" lon="2.41554">
        <ele>110.5</ele>
        <time>2015-05-25T20:04:24.027Z</time>
      </trkpt>
      <trkpt lat="48.83545" lon="2.41548">
        <ele>110.8</ele>
        <time>2015-05-25T20:04:25.044Z</time>
      </trkpt>
      <trkpt lat="48.83543" lon="2.41537">
        <ele>111</ele>
        <time>2015-05-25T20:04:27.078Z</time>
      </trkpt>
      <trkpt lat="48.83541" lon="2.41533">
        <ele>111.1</ele>
        <time>2015-05-25T20:04:28.098Z</time>
      </trkpt>
      <trkpt lat="48.83538" lon="2.41523">
        <ele>110.7</ele>
        <time>2015-05-25T20:04:30.011Z</time>
      </trkpt>
      <trkpt lat="48.83536" lon="2.41518">
        <ele>110.5</ele>
        <time>2015-05-25T20:04:31.029Z</time>
      </trkpt>
      <trkpt lat="48.83533" lon="2.41506">
        <ele>110.9</ele>
        <time>2015-05-25T20:04:33.069Z</time>
      </trkpt>
      <trkpt lat="48.83532" lon="2.415">
        <ele>111.1</ele>
        <time>2015-05-25T20:04:34.088Z</time>
      </trkpt>
      <trkpt lat="48.83529" lon="2.41489">
        <ele>111.1</ele>
        <time>2015-05-25T20:04:36.020Z</time>
      </trkpt>
      <trkpt lat="48.83528" lon="2.41484">
        <ele>111</ele>
        <time>2015-05-25T20:04:37.057Z</time>
      </trkpt>
      <trkpt lat="48.83528" lon="2.41472">
        <ele>110.7</ele>
        <time>2015-05-25T20:04:39.100Z</time>
      </trkpt>
      <trkpt lat="48.83527" lon="2.41465">
        <ele>110.6</ele>
        <time>2015-05-25T20:04:40.100Z</time>
      </trkpt>
      <trkpt lat="48.83525" lon="2.41454">
        <ele>110.4</ele>
        <time>2015-05-25T20:04:42.011Z</time>
      </trkpt>
      <trkpt lat="48.83523" lon="2.41448">
        <ele>110.6</ele>
        <time>2015-05-25T20:04:43.029Z</time>
      </trkpt>
      <trkpt lat="48.83519" lon="2.41436">
        <ele>110.7</ele>
        <time>2015-05-25T20:04:45.091Z</time>
      </trkpt>
      <trkpt lat="48.83518" lon="2.41429">
        <ele>110.5</ele>
        <time>2015-05-25T20:04:46.024Z</time>
      </trkpt>
      <trkpt lat="48.83517" lon="2.41422">
        <ele>110.4</ele>
        <time>2015-05-25T20:04:47.089Z</time>
      </trkpt>
      <trkpt lat="48.83515" lon="2.41416">
        <ele>110.3</ele>
        <time>2015-05-25T20:04:48.007Z</time>
      </trkpt>
      <trkpt lat="48.83513" lon="2.41403">
        <ele>111.2</ele>
        <time>2015-05-25T20:04:50.061Z</time>
      </trkpt>
      <trkpt lat="48.83511" lon="2.41397">
        <ele>111.5</ele>
        <time>2015-05-25T20:04:51.066Z</time>
      </trkpt>
      <trkpt lat="48.83508" lon="2.41384">
        <ele>111.8</ele>
        <time>2015-05-25T20:04:53.104Z</time>
      </trkpt>
      <trkpt lat="48.83506" lon="2.41379">
        <ele>111.7</ele>
        <time>2015-05-25T20:04:54.011Z</time>
      </trkpt>
      <trkpt lat="48.835" lon="2.41368">
        <ele>111.9</ele>
        <time>2015-05-25T20:04:56.046Z</time>
      </trkpt>
      <trkpt lat="48.83498" lon="2.41363">
        <ele>112.2</ele>
        <time>2015-05-25T20:04:57.053Z</time>
      </trkpt>
      <trkpt lat="48.83493" lon="2.41351">
        <ele>112.5</ele>
        <time>2015-05-25T20:04:59.086Z</time>
      </trkpt>
      <trkpt lat="48.83491" lon="2.41347">
        <ele>112.7</ele>
        <time>2015-05-25T20:04:59.982Z</time>
      </trkpt>
      <trkpt lat="48.83486" lon="2.41336">
        <ele>113.3</ele>
        <time>2015-05-25T20:05:02.051Z</time>
      </trkpt>
      <trkpt lat="48.83484" lon="2.41329">
        <ele>113.6</ele>
        <time>2015-05-25T20:05:03.082Z</time>
      </trkpt>
      <trkpt lat="48.83481" lon="2.41323">
        <ele>113.8</ele>
        <time>2015-05-25T20:05:04.023Z</time>
      </trkpt>
      <trkpt lat="48.83479" lon="2.41316">
        <ele>113.8</ele>
        <time>2015-05-25T20:05:05.026Z</time>
      </trkpt>
      <trkpt lat="48.83477" lon="2.41309">
        <ele>113.8</ele>
        <time>2015-05-25T20:05:06.043Z</time>
      </trkpt>
      <trkpt lat="48.83476" lon="2.41301">
        <ele>113.7</ele>
        <time>2015-05-25T20:05:07.058Z</time>
      </trkpt>
      <trkpt lat="48.83474" lon="2.41294">
        <ele>113.5</ele>
        <time>2015-05-25T20:05:08.057Z</time>
      </trkpt>
      <trkpt lat="48.83473" lon="2.41287">
        <ele>113.3</ele>
        <time>2015-05-25T20:05:09.072Z</time>
      </trkpt>
      <trkpt lat="48.8347" lon="2.4128">
        <ele>113.1</ele>
        <time>2015-05-25T20:05:10.088Z</time>
      </trkpt>
      <trkpt lat="48.83469" lon="2.41274">
        <ele>112.4</ele>
        <time>2015-05-25T20:05:11.094Z</time>
      </trkpt>
      <trkpt lat="48.83467" lon="2.41262">
        <ele>110.5</ele>
        <time>2015-05-25T20:05:13.107Z</time>
      </trkpt>
      <trkpt lat="48.83464" lon="2.41256">
        <ele>109.8</ele>
        <time>2015-05-25T20:05:14.094Z</time>
      </trkpt>
      <trkpt lat="48.83462" lon="2.41248">
        <ele>109.6</ele>
        <time>2015-05-25T20:05:15.093Z</time>
      </trkpt>
      <trkpt lat="48.8346" lon="2.41242">
        <ele>109.4</ele>
        <time>2015-05-25T20:05:16.093Z</time>
      </trkpt>
      <trkpt lat="48.83456" lon="2.41231">
        <ele>108.9</ele>
        <time>2015-05-25T20:05:18.116Z</time>
      </trkpt>
      <trkpt lat="48.83454" lon="2.41225">
        <ele>108.7</ele>
        <time>2015-05-25T20:05:19.122Z</time>
      </trkpt>
      <trkpt lat="48.8345" lon="2.41214">
        <ele>108.5</ele>
        <time>2015-05-25T20:05:21.081Z</time>
      </trkpt>
      <trkpt lat="48.83448" lon="2.41208">
        <ele>108.6</ele>
        <time>2015-05-25T20:05:22.080Z</time>
      </trkpt>
      <trkpt lat="48.83446" lon="2.41196">
        <ele>108.5</ele>
        <time>2015-05-25T20:05:24.047Z</time>
      </trkpt>
      <trkpt lat="48.83444" lon="2.41191">
        <ele>108.3</ele>
        <time>2015-05-25T20:05:25.062Z</time>
      </trkpt>
      <trkpt lat="48.83441" lon="2.41179">
        <ele>108.5</ele>
        <time>2015-05-25T20:05:27.088Z</time>
      </trkpt>
      <trkpt lat="48.83439" lon="2.41174">
        <ele>108.2</ele>
        <time>2015-05-25T20:05:28.103Z</time>
      </trkpt>
      <trkpt lat="48.83437" lon="2.41161">
        <ele>108</ele>
        <time>2015-05-25T20:05:30.098Z</time>
      </trkpt>
      <trkpt lat="48.83435" lon="2.41156">
        <ele>107.8</ele>
        <time>2015-05-25T20:05:31.040Z</time>
      </trkpt>
      <trkpt lat="48.83432" lon="2.41148">
        <ele>107</ele>
        <time>2015-05-25T20:05:33.150Z</time>
      </trkpt>
      <trkpt lat="48.83431" lon="2.41142">
        <ele>105.7</ele>
        <time>2015-05-25T20:05:34.069Z</time>
      </trkpt>
      <trkpt lat="48.83429" lon="2.41132">
        <ele>105.3</ele>
        <time>2015-05-25T20:05:36.202Z</time>
      </trkpt>
      <trkpt lat="48.83428" lon="2.41128">
        <ele>104.9</ele>
        <time>2015-05-25T20:05:37.026Z</time>
      </trkpt>
      <trkpt lat="48.83427" lon="2.41115">
        <ele>104</ele>
        <time>2015-05-25T20:05:40.139Z</time>
      </trkpt>
      <trkpt lat="48.83427" lon="2.41111">
        <ele>103.9</ele>
        <time>2015-05-25T20:05:41.035Z</time>
      </trkpt>
      <trkpt lat="48.83426" lon="2.41101">
        <ele>103.3</ele>
        <time>2015-05-25T20:05:44.083Z</time>
      </trkpt>
      <trkpt lat="48.83426" lon="2.41097">
        <ele>103.2</ele>
        <time>2015-05-25T20:05:45.096Z</time>
      </trkpt>
      <trkpt lat="48.83428" lon="2.41085">
        <ele>102.4</ele>
        <time>2015-05-25T20:05:49.051Z</time>
      </trkpt>
      <trkpt lat="48.83428" lon="2.41082">
        <ele>102.1</ele>
        <time>2015-05-25T20:05:50.070Z</time>
      </trkpt>
      <trkpt lat="48.83429" lon="2.41071">
        <ele>101.5</ele>
        <time>2015-05-25T20:05:53.120Z</time>
      </trkpt>
      <trkpt lat="48.83429" lon="2.41067">
        <ele>101.4</ele>
        <time>2015-05-25T20:05:54.130Z</time>
      </trkpt>
      <trkpt lat="48.83428" lon="2.41056">
        <ele>101.5</ele>
        <time>2015-05-25T20:05:57.214Z</time>
      </trkpt>
      <trkpt lat="48.83429" lon="2.41052">
        <ele>101.7</ele>
        <time>2015-05-25T20:05:58.069Z</time>
      </trkpt>
      <trkpt lat="48.83432" lon="2.41043">
        <ele>101.8</ele>
        <time>2015-05-25T20:06:00.102Z</time>
      </trkpt>
      <trkpt lat="48.83433" lon="2.41038">
        <ele>101.9</ele>
        <time>2015-05-25T20:06:01.116Z</time>
      </trkpt>
      <trkpt lat="48.83434" lon="2.41029">
        <ele>101.6</ele>
        <time>2015-05-25T20:06:03.129Z</time>
      </trkpt>
      <trkpt lat="48.83436" lon="2.41025">
        <ele>101.4</ele>
        <time>2015-05-25T20:06:04.032Z</time>
      </trkpt>
      <trkpt lat="48.83438" lon="2.41014">
        <ele>101.5</ele>
        <time>2015-05-25T20:06:06.055Z</time>
      </trkpt>
      <trkpt lat="48.83439" lon="2.41009">
        <ele>101.4</ele>
        <time>2015-05-25T20:06:07.075Z</time>
      </trkpt>
      <trkpt lat="48.83441" lon="2.40999">
        <ele>101.1</ele>
        <time>2015-05-25T20:06:09.145Z</time>
      </trkpt>
      <trkpt lat="48.83442" lon="2.40994">
        <ele>100.9</ele>
        <time>2015-05-25T20:06:10.060Z</time>
      </trkpt>
      <trkpt lat="48.83444" lon="2.40985">
        <ele>101.3</ele>
        <time>2015-05-25T20:06:12.055Z</time>
      </trkpt>
      <trkpt lat="48.83445" lon="2.4098">
        <ele>101.3</ele>
        <time>2015-05-25T20:06:13.064Z</time>
      </trkpt>
      <trkpt lat="48.83447" lon="2.40969">
        <ele>101.7</ele>
        <time>2015-05-25T20:06:15.825Z</time>
      </trkpt>
      <trkpt lat="48.83449" lon="2.40963">
        <ele>101.9</ele>
        <time>2015-05-25T20:06:16.041Z</time>
      </trkpt>
      <trkpt lat="48.83451" lon="2.40957">
        <ele>101.8</ele>
        <time>2015-05-25T20:06:17.056Z</time>
      </trkpt>
      <trkpt lat="48.83454" lon="2.4095">
        <ele>101.6</ele>
        <time>2015-05-25T20:06:18.056Z</time>
      </trkpt>
      <trkpt lat="48.83456" lon="2.40943">
        <ele>101.2</ele>
        <time>2015-05-25T20:06:19.077Z</time>
      </trkpt>
      <trkpt lat="48.83458" lon="2.40936">
        <ele>101</ele>
        <time>2015-05-25T20:06:20.103Z</time>
      </trkpt>
      <trkpt lat="48.83459" lon="2.40927">
        <ele>101.3</ele>
        <time>2015-05-25T20:06:21.115Z</time>
      </trkpt>
      <trkpt lat="48.8346" lon="2.40919">
        <ele>101.6</ele>
        <time>2015-05-25T20:06:22.124Z</time>
      </trkpt>
      <trkpt lat="48.83463" lon="2.40912">
        <ele>101.7</ele>
        <time>2015-05-25T20:06:23.022Z</time>
      </trkpt>
      <trkpt lat="48.83466" lon="2.40906">
        <ele>101.8</ele>
        <time>2015-05-25T20:06:24.046Z</time>
      </trkpt>
      <trkpt lat="48.83468" lon="2.409">
        <ele>101.9</ele>
        <time>2015-05-25T20:06:25.908Z</time>
      </trkpt>
      <trkpt lat="48.8347" lon="2.40894">
        <ele>101.8</ele>
        <time>2015-05-25T20:06:26.081Z</time>
      </trkpt>
      <trkpt lat="48.83471" lon="2.40885">
        <ele>100.9</ele>
        <time>2015-05-25T20:06:27.123Z</time>
      </trkpt>
      <trkpt lat="48.83473" lon="2.40878">
        <ele>100.4</ele>
        <time>2015-05-25T20:06:28.145Z</time>
      </trkpt>
      <trkpt lat="48.83475" lon="2.40865">
        <ele>100.1</ele>
        <time>2015-05-25T20:06:30.053Z</time>
      </trkpt>
      <trkpt lat="48.83477" lon="2.4086">
        <ele>100.2</ele>
        <time>2015-05-25T20:06:31.083Z</time>
      </trkpt>
      <trkpt lat="48.8348" lon="2.40848">
        <ele>100.3</ele>
        <time>2015-05-25T20:06:33.112Z</time>
      </trkpt>
      <trkpt lat="48.83481" lon="2.40844">
        <ele>100.1</ele>
        <time>2015-05-25T20:06:34.018Z</time>
      </trkpt>
      <trkpt lat="48.83486" lon="2.40834">
        <ele>100.1</ele>
        <time>2015-05-25T20:06:36.099Z</time>
      </trkpt>
      <trkpt lat="48.83488" lon="2.40829">
        <ele>100</ele>
        <time>2015-05-25T20:06:37.103Z</time>
      </trkpt>
      <trkpt lat="48.83493" lon="2.4082">
        <ele>99.7</ele>
        <time>2015-05-25T20:06:39.108Z</time>
      </trkpt>
      <trkpt lat="48.83497" lon="2.40816">
        <ele>99.9</ele>
        <time>2015-05-25T20:06:40.112Z</time>
      </trkpt>
      <trkpt lat="48.83504" lon="2.4081">
        <ele>100.1</ele>
        <time>2015-05-25T20:06:42.049Z</time>
      </trkpt>
      <trkpt lat="48.83507" lon="2.40805">
        <ele>99.7</ele>
        <time>2015-05-25T20:06:43.044Z</time>
      </trkpt>
      <trkpt lat="48.83511" lon="2.408">
        <ele>99.5</ele>
        <time>2015-05-25T20:06:44.022Z</time>
      </trkpt>
      <trkpt lat="48.83514" lon="2.40795">
        <ele>99.2</ele>
        <time>2015-05-25T20:06:45.071Z</time>
      </trkpt>
      <trkpt lat="48.83518" lon="2.4079">
        <ele>98.7</ele>
        <time>2015-05-25T20:06:46.098Z</time>
      </trkpt>
      <trkpt lat="48.8352" lon="2.40784">
        <ele>98.7</ele>
        <time>2015-05-25T20:06:47.102Z</time>
      </trkpt>
      <trkpt lat="48.83522" lon="2.40777">
        <ele>98.6</ele>
        <time>2015-05-25T20:06:48.027Z</time>
      </trkpt>
      <trkpt lat="48.83525" lon="2.40771">
        <ele>98.7</ele>
        <time>2015-05-25T20:06:49.037Z</time>
      </trkpt>
      <trkpt lat="48.83529" lon="2.40767">
        <ele>98.8</ele>
        <time>2015-05-25T20:06:50.048Z</time>
      </trkpt>
      <trkpt lat="48.83532" lon="2.40761">
        <ele>98.6</ele>
        <time>2015-05-25T20:06:51.094Z</time>
      </trkpt>
      <trkpt lat="48.83535" lon="2.40755">
        <ele>98.3</ele>
        <time>2015-05-25T20:06:52.098Z</time>
      </trkpt>
      <trkpt lat="48.83538" lon="2.40749">
        <ele>98.3</ele>
        <time>2015-05-25T20:06:53.106Z</time>
      </trkpt>
      <trkpt lat="48.83541" lon="2.40743">
        <ele>98.1</ele>
        <time>2015-05-25T20:06:54.034Z</time>
      </trkpt>
      <trkpt lat="48.83543" lon="2.40736">
        <ele>97.8</ele>
        <time>2015-05-25T20:06:55.035Z</time>
      </trkpt>
      <trkpt lat="48.83546" lon="2.40728">
        <ele>97.8</ele>
        <time>2015-05-25T20:06:56.036Z</time>
      </trkpt>
      <trkpt lat="48.83548" lon="2.40721">
        <ele>97.5</ele>
        <time>2015-05-25T20:06:57.089Z</time>
      </trkpt>
      <trkpt lat="48.83552" lon="2.4071">
        <ele>97.2</ele>
        <time>2015-05-25T20:06:59.100Z</time>
      </trkpt>
      <trkpt lat="48.83554" lon="2.40705">
        <ele>97</ele>
        <time>2015-05-25T20:07:00.149Z</time>
      </trkpt>
      <trkpt lat="48.83556" lon="2.40692">
        <ele>96.9</ele>
        <time>2015-05-25T20:07:03.114Z</time>
      </trkpt>
      <trkpt lat="48.83555" lon="2.40689">
        <ele>96.7</ele>
        <time>2015-05-25T20:07:04.022Z</time>
      </trkpt>
      <trkpt lat="48.83556" lon="2.40679">
        <ele>99.4</ele>
        <time>2015-05-25T20:08:40.043Z</time>
      </trkpt>
      <trkpt lat="48.83562" lon="2.40669">
        <ele>98.5</ele>
        <time>2015-05-25T20:08:41.060Z</time>
      </trkpt>
      <trkpt lat="48.83564" lon="2.40656">
        <ele>98</ele>
        <time>2015-05-25T20:08:45.200Z</time>
      </trkpt>
      <trkpt lat="48.83564" lon="2.40652">
        <ele>97.7</ele>
        <time>2015-05-25T20:08:46.045Z</time>
      </trkpt>
      <trkpt lat="48.83565" lon="2.4064">
        <ele>97.2</ele>
        <time>2015-05-25T20:08:48.065Z</time>
      </trkpt>
      <trkpt lat="48.83566" lon="2.40635">
        <ele>97</ele>
        <time>2015-05-25T20:08:49.112Z</time>
      </trkpt>
      <trkpt lat="48.83568" lon="2.40624">
        <ele>96.7</ele>
        <time>2015-05-25T20:08:51.180Z</time>
      </trkpt>
      <trkpt lat="48.83569" lon="2.40619">
        <ele>96.7</ele>
        <time>2015-05-25T20:08:52.043Z</time>
      </trkpt>
      <trkpt lat="48.83571" lon="2.40607">
        <ele>96.7</ele>
        <time>2015-05-25T20:08:54.069Z</time>
      </trkpt>
      <trkpt lat="48.83572" lon="2.40601">
        <ele>96.7</ele>
        <time>2015-05-25T20:08:55.128Z</time>
      </trkpt>
      <trkpt lat="48.83574" lon="2.40588">
        <ele>97</ele>
        <time>2015-05-25T20:08:57.097Z</time>
      </trkpt>
      <trkpt lat="48.83575" lon="2.40582">
        <ele>97</ele>
        <time>2015-05-25T20:08:58.105Z</time>
      </trkpt>
      <trkpt lat="48.8358" lon="2.40572">
        <ele>97.1</ele>
        <time>2015-05-25T20:09:00.125Z</time>
      </trkpt>
      <trkpt lat="48.83582" lon="2.40566">
        <ele>97.2</ele>
        <time>2015-05-25T20:09:01.044Z</time>
      </trkpt>
      <trkpt lat="48.83586" lon="2.40555">
        <ele>96.9</ele>
        <time>2015-05-25T20:09:03.117Z</time>
      </trkpt>
      <trkpt lat="48.83588" lon="2.40549">
        <ele>97</ele>
        <time>2015-05-25T20:09:04.129Z</time>
      </trkpt>
      <trkpt lat="48.83592" lon="2.40538">
        <ele>97.1</ele>
        <time>2015-05-25T20:09:06.062Z</time>
      </trkpt>
      <trkpt lat="48.83594" lon="2.40532">
        <ele>97.2</ele>
        <time>2015-05-25T20:09:07.084Z</time>
      </trkpt>
      <trkpt lat="48.83597" lon="2.40527">
        <ele>97.4</ele>
        <time>2015-05-25T20:09:08.128Z</time>
      </trkpt>
      <trkpt lat="48.83599" lon="2.4052">
        <ele>97.8</ele>
        <time>2015-05-25T20:09:09.148Z</time>
      </trkpt>
      <trkpt lat="48.83605" lon="2.4051">
        <ele>98.6</ele>
        <time>2015-05-25T20:09:11.042Z</time>
      </trkpt>
      <trkpt lat="48.83608" lon="2.40505">
        <ele>98.7</ele>
        <time>2015-05-25T20:09:12.050Z</time>
      </trkpt>
      <trkpt lat="48.8361" lon="2.40499">
        <ele>98.8</ele>
        <time>2015-05-25T20:09:13.069Z</time>
      </trkpt>
      <trkpt lat="48.83612" lon="2.40492">
        <ele>98.9</ele>
        <time>2015-05-25T20:09:14.086Z</time>
      </trkpt>
      <trkpt lat="48.83615" lon="2.40486">
        <ele>99</ele>
        <time>2015-05-25T20:09:15.104Z</time>
      </trkpt>
      <trkpt lat="48.83617" lon="2.4048">
        <ele>98.4</ele>
        <time>2015-05-25T20:09:16.119Z</time>
      </trkpt>
      <trkpt lat="48.8362" lon="2.40473">
        <ele>98.3</ele>
        <time>2015-05-25T20:09:17.040Z</time>
      </trkpt>
      <trkpt lat="48.83623" lon="2.40467">
        <ele>98.9</ele>
        <time>2015-05-25T20:09:18.046Z</time>
      </trkpt>
      <trkpt lat="48.83626" lon="2.40462">
        <ele>99.2</ele>
        <time>2015-05-25T20:09:19.064Z</time>
      </trkpt>
      <trkpt lat="48.83629" lon="2.40457">
        <ele>99.1</ele>
        <time>2015-05-25T20:09:20.085Z</time>
      </trkpt>
      <trkpt lat="48.83631" lon="2.4045">
        <ele>99.2</ele>
        <time>2015-05-25T20:09:21.087Z</time>
      </trkpt>
      <trkpt lat="48.83632" lon="2.40443">
        <ele>99.5</ele>
        <time>2015-05-25T20:09:22.090Z</time>
      </trkpt>
      <trkpt lat="48.83634" lon="2.40436">
        <ele>99.7</ele>
        <time>2015-05-25T20:09:23.112Z</time>
      </trkpt>
      <trkpt lat="48.83635" lon="2.40429">
        <ele>99.7</ele>
        <time>2015-05-25T20:09:24.014Z</time>
      </trkpt>
      <trkpt lat="48.83637" lon="2.40422">
        <ele>99.6</ele>
        <time>2015-05-25T20:09:25.017Z</time>
      </trkpt>
      <trkpt lat="48.83639" lon="2.40414">
        <ele>99.4</ele>
        <time>2015-05-25T20:09:26.021Z</time>
      </trkpt>
      <trkpt lat="48.83641" lon="2.40406">
        <ele>99.2</ele>
        <time>2015-05-25T20:09:27.072Z</time>
      </trkpt>
      <trkpt lat="48.83643" lon="2.40399">
        <ele>99.1</ele>
        <time>2015-05-25T20:09:28.080Z</time>
      </trkpt>
      <trkpt lat="48.83645" lon="2.40392">
        <ele>99.1</ele>
        <time>2015-05-25T20:09:29.091Z</time>
      </trkpt>
      <trkpt lat="48.83646" lon="2.40385">
        <ele>99.2</ele>
        <time>2015-05-25T20:09:30.096Z</time>
      </trkpt>
      <trkpt lat="48.83648" lon="2.40378">
        <ele>99.3</ele>
        <time>2015-05-25T20:09:31.113Z</time>
      </trkpt>
      <trkpt lat="48.8365" lon="2.40369">
        <ele>99.3</ele>
        <time>2015-05-25T20:09:32.020Z</time>
      </trkpt>
      <trkpt lat="48.83653" lon="2.40362">
        <ele>99.8</ele>
        <time>2015-05-25T20:09:33.068Z</time>
      </trkpt>
      <trkpt lat="48.83657" lon="2.40357">
        <ele>100.2</ele>
        <time>2015-05-25T20:09:34.076Z</time>
      </trkpt>
      <trkpt lat="48.8366" lon="2.4035">
        <ele>100.1</ele>
        <time>2015-05-25T20:09:35.087Z</time>
      </trkpt>
      <trkpt lat="48.83663" lon="2.40343">
        <ele>99.9</ele>
        <time>2015-05-25T20:09:36.097Z</time>
      </trkpt>
      <trkpt lat="48.83666" lon="2.40335">
        <ele>99.8</ele>
        <time>2015-05-25T20:09:37.008Z</time>
      </trkpt>
      <trkpt lat="48.8367" lon="2.40328">
        <ele>99.7</ele>
        <time>2015-05-25T20:09:38.047Z</time>
      </trkpt>
      <trkpt lat="48.83674" lon="2.40321">
        <ele>99.6</ele>
        <time>2015-05-25T20:09:39.070Z</time>
      </trkpt>
      <trkpt lat="48.83678" lon="2.40314">
        <ele>99.5</ele>
        <time>2015-05-25T20:09:40.077Z</time>
      </trkpt>
      <trkpt lat="48.83681" lon="2.40305">
        <ele>99.7</ele>
        <time>2015-05-25T20:09:41.087Z</time>
      </trkpt>
      <trkpt lat="48.83684" lon="2.40295">
        <ele>100</ele>
        <time>2015-05-25T20:09:42.094Z</time>
      </trkpt>
      <trkpt lat="48.83687" lon="2.40286">
        <ele>100.1</ele>
        <time>2015-05-25T20:09:43.015Z</time>
      </trkpt>
      <trkpt lat="48.8369" lon="2.40277">
        <ele>99.9</ele>
        <time>2015-05-25T20:09:44.022Z</time>
      </trkpt>
      <trkpt lat="48.83693" lon="2.40268">
        <ele>100.1</ele>
        <time>2015-05-25T20:09:45.077Z</time>
      </trkpt>
      <trkpt lat="48.83696" lon="2.40258">
        <ele>100.1</ele>
        <time>2015-05-25T20:09:46.085Z</time>
      </trkpt>
      <trkpt lat="48.83697" lon="2.40246">
        <ele>100.4</ele>
        <time>2015-05-25T20:09:46.997Z</time>
      </trkpt>
      <trkpt lat="48.837" lon="2.40237">
        <ele>100.4</ele>
        <time>2015-05-25T20:09:48.100Z</time>
      </trkpt>
      <trkpt lat="48.83703" lon="2.40227">
        <ele>100.8</ele>
        <time>2015-05-25T20:09:49.020Z</time>
      </trkpt>
      <trkpt lat="48.83708" lon="2.40219">
        <ele>101.1</ele>
        <time>2015-05-25T20:09:50.030Z</time>
      </trkpt>
      <trkpt lat="48.83711" lon="2.40211">
        <ele>101.2</ele>
        <time>2015-05-25T20:09:51.061Z</time>
      </trkpt>
      <trkpt lat="48.83714" lon="2.40202">
        <ele>101.3</ele>
        <time>2015-05-25T20:09:52.060Z</time>
      </trkpt>
      <trkpt lat="48.83717" lon="2.40193">
        <ele>101.2</ele>
        <time>2015-05-25T20:09:53.065Z</time>
      </trkpt>
      <trkpt lat="48.83719" lon="2.40185">
        <ele>101.2</ele>
        <time>2015-05-25T20:09:54.071Z</time>
      </trkpt>
      <trkpt lat="48.83722" lon="2.40176">
        <ele>100.9</ele>
        <time>2015-05-25T20:09:55.083Z</time>
      </trkpt>
      <trkpt lat="48.83726" lon="2.40168">
        <ele>100.3</ele>
        <time>2015-05-25T20:09:56.089Z</time>
      </trkpt>
      <trkpt lat="48.8373" lon="2.40159">
        <ele>100.4</ele>
        <time>2015-05-25T20:09:57.112Z</time>
      </trkpt>
      <trkpt lat="48.83733" lon="2.40151">
        <ele>100.4</ele>
        <time>2015-05-25T20:09:58.013Z</time>
      </trkpt>
      <trkpt lat="48.83736" lon="2.40141">
        <ele>100.6</ele>
        <time>2015-05-25T20:09:59.029Z</time>
      </trkpt>
      <trkpt lat="48.8374" lon="2.40132">
        <ele>100.6</ele>
        <time>2015-05-25T20:10:00.041Z</time>
      </trkpt>
      <trkpt lat="48.83743" lon="2.40122">
        <ele>100.9</ele>
        <time>2015-05-25T20:10:01.052Z</time>
      </trkpt>
      <trkpt lat="48.83747" lon="2.40114">
        <ele>100.4</ele>
        <time>2015-05-25T20:10:02.059Z</time>
      </trkpt>
      <trkpt lat="48.83751" lon="2.40106">
        <ele>100.3</ele>
        <time>2015-05-25T20:10:03.073Z</time>
      </trkpt>
      <trkpt lat="48.83754" lon="2.40098">
        <ele>100.5</ele>
        <time>2015-05-25T20:10:04.082Z</time>
      </trkpt>
      <trkpt lat="48.83758" lon="2.4009">
        <ele>100</ele>
        <time>2015-05-25T20:10:05.094Z</time>
      </trkpt>
      <trkpt lat="48.83762" lon="2.40082">
        <ele>100.1</ele>
        <time>2015-05-25T20:10:06.008Z</time>
      </trkpt>
      <trkpt lat="48.83766" lon="2.40074">
        <ele>99.9</ele>
        <time>2015-05-25T20:10:07.027Z</time>
      </trkpt>
      <trkpt lat="48.83769" lon="2.40066">
        <ele>99.9</ele>
        <time>2015-05-25T20:10:08.036Z</time>
      </trkpt>
      <trkpt lat="48.83772" lon="2.40058">
        <ele>99.9</ele>
        <time>2015-05-25T20:10:09.048Z</time>
      </trkpt>
      <trkpt lat="48.83774" lon="2.4005">
        <ele>99.5</ele>
        <time>2015-05-25T20:10:10.057Z</time>
      </trkpt>
      <trkpt lat="48.83777" lon="2.40043">
        <ele>99.6</ele>
        <time>2015-05-25T20:10:11.072Z</time>
      </trkpt>
      <trkpt lat="48.8378" lon="2.40036">
        <ele>99.9</ele>
        <time>2015-05-25T20:10:12.130Z</time>
      </trkpt>
      <trkpt lat="48.83783" lon="2.40028">
        <ele>99.7</ele>
        <time>2015-05-25T20:10:13.008Z</time>
      </trkpt>
      <trkpt lat="48.83785" lon="2.40022">
        <ele>99.4</ele>
        <time>2015-05-25T20:10:14.008Z</time>
      </trkpt>
      <trkpt lat="48.83788" lon="2.40015">
        <ele>99.3</ele>
        <time>2015-05-25T20:10:15.055Z</time>
      </trkpt>
      <trkpt lat="48.83792" lon="2.40009">
        <ele>99.2</ele>
        <time>2015-05-25T20:10:16.062Z</time>
      </trkpt>
      <trkpt lat="48.83795" lon="2.40004">
        <ele>99.1</ele>
        <time>2015-05-25T20:10:17.085Z</time>
      </trkpt>
      <trkpt lat="48.83798" lon="2.39998">
        <ele>99.3</ele>
        <time>2015-05-25T20:10:18.097Z</time>
      </trkpt>
      <trkpt lat="48.83803" lon="2.39994">
        <ele>99.3</ele>
        <time>2015-05-25T20:10:19.003Z</time>
      </trkpt>
      <trkpt lat="48.83808" lon="2.39991">
        <ele>99</ele>
        <time>2015-05-25T20:10:20.013Z</time>
      </trkpt>
      <trkpt lat="48.83813" lon="2.39981">
        <ele>98.9</ele>
        <time>2015-05-25T20:10:22.061Z</time>
      </trkpt>
      <trkpt lat="48.83815" lon="2.39974">
        <ele>98.7</ele>
        <time>2015-05-25T20:10:23.139Z</time>
      </trkpt>
      <trkpt lat="48.83818" lon="2.39969">
        <ele>98.1</ele>
        <time>2015-05-25T20:10:24.014Z</time>
      </trkpt>
      <trkpt lat="48.8382" lon="2.39963">
        <ele>98.1</ele>
        <time>2015-05-25T20:10:25.019Z</time>
      </trkpt>
      <trkpt lat="48.83823" lon="2.39956">
        <ele>97.8</ele>
        <time>2015-05-25T20:10:26.027Z</time>
      </trkpt>
      <trkpt lat="48.83825" lon="2.39949">
        <ele>97.9</ele>
        <time>2015-05-25T20:10:27.075Z</time>
      </trkpt>
      <trkpt lat="48.83828" lon="2.39941">
        <ele>98.1</ele>
        <time>2015-05-25T20:10:27.987Z</time>
      </trkpt>
      <trkpt lat="48.8383" lon="2.39934">
        <ele>98.4</ele>
        <time>2015-05-25T20:10:29.008Z</time>
      </trkpt>
      <trkpt lat="48.83832" lon="2.39927">
        <ele>99</ele>
        <time>2015-05-25T20:10:30.011Z</time>
      </trkpt>
      <trkpt lat="48.83834" lon="2.3992">
        <ele>99.6</ele>
        <time>2015-05-25T20:10:31.098Z</time>
      </trkpt>
      <trkpt lat="48.83835" lon="2.39911">
        <ele>100.2</ele>
        <time>2015-05-25T20:10:32.084Z</time>
      </trkpt>
      <trkpt lat="48.83836" lon="2.39902">
        <ele>100.5</ele>
        <time>2015-05-25T20:10:33.090Z</time>
      </trkpt>
      <trkpt lat="48.83836" lon="2.39893">
        <ele>100.7</ele>
        <time>2015-05-25T20:10:34.018Z</time>
      </trkpt>
      <trkpt lat="48.83838" lon="2.39886">
        <ele>101.2</ele>
        <time>2015-05-25T20:10:35.069Z</time>
      </trkpt>
      <trkpt lat="48.83839" lon="2.39878">
        <ele>101.7</ele>
        <time>2015-05-25T20:10:36.036Z</time>
      </trkpt>
      <trkpt lat="48.83842" lon="2.39872">
        <ele>101.7</ele>
        <time>2015-05-25T20:10:37.064Z</time>
      </trkpt>
      <trkpt lat="48.83845" lon="2.39865">
        <ele>102</ele>
        <time>2015-05-25T20:10:38.074Z</time>
      </trkpt>
      <trkpt lat="48.83848" lon="2.39859">
        <ele>102.2</ele>
        <time>2015-05-25T20:10:39.084Z</time>
      </trkpt>
      <trkpt lat="48.83851" lon="2.39854">
        <ele>102.6</ele>
        <time>2015-05-25T20:10:40.010Z</time>
      </trkpt>
      <trkpt lat="48.83854" lon="2.39848">
        <ele>103.1</ele>
        <time>2015-05-25T20:10:41.028Z</time>
      </trkpt>
      <trkpt lat="48.8386" lon="2.3984">
        <ele>103.5</ele>
        <time>2015-05-25T20:10:43.050Z</time>
      </trkpt>
      <trkpt lat="48.83862" lon="2.39834">
        <ele>103.9</ele>
        <time>2015-05-25T20:10:44.073Z</time>
      </trkpt>
      <trkpt lat="48.83865" lon="2.39822">
        <ele>104.7</ele>
        <time>2015-05-25T20:10:46.015Z</time>
      </trkpt>
      <trkpt lat="48.83867" lon="2.39816">
        <ele>105.1</ele>
        <time>2015-05-25T20:10:47.020Z</time>
      </trkpt>
      <trkpt lat="48.83869" lon="2.3981">
        <ele>105.3</ele>
        <time>2015-05-25T20:10:48.009Z</time>
      </trkpt>
      <trkpt lat="48.83872" lon="2.39804">
        <ele>105.6</ele>
        <time>2015-05-25T20:10:49.033Z</time>
      </trkpt>
      <trkpt lat="48.83875" lon="2.39797">
        <ele>106</ele>
        <time>2015-05-25T20:10:50.048Z</time>
      </trkpt>
      <trkpt lat="48.83878" lon="2.39791">
        <ele>106.2</ele>
        <time>2015-05-25T20:10:51.061Z</time>
      </trkpt>
      <trkpt lat="48.83882" lon="2.39784">
        <ele>106.5</ele>
        <time>2015-05-25T20:10:51.981Z</time>
      </trkpt>
      <trkpt lat="48.83884" lon="2.39776">
        <ele>107</ele>
        <time>2015-05-25T20:10:53.009Z</time>
      </trkpt>
      <trkpt lat="48.83886" lon="2.39768">
        <ele>107.3</ele>
        <time>2015-05-25T20:10:52.805Z</time>
      </trkpt>
      <trkpt lat="48.83889" lon="2.3976">
        <ele>107.5</ele>
        <time>2015-05-25T20:10:55.070Z</time>
      </trkpt>
      <trkpt lat="48.83891" lon="2.39751">
        <ele>107.8</ele>
        <time>2015-05-25T20:10:56.077Z</time>
      </trkpt>
      <trkpt lat="48.83894" lon="2.39741">
        <ele>108.1</ele>
        <time>2015-05-25T20:10:57.090Z</time>
      </trkpt>
      <trkpt lat="48.83896" lon="2.39732">
        <ele>108.3</ele>
        <time>2015-05-25T20:10:58.011Z</time>
      </trkpt>
      <trkpt lat="48.83898" lon="2.39724">
        <ele>108.6</ele>
        <time>2015-05-25T20:10:59.007Z</time>
      </trkpt>
      <trkpt lat="48.83901" lon="2.39715">
        <ele>108.8</ele>
        <time>2015-05-25T20:11:00.021Z</time>
      </trkpt>
      <trkpt lat="48.83904" lon="2.39707">
        <ele>108.9</ele>
        <time>2015-05-25T20:11:01.066Z</time>
      </trkpt>
      <trkpt lat="48.83907" lon="2.39697">
        <ele>108.3</ele>
        <time>2015-05-25T20:11:02.076Z</time>
      </trkpt>
      <trkpt lat="48.83909" lon="2.39688">
        <ele>108.6</ele>
        <time>2015-05-25T20:11:03.085Z</time>
      </trkpt>
      <trkpt lat="48.83912" lon="2.39681">
        <ele>108.3</ele>
        <time>2015-05-25T20:11:03.971Z</time>
      </trkpt>
      <trkpt lat="48.83915" lon="2.39674">
        <ele>107.8</ele>
        <time>2015-05-25T20:11:05.000Z</time>
      </trkpt>
      <trkpt lat="48.83919" lon="2.39661">
        <ele>107.1</ele>
        <time>2015-05-25T20:11:07.050Z</time>
      </trkpt>
      <trkpt lat="48.8392" lon="2.39655">
        <ele>106.6</ele>
        <time>2015-05-25T20:11:08.072Z</time>
      </trkpt>
      <trkpt lat="48.83925" lon="2.39644">
        <ele>106.7</ele>
        <time>2015-05-25T20:11:10.092Z</time>
      </trkpt>
      <trkpt lat="48.83925" lon="2.39638">
        <ele>107</ele>
        <time>2015-05-25T20:11:11.115Z</time>
      </trkpt>
      <trkpt lat="48.8393" lon="2.39627">
        <ele>106.7</ele>
        <time>2015-05-25T20:11:14.047Z</time>
      </trkpt>
      <trkpt lat="48.83931" lon="2.39624">
        <ele>106.5</ele>
        <time>2015-05-25T20:11:15.072Z</time>
      </trkpt>
      <trkpt lat="48.83935" lon="2.39612">
        <ele>108.1</ele>
        <time>2015-05-25T20:11:19.012Z</time>
      </trkpt>
      <trkpt lat="48.83937" lon="2.39614">
        <ele>107.3</ele>
        <time>2015-05-25T20:11:20.026Z</time>
      </trkpt>
      <trkpt lat="48.83939" lon="2.3962">
        <ele>106</ele>
        <time>2015-05-25T20:13:31.105Z</time>
      </trkpt>
      <trkpt lat="48.83948" lon="2.39623">
        <ele>105.9</ele>
        <time>2015-05-25T20:13:32.050Z</time>
      </trkpt>
      <trkpt lat="48.83955" lon="2.39616">
        <ele>105.6</ele>
        <time>2015-05-25T20:13:35.102Z</time>
      </trkpt>
      <trkpt lat="48.83957" lon="2.39614">
        <ele>105.8</ele>
        <time>2015-05-25T20:13:36.117Z</time>
      </trkpt>
      <trkpt lat="48.83964" lon="2.39608">
        <ele>105.9</ele>
        <time>2015-05-25T20:13:38.034Z</time>
      </trkpt>
      <trkpt lat="48.83968" lon="2.39604">
        <ele>105.8</ele>
        <time>2015-05-25T20:13:39.100Z</time>
      </trkpt>
      <trkpt lat="48.83974" lon="2.39598">
        <ele>105.4</ele>
        <time>2015-05-25T20:13:41.019Z</time>
      </trkpt>
      <trkpt lat="48.83977" lon="2.39593">
        <ele>105.2</ele>
        <time>2015-05-25T20:13:42.032Z</time>
      </trkpt>
      <trkpt lat="48.8398" lon="2.39582">
        <ele>105.1</ele>
        <time>2015-05-25T20:13:44.057Z</time>
      </trkpt>
      <trkpt lat="48.8398" lon="2.39576">
        <ele>104.9</ele>
        <time>2015-05-25T20:13:45.070Z</time>
      </trkpt>
      <trkpt lat="48.83978" lon="2.39564">
        <ele>105</ele>
        <time>2015-05-25T20:13:47.100Z</time>
      </trkpt>
      <trkpt lat="48.83975" lon="2.39559">
        <ele>105</ele>
        <time>2015-05-25T20:13:48.101Z</time>
      </trkpt>
      <trkpt lat="48.83969" lon="2.39553">
        <ele>104.7</ele>
        <time>2015-05-25T20:13:50.039Z</time>
      </trkpt>
      <trkpt lat="48.83965" lon="2.39551">
        <ele>104.7</ele>
        <time>2015-05-25T20:13:51.101Z</time>
      </trkpt>
      <trkpt lat="48.83958" lon="2.39552">
        <ele>104.1</ele>
        <time>2015-05-25T20:13:53.044Z</time>
      </trkpt>
      <trkpt lat="48.83955" lon="2.39554">
        <ele>104.1</ele>
        <time>2015-05-25T20:13:54.057Z</time>
      </trkpt>
      <trkpt lat="48.83948" lon="2.39563">
        <ele>103.7</ele>
        <time>2015-05-25T20:13:56.075Z</time>
      </trkpt>
      <trkpt lat="48.83947" lon="2.39569">
        <ele>103.1</ele>
        <time>2015-05-25T20:13:57.094Z</time>
      </trkpt>
      <trkpt lat="48.83945" lon="2.39583">
        <ele>103.3</ele>
        <time>2015-05-25T20:13:59.030Z</time>
      </trkpt>
      <trkpt lat="48.83946" lon="2.39589">
        <ele>103.1</ele>
        <time>2015-05-25T20:14:00.118Z</time>
      </trkpt>
      <trkpt lat="48.83951" lon="2.396">
        <ele>102.7</ele>
        <time>2015-05-25T20:14:02.092Z</time>
      </trkpt>
      <trkpt lat="48.83954" lon="2.39603">
        <ele>102.6</ele>
        <time>2015-05-25T20:14:03.126Z</time>
      </trkpt>
      <trkpt lat="48.83958" lon="2.39605">
        <ele>102.6</ele>
        <time>2015-05-25T20:14:04.042Z</time>
      </trkpt>
      <trkpt lat="48.83963" lon="2.39606">
        <ele>102.7</ele>
        <time>2015-05-25T20:14:05.042Z</time>
      </trkpt>
      <trkpt lat="48.83971" lon="2.39602">
        <ele>102.5</ele>
        <time>2015-05-25T20:14:07.062Z</time>
      </trkpt>
      <trkpt lat="48.83975" lon="2.39597">
        <ele>102.4</ele>
        <time>2015-05-25T20:14:08.286Z</time>
      </trkpt>
      <trkpt lat="48.83977" lon="2.39591">
        <ele>102.2</ele>
        <time>2015-05-25T20:14:09.186Z</time>
      </trkpt>
      <trkpt lat="48.83978" lon="2.39584">
        <ele>102.3</ele>
        <time>2015-05-25T20:14:10.119Z</time>
      </trkpt>
      <trkpt lat="48.83978" lon="2.39577">
        <ele>102.4</ele>
        <time>2015-05-25T20:14:11.040Z</time>
      </trkpt>
      <trkpt lat="48.83977" lon="2.3957">
        <ele>102.4</ele>
        <time>2015-05-25T20:14:12.038Z</time>
      </trkpt>
      <trkpt lat="48.83977" lon="2.39564">
        <ele>102.7</ele>
        <time>2015-05-25T20:14:13.059Z</time>
      </trkpt>
      <trkpt lat="48.83977" lon="2.39557">
        <ele>103</ele>
        <time>2015-05-25T20:14:14.068Z</time>
      </trkpt>
      <trkpt lat="48.83977" lon="2.3955">
        <ele>103.1</ele>
        <time>2015-05-25T20:14:15.097Z</time>
      </trkpt>
      <trkpt lat="48.83977" lon="2.39543">
        <ele>103.3</ele>
        <time>2015-05-25T20:14:16.105Z</time>
      </trkpt>
      <trkpt lat="48.83978" lon="2.3953">
        <ele>103.3</ele>
        <time>2015-05-25T20:14:18.112Z</time>
      </trkpt>
      <trkpt lat="48.83978" lon="2.39523">
        <ele>103.4</ele>
        <time>2015-05-25T20:14:19.025Z</time>
      </trkpt>
      <trkpt lat="48.83979" lon="2.39509">
        <ele>103.9</ele>
        <time>2015-05-25T20:14:21.084Z</time>
      </trkpt>
      <trkpt lat="48.8398" lon="2.39503">
        <ele>103.9</ele>
        <time>2015-05-25T20:14:22.002Z</time>
      </trkpt>
      <trkpt lat="48.83982" lon="2.3949">
        <ele>104.2</ele>
        <time>2015-05-25T20:14:24.621Z</time>
      </trkpt>
      <trkpt lat="48.83984" lon="2.39483">
        <ele>103.9</ele>
        <time>2015-05-25T20:14:25.025Z</time>
      </trkpt>
      <trkpt lat="48.83985" lon="2.39477">
        <ele>104.1</ele>
        <time>2015-05-25T20:14:26.035Z</time>
      </trkpt>
      <trkpt lat="48.83987" lon="2.39471">
        <ele>104.1</ele>
        <time>2015-05-25T20:14:27.058Z</time>
      </trkpt>
      <trkpt lat="48.83989" lon="2.39464">
        <ele>104.3</ele>
        <time>2015-05-25T20:14:28.107Z</time>
      </trkpt>
      <trkpt lat="48.83991" lon="2.39458">
        <ele>104.4</ele>
        <time>2015-05-25T20:14:29.110Z</time>
      </trkpt>
      <trkpt lat="48.83993" lon="2.39452">
        <ele>104.4</ele>
        <time>2015-05-25T20:14:30.050Z</time>
      </trkpt>
      <trkpt lat="48.83996" lon="2.39445">
        <ele>105.1</ele>
        <time>2015-05-25T20:14:31.027Z</time>
      </trkpt>
      <trkpt lat="48.83999" lon="2.39433">
        <ele>105.3</ele>
        <time>2015-05-25T20:14:33.096Z</time>
      </trkpt>
      <trkpt lat="48.83999" lon="2.39426">
        <ele>105.4</ele>
        <time>2015-05-25T20:14:34.173Z</time>
      </trkpt>
      <trkpt lat="48.84" lon="2.39418">
        <ele>105.8</ele>
        <time>2015-05-25T20:14:35.018Z</time>
      </trkpt>
      <trkpt lat="48.84002" lon="2.39411">
        <ele>106</ele>
        <time>2015-05-25T20:14:36.026Z</time>
      </trkpt>
      <trkpt lat="48.84004" lon="2.39401">
        <ele>105.9</ele>
        <time>2015-05-25T20:14:37.037Z</time>
      </trkpt>
      <trkpt lat="48.84006" lon="2.39392">
        <ele>106.1</ele>
        <time>2015-05-25T20:14:38.043Z</time>
      </trkpt>
      <trkpt lat="48.84008" lon="2.39382">
        <ele>105.7</ele>
        <time>2015-05-25T20:14:39.069Z</time>
      </trkpt>
      <trkpt lat="48.8401" lon="2.39372">
        <ele>106</ele>
        <time>2015-05-25T20:14:40.072Z</time>
      </trkpt>
      <trkpt lat="48.84011" lon="2.39364">
        <ele>106.1</ele>
        <time>2015-05-25T20:14:41.082Z</time>
      </trkpt>
      <trkpt lat="48.84012" lon="2.39354">
        <ele>106.4</ele>
        <time>2015-05-25T20:14:42.083Z</time>
      </trkpt>
      <trkpt lat="48.84012" lon="2.39344">
        <ele>106.5</ele>
        <time>2015-05-25T20:14:43.102Z</time>
      </trkpt>
      <trkpt lat="48.84013" lon="2.39336">
        <ele>106.7</ele>
        <time>2015-05-25T20:14:44.115Z</time>
      </trkpt>
      <trkpt lat="48.84015" lon="2.3933">
        <ele>106.7</ele>
        <time>2015-05-25T20:14:45.051Z</time>
      </trkpt>
      <trkpt lat="48.84018" lon="2.39324">
        <ele>107</ele>
        <time>2015-05-25T20:14:46.057Z</time>
      </trkpt>
      <trkpt lat="48.84019" lon="2.39317">
        <ele>107.4</ele>
        <time>2015-05-25T20:14:47.078Z</time>
      </trkpt>
      <trkpt lat="48.84021" lon="2.3931">
        <ele>107.8</ele>
        <time>2015-05-25T20:14:48.093Z</time>
      </trkpt>
      <trkpt lat="48.84022" lon="2.39302">
        <ele>108</ele>
        <time>2015-05-25T20:14:49.132Z</time>
      </trkpt>
      <trkpt lat="48.84025" lon="2.39293">
        <ele>108.6</ele>
        <time>2015-05-25T20:14:49.995Z</time>
      </trkpt>
      <trkpt lat="48.84026" lon="2.39285">
        <ele>109</ele>
        <time>2015-05-25T20:14:51.046Z</time>
      </trkpt>
      <trkpt lat="48.84027" lon="2.39276">
        <ele>109.3</ele>
        <time>2015-05-25T20:14:52.054Z</time>
      </trkpt>
      <trkpt lat="48.84028" lon="2.39269">
        <ele>109.6</ele>
        <time>2015-05-25T20:14:53.071Z</time>
      </trkpt>
      <trkpt lat="48.84028" lon="2.3926">
        <ele>109.6</ele>
        <time>2015-05-25T20:14:54.078Z</time>
      </trkpt>
      <trkpt lat="48.84028" lon="2.39251">
        <ele>108.9</ele>
        <time>2015-05-25T20:14:55.089Z</time>
      </trkpt>
      <trkpt lat="48.8403" lon="2.39244">
        <ele>108.8</ele>
        <time>2015-05-25T20:14:56.109Z</time>
      </trkpt>
      <trkpt lat="48.84032" lon="2.39236">
        <ele>108.8</ele>
        <time>2015-05-25T20:14:57.125Z</time>
      </trkpt>
      <trkpt lat="48.84034" lon="2.39227">
        <ele>108.8</ele>
        <time>2015-05-25T20:14:58.021Z</time>
      </trkpt>
      <trkpt lat="48.84036" lon="2.39219">
        <ele>109</ele>
        <time>2015-05-25T20:14:59.045Z</time>
      </trkpt>
      <trkpt lat="48.84038" lon="2.39211">
        <ele>109.1</ele>
        <time>2015-05-25T20:15:00.075Z</time>
      </trkpt>
      <trkpt lat="48.84042" lon="2.39203">
        <ele>109.3</ele>
        <time>2015-05-25T20:15:01.084Z</time>
      </trkpt>
      <trkpt lat="48.84044" lon="2.39195">
        <ele>109.4</ele>
        <time>2015-05-25T20:15:02.099Z</time>
      </trkpt>
      <trkpt lat="48.84047" lon="2.39187">
        <ele>109.4</ele>
        <time>2015-05-25T20:15:03.112Z</time>
      </trkpt>
      <trkpt lat="48.84051" lon="2.39178">
        <ele>109.6</ele>
        <time>2015-05-25T20:15:04.012Z</time>
      </trkpt>
      <trkpt lat="48.84053" lon="2.39169">
        <ele>109.6</ele>
        <time>2015-05-25T20:15:05.019Z</time>
      </trkpt>
      <trkpt lat="48.84056" lon="2.39158">
        <ele>109.8</ele>
        <time>2015-05-25T20:15:06.052Z</time>
      </trkpt>
      <trkpt lat="48.84058" lon="2.39148">
        <ele>109.9</ele>
        <time>2015-05-25T20:15:07.048Z</time>
      </trkpt>
      <trkpt lat="48.8406" lon="2.39139">
        <ele>110</ele>
        <time>2015-05-25T20:15:08.060Z</time>
      </trkpt>
      <trkpt lat="48.84062" lon="2.39129">
        <ele>110</ele>
        <time>2015-05-25T20:15:09.076Z</time>
      </trkpt>
      <trkpt lat="48.84065" lon="2.3912">
        <ele>110.2</ele>
        <time>2015-05-25T20:15:09.987Z</time>
      </trkpt>
      <trkpt lat="48.84064" lon="2.39107">
        <ele>110.5</ele>
        <time>2015-05-25T20:15:11.000Z</time>
      </trkpt>
      <trkpt lat="48.84066" lon="2.39097">
        <ele>110.5</ele>
        <time>2015-05-25T20:15:11.981Z</time>
      </trkpt>
      <trkpt lat="48.84068" lon="2.39087">
        <ele>110.5</ele>
        <time>2015-05-25T20:15:13.029Z</time>
      </trkpt>
      <trkpt lat="48.84073" lon="2.39079">
        <ele>110.3</ele>
        <time>2015-05-25T20:15:14.033Z</time>
      </trkpt>
      <trkpt lat="48.84077" lon="2.3907">
        <ele>110.2</ele>
        <time>2015-05-25T20:15:15.043Z</time>
      </trkpt>
      <trkpt lat="48.84081" lon="2.39061">
        <ele>110.4</ele>
        <time>2015-05-25T20:15:16.151Z</time>
      </trkpt>
      <trkpt lat="48.84086" lon="2.39052">
        <ele>110.5</ele>
        <time>2015-05-25T20:15:17.002Z</time>
      </trkpt>
      <trkpt lat="48.8409" lon="2.39044">
        <ele>110.6</ele>
        <time>2015-05-25T20:15:18.012Z</time>
      </trkpt>
      <trkpt lat="48.84095" lon="2.39037">
        <ele>110.6</ele>
        <time>2015-05-25T20:15:19.022Z</time>
      </trkpt>
      <trkpt lat="48.84098" lon="2.39029">
        <ele>110.8</ele>
        <time>2015-05-25T20:15:20.026Z</time>
      </trkpt>
      <trkpt lat="48.84099" lon="2.39021">
        <ele>110.8</ele>
        <time>2015-05-25T20:15:21.076Z</time>
      </trkpt>
      <trkpt lat="48.84098" lon="2.39009">
        <ele>110.5</ele>
        <time>2015-05-25T20:15:22.081Z</time>
      </trkpt>
      <trkpt lat="48.84099" lon="2.38999">
        <ele>110.4</ele>
        <time>2015-05-25T20:15:22.979Z</time>
      </trkpt>
      <trkpt lat="48.841" lon="2.38989">
        <ele>110.3</ele>
        <time>2015-05-25T20:15:24.012Z</time>
      </trkpt>
      <trkpt lat="48.84101" lon="2.38979">
        <ele>110.3</ele>
        <time>2015-05-25T20:15:25.025Z</time>
      </trkpt>
      <trkpt lat="48.84102" lon="2.3897">
        <ele>110.3</ele>
        <time>2015-05-25T20:15:26.048Z</time>
      </trkpt>
      <trkpt lat="48.84103" lon="2.38958">
        <ele>110.3</ele>
        <time>2015-05-25T20:15:27.062Z</time>
      </trkpt>
      <trkpt lat="48.84103" lon="2.38946">
        <ele>110.3</ele>
        <time>2015-05-25T20:15:27.987Z</time>
      </trkpt>
      <trkpt lat="48.84104" lon="2.38933">
        <ele>110</ele>
        <time>2015-05-25T20:15:28.969Z</time>
      </trkpt>
      <trkpt lat="48.84106" lon="2.38923">
        <ele>109.9</ele>
        <time>2015-05-25T20:15:29.974Z</time>
      </trkpt>
      <trkpt lat="48.84108" lon="2.38913">
        <ele>109.9</ele>
        <time>2015-05-25T20:15:30.995Z</time>
      </trkpt>
      <trkpt lat="48.8411" lon="2.38904">
        <ele>109.9</ele>
        <time>2015-05-25T20:15:32.017Z</time>
      </trkpt>
      <trkpt lat="48.84113" lon="2.38895">
        <ele>110.1</ele>
        <time>2015-05-25T20:15:33.047Z</time>
      </trkpt>
      <trkpt lat="48.84114" lon="2.38886">
        <ele>110.5</ele>
        <time>2015-05-25T20:15:34.055Z</time>
      </trkpt>
      <trkpt lat="48.84115" lon="2.38877">
        <ele>110.7</ele>
        <time>2015-05-25T20:15:34.984Z</time>
      </trkpt>
      <trkpt lat="48.84118" lon="2.38868">
        <ele>111</ele>
        <time>2015-05-25T20:15:35.972Z</time>
      </trkpt>
      <trkpt lat="48.8412" lon="2.38859">
        <ele>111.2</ele>
        <time>2015-05-25T20:15:36.983Z</time>
      </trkpt>
      <trkpt lat="48.84123" lon="2.38849">
        <ele>111.6</ele>
        <time>2015-05-25T20:15:37.982Z</time>
      </trkpt>
      <trkpt lat="48.84126" lon="2.38841">
        <ele>111.7</ele>
        <time>2015-05-25T20:15:39.007Z</time>
      </trkpt>
      <trkpt lat="48.84127" lon="2.38832">
        <ele>111</ele>
        <time>2015-05-25T20:15:40.010Z</time>
      </trkpt>
      <trkpt lat="48.84129" lon="2.38822">
        <ele>110.2</ele>
        <time>2015-05-25T20:15:40.967Z</time>
      </trkpt>
      <trkpt lat="48.8413" lon="2.38812">
        <ele>109.9</ele>
        <time>2015-05-25T20:15:42.000Z</time>
      </trkpt>
      <trkpt lat="48.84131" lon="2.38802">
        <ele>110.3</ele>
        <time>2015-05-25T20:15:43.034Z</time>
      </trkpt>
      <trkpt lat="48.84135" lon="2.38794">
        <ele>108.7</ele>
        <time>2015-05-25T20:15:44.036Z</time>
      </trkpt>
      <trkpt lat="48.84138" lon="2.38786">
        <ele>107.8</ele>
        <time>2015-05-25T20:15:45.042Z</time>
      </trkpt>
      <trkpt lat="48.84141" lon="2.38778">
        <ele>106.9</ele>
        <time>2015-05-25T20:15:46.055Z</time>
      </trkpt>
      <trkpt lat="48.84144" lon="2.3877">
        <ele>106</ele>
        <time>2015-05-25T20:15:47.076Z</time>
      </trkpt>
      <trkpt lat="48.84147" lon="2.38762">
        <ele>105.4</ele>
        <time>2015-05-25T20:15:48.080Z</time>
      </trkpt>
      <trkpt lat="48.84149" lon="2.38754">
        <ele>104.7</ele>
        <time>2015-05-25T20:15:49.013Z</time>
      </trkpt>
      <trkpt lat="48.84151" lon="2.38746">
        <ele>103.8</ele>
        <time>2015-05-25T20:15:50.073Z</time>
      </trkpt>
      <trkpt lat="48.84153" lon="2.38738">
        <ele>103.1</ele>
        <time>2015-05-25T20:15:51.112Z</time>
      </trkpt>
      <trkpt lat="48.84154" lon="2.3873">
        <ele>102.6</ele>
        <time>2015-05-25T20:15:52.078Z</time>
      </trkpt>
      <trkpt lat="48.84156" lon="2.38722">
        <ele>102.6</ele>
        <time>2015-05-25T20:15:53.024Z</time>
      </trkpt>
      <trkpt lat="48.84159" lon="2.38714">
        <ele>104.1</ele>
        <time>2015-05-25T20:15:54.039Z</time>
      </trkpt>
      <trkpt lat="48.84161" lon="2.38705">
        <ele>105.1</ele>
        <time>2015-05-25T20:15:55.055Z</time>
      </trkpt>
      <trkpt lat="48.84164" lon="2.38697">
        <ele>105.9</ele>
        <time>2015-05-25T20:15:56.061Z</time>
      </trkpt>
      <trkpt lat="48.84167" lon="2.38691">
        <ele>106</ele>
        <time>2015-05-25T20:15:57.093Z</time>
      </trkpt>
      <trkpt lat="48.8417" lon="2.38685">
        <ele>106.2</ele>
        <time>2015-05-25T20:15:58.085Z</time>
      </trkpt>
      <trkpt lat="48.84173" lon="2.38677">
        <ele>106.5</ele>
        <time>2015-05-25T20:15:59.091Z</time>
      </trkpt>
      <trkpt lat="48.84176" lon="2.3867">
        <ele>106.6</ele>
        <time>2015-05-25T20:16:00.102Z</time>
      </trkpt>
      <trkpt lat="48.8418" lon="2.38662">
        <ele>106.8</ele>
        <time>2015-05-25T20:16:01.061Z</time>
      </trkpt>
      <trkpt lat="48.84184" lon="2.38656">
        <ele>106.8</ele>
        <time>2015-05-25T20:16:02.081Z</time>
      </trkpt>
      <trkpt lat="48.84187" lon="2.38649">
        <ele>106.7</ele>
        <time>2015-05-25T20:16:03.101Z</time>
      </trkpt>
      <trkpt lat="48.84191" lon="2.38644">
        <ele>106.5</ele>
        <time>2015-05-25T20:16:04.016Z</time>
      </trkpt>
      <trkpt lat="48.84194" lon="2.38638">
        <ele>106.4</ele>
        <time>2015-05-25T20:16:05.029Z</time>
      </trkpt>
      <trkpt lat="48.84196" lon="2.38631">
        <ele>106.3</ele>
        <time>2015-05-25T20:16:06.042Z</time>
      </trkpt>
      <trkpt lat="48.84198" lon="2.38624">
        <ele>106.1</ele>
        <time>2015-05-25T20:16:07.073Z</time>
      </trkpt>
      <trkpt lat="48.84201" lon="2.38618">
        <ele>106.1</ele>
        <time>2015-05-25T20:16:08.080Z</time>
      </trkpt>
      <trkpt lat="48.84204" lon="2.38612">
        <ele>106.2</ele>
        <time>2015-05-25T20:16:09.101Z</time>
      </trkpt>
      <trkpt lat="48.84208" lon="2.38606">
        <ele>106.3</ele>
        <time>2015-05-25T20:16:09.999Z</time>
      </trkpt>
      <trkpt lat="48.84213" lon="2.386">
        <ele>106.3</ele>
        <time>2015-05-25T20:16:11.015Z</time>
      </trkpt>
      <trkpt lat="48.84217" lon="2.38592">
        <ele>105.7</ele>
        <time>2015-05-25T20:16:12.028Z</time>
      </trkpt>
      <trkpt lat="48.84221" lon="2.38585">
        <ele>105.3</ele>
        <time>2015-05-25T20:16:13.065Z</time>
      </trkpt>
      <trkpt lat="48.84224" lon="2.3858">
        <ele>105.1</ele>
        <time>2015-05-25T20:16:14.078Z</time>
      </trkpt>
      <trkpt lat="48.84228" lon="2.38573">
        <ele>105.1</ele>
        <time>2015-05-25T20:16:15.090Z</time>
      </trkpt>
      <trkpt lat="48.84232" lon="2.38568">
        <ele>105.4</ele>
        <time>2015-05-25T20:16:16.173Z</time>
      </trkpt>
      <trkpt lat="48.84237" lon="2.38563">
        <ele>105.7</ele>
        <time>2015-05-25T20:16:16.999Z</time>
      </trkpt>
      <trkpt lat="48.84242" lon="2.38558">
        <ele>105.7</ele>
        <time>2015-05-25T20:16:18.010Z</time>
      </trkpt>
      <trkpt lat="48.84246" lon="2.38554">
        <ele>106.2</ele>
        <time>2015-05-25T20:16:19.017Z</time>
      </trkpt>
      <trkpt lat="48.8425" lon="2.3855">
        <ele>106.4</ele>
        <time>2015-05-25T20:16:20.025Z</time>
      </trkpt>
      <trkpt lat="48.84253" lon="2.38543">
        <ele>106.5</ele>
        <time>2015-05-25T20:16:21.039Z</time>
      </trkpt>
      <trkpt lat="48.84251" lon="2.38534">
        <ele>105.8</ele>
        <time>2015-05-25T20:16:22.037Z</time>
      </trkpt>
      <trkpt lat="48.84251" lon="2.38525">
        <ele>105.5</ele>
        <time>2015-05-25T20:16:23.054Z</time>
      </trkpt>
      <trkpt lat="48.84252" lon="2.38518">
        <ele>105.2</ele>
        <time>2015-05-25T20:16:24.063Z</time>
      </trkpt>
      <trkpt lat="48.84254" lon="2.38511">
        <ele>105.1</ele>
        <time>2015-05-25T20:16:25.075Z</time>
      </trkpt>
      <trkpt lat="48.84256" lon="2.38505">
        <ele>105.7</ele>
        <time>2015-05-25T20:16:26.001Z</time>
      </trkpt>
      <trkpt lat="48.84259" lon="2.38499">
        <ele>106.5</ele>
        <time>2015-05-25T20:16:27.057Z</time>
      </trkpt>
      <trkpt lat="48.84262" lon="2.38494">
        <ele>106.9</ele>
        <time>2015-05-25T20:16:28.062Z</time>
      </trkpt>
      <trkpt lat="48.84266" lon="2.38489">
        <ele>107.2</ele>
        <time>2015-05-25T20:16:28.976Z</time>
      </trkpt>
      <trkpt lat="48.8427" lon="2.38483">
        <ele>107.4</ele>
        <time>2015-05-25T20:16:30.002Z</time>
      </trkpt>
      <trkpt lat="48.84273" lon="2.38477">
        <ele>107.6</ele>
        <time>2015-05-25T20:16:31.004Z</time>
      </trkpt>
      <trkpt lat="48.84277" lon="2.38471">
        <ele>107.5</ele>
        <time>2015-05-25T20:16:32.015Z</time>
      </trkpt>
      <trkpt lat="48.84281" lon="2.38466">
        <ele>107.6</ele>
        <time>2015-05-25T20:16:33.058Z</time>
      </trkpt>
      <trkpt lat="48.84285" lon="2.38461">
        <ele>107.9</ele>
        <time>2015-05-25T20:16:34.065Z</time>
      </trkpt>
      <trkpt lat="48.84291" lon="2.38457">
        <ele>108.2</ele>
        <time>2015-05-25T20:16:35.074Z</time>
      </trkpt>
      <trkpt lat="48.84295" lon="2.3845">
        <ele>108.2</ele>
        <time>2015-05-25T20:16:36.077Z</time>
      </trkpt>
      <trkpt lat="48.84298" lon="2.38444">
        <ele>108.3</ele>
        <time>2015-05-25T20:16:37.087Z</time>
      </trkpt>
      <trkpt lat="48.84302" lon="2.38438">
        <ele>108.8</ele>
        <time>2015-05-25T20:16:38.093Z</time>
      </trkpt>
      <trkpt lat="48.84307" lon="2.38433">
        <ele>109.4</ele>
        <time>2015-05-25T20:16:39.112Z</time>
      </trkpt>
      <trkpt lat="48.84311" lon="2.38428">
        <ele>109.8</ele>
        <time>2015-05-25T20:16:40.011Z</time>
      </trkpt>
      <trkpt lat="48.84314" lon="2.38422">
        <ele>110.1</ele>
        <time>2015-05-25T20:16:41.013Z</time>
      </trkpt>
      <trkpt lat="48.84317" lon="2.38416">
        <ele>110.3</ele>
        <time>2015-05-25T20:16:42.028Z</time>
      </trkpt>
      <trkpt lat="48.84319" lon="2.38409">
        <ele>110.8</ele>
        <time>2015-05-25T20:16:43.029Z</time>
      </trkpt>
      <trkpt lat="48.84321" lon="2.38403">
        <ele>111.2</ele>
        <time>2015-05-25T20:16:44.046Z</time>
      </trkpt>
      <trkpt lat="48.84322" lon="2.38394">
        <ele>111.1</ele>
        <time>2015-05-25T20:16:45.073Z</time>
      </trkpt>
      <trkpt lat="48.84321" lon="2.38386">
        <ele>110.9</ele>
        <time>2015-05-25T20:16:46.084Z</time>
      </trkpt>
      <trkpt lat="48.84323" lon="2.38373">
        <ele>111.7</ele>
        <time>2015-05-25T20:16:48.012Z</time>
      </trkpt>
      <trkpt lat="48.84325" lon="2.38368">
        <ele>112.4</ele>
        <time>2015-05-25T20:16:49.116Z</time>
      </trkpt>
      <trkpt lat="48.84328" lon="2.38358">
        <ele>113.7</ele>
        <time>2015-05-25T20:16:51.070Z</time>
      </trkpt>
      <trkpt lat="48.84331" lon="2.38353">
        <ele>114</ele>
        <time>2015-05-25T20:16:52.054Z</time>
      </trkpt>
      <trkpt lat="48.84337" lon="2.38346">
        <ele>113.8</ele>
        <time>2015-05-25T20:16:54.029Z</time>
      </trkpt>
      <trkpt lat="48.8434" lon="2.38342">
        <ele>113.9</ele>
        <time>2015-05-25T20:16:55.055Z</time>
      </trkpt>
      <trkpt lat="48.84346" lon="2.38333">
        <ele>113.7</ele>
        <time>2015-05-25T20:16:57.086Z</time>
      </trkpt>
      <trkpt lat="48.84349" lon="2.38329">
        <ele>113.6</ele>
        <time>2015-05-25T20:16:58.094Z</time>
      </trkpt>
      <trkpt lat="48.84353" lon="2.3832">
        <ele>113.3</ele>
        <time>2015-05-25T20:17:00.054Z</time>
      </trkpt>
      <trkpt lat="48.84356" lon="2.38316">
        <ele>113.5</ele>
        <time>2015-05-25T20:17:01.041Z</time>
      </trkpt>
      <trkpt lat="48.84361" lon="2.38305">
        <ele>114.3</ele>
        <time>2015-05-25T20:17:03.067Z</time>
      </trkpt>
      <trkpt lat="48.84364" lon="2.383">
        <ele>114.4</ele>
        <time>2015-05-25T20:17:04.075Z</time>
      </trkpt>
      <trkpt lat="48.84368" lon="2.38295">
        <ele>114.4</ele>
        <time>2015-05-25T20:17:05.085Z</time>
      </trkpt>
      <trkpt lat="48.84371" lon="2.3829">
        <ele>114.5</ele>
        <time>2015-05-25T20:17:06.013Z</time>
      </trkpt>
      <trkpt lat="48.84375" lon="2.3828">
        <ele>114.3</ele>
        <time>2015-05-25T20:17:07.993Z</time>
      </trkpt>
      <trkpt lat="48.84377" lon="2.38274">
        <ele>114.2</ele>
        <time>2015-05-25T20:17:09.093Z</time>
      </trkpt>
      <trkpt lat="48.84383" lon="2.38265">
        <ele>114.3</ele>
        <time>2015-05-25T20:17:11.024Z</time>
      </trkpt>
      <trkpt lat="48.84387" lon="2.38261">
        <ele>114.3</ele>
        <time>2015-05-25T20:17:12.043Z</time>
      </trkpt>
      <trkpt lat="48.84391" lon="2.38256">
        <ele>114.6</ele>
        <time>2015-05-25T20:17:13.078Z</time>
      </trkpt>
      <trkpt lat="48.84395" lon="2.38251">
        <ele>114.7</ele>
        <time>2015-05-25T20:17:14.084Z</time>
      </trkpt>
      <trkpt lat="48.84399" lon="2.38241">
        <ele>114.9</ele>
        <time>2015-05-25T20:17:16.000Z</time>
      </trkpt>
      <trkpt lat="48.84401" lon="2.38237">
        <ele>115</ele>
        <time>2015-05-25T20:17:17.038Z</time>
      </trkpt>
      <trkpt lat="48.84402" lon="2.38231">
        <ele>114.7</ele>
        <time>2015-05-25T20:17:18.067Z</time>
      </trkpt>
      <trkpt lat="48.84399" lon="2.38221">
        <ele>113.7</ele>
        <time>2015-05-25T20:17:19.087Z</time>
      </trkpt>
      <trkpt lat="48.84399" lon="2.38213">
        <ele>113.3</ele>
        <time>2015-05-25T20:17:20.017Z</time>
      </trkpt>
      <trkpt lat="48.844" lon="2.38205">
        <ele>113</ele>
        <time>2015-05-25T20:17:21.142Z</time>
      </trkpt>
      <trkpt lat="48.84403" lon="2.382">
        <ele>112.8</ele>
        <time>2015-05-25T20:17:22.004Z</time>
      </trkpt>
      <trkpt lat="48.84405" lon="2.38194">
        <ele>112.9</ele>
        <time>2015-05-25T20:17:23.013Z</time>
      </trkpt>
      <trkpt lat="48.84406" lon="2.38186">
        <ele>113.7</ele>
        <time>2015-05-25T20:17:24.037Z</time>
      </trkpt>
      <trkpt lat="48.84407" lon="2.3818">
        <ele>114.5</ele>
        <time>2015-05-25T20:17:25.038Z</time>
      </trkpt>
      <trkpt lat="48.84412" lon="2.38168">
        <ele>115.5</ele>
        <time>2015-05-25T20:17:27.112Z</time>
      </trkpt>
      <trkpt lat="48.84415" lon="2.38162">
        <ele>115.5</ele>
        <time>2015-05-25T20:17:28.131Z</time>
      </trkpt>
      <trkpt lat="48.84418" lon="2.38157">
        <ele>115.5</ele>
        <time>2015-05-25T20:17:29.082Z</time>
      </trkpt>
      <trkpt lat="48.84421" lon="2.38152">
        <ele>115.2</ele>
        <time>2015-05-25T20:17:30.088Z</time>
      </trkpt>
      <trkpt lat="48.84427" lon="2.38144">
        <ele>113.3</ele>
        <time>2015-05-25T20:17:32.025Z</time>
      </trkpt>
      <trkpt lat="48.84428" lon="2.38141">
        <ele>113.2</ele>
        <time>2015-05-25T20:17:33.101Z</time>
      </trkpt>
      <trkpt lat="48.84434" lon="2.38134">
        <ele>113.3</ele>
        <time>2015-05-25T20:17:36.031Z</time>
      </trkpt>
      <trkpt lat="48.84436" lon="2.38132">
        <ele>113.2</ele>
        <time>2015-05-25T20:17:37.036Z</time>
      </trkpt>
      <trkpt lat="48.84442" lon="2.38121">
        <ele>113.1</ele>
        <time>2015-05-25T20:17:40.114Z</time>
      </trkpt>
      <trkpt lat="48.84444" lon="2.38119">
        <ele>113.1</ele>
        <time>2015-05-25T20:17:41.083Z</time>
      </trkpt>
      <trkpt lat="48.8445" lon="2.38112">
        <ele>111.8</ele>
        <time>2015-05-25T20:17:43.015Z</time>
      </trkpt>
      <trkpt lat="48.84453" lon="2.38106">
        <ele>110.7</ele>
        <time>2015-05-25T20:17:44.023Z</time>
      </trkpt>
      <trkpt lat="48.84459" lon="2.38095">
        <ele>109.8</ele>
        <time>2015-05-25T20:17:45.997Z</time>
      </trkpt>
      <trkpt lat="48.84461" lon="2.38091">
        <ele>109.7</ele>
        <time>2015-05-25T20:17:47.020Z</time>
      </trkpt>
      <trkpt lat="48.84466" lon="2.3808">
        <ele>109.2</ele>
        <time>2015-05-25T20:17:49.041Z</time>
      </trkpt>
      <trkpt lat="48.84469" lon="2.38074">
        <ele>108.4</ele>
        <time>2015-05-25T20:17:50.063Z</time>
      </trkpt>
      <trkpt lat="48.84474" lon="2.38064">
        <ele>107.1</ele>
        <time>2015-05-25T20:17:52.083Z</time>
      </trkpt>
      <trkpt lat="48.84476" lon="2.38058">
        <ele>106.5</ele>
        <time>2015-05-25T20:17:53.061Z</time>
      </trkpt>
      <trkpt lat="48.84481" lon="2.38048">
        <ele>105.6</ele>
        <time>2015-05-25T20:17:55.043Z</time>
      </trkpt>
      <trkpt lat="48.84484" lon="2.38043">
        <ele>105.6</ele>
        <time>2015-05-25T20:17:56.061Z</time>
      </trkpt>
      <trkpt lat="48.8449" lon="2.38035">
        <ele>105.6</ele>
        <time>2015-05-25T20:17:58.093Z</time>
      </trkpt>
      <trkpt lat="48.84493" lon="2.3803">
        <ele>105.7</ele>
        <time>2015-05-25T20:17:59.052Z</time>
      </trkpt>
      <trkpt lat="48.84499" lon="2.38021">
        <ele>105.4</ele>
        <time>2015-05-25T20:18:01.029Z</time>
      </trkpt>
      <trkpt lat="48.84503" lon="2.38017">
        <ele>105.6</ele>
        <time>2015-05-25T20:18:02.047Z</time>
      </trkpt>
      <trkpt lat="48.84509" lon="2.38009">
        <ele>106.1</ele>
        <time>2015-05-25T20:18:04.070Z</time>
      </trkpt>
      <trkpt lat="48.84512" lon="2.38007">
        <ele>106.2</ele>
        <time>2015-05-25T20:18:05.089Z</time>
      </trkpt>
      <trkpt lat="48.84518" lon="2.37998">
        <ele>106.8</ele>
        <time>2015-05-25T20:18:07.024Z</time>
      </trkpt>
      <trkpt lat="48.8452" lon="2.37994">
        <ele>107.3</ele>
        <time>2015-05-25T20:18:08.084Z</time>
      </trkpt>
      <trkpt lat="48.84525" lon="2.37983">
        <ele>108</ele>
        <time>2015-05-25T20:18:10.064Z</time>
      </trkpt>
      <trkpt lat="48.84527" lon="2.37976">
        <ele>108</ele>
        <time>2015-05-25T20:18:11.076Z</time>
      </trkpt>
      <trkpt lat="48.8453" lon="2.37969">
        <ele>107.4</ele>
        <time>2015-05-25T20:18:12.015Z</time>
      </trkpt>
      <trkpt lat="48.84532" lon="2.37963">
        <ele>107.8</ele>
        <time>2015-05-25T20:18:13.014Z</time>
      </trkpt>
      <trkpt lat="48.84534" lon="2.37957">
        <ele>107.9</ele>
        <time>2015-05-25T20:18:14.036Z</time>
      </trkpt>
      <trkpt lat="48.84536" lon="2.3795">
        <ele>108.2</ele>
        <time>2015-05-25T20:18:15.076Z</time>
      </trkpt>
      <trkpt lat="48.84539" lon="2.37943">
        <ele>108.6</ele>
        <time>2015-05-25T20:18:16.094Z</time>
      </trkpt>
      <trkpt lat="48.84541" lon="2.37937">
        <ele>108.9</ele>
        <time>2015-05-25T20:18:16.987Z</time>
      </trkpt>
      <trkpt lat="48.84544" lon="2.3793">
        <ele>109.3</ele>
        <time>2015-05-25T20:18:18.009Z</time>
      </trkpt>
      <trkpt lat="48.84546" lon="2.37924">
        <ele>109.2</ele>
        <time>2015-05-25T20:18:19.021Z</time>
      </trkpt>
      <trkpt lat="48.8455" lon="2.37913">
        <ele>109.2</ele>
        <time>2015-05-25T20:18:21.120Z</time>
      </trkpt>
      <trkpt lat="48.84553" lon="2.37908">
        <ele>109.5</ele>
        <time>2015-05-25T20:18:22.051Z</time>
      </trkpt>
      <trkpt lat="48.84557" lon="2.37903">
        <ele>110</ele>
        <time>2015-05-25T20:18:23.052Z</time>
      </trkpt>
      <trkpt lat="48.8456" lon="2.37899">
        <ele>110.2</ele>
        <time>2015-05-25T20:18:24.066Z</time>
      </trkpt>
      <trkpt lat="48.84566" lon="2.3789">
        <ele>110.8</ele>
        <time>2015-05-25T20:18:26.085Z</time>
      </trkpt>
      <trkpt lat="48.8457" lon="2.37888">
        <ele>111.2</ele>
        <time>2015-05-25T20:18:27.086Z</time>
      </trkpt>
      <trkpt lat="48.84576" lon="2.37883">
        <ele>111.7</ele>
        <time>2015-05-25T20:18:29.035Z</time>
      </trkpt>
      <trkpt lat="48.84578" lon="2.37879">
        <ele>111.8</ele>
        <time>2015-05-25T20:18:30.018Z</time>
      </trkpt>
      <trkpt lat="48.84582" lon="2.37873">
        <ele>109.8</ele>
        <time>2015-05-25T20:18:31.074Z</time>
      </trkpt>
      <trkpt lat="48.84586" lon="2.37867">
        <ele>107.8</ele>
        <time>2015-05-25T20:18:32.079Z</time>
      </trkpt>
      <trkpt lat="48.8459" lon="2.37861">
        <ele>106</ele>
        <time>2015-05-25T20:18:33.087Z</time>
      </trkpt>
      <trkpt lat="48.84592" lon="2.37854">
        <ele>104.6</ele>
        <time>2015-05-25T20:18:34.092Z</time>
      </trkpt>
      <trkpt lat="48.84594" lon="2.37848">
        <ele>103.6</ele>
        <time>2015-05-25T20:18:35.013Z</time>
      </trkpt>
      <trkpt lat="48.84596" lon="2.37841">
        <ele>102.8</ele>
        <time>2015-05-25T20:18:36.007Z</time>
      </trkpt>
      <trkpt lat="48.84599" lon="2.37835">
        <ele>102.3</ele>
        <time>2015-05-25T20:18:37.012Z</time>
      </trkpt>
      <trkpt lat="48.84601" lon="2.37828">
        <ele>101.9</ele>
        <time>2015-05-25T20:18:38.026Z</time>
      </trkpt>
      <trkpt lat="48.84603" lon="2.37816">
        <ele>100.6</ele>
        <time>2015-05-25T20:18:40.071Z</time>
      </trkpt>
      <trkpt lat="48.84605" lon="2.3781">
        <ele>100.6</ele>
        <time>2015-05-25T20:18:41.100Z</time>
      </trkpt>
      <trkpt lat="48.84606" lon="2.37798">
        <ele>101</ele>
        <time>2015-05-25T20:18:43.037Z</time>
      </trkpt>
      <trkpt lat="48.84607" lon="2.37794">
        <ele>101.2</ele>
        <time>2015-05-25T20:18:44.057Z</time>
      </trkpt>
      <trkpt lat="48.84611" lon="2.37786">
        <ele>101.4</ele>
        <time>2015-05-25T20:18:46.001Z</time>
      </trkpt>
      <trkpt lat="48.84614" lon="2.37782">
        <ele>101.1</ele>
        <time>2015-05-25T20:18:47.025Z</time>
      </trkpt>
      <trkpt lat="48.84618" lon="2.37776">
        <ele>100.3</ele>
        <time>2015-05-25T20:18:49.055Z</time>
      </trkpt>
      <trkpt lat="48.8462" lon="2.37773">
        <ele>100.1</ele>
        <time>2015-05-25T20:18:50.062Z</time>
      </trkpt>
      <trkpt lat="48.84624" lon="2.37761">
        <ele>100.8</ele>
        <time>2015-05-25T20:18:53.114Z</time>
      </trkpt>
      <trkpt lat="48.84625" lon="2.37757">
        <ele>101.3</ele>
        <time>2015-05-25T20:18:54.045Z</time>
      </trkpt>
      <trkpt lat="48.84627" lon="2.37748">
        <ele>102.6</ele>
        <time>2015-05-25T20:18:56.025Z</time>
      </trkpt>
      <trkpt lat="48.84628" lon="2.37742">
        <ele>102.8</ele>
        <time>2015-05-25T20:18:57.095Z</time>
      </trkpt>
      <trkpt lat="48.8463" lon="2.37731">
        <ele>103.9</ele>
        <time>2015-05-25T20:18:59.020Z</time>
      </trkpt>
      <trkpt lat="48.84631" lon="2.37726">
        <ele>104.1</ele>
        <time>2015-05-25T20:19:00.118Z</time>
      </trkpt>
      <trkpt lat="48.84633" lon="2.37718">
        <ele>105</ele>
        <time>2015-05-25T20:19:02.058Z</time>
      </trkpt>
      <trkpt lat="48.84634" lon="2.37714">
        <ele>105.4</ele>
        <time>2015-05-25T20:19:03.068Z</time>
      </trkpt>
      <trkpt lat="48.84639" lon="2.37703">
        <ele>106.8</ele>
        <time>2015-05-25T20:19:05.083Z</time>
      </trkpt>
      <trkpt lat="48.84641" lon="2.37698">
        <ele>107.5</ele>
        <time>2015-05-25T20:19:06.092Z</time>
      </trkpt>
      <trkpt lat="48.84645" lon="2.37688">
        <ele>109.1</ele>
        <time>2015-05-25T20:19:08.018Z</time>
      </trkpt>
      <trkpt lat="48.84647" lon="2.37684">
        <ele>109.7</ele>
        <time>2015-05-25T20:19:09.095Z</time>
      </trkpt>
      <trkpt lat="48.84653" lon="2.37675">
        <ele>110.7</ele>
        <time>2015-05-25T20:19:11.022Z</time>
      </trkpt>
      <trkpt lat="48.84655" lon="2.3767">
        <ele>111.1</ele>
        <time>2015-05-25T20:19:12.043Z</time>
      </trkpt>
      <trkpt lat="48.8466" lon="2.37659">
        <ele>111.3</ele>
        <time>2015-05-25T20:19:14.079Z</time>
      </trkpt>
      <trkpt lat="48.84662" lon="2.37653">
        <ele>111.5</ele>
        <time>2015-05-25T20:19:15.097Z</time>
      </trkpt>
      <trkpt lat="48.84664" lon="2.37648">
        <ele>111.8</ele>
        <time>2015-05-25T20:19:16.036Z</time>
      </trkpt>
      <trkpt lat="48.84668" lon="2.37643">
        <ele>111.9</ele>
        <time>2015-05-25T20:19:17.037Z</time>
      </trkpt>
      <trkpt lat="48.84674" lon="2.37636">
        <ele>112.3</ele>
        <time>2015-05-25T20:19:19.070Z</time>
      </trkpt>
      <trkpt lat="48.84677" lon="2.37632">
        <ele>112.5</ele>
        <time>2015-05-25T20:19:20.033Z</time>
      </trkpt>
      <trkpt lat="48.84682" lon="2.37625">
        <ele>112.7</ele>
        <time>2015-05-25T20:19:22.089Z</time>
      </trkpt>
      <trkpt lat="48.84685" lon="2.37621">
        <ele>112.6</ele>
        <time>2015-05-25T20:19:23.106Z</time>
      </trkpt>
      <trkpt lat="48.84688" lon="2.37617">
        <ele>112.6</ele>
        <time>2015-05-25T20:19:24.059Z</time>
      </trkpt>
      <trkpt lat="48.84691" lon="2.37612">
        <ele>112.8</ele>
        <time>2015-05-25T20:19:25.061Z</time>
      </trkpt>
      <trkpt lat="48.84695" lon="2.37603">
        <ele>112.9</ele>
        <time>2015-05-25T20:19:27.088Z</time>
      </trkpt>
      <trkpt lat="48.84698" lon="2.37597">
        <ele>112.9</ele>
        <time>2015-05-25T20:19:28.101Z</time>
      </trkpt>
      <trkpt lat="48.84699" lon="2.3759">
        <ele>113</ele>
        <time>2015-05-25T20:19:29.019Z</time>
      </trkpt>
      <trkpt lat="48.84701" lon="2.37584">
        <ele>112.9</ele>
        <time>2015-05-25T20:19:30.014Z</time>
      </trkpt>
      <trkpt lat="48.84704" lon="2.37578">
        <ele>113.1</ele>
        <time>2015-05-25T20:19:31.062Z</time>
      </trkpt>
      <trkpt lat="48.84706" lon="2.37571">
        <ele>113.3</ele>
        <time>2015-05-25T20:19:32.071Z</time>
      </trkpt>
      <trkpt lat="48.84707" lon="2.37565">
        <ele>113.2</ele>
        <time>2015-05-25T20:19:33.083Z</time>
      </trkpt>
      <trkpt lat="48.84708" lon="2.37558">
        <ele>113.1</ele>
        <time>2015-05-25T20:19:34.099Z</time>
      </trkpt>
      <trkpt lat="48.84709" lon="2.37551">
        <ele>113</ele>
        <time>2015-05-25T20:19:35.127Z</time>
      </trkpt>
      <trkpt lat="48.84711" lon="2.37544">
        <ele>112.9</ele>
        <time>2015-05-25T20:19:36.031Z</time>
      </trkpt>
      <trkpt lat="48.84714" lon="2.37533">
        <ele>113</ele>
        <time>2015-05-25T20:19:37.356Z</time>
      </trkpt>
      <trkpt lat="48.84715" lon="2.37529">
        <ele>113.3</ele>
        <time>2015-05-25T20:19:39.117Z</time>
      </trkpt>
      <trkpt lat="48.84719" lon="2.3752">
        <ele>114.9</ele>
        <time>2015-05-25T20:19:43.100Z</time>
      </trkpt>
      <trkpt lat="48.8472" lon="2.37518">
        <ele>115.3</ele>
        <time>2015-05-25T20:19:44.076Z</time>
      </trkpt>
      <trkpt lat="48.84728" lon="2.3751">
        <ele>115.2</ele>
        <time>2015-05-25T20:19:47.050Z</time>
      </trkpt>
      <trkpt lat="48.84731" lon="2.37507">
        <ele>115.1</ele>
        <time>2015-05-25T20:19:48.030Z</time>
      </trkpt>
      <trkpt lat="48.84736" lon="2.375">
        <ele>115.1</ele>
        <time>2015-05-25T20:19:50.877Z</time>
      </trkpt>
      <trkpt lat="48.84738" lon="2.37496">
        <ele>115.1</ele>
        <time>2015-05-25T20:19:51.100Z</time>
      </trkpt>
      <trkpt lat="48.84743" lon="2.37491">
        <ele>115</ele>
        <time>2015-05-25T20:19:53.022Z</time>
      </trkpt>
      <trkpt lat="48.84745" lon="2.37487">
        <ele>114.9</ele>
        <time>2015-05-25T20:19:54.021Z</time>
      </trkpt>
      <trkpt lat="48.84749" lon="2.37483">
        <ele>114.9</ele>
        <time>2015-05-25T20:19:55.024Z</time>
      </trkpt>
      <trkpt lat="48.84754" lon="2.37479">
        <ele>114.7</ele>
        <time>2015-05-25T20:19:56.043Z</time>
      </trkpt>
      <trkpt lat="48.84759" lon="2.37475">
        <ele>114.5</ele>
        <time>2015-05-25T20:19:57.052Z</time>
      </trkpt>
      <trkpt lat="48.84764" lon="2.3747">
        <ele>114.3</ele>
        <time>2015-05-25T20:19:58.055Z</time>
      </trkpt>
      <trkpt lat="48.84769" lon="2.37465">
        <ele>114.4</ele>
        <time>2015-05-25T20:19:59.084Z</time>
      </trkpt>
      <trkpt lat="48.84773" lon="2.3746">
        <ele>114.3</ele>
        <time>2015-05-25T20:20:00.103Z</time>
      </trkpt>
      <trkpt lat="48.84778" lon="2.37455">
        <ele>114.2</ele>
        <time>2015-05-25T20:20:01.091Z</time>
      </trkpt>
      <trkpt lat="48.84783" lon="2.37451">
        <ele>114.3</ele>
        <time>2015-05-25T20:20:02.010Z</time>
      </trkpt>
      <trkpt lat="48.84788" lon="2.37448">
        <ele>114.5</ele>
        <time>2015-05-25T20:20:03.125Z</time>
      </trkpt>
      <trkpt lat="48.84793" lon="2.37445">
        <ele>114.4</ele>
        <time>2015-05-25T20:20:03.978Z</time>
      </trkpt>
      <trkpt lat="48.848" lon="2.37437">
        <ele>113.2</ele>
        <time>2015-05-25T20:20:06.000Z</time>
      </trkpt>
      <trkpt lat="48.84799" lon="2.37429">
        <ele>111.7</ele>
        <time>2015-05-25T20:20:07.014Z</time>
      </trkpt>
      <trkpt lat="48.84797" lon="2.37419">
        <ele>110.2</ele>
        <time>2015-05-25T20:20:08.025Z</time>
      </trkpt>
      <trkpt lat="48.84796" lon="2.37411">
        <ele>109.5</ele>
        <time>2015-05-25T20:20:09.059Z</time>
      </trkpt>
      <trkpt lat="48.848" lon="2.37401">
        <ele>110</ele>
        <time>2015-05-25T20:20:11.074Z</time>
      </trkpt>
      <trkpt lat="48.84801" lon="2.37397">
        <ele>110.3</ele>
        <time>2015-05-25T20:20:12.081Z</time>
      </trkpt>
      <trkpt lat="48.84804" lon="2.37386">
        <ele>111.4</ele>
        <time>2015-05-25T20:20:14.017Z</time>
      </trkpt>
      <trkpt lat="48.84806" lon="2.37381">
        <ele>111.7</ele>
        <time>2015-05-25T20:20:15.086Z</time>
      </trkpt>
      <trkpt lat="48.84809" lon="2.37374">
        <ele>111.7</ele>
        <time>2015-05-25T20:20:16.101Z</time>
      </trkpt>
      <trkpt lat="48.84811" lon="2.37367">
        <ele>111.7</ele>
        <time>2015-05-25T20:20:17.167Z</time>
      </trkpt>
      <trkpt lat="48.84815" lon="2.3736">
        <ele>111.9</ele>
        <time>2015-05-25T20:20:18.017Z</time>
      </trkpt>
      <trkpt lat="48.84817" lon="2.37353">
        <ele>112.1</ele>
        <time>2015-05-25T20:20:19.045Z</time>
      </trkpt>
      <trkpt lat="48.84819" lon="2.37346">
        <ele>112.4</ele>
        <time>2015-05-25T20:20:20.059Z</time>
      </trkpt>
      <trkpt lat="48.84822" lon="2.37339">
        <ele>112.6</ele>
        <time>2015-05-25T20:20:21.072Z</time>
      </trkpt>
      <trkpt lat="48.84824" lon="2.37332">
        <ele>112.7</ele>
        <time>2015-05-25T20:20:22.091Z</time>
      </trkpt>
      <trkpt lat="48.84827" lon="2.37326">
        <ele>112.9</ele>
        <time>2015-05-25T20:20:23.000Z</time>
      </trkpt>
      <trkpt lat="48.8483" lon="2.37322">
        <ele>113.2</ele>
        <time>2015-05-25T20:20:24.008Z</time>
      </trkpt>
      <trkpt lat="48.84834" lon="2.37317">
        <ele>113.4</ele>
        <time>2015-05-25T20:20:25.107Z</time>
      </trkpt>
      <trkpt lat="48.84841" lon="2.37308">
        <ele>113.4</ele>
        <time>2015-05-25T20:20:27.097Z</time>
      </trkpt>
      <trkpt lat="48.84843" lon="2.37302">
        <ele>113.3</ele>
        <time>2015-05-25T20:20:28.027Z</time>
      </trkpt>
      <trkpt lat="48.84847" lon="2.37292">
        <ele>113.2</ele>
        <time>2015-05-25T20:20:30.080Z</time>
      </trkpt>
      <trkpt lat="48.84849" lon="2.37284">
        <ele>112.9</ele>
        <time>2015-05-25T20:20:31.095Z</time>
      </trkpt>
      <trkpt lat="48.84851" lon="2.37276">
        <ele>112.8</ele>
        <time>2015-05-25T20:20:31.985Z</time>
      </trkpt>
      <trkpt lat="48.84853" lon="2.3727">
        <ele>112.5</ele>
        <time>2015-05-25T20:20:33.058Z</time>
      </trkpt>
      <trkpt lat="48.84855" lon="2.37258">
        <ele>112</ele>
        <time>2015-05-25T20:20:35.073Z</time>
      </trkpt>
      <trkpt lat="48.84857" lon="2.37252">
        <ele>112.3</ele>
        <time>2015-05-25T20:20:36.107Z</time>
      </trkpt>
      <trkpt lat="48.84863" lon="2.37242">
        <ele>111.7</ele>
        <time>2015-05-25T20:20:38.017Z</time>
      </trkpt>
      <trkpt lat="48.84866" lon="2.37239">
        <ele>111.3</ele>
        <time>2015-05-25T20:20:39.090Z</time>
      </trkpt>
      <trkpt lat="48.8487" lon="2.37234">
        <ele>111.5</ele>
        <time>2015-05-25T20:20:40.020Z</time>
      </trkpt>
      <trkpt lat="48.84872" lon="2.37228">
        <ele>111.5</ele>
        <time>2015-05-25T20:20:41.009Z</time>
      </trkpt>
      <trkpt lat="48.84878" lon="2.3722">
        <ele>112.2</ele>
        <time>2015-05-25T20:20:43.025Z</time>
      </trkpt>
      <trkpt lat="48.84882" lon="2.37216">
        <ele>112.4</ele>
        <time>2015-05-25T20:20:44.030Z</time>
      </trkpt>
      <trkpt lat="48.84888" lon="2.37209">
        <ele>112.5</ele>
        <time>2015-05-25T20:20:46.061Z</time>
      </trkpt>
      <trkpt lat="48.84891" lon="2.37203">
        <ele>112.5</ele>
        <time>2015-05-25T20:20:47.054Z</time>
      </trkpt>
      <trkpt lat="48.84893" lon="2.37197">
        <ele>112.3</ele>
        <time>2015-05-25T20:20:47.970Z</time>
      </trkpt>
      <trkpt lat="48.84895" lon="2.37191">
        <ele>111.9</ele>
        <time>2015-05-25T20:20:49.005Z</time>
      </trkpt>
      <trkpt lat="48.84898" lon="2.37184">
        <ele>111.3</ele>
        <time>2015-05-25T20:20:50.005Z</time>
      </trkpt>
      <trkpt lat="48.84902" lon="2.37178">
        <ele>111.1</ele>
        <time>2015-05-25T20:20:51.039Z</time>
      </trkpt>
      <trkpt lat="48.84904" lon="2.37172">
        <ele>110.9</ele>
        <time>2015-05-25T20:20:52.034Z</time>
      </trkpt>
      <trkpt lat="48.84906" lon="2.37166">
        <ele>110.6</ele>
        <time>2015-05-25T20:20:53.048Z</time>
      </trkpt>
      <trkpt lat="48.8491" lon="2.37157">
        <ele>110.5</ele>
        <time>2015-05-25T20:20:55.003Z</time>
      </trkpt>
      <trkpt lat="48.84912" lon="2.37152">
        <ele>110.2</ele>
        <time>2015-05-25T20:20:55.999Z</time>
      </trkpt>
      <trkpt lat="48.84916" lon="2.37142">
        <ele>109.4</ele>
        <time>2015-05-25T20:20:58.079Z</time>
      </trkpt>
      <trkpt lat="48.84919" lon="2.37137">
        <ele>109.3</ele>
        <time>2015-05-25T20:20:58.974Z</time>
      </trkpt>
      <trkpt lat="48.84923" lon="2.37132">
        <ele>109.6</ele>
        <time>2015-05-25T20:21:00.022Z</time>
      </trkpt>
      <trkpt lat="48.84927" lon="2.37126">
        <ele>109.6</ele>
        <time>2015-05-25T20:21:01.045Z</time>
      </trkpt>
      <trkpt lat="48.84931" lon="2.37119">
        <ele>109.8</ele>
        <time>2015-05-25T20:21:02.065Z</time>
      </trkpt>
      <trkpt lat="48.84935" lon="2.37114">
        <ele>109.9</ele>
        <time>2015-05-25T20:21:03.108Z</time>
      </trkpt>
      <trkpt lat="48.84939" lon="2.37109">
        <ele>110.3</ele>
        <time>2015-05-25T20:21:03.598Z</time>
      </trkpt>
      <trkpt lat="48.84942" lon="2.37105">
        <ele>110.7</ele>
        <time>2015-05-25T20:21:05.004Z</time>
      </trkpt>
      <trkpt lat="48.84947" lon="2.37101">
        <ele>111</ele>
        <time>2015-05-25T20:21:06.044Z</time>
      </trkpt>
      <trkpt lat="48.84952" lon="2.37096">
        <ele>111</ele>
        <time>2015-05-25T20:21:07.086Z</time>
      </trkpt>
      <trkpt lat="48.84957" lon="2.37092">
        <ele>110.9</ele>
        <time>2015-05-25T20:21:08.089Z</time>
      </trkpt>
      <trkpt lat="48.84962" lon="2.37088">
        <ele>111.1</ele>
        <time>2015-05-25T20:21:09.107Z</time>
      </trkpt>
      <trkpt lat="48.84968" lon="2.37084">
        <ele>111.5</ele>
        <time>2015-05-25T20:21:10.013Z</time>
      </trkpt>
      <trkpt lat="48.84973" lon="2.37081">
        <ele>111.8</ele>
        <time>2015-05-25T20:21:11.010Z</time>
      </trkpt>
      <trkpt lat="48.84977" lon="2.37076">
        <ele>112.5</ele>
        <time>2015-05-25T20:21:12.135Z</time>
      </trkpt>
      <trkpt lat="48.84982" lon="2.37071">
        <ele>113.1</ele>
        <time>2015-05-25T20:21:13.010Z</time>
      </trkpt>
      <trkpt lat="48.84986" lon="2.37067">
        <ele>113.4</ele>
        <time>2015-05-25T20:21:14.062Z</time>
      </trkpt>
      <trkpt lat="48.84991" lon="2.37062">
        <ele>114</ele>
        <time>2015-05-25T20:21:15.129Z</time>
      </trkpt>
      <trkpt lat="48.84996" lon="2.37059">
        <ele>114.2</ele>
        <time>2015-05-25T20:21:16.085Z</time>
      </trkpt>
      <trkpt lat="48.85001" lon="2.37056">
        <ele>114.4</ele>
        <time>2015-05-25T20:21:17.050Z</time>
      </trkpt>
      <trkpt lat="48.85005" lon="2.37051">
        <ele>114.7</ele>
        <time>2015-05-25T20:21:18.058Z</time>
      </trkpt>
      <trkpt lat="48.8501" lon="2.37049">
        <ele>115.2</ele>
        <time>2015-05-25T20:21:19.144Z</time>
      </trkpt>
      <trkpt lat="48.85015" lon="2.37045">
        <ele>115.4</ele>
        <time>2015-05-25T20:21:19.985Z</time>
      </trkpt>
      <trkpt lat="48.85019" lon="2.37044">
        <ele>115.5</ele>
        <time>2015-05-25T20:21:21.091Z</time>
      </trkpt>
      <trkpt lat="48.85024" lon="2.37043">
        <ele>116.1</ele>
        <time>2015-05-25T20:21:22.047Z</time>
      </trkpt>
      <trkpt lat="48.85029" lon="2.37041">
        <ele>116</ele>
        <time>2015-05-25T20:21:23.042Z</time>
      </trkpt>
      <trkpt lat="48.85035" lon="2.3704">
        <ele>115.7</ele>
        <time>2015-05-25T20:21:24.061Z</time>
      </trkpt>
      <trkpt lat="48.8504" lon="2.37039">
        <ele>115.4</ele>
        <time>2015-05-25T20:21:25.073Z</time>
      </trkpt>
      <trkpt lat="48.85046" lon="2.37039">
        <ele>115.2</ele>
        <time>2015-05-25T20:21:26.085Z</time>
      </trkpt>
      <trkpt lat="48.8505" lon="2.37037">
        <ele>115.4</ele>
        <time>2015-05-25T20:21:27.094Z</time>
      </trkpt>
      <trkpt lat="48.85055" lon="2.37033">
        <ele>115.3</ele>
        <time>2015-05-25T20:21:28.021Z</time>
      </trkpt>
      <trkpt lat="48.85059" lon="2.37029">
        <ele>115.3</ele>
        <time>2015-05-25T20:21:29.064Z</time>
      </trkpt>
      <trkpt lat="48.85063" lon="2.37026">
        <ele>115.4</ele>
        <time>2015-05-25T20:21:30.076Z</time>
      </trkpt>
      <trkpt lat="48.85067" lon="2.37023">
        <ele>115.4</ele>
        <time>2015-05-25T20:21:31.096Z</time>
      </trkpt>
      <trkpt lat="48.85072" lon="2.3702">
        <ele>115.8</ele>
        <time>2015-05-25T20:21:32.109Z</time>
      </trkpt>
      <trkpt lat="48.85076" lon="2.37018">
        <ele>116.3</ele>
        <time>2015-05-25T20:21:33.119Z</time>
      </trkpt>
      <trkpt lat="48.85081" lon="2.37014">
        <ele>116.7</ele>
        <time>2015-05-25T20:21:34.016Z</time>
      </trkpt>
      <trkpt lat="48.85086" lon="2.37011">
        <ele>116.9</ele>
        <time>2015-05-25T20:21:35.029Z</time>
      </trkpt>
      <trkpt lat="48.8509" lon="2.37009">
        <ele>117.3</ele>
        <time>2015-05-25T20:21:36.050Z</time>
      </trkpt>
      <trkpt lat="48.85094" lon="2.37007">
        <ele>117.6</ele>
        <time>2015-05-25T20:21:37.057Z</time>
      </trkpt>
      <trkpt lat="48.85099" lon="2.37005">
        <ele>117.7</ele>
        <time>2015-05-25T20:21:38.073Z</time>
      </trkpt>
      <trkpt lat="48.85104" lon="2.37003">
        <ele>117.8</ele>
        <time>2015-05-25T20:21:39.103Z</time>
      </trkpt>
      <trkpt lat="48.85109" lon="2.37001">
        <ele>118.4</ele>
        <time>2015-05-25T20:21:40.024Z</time>
      </trkpt>
      <trkpt lat="48.85113" lon="2.36997">
        <ele>118.8</ele>
        <time>2015-05-25T20:21:41.022Z</time>
      </trkpt>
      <trkpt lat="48.85117" lon="2.36993">
        <ele>118.2</ele>
        <time>2015-05-25T20:21:42.327Z</time>
      </trkpt>
      <trkpt lat="48.85122" lon="2.3699">
        <ele>115.4</ele>
        <time>2015-05-25T20:21:43.065Z</time>
      </trkpt>
      <trkpt lat="48.8513" lon="2.36987">
        <ele>116</ele>
        <time>2015-05-25T20:21:45.101Z</time>
      </trkpt>
      <trkpt lat="48.85135" lon="2.36985">
        <ele>116.2</ele>
        <time>2015-05-25T20:21:46.037Z</time>
      </trkpt>
      <trkpt lat="48.85142" lon="2.36985">
        <ele>116.8</ele>
        <time>2015-05-25T20:21:48.035Z</time>
      </trkpt>
      <trkpt lat="48.85145" lon="2.36983">
        <ele>117.3</ele>
        <time>2015-05-25T20:21:49.049Z</time>
      </trkpt>
      <trkpt lat="48.85152" lon="2.36982">
        <ele>118.1</ele>
        <time>2015-05-25T20:21:51.086Z</time>
      </trkpt>
      <trkpt lat="48.85156" lon="2.36981">
        <ele>118.4</ele>
        <time>2015-05-25T20:21:51.980Z</time>
      </trkpt>
      <trkpt lat="48.85162" lon="2.36977">
        <ele>116.5</ele>
        <time>2015-05-25T20:21:54.044Z</time>
      </trkpt>
      <trkpt lat="48.85165" lon="2.36974">
        <ele>114.9</ele>
        <time>2015-05-25T20:21:54.984Z</time>
      </trkpt>
      <trkpt lat="48.85171" lon="2.36965">
        <ele>112.8</ele>
        <time>2015-05-25T20:21:58.058Z</time>
      </trkpt>
      <trkpt lat="48.85173" lon="2.36964">
        <ele>112.8</ele>
        <time>2015-05-25T20:21:59.006Z</time>
      </trkpt>
      <trkpt lat="48.85181" lon="2.36962">
        <ele>114.5</ele>
        <time>2015-05-25T20:26:21.098Z</time>
      </trkpt>
      <trkpt lat="48.852" lon="2.3697">
        <ele>109.9</ele>
        <time>2015-05-25T20:26:22.017Z</time>
      </trkpt>
      <trkpt lat="48.85198" lon="2.36966">
        <ele>109.7</ele>
        <time>2015-05-25T20:26:23.042Z</time>
      </trkpt>
      <trkpt lat="48.85199" lon="2.36966">
        <ele>109.7</ele>
        <time>2015-05-25T20:26:24.051Z</time>
      </trkpt>
      <trkpt lat="48.85199" lon="2.36965">
        <ele>110.6</ele>
        <time>2015-05-25T20:28:33.978Z</time>
      </trkpt>
      <trkpt lat="48.85231" lon="2.36966">
        <ele>94.8</ele>
        <time>2015-05-25T20:28:34.993Z</time>
      </trkpt>
      <trkpt lat="48.85238" lon="2.36962">
        <ele>93.9</ele>
        <time>2015-05-25T20:28:38.048Z</time>
      </trkpt>
      <trkpt lat="48.8524" lon="2.3696">
        <ele>93.8</ele>
        <time>2015-05-25T20:28:39.083Z</time>
      </trkpt>
      <trkpt lat="48.85249" lon="2.36957">
        <ele>92.5</ele>
        <time>2015-05-25T20:28:43.060Z</time>
      </trkpt>
      <trkpt lat="48.8525" lon="2.36955">
        <ele>92.4</ele>
        <time>2015-05-25T20:28:44.066Z</time>
      </trkpt>
      <trkpt lat="48.85257" lon="2.36949">
        <ele>92.7</ele>
        <time>2015-05-25T20:28:49.019Z</time>
      </trkpt>
      <trkpt lat="48.85258" lon="2.36948">
        <ele>92.5</ele>
        <time>2015-05-25T20:28:50.056Z</time>
      </trkpt>
      <trkpt lat="48.85265" lon="2.36941">
        <ele>88.7</ele>
        <time>2015-05-25T20:29:29.026Z</time>
      </trkpt>
      <trkpt lat="48.85267" lon="2.36938">
        <ele>88.7</ele>
        <time>2015-05-25T20:29:30.036Z</time>
      </trkpt>
      <trkpt lat="48.85268" lon="2.36925">
        <ele>88.6</ele>
        <time>2015-05-25T20:29:35.055Z</time>
      </trkpt>
      <trkpt lat="48.85266" lon="2.36922">
        <ele>88.8</ele>
        <time>2015-05-25T20:29:36.020Z</time>
      </trkpt>
      <trkpt lat="48.85263" lon="2.36912">
        <ele>90</ele>
        <time>2015-05-25T20:29:40.100Z</time>
      </trkpt>
      <trkpt lat="48.85263" lon="2.36908">
        <ele>89.7</ele>
        <time>2015-05-25T20:29:41.107Z</time>
      </trkpt>
      <trkpt lat="48.85265" lon="2.36897">
        <ele>90.2</ele>
        <time>2015-05-25T20:29:44.054Z</time>
      </trkpt>
      <trkpt lat="48.85266" lon="2.36892">
        <ele>90.5</ele>
        <time>2015-05-25T20:29:45.095Z</time>
      </trkpt>
      <trkpt lat="48.85267" lon="2.36879">
        <ele>91.8</ele>
        <time>2015-05-25T20:29:49.095Z</time>
      </trkpt>
      <trkpt lat="48.85266" lon="2.36876">
        <ele>91.9</ele>
        <time>2015-05-25T20:29:50.153Z</time>
      </trkpt>
      <trkpt lat="48.85267" lon="2.36865">
        <ele>92.6</ele>
        <time>2015-05-25T20:29:54.082Z</time>
      </trkpt>
      <trkpt lat="48.85267" lon="2.36861">
        <ele>92.9</ele>
        <time>2015-05-25T20:29:55.090Z</time>
      </trkpt>
      <trkpt lat="48.85267" lon="2.36848">
        <ele>93.1</ele>
        <time>2015-05-25T20:29:59.030Z</time>
      </trkpt>
      <trkpt lat="48.85268" lon="2.36845">
        <ele>93</ele>
        <time>2015-05-25T20:30:00.044Z</time>
      </trkpt>
      <trkpt lat="48.85268" lon="2.36832">
        <ele>93</ele>
        <time>2015-05-25T20:30:04.051Z</time>
      </trkpt>
      <trkpt lat="48.85268" lon="2.36829">
        <ele>93.3</ele>
        <time>2015-05-25T20:30:05.080Z</time>
      </trkpt>
      <trkpt lat="48.8527" lon="2.36816">
        <ele>93.8</ele>
        <time>2015-05-25T20:30:10.099Z</time>
      </trkpt>
      <trkpt lat="48.85269" lon="2.36815">
        <ele>93.9</ele>
        <time>2015-05-25T20:30:11.031Z</time>
      </trkpt>
      <trkpt lat="48.85268" lon="2.36814">
        <ele>93.8</ele>
        <time>2015-05-25T20:30:34.094Z</time>
      </trkpt>
      <trkpt lat="48.85285" lon="2.36817">
        <ele>89.6</ele>
        <time>2015-05-25T20:30:35.020Z</time>
      </trkpt>
      <trkpt lat="48.85292" lon="2.36822">
        <ele>90.3</ele>
        <time>2015-05-25T20:30:39.145Z</time>
      </trkpt>
      <trkpt lat="48.85294" lon="2.36822">
        <ele>90.6</ele>
        <time>2015-05-25T20:30:40.009Z</time>
      </trkpt>
      <trkpt lat="48.85302" lon="2.36823">
        <ele>90.6</ele>
        <time>2015-05-25T20:30:44.071Z</time>
      </trkpt>
      <trkpt lat="48.85304" lon="2.36824">
        <ele>90.4</ele>
        <time>2015-05-25T20:30:45.093Z</time>
      </trkpt>
      <trkpt lat="48.85307" lon="2.36824">
        <ele>90.7</ele>
        <time>2015-05-25T20:30:51.090Z</time>
      </trkpt>
      <trkpt lat="48.85314" lon="2.36815">
        <ele>90.7</ele>
        <time>2015-05-25T20:30:52.112Z</time>
      </trkpt>
      <trkpt lat="48.8532" lon="2.36811">
        <ele>90.7</ele>
        <time>2015-05-25T20:30:54.007Z</time>
      </trkpt>
      <trkpt lat="48.85323" lon="2.36808">
        <ele>90.8</ele>
        <time>2015-05-25T20:30:55.028Z</time>
      </trkpt>
      <trkpt lat="48.85328" lon="2.36805">
        <ele>91</ele>
        <time>2015-05-25T20:30:56.049Z</time>
      </trkpt>
      <trkpt lat="48.85333" lon="2.36802">
        <ele>91.4</ele>
        <time>2015-05-25T20:30:57.056Z</time>
      </trkpt>
      <trkpt lat="48.8534" lon="2.36795">
        <ele>92.2</ele>
        <time>2015-05-25T20:30:59.004Z</time>
      </trkpt>
      <trkpt lat="48.85344" lon="2.36786">
        <ele>90.3</ele>
        <time>2015-05-25T20:31:00.005Z</time>
      </trkpt>
      <trkpt lat="48.8534" lon="2.36775">
        <ele>88.2</ele>
        <time>2015-05-25T20:31:02.029Z</time>
      </trkpt>
      <trkpt lat="48.85337" lon="2.36771">
        <ele>87.8</ele>
        <time>2015-05-25T20:31:03.085Z</time>
      </trkpt>
      <trkpt lat="48.85339" lon="2.36763">
        <ele>86.1</ele>
        <time>2015-05-25T20:31:04.993Z</time>
      </trkpt>
      <trkpt lat="48.85344" lon="2.36758">
        <ele>84.8</ele>
        <time>2015-05-25T20:31:06.001Z</time>
      </trkpt>
      <trkpt lat="48.85349" lon="2.36754">
        <ele>84.3</ele>
        <time>2015-05-25T20:31:06.985Z</time>
      </trkpt>
      <trkpt lat="48.85353" lon="2.3675">
        <ele>83.6</ele>
        <time>2015-05-25T20:31:08.003Z</time>
      </trkpt>
      <trkpt lat="48.85358" lon="2.36745">
        <ele>83.2</ele>
        <time>2015-05-25T20:31:09.026Z</time>
      </trkpt>
      <trkpt lat="48.85363" lon="2.3674">
        <ele>82.8</ele>
        <time>2015-05-25T20:31:10.030Z</time>
      </trkpt>
      <trkpt lat="48.85369" lon="2.36735">
        <ele>82</ele>
        <time>2015-05-25T20:31:11.036Z</time>
      </trkpt>
      <trkpt lat="48.85372" lon="2.36731">
        <ele>81.9</ele>
        <time>2015-05-25T20:31:12.046Z</time>
      </trkpt>
      <trkpt lat="48.85369" lon="2.3672">
        <ele>81.2</ele>
        <time>2015-05-25T20:31:15.086Z</time>
      </trkpt>
      <trkpt lat="48.85369" lon="2.36714">
        <ele>80.8</ele>
        <time>2015-05-25T20:31:15.983Z</time>
      </trkpt>
      <trkpt lat="48.85369" lon="2.36704">
        <ele>80.1</ele>
        <time>2015-05-25T20:31:18.028Z</time>
      </trkpt>
      <trkpt lat="48.85369" lon="2.36698">
        <ele>79.9</ele>
        <time>2015-05-25T20:31:18.960Z</time>
      </trkpt>
      <trkpt lat="48.85372" lon="2.36688">
        <ele>79.5</ele>
        <time>2015-05-25T20:31:21.065Z</time>
      </trkpt>
      <trkpt lat="48.85373" lon="2.36684">
        <ele>79.3</ele>
        <time>2015-05-25T20:31:22.105Z</time>
      </trkpt>
      <trkpt lat="48.85375" lon="2.36675">
        <ele>78.3</ele>
        <time>2015-05-25T20:31:24.005Z</time>
      </trkpt>
      <trkpt lat="48.85375" lon="2.36669">
        <ele>78.1</ele>
        <time>2015-05-25T20:31:25.014Z</time>
      </trkpt>
      <trkpt lat="48.85371" lon="2.36663">
        <ele>78.1</ele>
        <time>2015-05-25T20:31:26.031Z</time>
      </trkpt>
      <trkpt lat="48.85368" lon="2.36657">
        <ele>78.3</ele>
        <time>2015-05-25T20:31:27.046Z</time>
      </trkpt>
      <trkpt lat="48.85369" lon="2.36645">
        <ele>79.8</ele>
        <time>2015-05-25T20:31:29.082Z</time>
      </trkpt>
      <trkpt lat="48.8537" lon="2.3664">
        <ele>80.2</ele>
        <time>2015-05-25T20:31:29.988Z</time>
      </trkpt>
      <trkpt lat="48.85373" lon="2.36631">
        <ele>80.9</ele>
        <time>2015-05-25T20:31:32.002Z</time>
      </trkpt>
      <trkpt lat="48.85373" lon="2.36625">
        <ele>81.1</ele>
        <time>2015-05-25T20:31:33.037Z</time>
      </trkpt>
      <trkpt lat="48.85374" lon="2.36613">
        <ele>81.7</ele>
        <time>2015-05-25T20:31:35.052Z</time>
      </trkpt>
      <trkpt lat="48.85374" lon="2.36607">
        <ele>82</ele>
        <time>2015-05-25T20:31:36.261Z</time>
      </trkpt>
      <trkpt lat="48.85375" lon="2.36594">
        <ele>82.4</ele>
        <time>2015-05-25T20:31:38.035Z</time>
      </trkpt>
      <trkpt lat="48.85374" lon="2.36587">
        <ele>82.8</ele>
        <time>2015-05-25T20:31:39.041Z</time>
      </trkpt>
      <trkpt lat="48.85374" lon="2.3658">
        <ele>83.4</ele>
        <time>2015-05-25T20:31:40.069Z</time>
      </trkpt>
      <trkpt lat="48.85376" lon="2.36573">
        <ele>83.5</ele>
        <time>2015-05-25T20:31:41.075Z</time>
      </trkpt>
      <trkpt lat="48.85377" lon="2.3656">
        <ele>83.1</ele>
        <time>2015-05-25T20:31:43.012Z</time>
      </trkpt>
      <trkpt lat="48.85378" lon="2.36554">
        <ele>83.6</ele>
        <time>2015-05-25T20:31:44.010Z</time>
      </trkpt>
      <trkpt lat="48.8538" lon="2.36547">
        <ele>84.1</ele>
        <time>2015-05-25T20:31:45.054Z</time>
      </trkpt>
      <trkpt lat="48.85382" lon="2.36541">
        <ele>84.4</ele>
        <time>2015-05-25T20:31:46.056Z</time>
      </trkpt>
      <trkpt lat="48.85383" lon="2.36534">
        <ele>85</ele>
        <time>2015-05-25T20:31:47.064Z</time>
      </trkpt>
      <trkpt lat="48.85385" lon="2.36527">
        <ele>85.4</ele>
        <time>2015-05-25T20:31:48.077Z</time>
      </trkpt>
      <trkpt lat="48.85387" lon="2.36521">
        <ele>85.9</ele>
        <time>2015-05-25T20:31:48.978Z</time>
      </trkpt>
      <trkpt lat="48.85388" lon="2.36514">
        <ele>86.1</ele>
        <time>2015-05-25T20:31:49.992Z</time>
      </trkpt>
      <trkpt lat="48.8539" lon="2.36507">
        <ele>86.2</ele>
        <time>2015-05-25T20:31:51.060Z</time>
      </trkpt>
      <trkpt lat="48.85391" lon="2.365">
        <ele>86.4</ele>
        <time>2015-05-25T20:31:52.063Z</time>
      </trkpt>
      <trkpt lat="48.85392" lon="2.36493">
        <ele>86.8</ele>
        <time>2015-05-25T20:31:50.799Z</time>
      </trkpt>
      <trkpt lat="48.85394" lon="2.36486">
        <ele>87.3</ele>
        <time>2015-05-25T20:31:54.086Z</time>
      </trkpt>
      <trkpt lat="48.85396" lon="2.36479">
        <ele>87.7</ele>
        <time>2015-05-25T20:31:55.886Z</time>
      </trkpt>
      <trkpt lat="48.85397" lon="2.36472">
        <ele>88.3</ele>
        <time>2015-05-25T20:31:55.996Z</time>
      </trkpt>
      <trkpt lat="48.85398" lon="2.36465">
        <ele>88.5</ele>
        <time>2015-05-25T20:31:57.085Z</time>
      </trkpt>
      <trkpt lat="48.85399" lon="2.36459">
        <ele>88.7</ele>
        <time>2015-05-25T20:31:57.989Z</time>
      </trkpt>
      <trkpt lat="48.85401" lon="2.36452">
        <ele>88.9</ele>
        <time>2015-05-25T20:31:59.031Z</time>
      </trkpt>
      <trkpt lat="48.85403" lon="2.36445">
        <ele>89</ele>
        <time>2015-05-25T20:32:00.021Z</time>
      </trkpt>
      <trkpt lat="48.85406" lon="2.36438">
        <ele>89.5</ele>
        <time>2015-05-25T20:32:01.025Z</time>
      </trkpt>
      <trkpt lat="48.85409" lon="2.3643">
        <ele>89.8</ele>
        <time>2015-05-25T20:32:02.035Z</time>
      </trkpt>
      <trkpt lat="48.85412" lon="2.36425">
        <ele>90</ele>
        <time>2015-05-25T20:32:03.061Z</time>
      </trkpt>
      <trkpt lat="48.85414" lon="2.36418">
        <ele>90.1</ele>
        <time>2015-05-25T20:32:04.058Z</time>
      </trkpt>
      <trkpt lat="48.85417" lon="2.36412">
        <ele>90.4</ele>
        <time>2015-05-25T20:32:05.066Z</time>
      </trkpt>
      <trkpt lat="48.85421" lon="2.36406">
        <ele>91</ele>
        <time>2015-05-25T20:32:06.078Z</time>
      </trkpt>
      <trkpt lat="48.85424" lon="2.364">
        <ele>91.1</ele>
        <time>2015-05-25T20:32:07.087Z</time>
      </trkpt>
      <trkpt lat="48.85426" lon="2.36393">
        <ele>91.2</ele>
        <time>2015-05-25T20:32:07.996Z</time>
      </trkpt>
      <trkpt lat="48.85429" lon="2.36387">
        <ele>91.2</ele>
        <time>2015-05-25T20:32:09.038Z</time>
      </trkpt>
      <trkpt lat="48.85432" lon="2.36381">
        <ele>91.3</ele>
        <time>2015-05-25T20:32:10.056Z</time>
      </trkpt>
      <trkpt lat="48.85436" lon="2.36376">
        <ele>91.4</ele>
        <time>2015-05-25T20:32:10.999Z</time>
      </trkpt>
      <trkpt lat="48.85439" lon="2.3637">
        <ele>91.9</ele>
        <time>2015-05-25T20:32:12.002Z</time>
      </trkpt>
      <trkpt lat="48.85439" lon="2.36363">
        <ele>92.1</ele>
        <time>2015-05-25T20:32:13.005Z</time>
      </trkpt>
      <trkpt lat="48.85442" lon="2.36357">
        <ele>92.4</ele>
        <time>2015-05-25T20:32:14.009Z</time>
      </trkpt>
      <trkpt lat="48.85446" lon="2.36346">
        <ele>92.9</ele>
        <time>2015-05-25T20:32:16.036Z</time>
      </trkpt>
      <trkpt lat="48.8545" lon="2.3634">
        <ele>93.3</ele>
        <time>2015-05-25T20:32:17.046Z</time>
      </trkpt>
      <trkpt lat="48.85453" lon="2.36334">
        <ele>93.5</ele>
        <time>2015-05-25T20:32:17.988Z</time>
      </trkpt>
      <trkpt lat="48.85456" lon="2.36328">
        <ele>94</ele>
        <time>2015-05-25T20:32:18.996Z</time>
      </trkpt>
      <trkpt lat="48.8546" lon="2.36322">
        <ele>94.5</ele>
        <time>2015-05-25T20:32:20.002Z</time>
      </trkpt>
      <trkpt lat="48.85465" lon="2.36317">
        <ele>94.7</ele>
        <time>2015-05-25T20:32:21.038Z</time>
      </trkpt>
      <trkpt lat="48.85471" lon="2.36309">
        <ele>95</ele>
        <time>2015-05-25T20:32:23.063Z</time>
      </trkpt>
      <trkpt lat="48.85475" lon="2.36304">
        <ele>95.2</ele>
        <time>2015-05-25T20:32:24.086Z</time>
      </trkpt>
      <trkpt lat="48.85478" lon="2.36293">
        <ele>94.5</ele>
        <time>2015-05-25T20:32:26.016Z</time>
      </trkpt>
      <trkpt lat="48.85479" lon="2.36284">
        <ele>92.3</ele>
        <time>2015-05-25T20:32:27.036Z</time>
      </trkpt>
      <trkpt lat="48.85476" lon="2.36274">
        <ele>91.8</ele>
        <time>2015-05-25T20:32:28.075Z</time>
      </trkpt>
      <trkpt lat="48.85475" lon="2.36266">
        <ele>90.9</ele>
        <time>2015-05-25T20:32:29.086Z</time>
      </trkpt>
      <trkpt lat="48.85477" lon="2.36259">
        <ele>89.9</ele>
        <time>2015-05-25T20:32:29.995Z</time>
      </trkpt>
      <trkpt lat="48.8548" lon="2.36254">
        <ele>89.4</ele>
        <time>2015-05-25T20:32:31.006Z</time>
      </trkpt>
      <trkpt lat="48.85484" lon="2.36243">
        <ele>88.4</ele>
        <time>2015-05-25T20:32:33.040Z</time>
      </trkpt>
      <trkpt lat="48.85486" lon="2.36237">
        <ele>88.2</ele>
        <time>2015-05-25T20:32:34.041Z</time>
      </trkpt>
      <trkpt lat="48.85489" lon="2.36226">
        <ele>88.3</ele>
        <time>2015-05-25T20:32:35.991Z</time>
      </trkpt>
      <trkpt lat="48.85491" lon="2.36221">
        <ele>88.1</ele>
        <time>2015-05-25T20:32:37.111Z</time>
      </trkpt>
      <trkpt lat="48.85494" lon="2.3621">
        <ele>88</ele>
        <time>2015-05-25T20:32:39.077Z</time>
      </trkpt>
      <trkpt lat="48.85497" lon="2.36204">
        <ele>88</ele>
        <time>2015-05-25T20:32:40.014Z</time>
      </trkpt>
      <trkpt lat="48.85502" lon="2.36194">
        <ele>87.9</ele>
        <time>2015-05-25T20:32:41.990Z</time>
      </trkpt>
      <trkpt lat="48.85504" lon="2.36188">
        <ele>88.2</ele>
        <time>2015-05-25T20:32:43.026Z</time>
      </trkpt>
      <trkpt lat="48.85506" lon="2.36181">
        <ele>88</ele>
        <time>2015-05-25T20:32:44.066Z</time>
      </trkpt>
      <trkpt lat="48.85507" lon="2.36174">
        <ele>88.2</ele>
        <time>2015-05-25T20:32:45.074Z</time>
      </trkpt>
      <trkpt lat="48.8551" lon="2.36162">
        <ele>88.6</ele>
        <time>2015-05-25T20:32:46.985Z</time>
      </trkpt>
      <trkpt lat="48.85512" lon="2.36155">
        <ele>88.6</ele>
        <time>2015-05-25T20:32:48.086Z</time>
      </trkpt>
      <trkpt lat="48.85514" lon="2.36148">
        <ele>88.6</ele>
        <time>2015-05-25T20:32:48.988Z</time>
      </trkpt>
      <trkpt lat="48.85516" lon="2.36141">
        <ele>88.7</ele>
        <time>2015-05-25T20:32:49.985Z</time>
      </trkpt>
      <trkpt lat="48.85517" lon="2.36133">
        <ele>88.8</ele>
        <time>2015-05-25T20:32:51.047Z</time>
      </trkpt>
      <trkpt lat="48.85519" lon="2.36126">
        <ele>88.8</ele>
        <time>2015-05-25T20:32:52.050Z</time>
      </trkpt>
      <trkpt lat="48.8552" lon="2.36119">
        <ele>88.7</ele>
        <time>2015-05-25T20:32:53.073Z</time>
      </trkpt>
      <trkpt lat="48.85522" lon="2.36112">
        <ele>88.5</ele>
        <time>2015-05-25T20:32:53.958Z</time>
      </trkpt>
      <trkpt lat="48.85524" lon="2.36105">
        <ele>88.4</ele>
        <time>2015-05-25T20:32:54.993Z</time>
      </trkpt>
      <trkpt lat="48.85526" lon="2.36098">
        <ele>88.4</ele>
        <time>2015-05-25T20:32:56.013Z</time>
      </trkpt>
      <trkpt lat="48.85528" lon="2.3609">
        <ele>88.7</ele>
        <time>2015-05-25T20:32:57.026Z</time>
      </trkpt>
      <trkpt lat="48.8553" lon="2.36083">
        <ele>88.9</ele>
        <time>2015-05-25T20:32:58.030Z</time>
      </trkpt>
      <trkpt lat="48.85532" lon="2.36075">
        <ele>89</ele>
        <time>2015-05-25T20:32:59.058Z</time>
      </trkpt>
      <trkpt lat="48.85533" lon="2.36068">
        <ele>89.1</ele>
        <time>2015-05-25T20:33:00.072Z</time>
      </trkpt>
      <trkpt lat="48.85535" lon="2.3606">
        <ele>88.9</ele>
        <time>2015-05-25T20:33:00.959Z</time>
      </trkpt>
      <trkpt lat="48.85536" lon="2.36053">
        <ele>89</ele>
        <time>2015-05-25T20:33:01.969Z</time>
      </trkpt>
      <trkpt lat="48.85538" lon="2.36045">
        <ele>89.1</ele>
        <time>2015-05-25T20:33:03.112Z</time>
      </trkpt>
      <trkpt lat="48.8554" lon="2.36038">
        <ele>89.3</ele>
        <time>2015-05-25T20:33:03.959Z</time>
      </trkpt>
      <trkpt lat="48.85542" lon="2.3603">
        <ele>89.6</ele>
        <time>2015-05-25T20:33:04.982Z</time>
      </trkpt>
      <trkpt lat="48.85543" lon="2.36022">
        <ele>90</ele>
        <time>2015-05-25T20:33:06.044Z</time>
      </trkpt>
      <trkpt lat="48.85544" lon="2.36015">
        <ele>90</ele>
        <time>2015-05-25T20:33:07.077Z</time>
      </trkpt>
      <trkpt lat="48.85545" lon="2.36008">
        <ele>90.1</ele>
        <time>2015-05-25T20:33:08.070Z</time>
      </trkpt>
      <trkpt lat="48.85547" lon="2.36001">
        <ele>89.9</ele>
        <time>2015-05-25T20:33:09.094Z</time>
      </trkpt>
      <trkpt lat="48.85549" lon="2.35993">
        <ele>89.9</ele>
        <time>2015-05-25T20:33:09.987Z</time>
      </trkpt>
      <trkpt lat="48.8555" lon="2.35986">
        <ele>89.8</ele>
        <time>2015-05-25T20:33:11.013Z</time>
      </trkpt>
      <trkpt lat="48.85552" lon="2.35979">
        <ele>89.7</ele>
        <time>2015-05-25T20:33:12.015Z</time>
      </trkpt>
      <trkpt lat="48.85554" lon="2.35972">
        <ele>89.2</ele>
        <time>2015-05-25T20:33:13.024Z</time>
      </trkpt>
      <trkpt lat="48.85555" lon="2.35965">
        <ele>88.9</ele>
        <time>2015-05-25T20:33:14.030Z</time>
      </trkpt>
      <trkpt lat="48.85557" lon="2.35958">
        <ele>88.4</ele>
        <time>2015-05-25T20:33:15.045Z</time>
      </trkpt>
      <trkpt lat="48.85559" lon="2.35951">
        <ele>88.4</ele>
        <time>2015-05-25T20:33:16.059Z</time>
      </trkpt>
      <trkpt lat="48.8556" lon="2.35944">
        <ele>88.3</ele>
        <time>2015-05-25T20:33:17.082Z</time>
      </trkpt>
      <trkpt lat="48.85561" lon="2.35936">
        <ele>88.2</ele>
        <time>2015-05-25T20:33:17.991Z</time>
      </trkpt>
      <trkpt lat="48.85562" lon="2.35929">
        <ele>88.5</ele>
        <time>2015-05-25T20:33:19.004Z</time>
      </trkpt>
      <trkpt lat="48.85564" lon="2.35922">
        <ele>88.9</ele>
        <time>2015-05-25T20:33:20.017Z</time>
      </trkpt>
      <trkpt lat="48.85565" lon="2.35914">
        <ele>88.9</ele>
        <time>2015-05-25T20:33:21.121Z</time>
      </trkpt>
      <trkpt lat="48.85566" lon="2.35907">
        <ele>88.7</ele>
        <time>2015-05-25T20:33:22.031Z</time>
      </trkpt>
      <trkpt lat="48.85567" lon="2.359">
        <ele>88.7</ele>
        <time>2015-05-25T20:33:23.063Z</time>
      </trkpt>
      <trkpt lat="48.85569" lon="2.35893">
        <ele>88.9</ele>
        <time>2015-05-25T20:33:24.071Z</time>
      </trkpt>
      <trkpt lat="48.85571" lon="2.35886">
        <ele>89.2</ele>
        <time>2015-05-25T20:33:24.989Z</time>
      </trkpt>
      <trkpt lat="48.85572" lon="2.35879">
        <ele>89.3</ele>
        <time>2015-05-25T20:33:26.001Z</time>
      </trkpt>
      <trkpt lat="48.85573" lon="2.35873">
        <ele>89.1</ele>
        <time>2015-05-25T20:33:27.048Z</time>
      </trkpt>
      <trkpt lat="48.85574" lon="2.35865">
        <ele>89.2</ele>
        <time>2015-05-25T20:33:28.060Z</time>
      </trkpt>
      <trkpt lat="48.85575" lon="2.35857">
        <ele>89.5</ele>
        <time>2015-05-25T20:33:29.069Z</time>
      </trkpt>
      <trkpt lat="48.85578" lon="2.35849">
        <ele>89.8</ele>
        <time>2015-05-25T20:33:29.993Z</time>
      </trkpt>
      <trkpt lat="48.85581" lon="2.35842">
        <ele>90</ele>
        <time>2015-05-25T20:33:30.972Z</time>
      </trkpt>
      <trkpt lat="48.85584" lon="2.35834">
        <ele>90.4</ele>
        <time>2015-05-25T20:33:31.992Z</time>
      </trkpt>
      <trkpt lat="48.85588" lon="2.35826">
        <ele>90.5</ele>
        <time>2015-05-25T20:33:33.038Z</time>
      </trkpt>
      <trkpt lat="48.85591" lon="2.35819">
        <ele>90.5</ele>
        <time>2015-05-25T20:33:34.033Z</time>
      </trkpt>
      <trkpt lat="48.85594" lon="2.35812">
        <ele>90.3</ele>
        <time>2015-05-25T20:33:35.040Z</time>
      </trkpt>
      <trkpt lat="48.85595" lon="2.35805">
        <ele>89.9</ele>
        <time>2015-05-25T20:33:36.054Z</time>
      </trkpt>
      <trkpt lat="48.85597" lon="2.35798">
        <ele>90.2</ele>
        <time>2015-05-25T20:33:37.062Z</time>
      </trkpt>
      <trkpt lat="48.85598" lon="2.35791">
        <ele>90</ele>
        <time>2015-05-25T20:33:38.073Z</time>
      </trkpt>
      <trkpt lat="48.856" lon="2.35784">
        <ele>90</ele>
        <time>2015-05-25T20:33:39.089Z</time>
      </trkpt>
      <trkpt lat="48.85601" lon="2.35777">
        <ele>89.7</ele>
        <time>2015-05-25T20:33:39.983Z</time>
      </trkpt>
      <trkpt lat="48.85603" lon="2.35769">
        <ele>89.6</ele>
        <time>2015-05-25T20:33:41.002Z</time>
      </trkpt>
      <trkpt lat="48.85604" lon="2.35762">
        <ele>89.6</ele>
        <time>2015-05-25T20:33:42.008Z</time>
      </trkpt>
      <trkpt lat="48.85607" lon="2.35754">
        <ele>90</ele>
        <time>2015-05-25T20:33:43.081Z</time>
      </trkpt>
      <trkpt lat="48.85608" lon="2.35747">
        <ele>90.1</ele>
        <time>2015-05-25T20:33:44.008Z</time>
      </trkpt>
      <trkpt lat="48.85611" lon="2.35741">
        <ele>89.9</ele>
        <time>2015-05-25T20:33:45.028Z</time>
      </trkpt>
      <trkpt lat="48.85613" lon="2.35735">
        <ele>89.8</ele>
        <time>2015-05-25T20:33:46.033Z</time>
      </trkpt>
      <trkpt lat="48.85615" lon="2.35728">
        <ele>89.8</ele>
        <time>2015-05-25T20:33:46.959Z</time>
      </trkpt>
      <trkpt lat="48.85616" lon="2.3572">
        <ele>90.1</ele>
        <time>2015-05-25T20:33:47.982Z</time>
      </trkpt>
      <trkpt lat="48.85618" lon="2.35712">
        <ele>90.4</ele>
        <time>2015-05-25T20:33:49.002Z</time>
      </trkpt>
      <trkpt lat="48.8562" lon="2.35704">
        <ele>90.6</ele>
        <time>2015-05-25T20:33:50.018Z</time>
      </trkpt>
      <trkpt lat="48.85623" lon="2.35697">
        <ele>90.4</ele>
        <time>2015-05-25T20:33:51.049Z</time>
      </trkpt>
      <trkpt lat="48.85625" lon="2.35689">
        <ele>90.5</ele>
        <time>2015-05-25T20:33:51.981Z</time>
      </trkpt>
      <trkpt lat="48.85627" lon="2.35681">
        <ele>90.7</ele>
        <time>2015-05-25T20:33:52.981Z</time>
      </trkpt>
      <trkpt lat="48.85628" lon="2.35673">
        <ele>90.8</ele>
        <time>2015-05-25T20:33:53.980Z</time>
      </trkpt>
      <trkpt lat="48.8563" lon="2.35664">
        <ele>91.1</ele>
        <time>2015-05-25T20:33:54.987Z</time>
      </trkpt>
      <trkpt lat="48.8563" lon="2.35656">
        <ele>91.2</ele>
        <time>2015-05-25T20:33:55.988Z</time>
      </trkpt>
      <trkpt lat="48.85631" lon="2.35647">
        <ele>91.8</ele>
        <time>2015-05-25T20:33:57.025Z</time>
      </trkpt>
      <trkpt lat="48.85633" lon="2.35639">
        <ele>91.8</ele>
        <time>2015-05-25T20:33:58.034Z</time>
      </trkpt>
      <trkpt lat="48.85634" lon="2.35631">
        <ele>91.6</ele>
        <time>2015-05-25T20:33:59.044Z</time>
      </trkpt>
      <trkpt lat="48.85636" lon="2.35623">
        <ele>91.9</ele>
        <time>2015-05-25T20:34:00.053Z</time>
      </trkpt>
      <trkpt lat="48.85638" lon="2.35615">
        <ele>91.8</ele>
        <time>2015-05-25T20:34:01.061Z</time>
      </trkpt>
      <trkpt lat="48.8564" lon="2.35606">
        <ele>91.8</ele>
        <time>2015-05-25T20:34:01.979Z</time>
      </trkpt>
      <trkpt lat="48.85642" lon="2.35598">
        <ele>92</ele>
        <time>2015-05-25T20:34:03.089Z</time>
      </trkpt>
      <trkpt lat="48.85646" lon="2.3559">
        <ele>92</ele>
        <time>2015-05-25T20:34:03.982Z</time>
      </trkpt>
      <trkpt lat="48.85649" lon="2.35583">
        <ele>91.4</ele>
        <time>2015-05-25T20:34:04.988Z</time>
      </trkpt>
      <trkpt lat="48.8565" lon="2.35574">
        <ele>91.3</ele>
        <time>2015-05-25T20:34:06.000Z</time>
      </trkpt>
      <trkpt lat="48.85652" lon="2.35566">
        <ele>91.3</ele>
        <time>2015-05-25T20:34:07.018Z</time>
      </trkpt>
      <trkpt lat="48.85653" lon="2.35557">
        <ele>91.2</ele>
        <time>2015-05-25T20:34:08.025Z</time>
      </trkpt>
      <trkpt lat="48.85655" lon="2.35549">
        <ele>90.8</ele>
        <time>2015-05-25T20:34:09.029Z</time>
      </trkpt>
      <trkpt lat="48.85658" lon="2.3554">
        <ele>90.8</ele>
        <time>2015-05-25T20:34:10.037Z</time>
      </trkpt>
      <trkpt lat="48.8566" lon="2.35532">
        <ele>91.1</ele>
        <time>2015-05-25T20:34:11.043Z</time>
      </trkpt>
      <trkpt lat="48.85661" lon="2.35522">
        <ele>91.2</ele>
        <time>2015-05-25T20:34:12.045Z</time>
      </trkpt>
      <trkpt lat="48.85663" lon="2.35513">
        <ele>91</ele>
        <time>2015-05-25T20:34:12.984Z</time>
      </trkpt>
      <trkpt lat="48.85665" lon="2.35504">
        <ele>90.7</ele>
        <time>2015-05-25T20:34:13.998Z</time>
      </trkpt>
      <trkpt lat="48.85667" lon="2.35495">
        <ele>90.4</ele>
        <time>2015-05-25T20:34:15.022Z</time>
      </trkpt>
      <trkpt lat="48.85669" lon="2.35486">
        <ele>90.4</ele>
        <time>2015-05-25T20:34:16.038Z</time>
      </trkpt>
      <trkpt lat="48.8567" lon="2.35478">
        <ele>90.4</ele>
        <time>2015-05-25T20:34:16.967Z</time>
      </trkpt>
      <trkpt lat="48.85673" lon="2.35469">
        <ele>90.5</ele>
        <time>2015-05-25T20:34:17.980Z</time>
      </trkpt>
      <trkpt lat="48.85675" lon="2.35459">
        <ele>90.6</ele>
        <time>2015-05-25T20:34:18.981Z</time>
      </trkpt>
      <trkpt lat="48.85678" lon="2.3545">
        <ele>90.5</ele>
        <time>2015-05-25T20:34:19.983Z</time>
      </trkpt>
      <trkpt lat="48.85681" lon="2.35441">
        <ele>90.5</ele>
        <time>2015-05-25T20:34:21.032Z</time>
      </trkpt>
      <trkpt lat="48.85683" lon="2.35432">
        <ele>90.6</ele>
        <time>2015-05-25T20:34:22.040Z</time>
      </trkpt>
      <trkpt lat="48.85685" lon="2.35422">
        <ele>90.6</ele>
        <time>2015-05-25T20:34:23.049Z</time>
      </trkpt>
      <trkpt lat="48.85687" lon="2.35413">
        <ele>90.5</ele>
        <time>2015-05-25T20:34:24.061Z</time>
      </trkpt>
      <trkpt lat="48.8569" lon="2.35404">
        <ele>90.6</ele>
        <time>2015-05-25T20:34:24.981Z</time>
      </trkpt>
      <trkpt lat="48.85693" lon="2.35395">
        <ele>90.9</ele>
        <time>2015-05-25T20:34:26.010Z</time>
      </trkpt>
      <trkpt lat="48.85696" lon="2.35385">
        <ele>91.1</ele>
        <time>2015-05-25T20:34:27.038Z</time>
      </trkpt>
      <trkpt lat="48.85699" lon="2.35377">
        <ele>91.2</ele>
        <time>2015-05-25T20:34:28.041Z</time>
      </trkpt>
      <trkpt lat="48.85701" lon="2.35367">
        <ele>90.9</ele>
        <time>2015-05-25T20:34:29.052Z</time>
      </trkpt>
      <trkpt lat="48.85702" lon="2.35357">
        <ele>90.8</ele>
        <time>2015-05-25T20:34:29.976Z</time>
      </trkpt>
      <trkpt lat="48.85704" lon="2.35348">
        <ele>90.3</ele>
        <time>2015-05-25T20:34:30.990Z</time>
      </trkpt>
      <trkpt lat="48.85705" lon="2.35339">
        <ele>89.8</ele>
        <time>2015-05-25T20:34:32.001Z</time>
      </trkpt>
      <trkpt lat="48.85708" lon="2.3533">
        <ele>89.8</ele>
        <time>2015-05-25T20:34:33.052Z</time>
      </trkpt>
      <trkpt lat="48.8571" lon="2.35321">
        <ele>89.6</ele>
        <time>2015-05-25T20:34:34.061Z</time>
      </trkpt>
      <trkpt lat="48.85712" lon="2.35311">
        <ele>89.5</ele>
        <time>2015-05-25T20:34:35.011Z</time>
      </trkpt>
      <trkpt lat="48.85714" lon="2.35302">
        <ele>89.5</ele>
        <time>2015-05-25T20:34:36.055Z</time>
      </trkpt>
      <trkpt lat="48.85717" lon="2.35293">
        <ele>89.7</ele>
        <time>2015-05-25T20:34:36.997Z</time>
      </trkpt>
      <trkpt lat="48.85719" lon="2.35283">
        <ele>89.9</ele>
        <time>2015-05-25T20:34:38.002Z</time>
      </trkpt>
      <trkpt lat="48.85721" lon="2.35274">
        <ele>90.1</ele>
        <time>2015-05-25T20:34:39.040Z</time>
      </trkpt>
      <trkpt lat="48.85723" lon="2.35265">
        <ele>89.9</ele>
        <time>2015-05-25T20:34:40.050Z</time>
      </trkpt>
      <trkpt lat="48.85724" lon="2.35256">
        <ele>89.9</ele>
        <time>2015-05-25T20:34:41.072Z</time>
      </trkpt>
      <trkpt lat="48.85726" lon="2.35248">
        <ele>89.6</ele>
        <time>2015-05-25T20:34:42.077Z</time>
      </trkpt>
      <trkpt lat="48.85728" lon="2.3524">
        <ele>89.2</ele>
        <time>2015-05-25T20:34:42.987Z</time>
      </trkpt>
      <trkpt lat="48.8573" lon="2.35231">
        <ele>89.1</ele>
        <time>2015-05-25T20:34:43.996Z</time>
      </trkpt>
      <trkpt lat="48.85733" lon="2.35222">
        <ele>89.5</ele>
        <time>2015-05-25T20:34:45.037Z</time>
      </trkpt>
      <trkpt lat="48.85735" lon="2.35214">
        <ele>89.3</ele>
        <time>2015-05-25T20:34:46.038Z</time>
      </trkpt>
      <trkpt lat="48.85737" lon="2.35206">
        <ele>89</ele>
        <time>2015-05-25T20:34:47.054Z</time>
      </trkpt>
      <trkpt lat="48.85738" lon="2.35198">
        <ele>88.7</ele>
        <time>2015-05-25T20:34:48.060Z</time>
      </trkpt>
      <trkpt lat="48.8574" lon="2.3519">
        <ele>88.6</ele>
        <time>2015-05-25T20:34:48.991Z</time>
      </trkpt>
      <trkpt lat="48.85741" lon="2.35182">
        <ele>88.7</ele>
        <time>2015-05-25T20:34:49.987Z</time>
      </trkpt>
      <trkpt lat="48.85743" lon="2.35174">
        <ele>88.9</ele>
        <time>2015-05-25T20:34:51.037Z</time>
      </trkpt>
      <trkpt lat="48.85745" lon="2.35167">
        <ele>88.8</ele>
        <time>2015-05-25T20:34:52.047Z</time>
      </trkpt>
      <trkpt lat="48.85746" lon="2.35159">
        <ele>88.8</ele>
        <time>2015-05-25T20:34:53.056Z</time>
      </trkpt>
      <trkpt lat="48.85748" lon="2.35152">
        <ele>88.8</ele>
        <time>2015-05-25T20:34:54.066Z</time>
      </trkpt>
      <trkpt lat="48.8575" lon="2.35145">
        <ele>88.8</ele>
        <time>2015-05-25T20:34:55.082Z</time>
      </trkpt>
      <trkpt lat="48.85752" lon="2.35136">
        <ele>89</ele>
        <time>2015-05-25T20:34:55.993Z</time>
      </trkpt>
      <trkpt lat="48.85754" lon="2.35128">
        <ele>89</ele>
        <time>2015-05-25T20:34:57.035Z</time>
      </trkpt>
      <trkpt lat="48.85757" lon="2.3512">
        <ele>89.3</ele>
        <time>2015-05-25T20:34:58.034Z</time>
      </trkpt>
      <trkpt lat="48.85759" lon="2.35112">
        <ele>89.7</ele>
        <time>2015-05-25T20:34:59.044Z</time>
      </trkpt>
      <trkpt lat="48.85762" lon="2.35105">
        <ele>89.8</ele>
        <time>2015-05-25T20:35:00.066Z</time>
      </trkpt>
      <trkpt lat="48.85764" lon="2.35097">
        <ele>89.7</ele>
        <time>2015-05-25T20:35:00.988Z</time>
      </trkpt>
      <trkpt lat="48.85766" lon="2.3509">
        <ele>89.8</ele>
        <time>2015-05-25T20:35:01.995Z</time>
      </trkpt>
      <trkpt lat="48.85769" lon="2.35082">
        <ele>90</ele>
        <time>2015-05-25T20:35:03.037Z</time>
      </trkpt>
      <trkpt lat="48.85771" lon="2.35074">
        <ele>90.1</ele>
        <time>2015-05-25T20:35:04.039Z</time>
      </trkpt>
      <trkpt lat="48.85774" lon="2.35066">
        <ele>90.4</ele>
        <time>2015-05-25T20:35:05.050Z</time>
      </trkpt>
      <trkpt lat="48.85777" lon="2.35058">
        <ele>90.3</ele>
        <time>2015-05-25T20:35:06.055Z</time>
      </trkpt>
      <trkpt lat="48.85779" lon="2.3505">
        <ele>90.2</ele>
        <time>2015-05-25T20:35:06.952Z</time>
      </trkpt>
      <trkpt lat="48.8578" lon="2.35041">
        <ele>90.5</ele>
        <time>2015-05-25T20:35:07.974Z</time>
      </trkpt>
      <trkpt lat="48.85783" lon="2.35034">
        <ele>90.8</ele>
        <time>2015-05-25T20:35:09.020Z</time>
      </trkpt>
      <trkpt lat="48.85785" lon="2.35026">
        <ele>91.2</ele>
        <time>2015-05-25T20:35:10.016Z</time>
      </trkpt>
      <trkpt lat="48.85787" lon="2.35018">
        <ele>91.4</ele>
        <time>2015-05-25T20:35:11.025Z</time>
      </trkpt>
      <trkpt lat="48.85788" lon="2.35011">
        <ele>91.2</ele>
        <time>2015-05-25T20:35:12.036Z</time>
      </trkpt>
      <trkpt lat="48.85791" lon="2.35003">
        <ele>91.2</ele>
        <time>2015-05-25T20:35:13.039Z</time>
      </trkpt>
      <trkpt lat="48.85793" lon="2.34996">
        <ele>90.9</ele>
        <time>2015-05-25T20:35:14.045Z</time>
      </trkpt>
      <trkpt lat="48.85794" lon="2.34986">
        <ele>91.2</ele>
        <time>2015-05-25T20:35:15.061Z</time>
      </trkpt>
      <trkpt lat="48.85797" lon="2.34979">
        <ele>90.9</ele>
        <time>2015-05-25T20:35:16.012Z</time>
      </trkpt>
      <trkpt lat="48.858" lon="2.34972">
        <ele>90.7</ele>
        <time>2015-05-25T20:35:16.994Z</time>
      </trkpt>
      <trkpt lat="48.85803" lon="2.34965">
        <ele>90.3</ele>
        <time>2015-05-25T20:35:17.997Z</time>
      </trkpt>
      <trkpt lat="48.85806" lon="2.34958">
        <ele>90</ele>
        <time>2015-05-25T20:35:19.034Z</time>
      </trkpt>
      <trkpt lat="48.85809" lon="2.34951">
        <ele>89.8</ele>
        <time>2015-05-25T20:35:20.040Z</time>
      </trkpt>
      <trkpt lat="48.85812" lon="2.34944">
        <ele>89.9</ele>
        <time>2015-05-25T20:35:21.040Z</time>
      </trkpt>
      <trkpt lat="48.85815" lon="2.34937">
        <ele>90.2</ele>
        <time>2015-05-25T20:35:22.046Z</time>
      </trkpt>
      <trkpt lat="48.85817" lon="2.34929">
        <ele>90.9</ele>
        <time>2015-05-25T20:35:23.060Z</time>
      </trkpt>
      <trkpt lat="48.85819" lon="2.34919">
        <ele>91.2</ele>
        <time>2015-05-25T20:35:24.064Z</time>
      </trkpt>
      <trkpt lat="48.85822" lon="2.34912">
        <ele>91.6</ele>
        <time>2015-05-25T20:35:25.006Z</time>
      </trkpt>
      <trkpt lat="48.85824" lon="2.34904">
        <ele>91.7</ele>
        <time>2015-05-25T20:35:25.985Z</time>
      </trkpt>
      <trkpt lat="48.85827" lon="2.34896">
        <ele>91.6</ele>
        <time>2015-05-25T20:35:27.037Z</time>
      </trkpt>
      <trkpt lat="48.8583" lon="2.34888">
        <ele>91.8</ele>
        <time>2015-05-25T20:35:28.031Z</time>
      </trkpt>
      <trkpt lat="48.85832" lon="2.34881">
        <ele>92</ele>
        <time>2015-05-25T20:35:29.041Z</time>
      </trkpt>
      <trkpt lat="48.85835" lon="2.34873">
        <ele>92.2</ele>
        <time>2015-05-25T20:35:30.050Z</time>
      </trkpt>
      <trkpt lat="48.85837" lon="2.34867">
        <ele>92.1</ele>
        <time>2015-05-25T20:35:31.054Z</time>
      </trkpt>
      <trkpt lat="48.8584" lon="2.34859">
        <ele>92.3</ele>
        <time>2015-05-25T20:35:32.092Z</time>
      </trkpt>
      <trkpt lat="48.85842" lon="2.34852">
        <ele>92.2</ele>
        <time>2015-05-25T20:35:33.116Z</time>
      </trkpt>
      <trkpt lat="48.85844" lon="2.34846">
        <ele>92.4</ele>
        <time>2015-05-25T20:35:33.988Z</time>
      </trkpt>
      <trkpt lat="48.85846" lon="2.34834">
        <ele>93.1</ele>
        <time>2015-05-25T20:35:37.018Z</time>
      </trkpt>
      <trkpt lat="48.85846" lon="2.34832">
        <ele>93.5</ele>
        <time>2015-05-25T20:35:38.055Z</time>
      </trkpt>
      <trkpt lat="48.85849" lon="2.3482">
        <ele>95.6</ele>
        <time>2015-05-25T20:35:44.043Z</time>
      </trkpt>
      <trkpt lat="48.85851" lon="2.34817">
        <ele>96</ele>
        <time>2015-05-25T20:35:45.056Z</time>
      </trkpt>
      <trkpt lat="48.85856" lon="2.34811">
        <ele>96.8</ele>
        <time>2015-05-25T20:35:48.032Z</time>
      </trkpt>
      <trkpt lat="48.85858" lon="2.34806">
        <ele>97.3</ele>
        <time>2015-05-25T20:35:49.040Z</time>
      </trkpt>
      <trkpt lat="48.85859" lon="2.348">
        <ele>97.6</ele>
        <time>2015-05-25T20:35:50.064Z</time>
      </trkpt>
      <trkpt lat="48.85861" lon="2.34792">
        <ele>97.7</ele>
        <time>2015-05-25T20:35:51.081Z</time>
      </trkpt>
      <trkpt lat="48.85862" lon="2.34785">
        <ele>97.9</ele>
        <time>2015-05-25T20:35:51.997Z</time>
      </trkpt>
      <trkpt lat="48.85864" lon="2.34777">
        <ele>98.1</ele>
        <time>2015-05-25T20:35:53.001Z</time>
      </trkpt>
      <trkpt lat="48.85867" lon="2.34766">
        <ele>98</ele>
        <time>2015-05-25T20:35:55.041Z</time>
      </trkpt>
      <trkpt lat="48.85869" lon="2.34761">
        <ele>98</ele>
        <time>2015-05-25T20:35:56.055Z</time>
      </trkpt>
      <trkpt lat="48.85874" lon="2.34751">
        <ele>98.6</ele>
        <time>2015-05-25T20:35:58.035Z</time>
      </trkpt>
      <trkpt lat="48.85876" lon="2.34747">
        <ele>98.8</ele>
        <time>2015-05-25T20:35:59.055Z</time>
      </trkpt>
      <trkpt lat="48.85882" lon="2.34738">
        <ele>99.2</ele>
        <time>2015-05-25T20:36:01.982Z</time>
      </trkpt>
      <trkpt lat="48.85884" lon="2.34738">
        <ele>99.3</ele>
        <time>2015-05-25T20:36:03.014Z</time>
      </trkpt>
      <trkpt lat="48.85893" lon="2.34738">
        <ele>99.9</ele>
        <time>2015-05-25T20:36:05.975Z</time>
      </trkpt>
      <trkpt lat="48.85896" lon="2.34739">
        <ele>100.2</ele>
        <time>2015-05-25T20:36:06.988Z</time>
      </trkpt>
      <trkpt lat="48.85903" lon="2.34736">
        <ele>100.6</ele>
        <time>2015-05-25T20:36:09.101Z</time>
      </trkpt>
      <trkpt lat="48.85906" lon="2.34733">
        <ele>100.8</ele>
        <time>2015-05-25T20:36:09.993Z</time>
      </trkpt>
      <trkpt lat="48.85912" lon="2.34728">
        <ele>101</ele>
        <time>2015-05-25T20:36:12.004Z</time>
      </trkpt>
      <trkpt lat="48.85915" lon="2.34725">
        <ele>101.1</ele>
        <time>2015-05-25T20:36:13.023Z</time>
      </trkpt>
      <trkpt lat="48.85918" lon="2.34723">
        <ele>101.1</ele>
        <time>2015-05-25T20:36:13.997Z</time>
      </trkpt>
      <trkpt lat="48.85925" lon="2.34721">
        <ele>99.1</ele>
        <time>2015-05-25T20:36:15.037Z</time>
      </trkpt>
      <trkpt lat="48.85933" lon="2.34719">
        <ele>97.7</ele>
        <time>2015-05-25T20:36:16.048Z</time>
      </trkpt>
      <trkpt lat="48.8594" lon="2.34718">
        <ele>96.7</ele>
        <time>2015-05-25T20:36:17.056Z</time>
      </trkpt>
      <trkpt lat="48.85949" lon="2.34719">
        <ele>97</ele>
        <time>2015-05-25T20:36:19.075Z</time>
      </trkpt>
      <trkpt lat="48.8595" lon="2.34719">
        <ele>97.1</ele>
        <time>2015-05-25T20:36:20.087Z</time>
      </trkpt>
      <trkpt lat="48.85958" lon="2.34725">
        <ele>99.2</ele>
        <time>2015-05-25T20:38:26.726Z</time>
      </trkpt>
    </trkseg>
  </trk>
</gpx>